# Wetter Temperatur Luftdruck Luftfeuchtigkeit Sichtweite Windgeschwindigkeit Windrichtung Zeit
1 Rain 3 978 72 4500 10.3 280 20:36 02.04.2020
2 Rain 3 977 72 10000 10.8 240 20:18 02.04.2020
3 Rain 3 977 93 10000 7.7 240 19:42 02.04.2020
4 Rain 3 978 86 10000 12.3 250 19:20 02.04.2020
5 Rain 3 978 86 10000 12.3 250 19:20 02.04.2020
6 Rain 4 978 86 10000 12.9 250 18:56 02.04.2020
7 Rain 7 978 65 10000 10.3 230 18:38 02.04.2020
8 Rain 6 978 65 10000 10.3 230 18:19 02.04.2020
9 Clouds 8 978 49 10000 9.3 210 17:43 02.04.2020
10 Clouds 9 980 49 10000 8.7 210 17:24 02.04.2020
11 Clouds 9 981 49 10000 7.7 210 16:59 02.04.2020
12 Clouds 9 981 49 10000 7.7 210 16:40 02.04.2020
13 Clouds 9 982 45 10000 8.2 230 16:22 02.04.2020
14 Clouds 8 983 45 10000 8.7 230 15:57 02.04.2020
15 Clouds 8 984 45 10000 10.3 230 15:39 02.04.2020
16 Clouds 8 984 45 10000 10.3 230 15:19 02.04.2020
17 Clear 8 984 45 10000 8.2 220 14:57 02.04.2020
18 Clear 8 984 45 10000 8.2 220 14:38 02.04.2020
19 Clouds 8 985 49 10000 8.2 230 14:18 02.04.2020
20 Clouds 8 986 49 10000 8.2 220 13:55 02.04.2020
21 Clouds 9 986 49 10000 8.2 210 13:37 02.04.2020
22 Clouds 9 986 49 10000 8.2 210 13:18 02.04.2020
23 Clouds 9 987 49 10000 7.2 210 12:45 02.04.2020
24 Clouds 9 987 49 10000 7.2 210 12:45 02.04.2020
25 Clouds 9 987 49 10000 6.7 230 12:20 02.04.2020
26 Clear 8 988 52 10000 6.2 230 11:58 02.04.2020
27 Clear 8 988 52 10000 6.2 230 11:39 02.04.2020
28 Clear 7 989 52 10000 7.2 230 11:20 02.04.2020
29 Clear 7 989 52 10000 7.2 230 11:20 02.04.2020
30 Clear 7 989 52 10000 6.2 250 10:57 02.04.2020
31 Clear 7 989 52 10000 6.2 250 10:38 02.04.2020
32 Clear 7 990 60 10000 6.2 250 10:20 02.04.2020
33 Clear 7 990 60 10000 6.2 250 10:20 02.04.2020
34 Clear 6 990 60 10000 7.2 260 09:59 02.04.2020
35 Clear 6 990 60 10000 7.2 260 09:41 02.04.2020
36 Clear 5 990 60 10000 5.7 250 09:21 02.04.2020
37 Clouds 5 991 78 10000 6.2 250 08:48 02.04.2020
38 Clouds 5 991 80 10000 5.1 250 08:28 02.04.2020
39 Clouds 4 991 80 10000 5.1 240 07:59 02.04.2020
40 Clouds 4 991 80 10000 5.1 240 07:40 02.04.2020
41 Clouds 4 991 80 10000 5.1 240 07:19 02.04.2020
42 Clouds 4 991 80 10000 5.1 240 06:25 02.04.2020
43 Clouds 4 991 80 10000 5.7 240 05:46 02.04.2020
44 Clouds 4 992 86 10000 6.2 240 04:58 02.04.2020
45 Clouds 5 993 80 10000 6.2 240 02:21 02.04.2020
46 Clouds 6 994 80 10000 4.6 230 01:27 02.04.2020
47 Clouds 6 994 80 10000 4.1 230 00:41 02.04.2020
48 Clouds 6 995 69 10000 4.1 230 00:19 02.04.2020
49 Clouds 6 995 69 10000 3.6 230 23:39 01.04.2020
50 Clouds 6 996 69 10000 3.6 230 23:19 01.04.2020
51 Clouds 6 996 69 10000 3.6 220 22:57 01.04.2020
52 Clouds 6 996 69 10000 3.6 220 22:38 01.04.2020
53 Clouds 6 996 69 10000 3.6 220 22:19 01.04.2020
54 Clouds 6 996 69 10000 3.6 220 22:19 01.04.2020
55 Clouds 6 996 69 10000 3.6 220 21:41 01.04.2020
56 Clouds 6 997 63 10000 3.1 220 21:19 01.04.2020
57 Clouds 6 997 64 10000 3.1 220 21:19 01.04.2020
58 Clouds 6 997 64 10000 4.1 230 20:56 01.04.2020
59 Clouds 6 997 64 10000 4.1 230 20:38 01.04.2020
60 Clouds 7 997 64 10000 3.1 220 20:19 01.04.2020
61 Clouds 7 998 64 10000 4.1 230 19:58 01.04.2020
62 Clouds 7 998 64 10000 4.1 230 19:38 01.04.2020
63 Clouds 8 997 52 10000 7.2 240 19:19 01.04.2020
64 Clouds 8 998 64 10000 4.6 240 18:42 01.04.2020
65 Clouds 8 998 64 10000 4.6 240 18:42 01.04.2020
66 Clouds 9 999 49 10000 5.1 230 18:23 01.04.2020
67 Clouds 9 999 46 10000 4.6 210 17:57 01.04.2020
68 Clouds 9 999 46 10000 4.6 210 17:38 01.04.2020
69 Clouds 9 1000 46 10000 4.6 250 17:19 01.04.2020
70 Clouds 9 1000 46 10000 4.6 250 17:19 01.04.2020
71 Clouds 9 1000 46 10000 4.6 250 16:58 01.04.2020
72 Clouds 10 1000 46 10000 4.6 250 16:39 01.04.2020
73 Clouds 9 1001 46 10000 5.1 250 16:39 01.04.2020
74 Clouds 9 1001 46 10000 5.1 250 16:20 01.04.2020
75 Clouds 9 1001 45 10000 5.1 250 15:56 01.04.2020
76 Clouds 10 1001 45 10000 5.1 250 15:37 01.04.2020
77 Clouds 10 1001 39 10000 5.7 260 15:18 01.04.2020
78 Clouds 10 1002 39 10000 6.2 260 14:40 01.04.2020
79 Clouds 9 1002 42 10000 6.7 240 14:22 01.04.2020
80 Clouds 9 1003 36 10000 5.7 290 13:59 01.04.2020
81 Clouds 9 1003 36 10000 5.7 290 13:40 01.04.2020
82 Clouds 9 1003 36 10000 6.2 290 13:20 01.04.2020
83 Clouds 8 1003 36 10000 5.1 260 12:59 01.04.2020
84 Clouds 8 1003 36 10000 5.1 260 12:41 01.04.2020
85 Clouds 8 1004 36 10000 5.1 270 12:22 01.04.2020
86 Clouds 7 1004 39 10000 5.1 300 11:57 01.04.2020
87 Clouds 7 1004 39 10000 5.1 300 11:37 01.04.2020
88 Clouds 7 1004 39 10000 5.1 300 11:37 01.04.2020
89 Clouds 7 1004 39 10000 5.1 290 11:19 01.04.2020
90 Clouds 6 1004 41 10000 6.2 270 10:39 01.04.2020
91 Clouds 6 1005 41 10000 6.2 280 10:21 01.04.2020
92 Clouds 6 1005 45 10000 5.7 290 09:59 01.04.2020
93 Clouds 6 1005 45 10000 5.7 290 09:40 01.04.2020
94 Clouds 6 1005 45 10000 5.7 290 09:40 01.04.2020
95 Clouds 5 1005 48 10000 5.7 280 09:20 01.04.2020
96 Clouds 5 1005 60 10000 3.6 270 08:54 01.04.2020
97 Clouds 5 1005 60 10000 3.6 270 08:36 01.04.2020
98 Clouds 4 1005 64 10000 2.6 250 08:18 01.04.2020
99 Clouds 3 1005 86 10000 1.5 250 07:40 01.04.2020
100 Clouds 2 1005 86 10000 1.5 250 07:19 01.04.2020
101 Clouds 2 1005 80 10000 2.6 260 06:42 01.04.2020
102 Clouds 2 1005 59 10000 3.1 290 06:20 01.04.2020
103 Clouds 3 1005 69 10000 2.1 290 05:28 01.04.2020
104 Clouds 4 1005 82 10000 3.1 250 03:57 01.04.2020
105 Clouds 4 1005 78 10000 3.6 260 03:19 01.04.2020
106 Clouds 5 1006 78 10000 4.1 250 02:36 01.04.2020
107 Clouds 5 1006 79 10000 4.6 260 01:50 01.04.2020
108 Clouds 5 1007 79 10000 4.6 250 01:25 01.04.2020
109 Clouds 6 1007 60 10000 5.1 250 00:47 01.04.2020
110 Clouds 6 1007 60 10000 5.1 260 00:22 01.04.2020
111 Clouds 6 1008 60 10000 4.6 250 23:57 31.03.2020
112 Clouds 6 1008 60 10000 4.6 250 23:57 31.03.2020
113 Clouds 6 1008 60 10000 4.6 250 23:38 31.03.2020
114 Clouds 6 1008 60 10000 5.7 250 23:19 31.03.2020
115 Clouds 6 1009 56 10000 5.7 250 22:41 31.03.2020
116 Clouds 6 1009 56 10000 5.7 250 22:21 31.03.2020
117 Clouds 6 1009 56 10000 5.1 250 21:58 31.03.2020
118 Clouds 6 1010 56 10000 5.1 250 21:40 31.03.2020
119 Clouds 6 1010 56 10000 5.1 250 21:21 31.03.2020
120 Clouds 6 1011 52 10000 6.2 250 20:57 31.03.2020
121 Clouds 6 1011 52 10000 6.2 250 20:57 31.03.2020
122 Clouds 6 1011 52 10000 6.2 250 20:57 31.03.2020
123 Clouds 6 1011 52 10000 6.2 250 20:57 31.03.2020
124 Clouds 7 1011 52 10000 6.2 250 20:37 31.03.2020
125 Clouds 6 1011 52 10000 6.2 250 20:19 31.03.2020
126 Clouds 7 1011 48 10000 6.7 250 19:56 31.03.2020
127 Clouds 7 1011 48 10000 6.7 250 19:37 31.03.2020
128 Clouds 7 1011 48 10000 6.7 250 19:19 31.03.2020
129 Clouds 7 1012 45 10000 7.2 260 18:43 31.03.2020
130 Clouds 7 1013 45 10000 8.2 270 18:20 31.03.2020
131 Clouds 8 1013 39 10000 7.7 270 17:57 31.03.2020
132 Clouds 8 1013 39 10000 7.7 270 17:39 31.03.2020
133 Clouds 8 1013 36 10000 7.2 240 17:21 31.03.2020
134 Clouds 7 1014 36 10000 7.7 250 16:56 31.03.2020
135 Clouds 8 1014 36 10000 7.7 250 16:36 31.03.2020
136 Clouds 8 1015 36 10000 7.2 240 16:18 31.03.2020
137 Clouds 7 1015 36 10000 5.7 230 15:54 31.03.2020
138 Clouds 7 1015 36 10000 5.7 230 15:36 31.03.2020
139 Clouds 7 1016 39 10000 5.1 230 15:18 31.03.2020
140 Clouds 7 1017 36 10000 6.2 240 14:41 31.03.2020
141 Clouds 6 1018 38 10000 7.2 230 14:22 31.03.2020
142 Clouds 6 1019 35 10000 6.7 230 13:58 31.03.2020
143 Clouds 6 1019 35 10000 6.7 230 13:39 31.03.2020
144 Clouds 6 1019 33 10000 6.2 230 13:19 31.03.2020
145 Clouds 5 1020 32 10000 6.7 230 12:44 31.03.2020
146 Clouds 4 1021 32 10000 6.7 230 12:20 31.03.2020
147 Clouds 4 1022 32 10000 6.7 230 11:56 31.03.2020
148 Clouds 3 1022 32 10000 5.7 220 11:37 31.03.2020
149 Clouds 3 1022 32 10000 5.7 220 11:18 31.03.2020
150 Clouds 2 1023 37 10000 6.2 230 10:55 31.03.2020
151 Clouds 2 1023 37 10000 6.2 230 10:55 31.03.2020
152 Clouds 2 1023 37 10000 6.2 230 10:37 31.03.2020
153 Clouds 1 1024 43 10000 5.1 240 10:18 31.03.2020
154 Clouds 0 1025 71 10000 4.6 220 09:43 31.03.2020
155 Clouds 0 1025 42 10000 3.6 230 09:25 31.03.2020
156 Clouds -1 1025 54 10000 3.6 220 08:58 31.03.2020
157 Clouds -2 1025 54 10000 3.6 220 08:39 31.03.2020
158 Clouds -3 1026 68 10000 2.6 220 08:20 31.03.2020
159 Clouds -3 1026 67 10000 3.1 200 07:56 31.03.2020
160 Clouds -5 1027 92 10000 1 190 07:38 31.03.2020
161 Clouds -5 1027 92 10000 1 190 07:19 31.03.2020
162 Clouds -6 1027 92 10000 0.5 150 06:47 31.03.2020
163 Clear -6 1027 85 10000 2.35 295 06:23 31.03.2020
164 Clear -6 1028 85 10000 1.5 280 05:40 31.03.2020
165 Clear -6 1028 85 10000 1.5 270 03:43 31.03.2020
166 Clear -5 1029 73 10000 1 0 02:25 31.03.2020
167 Clear -5 1029 67 10000 2.1 300 01:46 31.03.2020
168 Clear -4 1029 67 10000 1.5 310 00:52 31.03.2020
169 Clear -4 1029 62 10000 2.1 310 00:25 31.03.2020
170 Clear -4 1029 62 10000 2.1 310 23:59 30.03.2020
171 Clear -4 1029 62 10000 2.1 310 23:38 30.03.2020
172 Clear -4 1029 62 10000 2.6 340 23:18 30.03.2020
173 Clear -3 1029 58 10000 2.6 340 22:56 30.03.2020
174 Clear -3 1029 58 10000 3.1 340 22:37 30.03.2020
175 Clear -3 1029 58 10000 3.1 340 22:18 30.03.2020
176 Clear -3 1028 50 10000 3.6 350 21:55 30.03.2020
177 Clear -3 1028 50 10000 3.6 340 21:36 30.03.2020
178 Clouds -3 1028 50 10000 3.6 340 21:18 30.03.2020
179 Clouds -2 1028 46 10000 4.1 340 20:42 30.03.2020
180 Clouds -2 1028 42 10000 4.1 340 20:24 30.03.2020
181 Clouds -2 1027 36 10000 5.1 360 19:59 30.03.2020
182 Clouds -2 1027 36 10000 5.1 360 19:40 30.03.2020
183 Clouds -1 1027 39 10000 5.1 340 19:21 30.03.2020
184 Clouds -1 1027 86 10000 6.2 350 18:57 30.03.2020
185 Clouds 0 1026 86 10000 4.6 350 18:38 30.03.2020
186 Clouds 0 1026 76 10000 4.6 350 18:20 30.03.2020
187 Clouds 0 1026 76 10000 5.1 360 17:57 30.03.2020
188 Clouds 0 1026 47 10000 4.6 350 17:38 30.03.2020
189 Clouds 0 1026 47 10000 4.6 350 17:18 30.03.2020
190 Clouds 0 1026 80 10000 4.1 350 16:55 30.03.2020
191 Clouds 0 1026 80 10000 4.1 350 16:36 30.03.2020
192 Clouds 0 1026 76 10000 5.7 360 16:18 30.03.2020
193 Clouds -1 1026 86 10000 4.6 320 15:42 30.03.2020
194 Snow 0 1026 92 10000 5.1 350 15:22 30.03.2020
195 Clouds 0 1025 67 10000 4.6 360 14:59 30.03.2020
196 Clouds 0 1025 67 10000 4.6 360 14:39 30.03.2020
197 Clouds 0 1025 74 10000 7.2 320 14:19 30.03.2020
198 Clouds 0 1025 74 10000 7.2 320 14:19 30.03.2020
199 Snow 0 1025 86 5000 6.2 350 13:59 30.03.2020
200 Snow 0 1025 86 5000 6.2 350 13:40 30.03.2020
201 Snow 0 1025 67 2500 8.7 330 13:20 30.03.2020
202 Clouds 1 1024 55 10000 7.2 320 12:54 30.03.2020
203 Clouds 1 1024 51 10000 6.7 310 12:36 30.03.2020
204 Clouds 1 1024 55 10000 7.2 320 12:36 30.03.2020
205 Clouds 1 1024 51 10000 6.7 310 12:18 30.03.2020
206 Snow 1 1024 40 10000 5.7 340 11:42 30.03.2020
207 Snow 1 1023 43 10000 5.7 340 11:24 30.03.2020
208 Clouds 1 1023 67 10000 6.7 320 10:59 30.03.2020
209 Clouds 1 1023 67 10000 6.7 320 10:39 30.03.2020
210 Clouds 1 1023 47 10000 7.7 340 10:21 30.03.2020
211 Clouds 1 1023 67 10000 5.7 340 09:54 30.03.2020
212 Clouds 1 1023 67 10000 5.7 340 09:36 30.03.2020
213 Snow 0 1022 84 10000 6.2 340 09:18 30.03.2020
214 Clouds 0 1022 86 10000 5.7 340 08:39 30.03.2020
215 -273 0 0 0 0 0 08:20 30.03.2020
216 Clouds -1 1022 80 10000 5.1 330 07:45 30.03.2020
217 Clouds -1 1021 86 10000 4.6 330 07:23 30.03.2020
218 Clouds -1 1021 80 10000 4.6 330 06:47 30.03.2020
219 Clouds -1 1020 74 10000 5.1 340 06:27 30.03.2020
220 Clouds 0 1020 91 10000 5.7 350 05:44 30.03.2020
221 Clouds 0 1020 74 10000 4.6 340 04:37 30.03.2020
222 Clouds 0 1019 69 10000 4.1 330 04:18 30.03.2020
223 Clouds 0 1019 55 10000 3.1 290 02:45 30.03.2020
224 Clouds 0 1019 50 10000 3.6 260 01:58 30.03.2020
225 Clouds 0 1019 90 10000 3.1 240 01:18 30.03.2020
226 Clouds 1 1019 43 10000 3.6 220 00:29 30.03.2020
227 Clouds 1 1020 50 10000 3.1 230 23:57 29.03.2020
228 Clouds 1 1020 50 10000 3.1 230 23:57 29.03.2020
229 Clouds 1 1020 50 10000 3.1 230 23:39 29.03.2020
230 Clouds 1 1020 50 10000 2.6 240 23:20 29.03.2020
231 Clouds 1 1021 50 10000 2.6 230 22:55 29.03.2020
232 Clouds 1 1021 50 10000 2.6 230 22:55 29.03.2020
233 Clouds 1 1021 50 10000 2.6 230 22:37 29.03.2020
234 Clouds 1 1021 50 10000 2.6 230 22:37 29.03.2020
235 Clouds 0 1021 83 10000 3.1 230 22:18 29.03.2020
236 Clouds 0 1021 83 10000 1.5 200 21:38 29.03.2020
237 Clouds 1 1022 47 10000 2.1 210 21:20 29.03.2020
238 Clouds 1 1022 47 10000 1.5 220 20:56 29.03.2020
239 Clouds 2 1022 37 10000 3.1 280 20:37 29.03.2020
240 Clouds 2 1022 37 10000 3.1 280 20:37 29.03.2020
241 Clouds 2 1022 37 10000 3.1 280 20:19 29.03.2020
242 Clouds 3 1023 37 10000 3.1 290 19:57 29.03.2020
243 Clouds 3 1023 32 10000 4.6 270 19:39 29.03.2020
244 Clouds 3 1023 32 10000 4.6 270 19:21 29.03.2020
245 Clouds 3 1023 32 10000 5.1 280 18:57 29.03.2020
246 Clouds 4 1023 27 10000 5.1 290 18:38 29.03.2020
247 Clouds 4 1023 27 10000 5.1 290 18:19 29.03.2020
248 Clouds 4 1023 29 10000 5.7 290 17:56 29.03.2020
249 Clouds 4 1023 29 10000 5.7 290 17:37 29.03.2020
250 Clouds 4 1024 30 10000 5.7 300 17:18 29.03.2020
251 Clouds 4 1024 29 10000 6.2 300 16:56 29.03.2020
252 Clouds 5 1024 29 10000 6.2 300 16:38 29.03.2020
253 Clouds 4 1025 27 10000 6.2 310 16:18 29.03.2020
254 Clouds 4 1025 27 10000 7.2 310 15:41 29.03.2020
255 Clear 4 1025 27 10000 5.7 330 15:23 29.03.2020
256 Clear 4 1025 27 10000 5.7 330 15:23 29.03.2020
257 Clear 4 1026 27 10000 5.1 310 14:58 29.03.2020
258 Clouds 4 1026 27 10000 6.2 310 14:40 29.03.2020
259 Clouds 4 1026 27 10000 6.2 310 14:20 29.03.2020
260 Clouds 3 1026 32 10000 6.2 310 13:57 29.03.2020
261 Clouds 4 1026 32 10000 6.2 310 13:39 29.03.2020
262 Clouds 3 1027 34 10000 4.6 320 13:20 29.03.2020
263 Clouds 3 1027 34 10000 5.7 340 12:55 29.03.2020
264 Clouds 2 1028 37 10000 5.1 330 12:37 29.03.2020
265 Clear 2 1028 37 10000 5.1 330 12:18 29.03.2020
266 Clear 1 1028 40 10000 4.6 320 11:55 29.03.2020
267 Clear 1 1028 43 10000 5.1 320 11:36 29.03.2020
268 Clear 1 1028 43 10000 5.1 320 11:18 29.03.2020
269 Clear 0 1028 67 10000 4.1 320 10:38 29.03.2020
270 Clear 0 1029 67 10000 5.1 330 10:18 29.03.2020
271 Clear 0 1029 67 10000 5.1 330 10:18 29.03.2020
272 Clear -1 1028 50 10000 5.1 320 09:41 29.03.2020
273 Clear -1 1028 54 10000 5.1 330 09:20 29.03.2020
274 Clear -2 1029 54 10000 5.7 330 08:54 29.03.2020
275 Clear -2 1029 54 10000 5.7 330 08:54 29.03.2020
276 Clear -2 1028 54 10000 5.1 330 08:30 29.03.2020
277 Clear -2 1028 58 10000 5.1 340 07:59 29.03.2020
278 Clear -2 1028 63 10000 4.6 330 07:41 29.03.2020
279 Clear -2 1028 63 10000 4.6 330 07:20 29.03.2020
280 Clouds -2 1028 54 10000 5.7 330 05:41 29.03.2020
281 Clouds -1 1027 50 10000 4.6 330 03:58 29.03.2020
282 Clouds -1 1027 46 10000 5.1 330 03:28 29.03.2020
283 Clouds -1 1027 46 10000 4.1 330 01:51 29.03.2020
284 Clouds -1 1027 46 10000 4.1 340 01:23 29.03.2020
285 Clouds 0 1027 84 10000 5.7 340 00:55 29.03.2020
286 Clouds 0 1026 84 10000 5.1 340 00:32 29.03.2020
287 Clouds 1 1026 47 10000 5.7 360 23:43 28.03.2020
288 Clouds 1 1026 47 10000 5.7 360 23:24 28.03.2020
289 Clouds 1 1025 51 10000 5.7 350 22:59 28.03.2020
290 Clouds 1 1025 51 10000 5.7 350 22:38 28.03.2020
291 Clouds 2 1025 51 10000 5.7 360 22:20 28.03.2020
292 Clouds 2 1024 51 10000 4.6 350 21:54 28.03.2020
293 Clouds 3 1024 47 10000 5.1 10 21:36 28.03.2020
294 Clouds 3 1024 47 10000 5.1 10 21:18 28.03.2020
295 Clouds 3 1024 44 10000 5.1 10 20:41 28.03.2020
296 Clouds 3 1023 41 10000 4.1 20 20:23 28.03.2020
297 Clouds 3 1023 41 10000 4.6 20 19:57 28.03.2020
298 Clouds 4 1023 41 10000 4.6 20 19:39 28.03.2020
299 Clouds 4 1023 41 10000 4.6 20 19:20 28.03.2020
300 Clouds 4 1022 38 10000 5.1 20 18:58 28.03.2020
301 Clouds 4 1022 38 10000 5.1 20 18:38 28.03.2020
302 Clouds 4 1022 38 10000 4.1 20 18:19 28.03.2020
303 Clouds 5 1021 44 10000 5.7 30 17:39 28.03.2020
304 Clouds 5 1021 44 10000 5.7 30 17:20 28.03.2020
305 Clouds 5 1021 41 10000 5.1 10 16:43 28.03.2020
306 Clouds 6 1021 41 10000 6.2 360 16:20 28.03.2020
307 Clouds 6 1021 36 10000 5.1 360 15:58 28.03.2020
308 Clouds 6 1021 36 10000 4.6 360 15:39 28.03.2020
309 Clouds 7 1021 36 10000 4.6 360 15:19 28.03.2020
310 Clouds 7 1020 39 10000 4.6 360 14:54 28.03.2020
311 Clouds 8 1020 39 10000 3.6 20 14:36 28.03.2020
312 Clouds 8 1020 39 10000 3.6 20 14:18 28.03.2020
313 Clouds 8 1020 42 10000 4.1 10 13:38 28.03.2020
314 Clouds 8 1020 42 10000 4.1 10 13:20 28.03.2020
315 Clouds 8 1020 45 10000 2.1 20 12:39 28.03.2020
316 Clouds 8 1020 49 10000 3.6 80 12:21 28.03.2020
317 Clouds 8 1020 45 10000 4.1 70 11:42 28.03.2020
318 Clouds 8 1020 45 10000 3.1 30 11:21 28.03.2020
319 Clouds 8 1020 49 10000 2.6 40 10:56 28.03.2020
320 Clouds 7 1020 49 10000 2.6 40 10:38 28.03.2020
321 Clouds 7 1020 60 10000 2.6 360 10:18 28.03.2020
322 Clouds 6 1020 56 10000 5.1 20 09:41 28.03.2020
323 Clouds 6 1020 56 10000 5.1 20 09:23 28.03.2020
324 Clouds 5 1020 64 10000 4.1 290 08:46 28.03.2020
325 Clear 5 1020 64 10000 2.6 290 08:27 28.03.2020
326 Clear 4 1020 64 10000 2.1 260 07:59 28.03.2020
327 Clear 3 1020 69 10000 1 0 07:41 28.03.2020
328 Clear 2 1020 74 10000 1 0 06:56 28.03.2020
329 Clear 1 1020 74 10000 1 0 06:33 28.03.2020
330 Clear 1 1020 74 10000 1 190 05:41 28.03.2020
331 Clear 1 1020 85 10000 2.83 262 05:19 28.03.2020
332 Clear 1 1021 80 10000 1 190 04:40 28.03.2020
333 Clear 0 1021 80 10000 1 250 02:55 28.03.2020
334 Clear 1 1022 79 10000 0.5 0 01:48 28.03.2020
335 Clear 1 1022 79 10000 0.5 220 01:24 28.03.2020
336 Clear 2 1022 64 10000 1.5 200 00:54 28.03.2020
337 Clear 3 1022 64 10000 1.5 200 00:33 28.03.2020
338 Clear 3 1023 69 10000 1.5 220 23:45 27.03.2020
339 Clear 3 1023 69 10000 2.1 190 23:26 27.03.2020
340 Clear 3 1023 69 10000 2.1 200 22:58 27.03.2020
341 Clear 3 1024 64 10000 2.1 200 22:40 27.03.2020
342 Clear 3 1024 64 10000 2.1 200 22:21 27.03.2020
343 Clear 2 1024 64 10000 2.6 200 22:00 27.03.2020
344 Clear 3 1024 64 10000 2.6 200 21:41 27.03.2020
345 Clear 3 1024 60 10000 2.6 200 21:23 27.03.2020
346 Clear 3 1024 60 10000 2.1 200 20:57 27.03.2020
347 Clear 4 1024 52 10000 2.6 190 20:39 27.03.2020
348 Clouds 4 1024 52 10000 2.6 190 20:19 27.03.2020
349 Clouds 4 1024 52 10000 2.6 190 20:19 27.03.2020
350 Clouds 4 1024 52 10000 2.6 190 20:19 27.03.2020
351 Clouds 4 1024 52 10000 2.1 190 19:56 27.03.2020
352 Clouds 5 1024 48 10000 2.1 180 19:38 27.03.2020
353 Clouds 5 1024 48 10000 2.1 180 19:19 27.03.2020
354 Clouds 6 1024 42 10000 2.1 180 18:43 27.03.2020
355 Clouds 7 1024 39 10000 2.6 180 18:23 27.03.2020
356 Clouds 8 1025 36 10000 2.6 190 17:55 27.03.2020
357 Clouds 9 1025 34 10000 3.6 200 17:37 27.03.2020
358 Clouds 9 1025 34 10000 3.6 200 17:19 27.03.2020
359 Clouds 10 1025 34 10000 4.1 200 16:44 27.03.2020
360 Clouds 9 1026 36 10000 3.6 180 16:25 27.03.2020
361 Clouds 10 1026 34 10000 4.6 190 15:45 27.03.2020
362 Clouds 10 1026 34 10000 4.1 190 15:26 27.03.2020
363 Clouds 11 1027 32 10000 3.6 190 14:56 27.03.2020
364 Clouds 11 1027 32 10000 3.6 190 14:37 27.03.2020
365 Clouds 11 1027 32 10000 3.6 190 14:18 27.03.2020
366 Clouds 10 1028 29 10000 3.6 190 13:43 27.03.2020
367 Clear 11 1028 29 10000 4.1 200 13:22 27.03.2020
368 Clear 11 1028 27 10000 3.6 220 12:59 27.03.2020
369 Clear 10 1028 27 10000 3.6 220 12:41 27.03.2020
370 Clear 10 1029 29 10000 2.6 220 12:19 27.03.2020
371 Clear 9 1029 31 10000 2.6 200 11:43 27.03.2020
372 Clear 9 1029 31 10000 2.6 200 11:25 27.03.2020
373 Clear 7 1029 48 10000 2.1 240 10:57 27.03.2020
374 Clear 7 1029 48 10000 2.1 240 10:39 27.03.2020
375 Clear 6 1029 60 10000 1.5 190 10:20 27.03.2020
376 Clear 5 1029 60 10000 1.5 190 09:58 27.03.2020
377 Clear 5 1029 60 10000 1.5 190 09:39 27.03.2020
378 Clear 5 1029 64 10000 1.5 180 09:21 27.03.2020
379 Clear 4 1029 74 10000 1.5 0 08:57 27.03.2020
380 Clear 3 1029 74 10000 1.5 0 08:39 27.03.2020
381 Clear 2 1029 86 10000 1 0 08:21 27.03.2020
382 Clear 0 1029 100 10000 2.24 246 07:53 27.03.2020
383 Clear -1 1029 100 10000 2.24 246 07:28 27.03.2020
384 Clear -2 1029 100 10000 2.24 246 06:57 27.03.2020
385 Mist -2 1029 100 9000 2.24 246 06:37 27.03.2020
386 Clear -2 1029 100 9000 1 130 05:37 27.03.2020
387 Clear 0 1030 92 10000 1 120 02:51 27.03.2020
388 Clear 1 1030 81 10000 1 130 01:50 27.03.2020
389 Clear 1 1030 81 10000 1.5 160 00:55 27.03.2020
390 Clear 1 1030 81 10000 1 150 00:32 27.03.2020
391 Clear 2 1030 74 10000 2.93 218 23:45 26.03.2020
392 Clear 2 1030 74 10000 1.5 180 23:25 26.03.2020
393 Clouds 2 1030 69 10000 2.6 190 22:59 26.03.2020
394 Clouds 2 1030 69 10000 2.6 190 22:59 26.03.2020
395 Clouds 2 1030 69 10000 2.6 190 22:39 26.03.2020
396 Clouds 2 1030 69 10000 2.1 170 22:20 26.03.2020
397 Clouds 3 1030 64 10000 2.6 180 21:59 26.03.2020
398 Clouds 3 1030 64 10000 2.6 180 21:39 26.03.2020
399 Clouds 3 1030 64 10000 2.6 180 21:21 26.03.2020
400 Clouds 3 1030 64 10000 3.1 190 20:58 26.03.2020
401 Clouds 3 1030 64 10000 3.1 190 20:38 26.03.2020
402 Clouds 4 1030 60 10000 2.6 180 20:20 26.03.2020
403 Clouds 4 1029 60 10000 3.6 180 19:56 26.03.2020
404 Clouds 5 1029 52 10000 3.1 180 19:38 26.03.2020
405 Clouds 5 1029 52 10000 3.1 180 19:20 26.03.2020
406 Clouds 6 1029 45 10000 2.6 180 18:55 26.03.2020
407 Clouds 7 1029 42 10000 4.1 180 18:37 26.03.2020
408 Clouds 7 1029 42 10000 4.1 180 18:19 26.03.2020
409 Clouds 8 1029 39 10000 4.1 200 17:42 26.03.2020
410 Clear 9 1029 39 10000 4.1 200 17:19 26.03.2020
411 Clear 9 1029 39 10000 4.1 200 17:19 26.03.2020
412 Clear 10 1029 40 10000 4.1 200 16:45 26.03.2020
413 Clear 10 1029 37 10000 5.1 190 16:27 26.03.2020
414 Clear 11 1029 32 10000 4.6 200 15:59 26.03.2020
415 Clear 11 1029 32 10000 4.6 200 15:40 26.03.2020
416 Clear 12 1029 32 10000 4.1 190 15:22 26.03.2020
417 Clear 12 1029 25 10000 3.6 240 14:58 26.03.2020
418 Clear 12 1029 27 10000 5.1 220 14:39 26.03.2020
419 Clouds 11 1029 27 10000 5.1 220 14:19 26.03.2020
420 Clouds 11 1029 29 10000 4.6 210 13:43 26.03.2020
421 Clouds 10 1030 27 10000 4.1 220 13:23 26.03.2020
422 Clouds 10 1030 31 10000 4.1 210 12:57 26.03.2020
423 Clouds 10 1030 34 10000 4.6 200 12:38 26.03.2020
424 Clouds 9 1030 36 10000 4.6 200 12:19 26.03.2020
425 Clouds 9 1030 36 10000 4.6 200 11:45 26.03.2020
426 Clouds 8 1030 42 10000 3.6 200 11:21 26.03.2020
427 Clouds 7 1029 42 10000 3.6 200 10:56 26.03.2020
428 Clouds 7 1029 45 10000 3.6 200 10:37 26.03.2020
429 Clouds 6 1029 45 10000 3.6 200 10:18 26.03.2020
430 Clouds 5 1029 45 10000 3.6 230 09:43 26.03.2020
431 Clouds 5 1029 45 10000 4.1 240 09:19 26.03.2020
432 Clouds 4 1029 48 10000 3.6 230 08:55 26.03.2020
433 Clouds 4 1029 48 10000 3.6 230 08:37 26.03.2020
434 Clouds 3 1029 51 10000 3.6 220 08:18 26.03.2020
435 Clouds 3 1029 55 10000 3.1 230 07:41 26.03.2020
436 Clouds 2 1029 55 10000 3.1 230 07:20 26.03.2020
437 Clouds 2 1029 55 10000 3.6 210 06:48 26.03.2020
438 Clouds 2 1029 51 10000 2.6 210 05:54 26.03.2020
439 Clouds 3 1029 44 10000 3.6 220 03:59 26.03.2020
440 Clouds 3 1028 41 10000 3.6 230 03:36 26.03.2020
441 Clouds 3 1028 41 10000 3.6 230 02:54 26.03.2020
442 Clouds 4 1028 38 10000 3.1 230 01:50 26.03.2020
443 Clouds 5 1028 33 10000 3.6 220 00:48 26.03.2020
444 Clouds 6 1028 30 10000 4.1 240 23:56 25.03.2020
445 Clouds 6 1028 30 10000 4.6 230 23:36 25.03.2020
446 Clouds 7 1028 30 10000 4.6 230 23:18 25.03.2020
447 Clouds 7 1027 28 10000 4.1 230 22:38 25.03.2020
448 Clouds 7 1027 28 10000 6.2 230 22:20 25.03.2020
449 Clouds 7 1027 28 10000 6.2 230 21:55 25.03.2020
450 Clouds 7 1027 26 10000 5.7 230 21:37 25.03.2020
451 Clouds 7 1027 26 10000 5.7 230 21:18 25.03.2020
452 Clouds 8 1027 26 10000 5.1 230 20:40 25.03.2020
453 Clouds 8 1026 26 10000 5.1 230 20:20 25.03.2020
454 Clouds 8 1026 26 10000 5.1 220 19:59 25.03.2020
455 Clouds 8 1026 26 10000 5.1 220 19:41 25.03.2020
456 Clouds 9 1026 27 10000 5.7 220 19:21 25.03.2020
457 Clouds 9 1026 27 10000 5.7 220 18:56 25.03.2020
458 Clouds 10 1026 25 10000 4.6 230 18:37 25.03.2020
459 Clouds 10 1026 25 10000 4.6 230 18:37 25.03.2020
460 Clouds 10 1026 25 10000 4.6 230 18:19 25.03.2020
461 Clouds 11 1026 25 10000 5.7 240 17:42 25.03.2020
462 Clouds 11 1026 25 10000 5.7 240 17:23 25.03.2020
463 Clouds 11 1026 23 10000 5.7 230 16:59 25.03.2020
464 Clouds 11 1026 23 10000 5.7 230 16:41 25.03.2020
465 Clouds 11 1026 25 10000 5.7 240 16:21 25.03.2020
466 Clouds 11 1026 22 10000 7.7 240 15:57 25.03.2020
467 Clouds 11 1026 22 10000 7.7 240 15:37 25.03.2020
468 Clouds 11 1026 25 10000 6.2 220 15:18 25.03.2020
469 Clouds 11 1026 25 10000 6.2 220 15:18 25.03.2020
470 Clouds 11 1026 25 10000 6.7 230 14:41 25.03.2020
471 Clouds 11 1026 27 10000 6.2 220 14:21 25.03.2020
472 Clouds 11 1026 25 10000 6.7 220 13:46 25.03.2020
473 Clouds 11 1026 25 10000 5.7 220 13:26 25.03.2020
474 Clouds 10 1026 27 10000 6.7 230 12:55 25.03.2020
475 Clouds 10 1026 31 10000 7.7 230 12:37 25.03.2020
476 Clouds 10 1026 31 10000 7.7 230 12:18 25.03.2020
477 Clouds 9 1026 31 10000 7.7 220 11:41 25.03.2020
478 Clouds 7 1026 36 10000 5.7 220 11:21 25.03.2020
479 Clouds 7 1026 36 10000 5.7 220 11:21 25.03.2020
480 Clouds 7 1026 39 10000 6.2 220 10:59 25.03.2020
481 Clouds 7 1027 41 10000 6.7 220 10:40 25.03.2020
482 Clouds 6 1027 41 10000 6.7 220 10:19 25.03.2020
483 Clouds 6 1027 41 10000 6.7 220 10:19 25.03.2020
484 Clouds 6 1027 41 10000 7.2 220 09:59 25.03.2020
485 Clouds 6 1027 41 10000 7.2 220 09:40 25.03.2020
486 Clouds 6 1027 48 10000 6.2 210 09:21 25.03.2020
487 Clouds 4 1027 48 10000 5.7 210 08:43 25.03.2020
488 Clouds 4 1027 48 10000 5.7 210 08:25 25.03.2020
489 Clouds 3 1027 51 10000 5.7 210 07:59 25.03.2020
490 Clouds 3 1021 54 0 3.13 247 07:39 25.03.2020
491 Clouds 3 1027 51 10000 4.6 210 07:19 25.03.2020
492 Clouds 2 1026 47 10000 4.1 210 06:45 25.03.2020
493 Clouds 2 1026 44 10000 4.1 220 06:25 25.03.2020
494 Clouds 2 1026 40 10000 4.1 220 05:48 25.03.2020
495 Clouds 3 1026 34 10000 4.6 220 04:46 25.03.2020
496 Clouds 3 1026 35 10000 5.1 230 03:58 25.03.2020
497 Clouds 3 1026 38 10000 6.2 230 03:34 25.03.2020
498 Clouds 4 1027 38 10000 5.7 230 01:41 25.03.2020
499 Clouds 5 1027 33 10000 4.6 230 00:58 25.03.2020
500 Clouds 6 1027 33 10000 4.6 220 00:40 25.03.2020
501 Clouds 5 1027 33 10000 4.6 220 00:18 25.03.2020
502 Clouds 5 1027 33 10000 4.6 220 23:40 24.03.2020
503 Clouds 6 1027 33 10000 4.6 220 23:22 24.03.2020
504 Clouds 5 1028 35 10000 4.1 210 22:55 24.03.2020
505 Clouds 5 1028 35 10000 3.6 220 22:37 24.03.2020
506 Clouds 5 1028 35 10000 3.6 220 22:19 24.03.2020
507 Clouds 6 1028 41 10000 2.6 200 21:54 24.03.2020
508 Clouds 6 1028 41 10000 2.6 200 21:36 24.03.2020
509 Clouds 5 1028 45 10000 4.1 210 21:18 24.03.2020
510 Clouds 5 1028 48 10000 4.1 220 20:41 24.03.2020
511 Clouds 5 1028 52 10000 4.6 200 20:23 24.03.2020
512 Clouds 5 1028 52 10000 3.6 190 19:54 24.03.2020
513 Clouds 5 1028 52 10000 3.6 190 19:36 24.03.2020
514 Clouds 5 1028 52 10000 4.1 190 19:18 24.03.2020
515 Clouds 5 1029 52 10000 3.6 190 18:54 24.03.2020
516 Clouds 6 1029 48 10000 3.6 190 18:36 24.03.2020
517 Clouds 6 1029 48 10000 3.6 190 18:18 24.03.2020
518 Clouds 7 1029 33 10000 5.1 220 17:41 24.03.2020
519 Clouds 7 1029 33 10000 5.1 220 17:22 24.03.2020
520 Clouds 7 1029 33 10000 5.1 220 16:57 24.03.2020
521 Clouds 7 1029 33 10000 5.1 220 16:39 24.03.2020
522 Clouds 7 1029 33 10000 5.7 220 16:20 24.03.2020
523 Clouds 7 1030 33 10000 4.6 220 15:44 24.03.2020
524 Clouds 7 1030 33 10000 5.7 230 15:25 24.03.2020
525 Clouds 7 1030 36 10000 6.2 220 14:59 24.03.2020
526 Clouds 7 1030 36 10000 6.2 220 14:40 24.03.2020
527 Clouds 8 1030 36 10000 5.7 230 14:18 24.03.2020
528 Clouds 7 1030 39 10000 5.7 210 13:42 24.03.2020
529 Clouds 7 1030 39 10000 4.6 220 13:23 24.03.2020
530 Clouds 7 1030 39 10000 4.6 220 13:23 24.03.2020
531 Clouds 7 1031 39 10000 5.1 230 12:47 24.03.2020
532 Clouds 7 1031 42 10000 5.1 230 12:28 24.03.2020
533 Clouds 7 1031 45 10000 5.1 230 11:59 24.03.2020
534 Clouds 7 1031 45 10000 6.2 230 11:39 24.03.2020
535 Clouds 5 1031 45 10000 6.2 230 11:19 24.03.2020
536 Clouds 5 1031 48 10000 6.2 220 10:42 24.03.2020
537 Clouds 5 1031 51 10000 5.7 220 10:19 24.03.2020
538 Clouds 4 1031 59 10000 5.7 220 09:57 24.03.2020
539 Clouds 4 1031 59 10000 5.7 220 09:39 24.03.2020
540 Clouds 3 1032 59 10000 5.7 220 09:20 24.03.2020
541 Clouds 2 1032 64 10000 5.1 220 08:38 24.03.2020
542 Clouds 2 1032 64 10000 5.1 220 08:20 24.03.2020
543 Clouds 1 1032 69 10000 5.1 220 07:47 24.03.2020
544 Clouds 1 1032 69 10000 4.6 210 07:24 24.03.2020
545 Clouds 0 1032 69 10000 5.1 210 06:52 24.03.2020
546 Clouds 0 1032 69 10000 5.1 210 06:25 24.03.2020
547 Clouds 1 1033 69 10000 5.1 220 04:57 24.03.2020
548 Clouds 1 1032 67 10000 4.6 210 03:48 24.03.2020
549 Clouds 1 1033 64 10000 4.1 220 03:18 24.03.2020
550 Clouds 1 1032 69 10000 3.6 230 01:47 24.03.2020
551 Clouds 1 1032 69 10000 3.1 230 00:48 24.03.2020
552 Clouds 1 1032 69 10000 3.1 220 00:25 24.03.2020
553 Clouds 2 1032 69 10000 3.1 210 23:45 23.03.2020
554 Clouds 2 1032 69 10000 3.1 210 23:26 23.03.2020
555 Clouds 2 1032 64 10000 2.6 210 22:56 23.03.2020
556 Clouds 2 1032 64 10000 2.6 210 22:37 23.03.2020
557 Clouds 2 1032 64 10000 3.6 220 22:19 23.03.2020
558 Clouds 2 1032 55 10000 4.1 210 21:44 23.03.2020
559 Clouds 3 1033 55 10000 3.6 220 21:21 23.03.2020
560 Clouds 3 1033 55 10000 3.6 210 20:58 23.03.2020
561 Clouds 2 1033 55 10000 3.6 210 20:40 23.03.2020
562 Clouds 3 1033 55 10000 3.6 210 20:22 23.03.2020
563 Clouds 3 1032 59 10000 6.2 210 19:46 23.03.2020
564 Clouds 3 1032 55 10000 6.2 220 19:27 23.03.2020
565 Clouds 3 1033 51 10000 4.6 230 18:59 23.03.2020
566 Clouds 3 1032 51 10000 7.7 220 18:41 23.03.2020
567 Clouds 4 1032 51 10000 7.7 220 18:22 23.03.2020
568 Clouds 4 1032 51 10000 8.2 220 17:56 23.03.2020
569 Clouds 4 1033 41 10000 5.7 240 17:37 23.03.2020
570 Clouds 5 1034 38 10000 6.7 220 17:18 23.03.2020
571 Clouds 5 1034 38 10000 6.7 220 16:43 23.03.2020
572 Clouds 5 1034 33 10000 7.2 220 16:24 23.03.2020
573 Clouds 5 1034 35 10000 7.2 230 15:42 23.03.2020
574 Clouds 5 1035 35 10000 6.2 230 15:20 23.03.2020
575 Clouds 5 1035 38 10000 7.2 220 14:55 23.03.2020
576 Clouds 5 1035 35 10000 6.7 220 14:37 23.03.2020
577 Clouds 5 1035 35 10000 6.7 220 14:18 23.03.2020
578 Clouds 5 1036 44 10000 5.7 210 13:41 23.03.2020
579 Clouds 5 1036 44 10000 5.7 210 13:41 23.03.2020
580 Clouds 4 1036 44 10000 5.7 210 13:22 23.03.2020
581 Clouds 4 1036 55 10000 5.1 220 12:58 23.03.2020
582 Clouds 4 1036 55 10000 5.1 220 12:58 23.03.2020
583 Clouds 4 1036 55 10000 5.1 220 12:40 23.03.2020
584 Clouds 4 1036 55 10000 6.7 230 12:21 23.03.2020
585 Clouds 4 1037 55 10000 5.1 220 11:42 23.03.2020
586 Clouds 4 1037 55 10000 5.1 220 11:21 23.03.2020
587 Clouds 4 1037 59 10000 5.1 230 10:58 23.03.2020
588 Clouds 4 1037 59 10000 5.1 230 10:39 23.03.2020
589 Clouds 3 1037 59 10000 4.6 220 10:21 23.03.2020
590 Clouds 3 1038 64 10000 5.7 230 09:57 23.03.2020
591 Clouds 3 1038 64 10000 5.7 230 09:39 23.03.2020
592 Clouds 3 1038 64 10000 4.1 230 09:18 23.03.2020
593 Clouds 2 1038 69 10000 3.6 220 08:38 23.03.2020
594 Clouds 2 1038 74 10000 3.6 220 08:19 23.03.2020
595 Clouds 1 1038 69 10000 2.6 220 07:50 23.03.2020
596 Clouds 1 1038 68 10000 3.1 220 07:32 23.03.2020
597 Clouds 0 1038 68 10000 3.1 230 06:54 23.03.2020
598 Clouds 0 1038 68 10000 3.1 230 06:32 23.03.2020
599 Clouds 0 1038 68 10000 3.1 210 05:42 23.03.2020
600 Clouds -1 1038 74 10000 2.1 200 03:45 23.03.2020
601 Clouds -1 1038 74 10000 2.6 210 02:43 23.03.2020
602 Clouds -1 1038 74 10000 2.6 200 01:38 23.03.2020
603 Clouds -1 1038 70 10000 2.6 200 00:44 23.03.2020
604 Clouds 0 1038 70 10000 2.6 200 23:54 22.03.2020
605 Clouds 0 1038 70 10000 3.6 200 23:36 22.03.2020
606 Clear 0 1038 71 10000 3.6 200 23:18 22.03.2020
607 Clear 0 1039 71 10000 2.6 200 22:40 22.03.2020
608 Clear 0 1039 71 10000 2.6 200 22:19 22.03.2020
609 Clear 0 1039 71 10000 3.1 190 21:40 22.03.2020
610 Clear 0 1039 74 10000 3.1 190 21:21 22.03.2020
611 Clear 0 1039 74 10000 3.1 190 20:58 22.03.2020
612 Clear 0 1039 74 10000 3.1 190 20:39 22.03.2020
613 Clear 0 1039 74 10000 3.1 190 20:21 22.03.2020
614 Clear 1 1039 69 10000 3.1 190 19:55 22.03.2020
615 Clear 1 1039 69 10000 3.1 190 19:37 22.03.2020
616 Clear 1 1039 69 10000 3.1 190 19:37 22.03.2020
617 Clear 1 1039 69 10000 3.6 190 19:19 22.03.2020
618 Clear 1 1039 64 10000 3.6 180 18:56 22.03.2020
619 Clear 1 1039 64 10000 3.6 180 18:38 22.03.2020
620 Clear 2 1039 64 10000 3.1 180 18:18 22.03.2020
621 Clear 2 1039 55 10000 3.1 180 17:56 22.03.2020
622 Clear 3 1039 44 10000 3.1 220 17:37 22.03.2020
623 Clear 3 1038 34 10000 5.1 210 17:19 22.03.2020
624 Clear 3 1039 38 10000 4.6 240 16:55 22.03.2020
625 Clear 4 1039 38 10000 4.6 240 16:36 22.03.2020
626 Clear 4 1039 35 10000 4.6 240 16:18 22.03.2020
627 Clear 4 1039 30 10000 3.6 210 15:39 22.03.2020
628 Clear 4 1040 35 10000 3.6 200 14:55 22.03.2020
629 Clear 4 1040 32 10000 4.6 260 14:37 22.03.2020
630 Clear 4 1040 32 10000 4.6 260 14:18 22.03.2020
631 Clear 4 1040 32 10000 4.1 220 13:41 22.03.2020
632 Clear 4 1041 32 10000 4.6 240 13:20 22.03.2020
633 Clear 4 1041 35 10000 3.6 210 12:47 22.03.2020
634 Clear 3 1041 44 10000 3.6 250 12:23 22.03.2020
635 Clear 3 1041 44 10000 3.6 250 12:23 22.03.2020
636 Clear 3 1041 47 10000 3.6 240 11:59 22.03.2020
637 Clear 2 1041 55 10000 2.6 210 11:41 22.03.2020
638 Clear 2 1041 55 10000 2.6 210 11:23 22.03.2020
639 Clear 2 1041 59 10000 2.1 200 10:56 22.03.2020
640 Clear 2 1041 64 10000 2.1 210 10:38 22.03.2020
641 Clear 1 1041 64 10000 2.1 210 10:20 22.03.2020
642 Clear 0 1042 49 10000 1 0 09:42 22.03.2020
643 Clear 0 1042 49 10000 1 0 09:22 22.03.2020
644 Clear -2 1042 74 10000 0.5 0 08:44 22.03.2020
645 Clear -2 1042 79 10000 0.8 247 08:24 22.03.2020
646 Clear -3 1042 86 10000 0.8 247 07:52 22.03.2020
647 Clear -4 1041 85 10000 0.8 247 07:26 22.03.2020
648 Clear -6 1041 92 10000 1 300 06:35 22.03.2020
649 Clear -6 1040 100 10000 0.8 247 05:35 22.03.2020
650 Clear -6 1040 92 10000 0.67 327 03:46 22.03.2020
651 Clear -5 1039 85 10000 1.01 8 01:28 22.03.2020
652 Clear -5 1039 85 10000 1.01 8 00:48 22.03.2020
653 Clear -4 1039 85 10000 1 0 00:29 22.03.2020
654 Clear -4 1039 79 10000 1 0 23:43 21.03.2020
655 Clear -4 1039 79 10000 1 0 23:19 21.03.2020
656 Clear -4 1039 79 10000 1 0 22:58 21.03.2020
657 Clear -3 1039 79 10000 1 0 22:37 21.03.2020
658 Clear -3 1039 73 10000 1.5 350 22:18 21.03.2020
659 Clear -3 1039 68 10000 1 0 21:56 21.03.2020
660 Clear -3 1039 68 10000 1 0 21:37 21.03.2020
661 Clear -3 1038 68 10000 1.5 350 21:18 21.03.2020
662 Clear -2 1038 63 10000 1.5 350 20:41 21.03.2020
663 Clear -2 1038 63 10000 1.5 0 20:20 21.03.2020
664 Clear -1 1038 63 10000 2.6 360 19:44 21.03.2020
665 Clear -1 1037 70 10000 2.6 360 19:25 21.03.2020
666 Clear -1 1037 70 10000 3.6 350 18:59 21.03.2020
667 Clear 0 1037 70 10000 3.6 350 18:39 21.03.2020
668 Clear 0 1037 50 10000 4.6 350 18:20 21.03.2020
669 Clear 0 1036 50 10000 4.6 360 17:57 21.03.2020
670 Clear 1 1036 43 10000 5.7 360 17:39 21.03.2020
671 Clear 1 1036 43 10000 5.7 360 17:20 21.03.2020
672 Clear 2 1036 37 10000 6.7 350 16:41 21.03.2020
673 Clear 2 1036 37 10000 6.7 350 16:21 21.03.2020
674 Clear 2 1036 37 10000 6.7 350 16:20 21.03.2020
675 Clear 2 1035 34 10000 6.2 350 15:56 21.03.2020
676 Clear 2 1035 34 10000 6.2 350 15:37 21.03.2020
677 Clear 3 1035 37 10000 6.2 360 15:19 21.03.2020
678 Clear 3 1035 37 10000 7.7 350 14:54 21.03.2020
679 Clear 3 1035 37 10000 7.7 350 14:36 21.03.2020
680 Clear 3 1035 40 10000 5.7 360 14:36 21.03.2020
681 Clear 3 1035 40 10000 5.7 360 14:18 21.03.2020
682 Clear 3 1035 43 10000 5.7 350 13:57 21.03.2020
683 Clear 3 1034 40 10000 5.7 360 13:38 21.03.2020
684 Clear 3 1034 40 10000 5.7 360 13:19 21.03.2020
685 Clouds 3 1034 44 10000 5.7 340 12:40 21.03.2020
686 Clouds 3 1034 44 10000 5.7 340 12:20 21.03.2020
687 Clouds 2 1034 43 10000 6.2 350 11:59 21.03.2020
688 Clouds 2 1034 51 10000 6.2 330 11:39 21.03.2020
689 Clouds 2 1034 51 10000 6.2 330 11:39 21.03.2020
690 Clouds 2 1034 51 10000 6.2 330 11:19 21.03.2020
691 Clouds 2 1034 51 10000 6.2 330 11:19 21.03.2020
692 Clouds 2 1034 50 10000 8.2 330 10:57 21.03.2020
693 Clouds 2 1034 50 10000 8.2 330 10:57 21.03.2020
694 Clouds 2 1034 55 10000 6.7 340 10:39 21.03.2020
695 Clouds 1 1034 55 10000 6.7 340 10:21 21.03.2020
696 Clouds 1 1034 59 10000 6.2 340 09:58 21.03.2020
697 Clouds 1 1034 59 10000 6.2 340 09:38 21.03.2020
698 Clouds 1 1033 45 10000 5.7 330 09:20 21.03.2020
699 Clouds 0 1033 45 10000 5.7 330 08:55 21.03.2020
700 Clouds 0 1033 45 10000 5.7 330 08:37 21.03.2020
701 Clear 0 1033 59 10000 5.1 330 08:18 21.03.2020
702 Clear -1 1033 68 10000 4.6 320 07:33 21.03.2020
703 Clear -2 1032 74 10000 3.6 310 06:56 21.03.2020
704 Clear -2 1032 68 10000 3.6 310 06:36 21.03.2020
705 Clear -2 1032 68 10000 3.6 310 06:18 21.03.2020
706 Clear -2 1031 68 10000 3.6 320 05:23 21.03.2020
707 Clear -3 1031 73 10000 2.6 290 03:38 21.03.2020
708 Clear -3 1031 79 10000 2.1 280 02:36 21.03.2020
709 Clear -2 1031 79 10000 2.1 290 01:43 21.03.2020
710 Clear -2 1031 79 10000 2.6 290 01:22 21.03.2020
711 Clear -3 1031 92 10000 1 270 00:39 21.03.2020
712 Clear -3 1031 92 10000 1 270 00:20 21.03.2020
713 Clear -3 1031 92 10000 1.5 280 23:41 20.03.2020
714 Clear -3 1030 92 10000 1.5 280 23:20 20.03.2020
715 Clear -3 1030 86 10000 1 280 22:44 20.03.2020
716 Clear -2 1030 86 10000 2.1 290 22:24 20.03.2020
717 Clear -2 1030 86 10000 2.1 280 21:58 20.03.2020
718 Clear -2 1030 86 10000 2.1 280 21:39 20.03.2020
719 Clear -2 1030 79 10000 1 280 21:19 20.03.2020
720 Clear -2 1030 74 10000 1.5 280 20:57 20.03.2020
721 Clear -2 1030 74 10000 1.5 280 20:39 20.03.2020
722 Clouds -1 1030 74 10000 2.1 310 20:19 20.03.2020
723 Clouds -1 1030 74 10000 2.1 320 19:46 20.03.2020
724 Clouds 0 1029 69 10000 2.6 340 19:20 20.03.2020
725 Clouds 0 1029 69 10000 4.6 350 18:57 20.03.2020
726 Clouds 1 1029 59 10000 4.1 350 18:38 20.03.2020
727 Clouds 1 1029 59 10000 4.1 350 18:19 20.03.2020
728 Clouds 2 1028 51 10000 5.1 340 17:56 20.03.2020
729 Clouds 2 1028 51 10000 5.1 320 17:37 20.03.2020
730 Clouds 2 1028 51 10000 5.1 320 17:18 20.03.2020
731 Clouds 2 1028 47 10000 5.1 340 16:41 20.03.2020
732 Clouds 3 1028 47 10000 5.1 350 16:20 20.03.2020
733 Clouds 3 1027 51 10000 4.6 360 15:44 20.03.2020
734 Clouds 3 1027 51 10000 5.1 360 15:23 20.03.2020
735 Clouds 3 1027 44 10000 5.7 360 14:58 20.03.2020
736 Clouds 3 1027 44 10000 5.7 360 14:40 20.03.2020
737 Clouds 4 1027 44 10000 5.1 360 14:20 20.03.2020
738 Clouds 4 1027 48 10000 5.1 360 13:48 20.03.2020
739 Clouds 3 1026 51 10000 4.6 20 13:21 20.03.2020
740 Clouds 3 1026 47 10000 5.1 30 12:58 20.03.2020
741 Clouds 3 1026 47 10000 5.1 30 12:38 20.03.2020
742 Clouds 3 1026 55 10000 5.7 30 12:19 20.03.2020
743 Clouds 3 1025 74 10000 4.1 10 11:39 20.03.2020
744 Snow 3 1024 69 10000 4.1 350 11:20 20.03.2020
745 Snow 2 1024 69 10000 4.1 350 10:55 20.03.2020
746 Snow 2 1024 69 10000 4.1 350 10:36 20.03.2020
747 Rain 2 1024 69 10000 4.1 350 10:18 20.03.2020
748 Clouds 2 1024 69 10000 4.1 350 09:44 20.03.2020
749 Clouds 2 1023 69 10000 3.6 340 09:20 20.03.2020
750 Snow 1 1023 69 6000 3.1 330 08:44 20.03.2020
751 Clouds 1 1022 80 10000 3.6 330 08:23 20.03.2020
752 Clouds 1 1022 80 10000 2.6 310 07:59 20.03.2020
753 Clouds 1 1022 74 10000 3.1 320 07:38 20.03.2020
754 Clouds 1 1022 74 10000 3.1 320 07:19 20.03.2020
755 Clouds 1 1021 74 10000 4.6 330 06:42 20.03.2020
756 Clouds 1 1021 74 10000 3.6 320 06:18 20.03.2020
757 Clouds 1 1020 74 10000 3.6 330 04:36 20.03.2020
758 Clouds 2 1019 77 10000 2.6 270 02:50 20.03.2020
759 Clear 2 1019 87 10000 2.1 290 01:50 20.03.2020
760 Clear 3 1018 80 10000 3.6 260 00:41 20.03.2020
761 Clear 3 1018 80 10000 3.6 260 23:59 19.03.2020
762 Clear 4 1018 79 10000 4.1 260 23:40 19.03.2020
763 Clear 4 1018 79 10000 4.1 260 23:22 19.03.2020
764 Clear 4 1018 81 10000 4.1 240 22:41 19.03.2020
765 Clear 4 1018 81 10000 4.1 240 22:22 19.03.2020
766 Clear 4 1018 81 10000 3.6 240 21:58 19.03.2020
767 Clear 4 1018 81 10000 3.6 240 21:38 19.03.2020
768 Clear 5 1017 81 10000 3.6 250 21:19 19.03.2020
769 Clear 5 1017 81 10000 4.1 260 20:44 19.03.2020
770 Clear 5 1017 60 10000 3.6 240 20:25 19.03.2020
771 Clear 6 1017 60 10000 3.1 240 19:59 19.03.2020
772 Clear 6 1017 60 10000 3.1 240 19:38 19.03.2020
773 Clear 6 1017 60 10000 3.1 240 19:20 19.03.2020
774 Clear 6 1016 56 10000 4.6 240 18:58 19.03.2020
775 Clear 7 1016 56 10000 4.1 250 18:40 19.03.2020
776 Clear 7 1016 56 10000 4.1 250 18:21 19.03.2020
777 Clear 8 1016 52 10000 5.1 260 17:44 19.03.2020
778 Clear 9 1016 46 10000 6.2 270 17:20 19.03.2020
779 Clear 9 1016 46 10000 6.2 270 16:58 19.03.2020
780 Clear 9 1016 46 10000 6.2 270 16:39 19.03.2020
781 Clear 9 1016 43 10000 6.7 270 16:21 19.03.2020
782 Clear 9 1015 43 10000 6.7 260 15:42 19.03.2020
783 Clear 9 1015 43 10000 7.2 260 15:23 19.03.2020
784 Clear 9 1015 43 10000 7.2 260 15:23 19.03.2020
785 Clear 9 1015 45 10000 7.7 260 14:43 19.03.2020
786 Clear 9 1015 49 10000 6.7 260 14:23 19.03.2020
787 Clear 9 1016 49 10000 6.2 260 13:57 19.03.2020
788 Clear 8 1015 52 10000 6.2 270 13:37 19.03.2020
789 Clear 8 1015 52 10000 6.2 270 13:18 19.03.2020
790 Clear 8 1015 56 10000 6.2 270 12:41 19.03.2020
791 Clear 8 1015 56 10000 6.2 270 12:22 19.03.2020
792 Clear 7 1015 56 10000 7.2 280 11:57 19.03.2020
793 Clear 7 1014 60 10000 7.2 280 11:38 19.03.2020
794 Clear 6 1014 60 10000 7.2 280 11:20 19.03.2020
795 Clear 6 1014 65 10000 7.2 260 10:41 19.03.2020
796 Clear 5 1014 65 10000 7.2 270 10:20 19.03.2020
797 Clear 5 1013 65 10000 6.7 270 09:57 19.03.2020
798 Clear 4 1013 69 10000 6.7 270 09:37 19.03.2020
799 Clear 4 1013 69 10000 6.7 270 09:18 19.03.2020
800 Clear 4 1013 69 10000 6.7 260 08:42 19.03.2020
801 Clear 3 1012 74 10000 6.2 260 08:21 19.03.2020
802 Clear 3 1012 74 10000 5.1 260 07:46 19.03.2020
803 Clear 3 1012 74 10000 5.7 250 07:28 19.03.2020
804 Clear 2 1012 80 10000 5.1 260 06:48 19.03.2020
805 Clear 2 1011 74 10000 5.1 260 05:49 19.03.2020
806 Clear 2 1011 80 10000 4.1 250 04:58 19.03.2020
807 Clear 2 1011 80 10000 4.1 250 04:40 19.03.2020
808 Clear 2 1011 74 10000 3.1 240 02:50 19.03.2020
809 Clear 3 1010 69 10000 4.6 220 01:25 19.03.2020
810 Clear 4 1010 69 10000 4.1 230 00:32 19.03.2020
811 Clear 4 1010 69 10000 4.1 240 23:57 18.03.2020
812 Clear 4 1010 69 10000 4.1 250 23:30 18.03.2020
813 Clear 4 1010 69 10000 4.1 250 23:30 18.03.2020
814 Clear 4 1010 69 10000 5.1 250 22:58 18.03.2020
815 Clear 4 1010 69 10000 5.1 250 22:39 18.03.2020
816 Clear 5 1010 69 10000 5.7 240 22:21 18.03.2020
817 Clear 5 1009 75 10000 6.2 240 21:42 18.03.2020
818 Clear 5 1009 75 10000 6.2 240 21:22 18.03.2020
819 Clear 5 1009 75 10000 6.2 240 20:59 18.03.2020
820 Clear 5 1009 75 10000 6.2 240 20:59 18.03.2020
821 Clear 5 1009 75 10000 6.2 240 20:40 18.03.2020
822 Clouds 5 1008 75 10000 5.1 250 20:20 18.03.2020
823 Clouds 5 1008 80 10000 4.6 250 19:58 18.03.2020
824 Clouds 5 1008 80 10000 4.6 250 19:39 18.03.2020
825 Clouds 5 1007 86 10000 5.1 240 19:20 18.03.2020
826 Clouds 5 1007 86 10000 5.7 250 18:42 18.03.2020
827 Clouds 6 1007 75 10000 6.7 260 18:21 18.03.2020
828 Clouds 6 1007 75 10000 6.7 260 18:21 18.03.2020
829 Clouds 6 1006 75 10000 7.2 260 17:59 18.03.2020
830 Clouds 6 1005 75 10000 7.7 250 17:41 18.03.2020
831 Clouds 7 1005 75 10000 7.7 250 17:22 18.03.2020
832 Clouds 7 1005 81 10000 6.7 250 16:58 18.03.2020
833 Clouds 7 1005 81 10000 6.7 250 16:40 18.03.2020
834 Clouds 7 1005 87 10000 6.7 270 16:20 18.03.2020
835 Clouds 7 1005 87 10000 7.7 270 15:45 18.03.2020
836 Clouds 7 1005 93 10000 5.7 260 15:23 18.03.2020
837 Clouds 7 1005 93 10000 5.7 260 14:56 18.03.2020
838 Clouds 7 1005 93 10000 5.7 260 14:38 18.03.2020
839 Clouds 7 1004 93 10000 5.7 260 14:19 18.03.2020
840 Clouds 7 1004 100 8000 1 0 13:38 18.03.2020
841 Clouds 7 1004 100 8000 1 0 13:19 18.03.2020
842 Rain 6 1004 100 8000 6.81 275 12:42 18.03.2020
843 Rain 6 1004 100 8000 6.81 275 12:20 18.03.2020
844 Rain 6 1005 86 10000 1 0 11:41 18.03.2020
845 Rain 5 1005 86 10000 1 0 11:21 18.03.2020
846 Rain 5 1006 93 10000 1 0 10:58 18.03.2020
847 Rain 5 1006 93 10000 1 0 10:39 18.03.2020
848 Rain 5 1006 93 7000 2.84 178 10:20 18.03.2020
849 Rain 5 1007 93 10000 3.1 210 09:59 18.03.2020
850 Rain 5 1007 93 10000 3.1 210 09:39 18.03.2020
851 Rain 6 1008 87 8000 3.1 210 09:21 18.03.2020
852 Drizzle 6 1008 75 10000 3.6 220 08:40 18.03.2020
853 Drizzle 6 1008 75 10000 3.6 220 08:21 18.03.2020
854 Clouds 6 1008 75 10000 5.7 220 07:49 18.03.2020
855 Clouds 6 1009 75 10000 3.6 220 07:31 18.03.2020
856 Clouds 6 1009 75 10000 4.6 220 06:50 18.03.2020
857 Clouds 6 1009 75 10000 4.1 220 06:31 18.03.2020
858 Clouds 6 1009 75 10000 7.2 220 05:36 18.03.2020
859 Clouds 6 1011 75 10000 4.1 220 04:29 18.03.2020
860 Clouds 7 1011 75 10000 4.1 240 02:51 18.03.2020
861 Clouds 7 1012 75 10000 4.1 230 02:23 18.03.2020
862 Clouds 7 1012 81 10000 3.1 230 01:29 18.03.2020
863 Clouds 7 1012 81 10000 4.1 240 00:26 18.03.2020
864 Clouds 7 1012 81 10000 4.1 230 23:59 17.03.2020
865 Clouds 7 1012 81 10000 4.1 230 23:40 17.03.2020
866 Clouds 7 1012 81 10000 3.6 230 23:19 17.03.2020
867 Clouds 7 1013 75 10000 3.6 230 22:42 17.03.2020
868 Clouds 7 1013 75 10000 3.6 230 22:23 17.03.2020
869 Clouds 7 1013 75 10000 4.6 230 21:42 17.03.2020
870 Clouds 7 1013 75 10000 4.6 230 21:22 17.03.2020
871 Clouds 7 1013 75 10000 4.6 230 20:56 17.03.2020
872 Clouds 7 1013 75 10000 4.6 230 20:37 17.03.2020
873 Clouds 7 1013 75 10000 4.1 230 20:18 17.03.2020
874 Clouds 7 1013 75 10000 4.6 230 19:41 17.03.2020
875 Clouds 7 1013 75 10000 4.6 230 19:18 17.03.2020
876 Clouds 7 1013 75 10000 4.6 230 18:56 17.03.2020
877 Clouds 8 1013 75 10000 5.1 240 18:38 17.03.2020
878 Clouds 8 1013 75 10000 5.1 240 18:20 17.03.2020
879 Clouds 8 1013 75 10000 5.7 230 17:41 17.03.2020
880 Clouds 8 1013 70 10000 6.7 230 17:23 17.03.2020
881 Clouds 8 1013 70 10000 7.2 230 16:57 17.03.2020
882 Clouds 8 1013 70 10000 6.7 230 16:39 17.03.2020
883 Clouds 8 1013 70 10000 6.7 230 16:18 17.03.2020
884 Clouds 8 1013 70 10000 5.7 230 15:44 17.03.2020
885 Clouds 8 1013 70 10000 6.7 240 15:22 17.03.2020
886 Clouds 8 1013 65 10000 7.7 230 14:44 17.03.2020
887 Clouds 7 1014 70 10000 7.2 230 14:24 17.03.2020
888 Clouds 7 1014 70 10000 6.2 230 13:56 17.03.2020
889 Clouds 7 1014 70 10000 6.2 230 13:38 17.03.2020
890 Clouds 7 1014 70 10000 8.7 230 13:20 17.03.2020
891 Clouds 7 1014 65 10000 6.7 220 12:42 17.03.2020
892 Clouds 7 1014 65 10000 7.2 210 12:22 17.03.2020
893 Clouds 6 1014 70 10000 5.7 220 11:48 17.03.2020
894 Clouds 6 1015 70 10000 5.7 220 11:29 17.03.2020
895 Clouds 6 1015 75 10000 5.1 210 10:58 17.03.2020
896 Clouds 5 1015 75 10000 5.1 210 10:39 17.03.2020
897 Clouds 5 1015 75 10000 5.1 210 10:21 17.03.2020
898 Clouds 5 1015 75 10000 6.2 210 09:59 17.03.2020
899 Clouds 5 1015 75 10000 5.1 210 09:40 17.03.2020
900 Clouds 5 1015 75 10000 5.1 210 09:19 17.03.2020
901 Clouds 4 1016 75 10000 5.1 210 08:48 17.03.2020
902 Clouds 4 1016 80 10000 4.1 210 08:23 17.03.2020
903 Clouds 3 1016 86 10000 3.6 200 07:50 17.03.2020
904 Clouds 3 1016 86 10000 4.1 210 07:28 17.03.2020
905 Clouds 3 1016 86 10000 4.1 200 06:59 17.03.2020
906 Clouds 3 1016 83 10000 4.1 200 06:34 17.03.2020
907 Clouds 3 1016 83 10000 4.1 190 05:56 17.03.2020
908 Clouds 2 1017 73 10000 4.6 170 03:56 17.03.2020
909 Clouds 2 1018 80 10000 4.1 160 02:46 17.03.2020
910 Clouds 0 1019 80 10000 3.6 150 01:49 17.03.2020
911 Clouds -1 1019 68 10000 3.1 150 01:25 17.03.2020
912 Clear -1 1019 67 10000 3.1 140 00:46 17.03.2020
913 Clear -2 1020 74 10000 1.5 150 23:48 16.03.2020
914 Clear -2 1020 74 10000 1.5 140 23:30 16.03.2020
915 Clear -2 1020 74 10000 1 140 22:41 16.03.2020
916 Clear -2 1020 68 10000 1.5 150 22:23 16.03.2020
917 Clear -2 1020 68 10000 2.1 170 21:58 16.03.2020
918 Clear -2 1020 68 10000 2.1 170 21:40 16.03.2020
919 Clear -2 1019 68 10000 1 80 21:21 16.03.2020
920 Clear -2 1019 68 10000 1.5 90 20:56 16.03.2020
921 Clear -2 1019 68 10000 1.5 90 20:37 16.03.2020
922 Clear -1 1019 67 10000 1 60 20:18 16.03.2020
923 Clear 0 1019 55 10000 1.5 50 19:41 16.03.2020
924 Clear 0 1018 44 10000 1.5 40 19:20 16.03.2020
925 Clear 1 1018 40 10000 2.1 30 18:43 16.03.2020
926 Clear 2 1017 41 10000 2.1 10 18:21 16.03.2020
927 Clear 3 1017 38 10000 2.6 30 17:55 16.03.2020
928 Clear 4 1016 38 10000 2.6 360 17:37 16.03.2020
929 Clear 4 1016 38 10000 2.6 360 17:18 16.03.2020
930 Clear 5 1016 38 10000 3.1 30 16:44 16.03.2020
931 Clear 5 1015 41 10000 3.1 350 16:24 16.03.2020
932 Clear 5 1015 41 10000 4.1 340 15:45 16.03.2020
933 Clear 5 1015 41 10000 4.1 360 15:27 16.03.2020
934 Clear 5 1014 38 10000 5.1 360 14:49 16.03.2020
935 Clear 6 1014 45 10000 4.6 340 14:28 16.03.2020
936 Clouds 5 1013 48 10000 4.1 350 13:59 16.03.2020
937 Clouds 5 1013 48 10000 4.1 350 13:41 16.03.2020
938 Clouds 5 1012 56 10000 5.1 340 13:22 16.03.2020
939 Clouds 5 1012 60 10000 3.6 30 12:45 16.03.2020
940 Clouds 5 1011 65 10000 4.1 20 12:24 16.03.2020
941 Clouds 4 1011 69 10000 4.1 360 11:47 16.03.2020
942 Clouds 4 1010 47 10000 3.6 20 11:28 16.03.2020
943 Clouds 3 1010 57 10000 3.1 10 10:56 16.03.2020
944 Clouds 3 1009 57 10000 4.6 30 10:37 16.03.2020
945 Clouds 3 1009 57 10000 4.6 30 10:18 16.03.2020
946 Snow 2 1009 57 10000 3.6 360 09:42 16.03.2020
947 Snow 2 1008 57 5000 4.6 20 09:21 16.03.2020
948 Snow 2 1007 57 4500 6.2 10 08:53 16.03.2020
949 Rain 4 1006 100 10000 2.1 250 08:25 16.03.2020
950 Rain 5 1005 100 8000 1.5 240 07:49 16.03.2020
951 Rain 5 1005 100 7000 2.1 220 07:25 16.03.2020
952 Rain 5 1005 100 10000 1.5 210 06:54 16.03.2020
953 Drizzle 5 1005 100 10000 2.1 190 06:25 16.03.2020
954 Drizzle 6 1004 93 10000 2.6 240 04:55 16.03.2020
955 Drizzle 6 1003 93 6000 3.1 220 02:42 16.03.2020
956 Rain 6 1003 87 10000 5.7 190 01:20 16.03.2020
957 Drizzle 6 1003 87 10000 5.7 210 00:39 16.03.2020
958 Rain 6 1003 87 10000 6.2 200 23:47 15.03.2020
959 Rain 6 1003 75 10000 6.7 200 23:20 15.03.2020
960 Rain 6 1003 75 10000 7.2 210 22:43 15.03.2020
961 Clouds 6 1003 75 10000 6.2 210 22:23 15.03.2020
962 Clouds 6 1004 81 10000 5.7 210 21:58 15.03.2020
963 Rain 6 1003 75 10000 7.2 190 21:38 15.03.2020
964 Rain 6 1003 75 10000 7.2 190 21:18 15.03.2020
965 Rain 6 1004 75 10000 7.2 190 20:42 15.03.2020
966 Clouds 6 1004 75 10000 8.2 190 20:21 15.03.2020
967 Clouds 5 1004 75 10000 6.2 180 19:58 15.03.2020
968 Clouds 5 1004 75 10000 6.2 180 19:39 15.03.2020
969 Clouds 6 1005 75 10000 6.7 180 19:39 15.03.2020
970 Clouds 6 1005 75 10000 6.7 180 19:20 15.03.2020
971 Clouds 6 1005 75 10000 6.7 180 19:20 15.03.2020
972 Clouds 6 1005 75 10000 5.7 180 18:55 15.03.2020
973 Clouds 6 1005 70 10000 6.2 190 18:37 15.03.2020
974 Clouds 6 1005 70 10000 6.2 190 18:19 15.03.2020
975 Clouds 5 1005 70 10000 6.2 180 17:41 15.03.2020
976 Clouds 5 1005 70 10000 6.7 180 17:21 15.03.2020
977 Clouds 6 1006 70 10000 7.2 180 16:58 15.03.2020
978 Clouds 6 1006 70 10000 7.2 180 16:40 15.03.2020
979 Clouds 6 1006 70 10000 8.2 190 16:21 15.03.2020
980 Clouds 6 1006 70 10000 9.8 180 15:48 15.03.2020
981 Clouds 6 1007 64 10000 9.3 190 15:30 15.03.2020
982 Clouds 6 1007 64 10000 9.3 180 14:58 15.03.2020
983 Clouds 6 1007 64 10000 9.3 180 14:38 15.03.2020
984 Clouds 6 1008 58 10000 7.7 180 14:19 15.03.2020
985 Clouds 5 1008 58 10000 8.2 180 13:55 15.03.2020
986 Clouds 5 1008 58 10000 8.2 180 13:37 15.03.2020
987 Clouds 5 1009 58 10000 7.2 180 13:18 15.03.2020
988 Clouds 5 1010 65 10000 7.7 170 12:40 15.03.2020
989 Clouds 5 1010 65 10000 7.7 170 12:21 15.03.2020
990 Clouds 5 1011 65 10000 7.2 170 11:44 15.03.2020
991 Clouds 5 1011 65 10000 7.2 190 11:25 15.03.2020
992 Clouds 5 1012 60 10000 7.7 190 10:59 15.03.2020
993 Clouds 5 1012 60 10000 7.7 190 10:39 15.03.2020
994 Clouds 4 1012 64 10000 6.7 180 10:21 15.03.2020
995 Clouds 4 1013 64 10000 7.7 190 09:57 15.03.2020
996 Clouds 4 1013 64 10000 7.7 190 09:36 15.03.2020
997 Clouds 3 1013 64 10000 7.7 180 09:18 15.03.2020
998 Clouds 2 1014 69 10000 6.7 190 08:41 15.03.2020
999 Clouds 2 1014 69 10000 6.2 190 08:19 15.03.2020
1000 Clouds 1 1014 69 10000 6.2 190 07:45 15.03.2020
1001 Clouds 1 1015 69 10000 6.2 190 07:21 15.03.2020
1002 Clouds 0 1015 57 10000 6.2 190 06:43 15.03.2020
1003 Clouds 0 1016 57 10000 5.1 190 05:48 15.03.2020
1004 Clouds 0 1017 56 10000 4.6 190 04:56 15.03.2020
1005 Clouds 0 1017 56 10000 4.6 190 04:37 15.03.2020
1006 Clouds 0 1017 56 10000 4.1 200 04:18 15.03.2020
1007 Clouds -1 1018 56 10000 3.1 180 02:54 15.03.2020
1008 Clouds -1 1019 56 10000 3.1 200 02:21 15.03.2020
1009 Clouds -1 1019 63 10000 3.1 200 00:57 15.03.2020
1010 Clouds -1 1019 54 10000 3.6 210 00:39 15.03.2020
1011 Clouds -1 1019 54 10000 3.6 210 00:18 15.03.2020
1012 Clouds -1 1020 58 10000 3.6 200 23:39 14.03.2020
1013 Clear -1 1020 58 10000 3.6 200 23:19 14.03.2020
1014 Clear -1 1020 54 10000 2.6 210 22:55 14.03.2020
1015 Clear -1 1020 54 10000 2.6 210 22:37 14.03.2020
1016 Clear -1 1020 54 10000 3.1 210 22:19 14.03.2020
1017 Clear -1 1020 50 10000 3.1 210 21:55 14.03.2020
1018 Clear -1 1020 50 10000 3.1 210 21:55 14.03.2020
1019 Clear -1 1020 50 10000 3.1 210 21:36 14.03.2020
1020 Clear -1 1020 46 10000 2.1 200 21:18 14.03.2020
1021 Clear -1 1020 54 10000 2.1 220 20:55 14.03.2020
1022 Clear -1 1020 54 10000 2.1 220 20:37 14.03.2020
1023 Clear -1 1020 54 10000 2.1 200 20:18 14.03.2020
1024 Clear -1 1020 54 10000 1.5 200 19:40 14.03.2020
1025 Clear -1 1020 54 10000 1.5 200 19:20 14.03.2020
1026 Clear 0 1020 50 10000 2.1 220 18:39 14.03.2020
1027 Clear 0 1020 50 10000 2.1 220 18:20 14.03.2020
1028 Clear 1 1020 31 10000 3.1 240 17:42 14.03.2020
1029 Clear 2 1020 31 10000 3.1 240 17:21 14.03.2020
1030 Clear 2 1020 29 10000 4.1 270 16:58 14.03.2020
1031 Clear 2 1020 29 10000 4.1 270 16:38 14.03.2020
1032 Clear 2 1020 29 10000 5.1 250 16:19 14.03.2020
1033 Clear 2 1020 31 10000 4.6 280 15:44 14.03.2020
1034 Clear 2 1020 31 10000 4.6 270 15:22 14.03.2020
1035 Clear 2 1020 31 10000 5.7 260 14:40 14.03.2020
1036 Clear 2 1020 29 10000 5.7 280 14:21 14.03.2020
1037 Clear 2 1020 31 10000 5.1 290 13:57 14.03.2020
1038 Clear 2 1020 31 10000 5.1 290 13:38 14.03.2020
1039 Clear 2 1020 34 10000 7.2 280 13:19 14.03.2020
1040 Clear 1 1020 37 10000 6.7 260 12:44 14.03.2020
1041 Clear 1 1020 28 10000 5.7 290 12:25 14.03.2020
1042 Clear 0 1020 28 10000 5.7 290 11:46 14.03.2020
1043 Clear 0 1020 28 10000 5.7 290 11:26 14.03.2020
1044 Clear -1 1019 46 10000 5.7 290 10:57 14.03.2020
1045 Clear -1 1019 46 10000 5.7 290 10:38 14.03.2020
1046 Clear -1 1019 46 10000 5.7 290 10:20 14.03.2020
1047 Clear -2 1019 50 10000 6.2 300 09:41 14.03.2020
1048 Clear -2 1018 50 10000 5.1 310 09:22 14.03.2020
1049 Clear -3 1018 53 10000 4.6 310 08:47 14.03.2020
1050 Clear -3 1018 53 10000 4.6 310 08:47 14.03.2020
1051 Clear -3 1017 53 10000 5.1 310 08:27 14.03.2020
1052 Clear -4 1017 58 10000 4.1 300 07:49 14.03.2020
1053 Clear -4 1017 58 10000 4.1 310 07:23 14.03.2020
1054 Clear -4 1016 58 10000 4.1 310 06:59 14.03.2020
1055 Clear -4 1015 58 10000 5.1 310 06:39 14.03.2020
1056 Clear -4 1014 58 10000 5.1 300 04:58 14.03.2020
1057 Clear -3 1013 49 10000 6.2 310 03:41 14.03.2020
1058 Clear -3 1013 49 10000 4.6 300 03:20 14.03.2020
1059 Clear -3 1012 45 10000 5.7 310 02:19 14.03.2020
1060 Clouds -2 1010 42 10000 6.2 320 00:42 14.03.2020
1061 Clouds -1 1009 42 10000 4.6 310 23:44 13.03.2020
1062 Clouds -1 1008 46 10000 4.6 320 23:25 13.03.2020
1063 Clouds -1 1007 49 10000 4.1 320 22:46 13.03.2020
1064 Clouds 0 1007 49 10000 4.1 320 22:25 13.03.2020
1065 Clouds 0 1006 49 10000 5.1 340 21:42 13.03.2020
1066 Clouds 0 1006 49 10000 4.6 330 21:21 13.03.2020
1067 Clouds 0 1005 63 10000 2.1 310 20:57 13.03.2020
1068 Clouds 0 1005 63 10000 2.1 310 20:38 13.03.2020
1069 Clouds 0 1004 55 10000 2.1 320 20:19 13.03.2020
1070 Clouds 0 1003 50 10000 2.6 340 19:42 13.03.2020
1071 Clouds 0 1003 50 10000 2.6 340 19:42 13.03.2020
1072 Clouds 0 1003 50 10000 2.6 340 19:23 13.03.2020
1073 Clouds 0 1003 50 10000 2.6 340 19:23 13.03.2020
1074 Clouds 1 1002 43 10000 2.6 350 18:44 13.03.2020
1075 Clouds 1 1002 47 10000 4.6 340 18:25 13.03.2020
1076 Clouds 2 1001 37 10000 4.6 320 17:55 13.03.2020
1077 Clouds 2 1001 34 10000 4.1 320 17:37 13.03.2020
1078 Clouds 2 1001 34 10000 4.1 320 17:18 13.03.2020
1079 Clouds 3 1000 34 10000 5.1 330 16:40 13.03.2020
1080 Clouds 3 1000 37 10000 5.1 320 16:22 13.03.2020
1081 Clouds 3 1000 37 10000 4.6 310 15:55 13.03.2020
1082 Clouds 3 1000 37 10000 4.6 310 15:37 13.03.2020
1083 Clouds 3 999 37 10000 3.6 320 15:18 13.03.2020
1084 Clouds 3 999 37 10000 4.6 310 14:41 13.03.2020
1085 Clouds 3 999 34 10000 5.1 320 14:22 13.03.2020
1086 Clouds 3 998 32 10000 5.7 340 13:56 13.03.2020
1087 Clouds 3 997 40 10000 4.1 310 13:37 13.03.2020
1088 Clouds 3 997 40 10000 4.1 310 13:18 13.03.2020
1089 Clouds 3 997 37 10000 5.7 320 12:40 13.03.2020
1090 Clouds 3 997 37 10000 5.7 320 12:21 13.03.2020
1091 Clouds 3 997 40 10000 4.6 350 11:57 13.03.2020
1092 Clouds 3 997 40 10000 4.6 350 11:38 13.03.2020
1093 Clear 3 996 47 10000 4.6 310 11:19 13.03.2020
1094 Clear 3 996 47 10000 4.6 310 10:47 13.03.2020
1095 Clear 2 995 51 10000 5.1 330 10:26 13.03.2020
1096 Clear 2 995 51 10000 6.2 330 09:57 13.03.2020
1097 Clear 2 994 55 10000 6.2 320 09:38 13.03.2020
1098 Clear 2 994 55 10000 6.2 320 09:20 13.03.2020
1099 Clear 2 994 59 10000 4.6 320 08:44 13.03.2020
1100 Clear 2 993 64 10000 4.6 320 08:22 13.03.2020
1101 Clouds 1 992 69 10000 4.1 310 07:47 13.03.2020
1102 Clouds 1 992 74 10000 5.1 310 07:28 13.03.2020
1103 Clouds 2 991 74 10000 4.6 300 06:47 13.03.2020
1104 Clouds 2 990 80 10000 4.6 300 06:26 13.03.2020
1105 Clouds 2 990 65 10000 5.7 280 05:49 13.03.2020
1106 Clouds 2 990 78 10000 5.7 280 05:20 13.03.2020
1107 Clouds 2 989 78 10000 5.7 270 04:37 13.03.2020
1108 Clouds 2 987 78 10000 5.1 250 03:31 13.03.2020
1109 Clouds 2 986 75 10000 5.7 240 01:45 13.03.2020
1110 Clouds 2 986 75 10000 6.2 250 01:19 13.03.2020
1111 Clouds 2 985 75 10000 6.2 250 00:47 13.03.2020
1112 Clouds 2 985 75 10000 5.7 250 00:24 13.03.2020
1113 Clouds 2 985 75 10000 5.7 250 23:48 12.03.2020
1114 Clouds 2 984 75 10000 6.2 250 23:26 12.03.2020
1115 Clouds 2 984 68 10000 6.2 250 22:56 12.03.2020
1116 Clouds 2 984 68 10000 6.2 250 22:38 12.03.2020
1117 Clouds 3 983 68 10000 6.2 260 22:19 12.03.2020
1118 Clouds 3 982 68 10000 5.7 260 21:43 12.03.2020
1119 Clouds 3 982 68 10000 6.2 260 21:25 12.03.2020
1120 Clouds 3 982 68 10000 6.2 260 21:25 12.03.2020
1121 Clouds 3 981 86 10000 5.7 260 20:56 12.03.2020
1122 Clouds 3 980 80 10000 5.1 270 20:37 12.03.2020
1123 Rain 3 981 86 10000 5.1 260 20:18 12.03.2020
1124 Rain 3 979 93 10000 5.7 270 19:39 12.03.2020
1125 Rain 3 979 93 10000 5.7 270 19:20 12.03.2020
1126 Rain 3 978 93 10000 5.1 270 18:43 12.03.2020
1127 Rain 3 977 93 10000 5.1 280 18:24 12.03.2020
1128 Rain 3 977 93 10000 5.1 280 17:57 12.03.2020
1129 Clouds 3 976 93 10000 4.1 310 17:38 12.03.2020
1130 Clouds 3 976 93 10000 4.1 310 17:38 12.03.2020
1131 Rain 3 976 93 10000 4.1 310 17:19 12.03.2020
1132 Rain 3 975 93 10000 3.6 350 16:55 12.03.2020
1133 Rain 2 974 100 6000 3.6 320 16:37 12.03.2020
1134 Rain 2 974 100 6000 3.6 320 16:18 12.03.2020
1135 Snow 2 974 100 5000 3.6 340 15:44 12.03.2020
1136 Rain 2 974 100 4500 2.1 350 15:26 12.03.2020
1137 Rain 2 974 100 6000 3.1 30 14:40 12.03.2020
1138 Rain 3 975 100 6000 3.1 40 14:21 12.03.2020
1139 Rain 3 975 100 6000 3.1 40 14:21 12.03.2020
1140 Rain 3 975 93 6000 4.1 60 13:56 12.03.2020
1141 Rain 3 975 93 6000 4.1 60 13:36 12.03.2020
1142 Rain 3 976 93 6000 4.1 60 13:18 12.03.2020
1143 Rain 3 978 93 5000 3.1 70 12:41 12.03.2020
1144 Rain 3 979 93 5000 2.6 120 12:21 12.03.2020
1145 Rain 4 980 93 6000 2.6 160 11:56 12.03.2020
1146 Rain 4 981 86 5000 4.1 190 11:38 12.03.2020
1147 Rain 4 981 86 5000 4.1 190 11:19 12.03.2020
1148 Rain 5 981 86 10000 2.6 170 10:58 12.03.2020
1149 Rain 5 982 86 10000 2.1 170 10:40 12.03.2020
1150 Rain 5 982 86 10000 2.1 170 10:22 12.03.2020
1151 Clouds 5 983 80 10000 2.6 180 09:46 12.03.2020
1152 Clouds 5 983 80 10000 3.1 200 09:25 12.03.2020
1153 Clouds 5 984 75 10000 4.6 200 08:44 12.03.2020
1154 Clouds 5 984 75 10000 3.6 230 08:20 12.03.2020
1155 Clouds 5 984 75 10000 4.6 240 07:56 12.03.2020
1156 Clouds 5 984 75 10000 4.6 240 07:38 12.03.2020
1157 Clouds 5 985 75 10000 3.6 230 07:20 12.03.2020
1158 Clouds 5 986 75 10000 5.7 240 05:48 12.03.2020
1159 Clouds 6 986 75 10000 5.7 240 05:25 12.03.2020
1160 Clouds 5 988 80 10000 4.6 230 02:41 12.03.2020
1161 Clouds 4 989 75 10000 4.1 220 01:31 12.03.2020
1162 Clouds 4 990 80 10000 4.6 230 00:47 12.03.2020
1163 Clouds 4 990 75 10000 4.1 240 00:27 12.03.2020
1164 Clouds 4 990 75 10000 5.7 240 23:47 11.03.2020
1165 Clouds 4 990 75 10000 6.2 250 23:25 11.03.2020
1166 Clear 5 991 75 10000 7.7 250 22:48 11.03.2020
1167 Clear 5 991 75 10000 7.2 250 22:30 11.03.2020
1168 Clear 5 991 70 10000 8.2 250 21:59 11.03.2020
1169 Clear 5 991 70 10000 8.2 250 21:41 11.03.2020
1170 Clear 5 990 70 10000 7.2 250 21:22 11.03.2020
1171 Clear 6 990 70 10000 8.2 250 20:58 11.03.2020
1172 Clear 6 990 70 10000 8.2 250 20:39 11.03.2020
1173 Clouds 6 990 59 10000 6.7 250 20:20 11.03.2020
1174 Clouds 6 989 59 10000 6.2 250 19:44 11.03.2020
1175 Clouds 6 989 59 10000 6.2 260 19:26 11.03.2020
1176 Clouds 6 989 70 10000 5.7 250 18:59 11.03.2020
1177 Clouds 6 989 70 10000 5.7 250 18:40 11.03.2020
1178 Clouds 6 988 81 10000 4.1 250 18:22 11.03.2020
1179 Clouds 6 988 81 10000 5.1 270 17:59 11.03.2020
1180 Clouds 6 987 81 10000 7.7 270 17:39 11.03.2020
1181 Clouds 6 987 81 10000 7.7 270 17:20 11.03.2020
1182 Clouds 6 987 81 10000 8.2 270 16:47 11.03.2020
1183 Clouds 6 987 75 10000 7.2 260 16:23 11.03.2020
1184 Clouds 6 986 75 10000 6.7 270 15:59 11.03.2020
1185 Clouds 6 986 75 10000 6.7 270 15:40 11.03.2020
1186 Clouds 6 986 75 10000 7.7 270 15:22 11.03.2020
1187 Clouds 6 985 80 10000 6.2 260 14:42 11.03.2020
1188 Clouds 5 985 80 10000 6.2 270 14:23 11.03.2020
1189 Clouds 5 985 80 10000 6.7 270 13:56 11.03.2020
1190 Clouds 5 985 80 10000 6.7 270 13:37 11.03.2020
1191 Clouds 5 984 80 10000 9.3 260 13:19 11.03.2020
1192 Clouds 5 983 86 10000 6.2 270 12:40 11.03.2020
1193 Clouds 5 983 86 10000 6.2 270 12:20 11.03.2020
1194 Clouds 4 983 93 10000 6.2 270 11:55 11.03.2020
1195 Clouds 4 983 93 10000 6.2 260 11:37 11.03.2020
1196 Clouds 4 983 93 10000 6.2 260 11:18 11.03.2020
1197 Clouds 4 983 93 10000 6.2 260 10:42 11.03.2020
1198 Clouds 4 983 93 10000 5.1 260 10:18 11.03.2020
1199 Clouds 4 983 93 10000 5.1 270 09:43 11.03.2020
1200 Clouds 4 982 93 10000 5.7 260 09:25 11.03.2020
1201 Clouds 4 982 93 10000 4.6 260 08:58 11.03.2020
1202 Clouds 4 982 93 10000 4.6 260 08:39 11.03.2020
1203 Clouds 4 982 93 10000 4.1 260 08:18 11.03.2020
1204 Clouds 4 982 93 10000 4.1 260 07:42 11.03.2020
1205 Clouds 4 981 93 10000 4.1 270 07:19 11.03.2020
1206 Clouds 4 981 93 10000 4.1 260 06:43 11.03.2020
1207 Mist 4 981 100 8000 2.6 240 05:36 11.03.2020
1208 Mist 4 982 100 7000 1 140 04:29 11.03.2020
1209 Mist 4 983 93 8000 3.6 110 02:20 11.03.2020
1210 Rain 4 985 93 10000 5.1 140 01:27 11.03.2020
1211 Drizzle 4 985 93 4200 4.6 140 00:46 11.03.2020
1212 Rain 4 987 93 10000 6.2 140 23:58 10.03.2020
1213 Rain 4 988 93 9000 6.7 140 23:40 10.03.2020
1214 Rain 4 988 93 9000 6.7 140 23:21 10.03.2020
1215 Rain 4 988 93 5000 6.2 140 22:39 10.03.2020
1216 Rain 4 989 93 5000 5.7 130 22:20 10.03.2020
1217 Rain 4 989 93 5000 5.7 130 22:20 10.03.2020
1218 Drizzle 4 990 93 10000 6.2 140 21:57 10.03.2020
1219 Drizzle 4 990 93 10000 6.2 140 21:57 10.03.2020
1220 Drizzle 4 990 93 10000 6.2 140 21:38 10.03.2020
1221 Drizzle 4 991 93 10000 5.1 140 21:38 10.03.2020
1222 Drizzle 4 991 93 10000 5.1 140 21:20 10.03.2020
1223 Rain 5 992 86 9000 5.1 150 20:59 10.03.2020
1224 Rain 5 992 86 9000 5.1 150 20:41 10.03.2020
1225 Drizzle 4 993 86 9000 5.7 150 20:18 10.03.2020
1226 Clouds 5 993 86 10000 4.6 150 19:56 10.03.2020
1227 Clouds 5 993 86 10000 4.6 150 19:37 10.03.2020
1228 Clouds 5 994 86 10000 4.1 150 19:19 10.03.2020
1229 Clouds 5 994 86 10000 4.6 160 18:44 10.03.2020
1230 Clouds 5 995 86 10000 4.1 170 18:26 10.03.2020
1231 Clouds 5 995 86 10000 5.1 170 17:57 10.03.2020
1232 Clouds 5 996 86 10000 4.6 170 17:39 10.03.2020
1233 Clouds 5 996 86 10000 4.6 170 17:21 10.03.2020
1234 Clouds 6 997 81 10000 4.6 160 16:39 10.03.2020
1235 Clouds 6 997 81 10000 4.6 160 16:19 10.03.2020
1236 Clouds 6 997 87 10000 4.1 160 15:56 10.03.2020
1237 Clouds 6 997 87 10000 4.1 180 15:37 10.03.2020
1238 Clouds 6 997 87 10000 4.1 180 15:37 10.03.2020
1239 Clouds 6 997 87 10000 4.1 180 15:19 10.03.2020
1240 Rain 6 998 87 10000 4.6 170 14:41 10.03.2020
1241 Clouds 6 998 87 10000 3.1 180 14:20 10.03.2020
1242 Clouds 6 999 87 10000 4.1 170 13:57 10.03.2020
1243 Clouds 6 999 87 10000 4.1 170 13:38 10.03.2020
1244 Clouds 6 999 93 10000 2.6 190 13:19 10.03.2020
1245 Clouds 6 1000 100 10000 2.1 190 12:41 10.03.2020
1246 Clouds 5 1000 93 10000 2.6 180 12:19 10.03.2020
1247 Clouds 5 1000 100 10000 2.1 200 11:58 10.03.2020
1248 Rain 5 1000 93 3800 3.1 200 11:40 10.03.2020
1249 Rain 5 1000 93 3800 3.1 200 11:22 10.03.2020
1250 Drizzle 5 1000 93 6000 2.1 190 10:42 10.03.2020
1251 Drizzle 5 1001 93 5000 2.6 220 10:23 10.03.2020
1252 Rain 5 1001 93 6000 2.6 210 09:57 10.03.2020
1253 Rain 5 1001 93 6000 2.6 210 09:39 10.03.2020
1254 Clouds 5 1001 100 8000 2.6 210 09:19 10.03.2020
1255 Mist 5 1001 93 8000 2.6 210 08:51 10.03.2020
1256 Mist 5 1001 93 8000 2.6 210 08:32 10.03.2020
1257 Mist 4 1001 100 4900 2.6 200 07:50 10.03.2020
1258 Mist 4 1001 100 5000 2.1 220 07:31 10.03.2020
1259 Mist 4 1001 100 6000 1.5 210 06:45 10.03.2020
1260 Mist 4 1001 93 2900 0.5 230 06:27 10.03.2020
1261 Drizzle 4 1002 100 9000 2.1 300 05:41 10.03.2020
1262 Mist 4 1002 100 7000 2.6 280 04:40 10.03.2020
1263 Rain 4 1002 93 1700 1.5 260 03:41 10.03.2020
1264 Mist 4 1002 93 4700 1 150 02:26 10.03.2020
1265 Mist 4 1003 93 4900 1.5 140 01:22 10.03.2020
1266 Rain 4 1003 93 5000 2.1 130 00:42 10.03.2020
1267 Rain 4 1004 100 3900 2.1 120 00:22 10.03.2020
1268 Rain 4 1005 100 5000 1.5 120 23:40 09.03.2020
1269 Rain 4 1005 100 5000 1.5 120 23:21 09.03.2020
1270 Rain 4 1005 100 7000 1 0 22:41 09.03.2020
1271 Clouds 4 1005 100 9000 1.5 140 22:22 09.03.2020
1272 Clouds 4 1005 100 9000 2.1 150 21:57 09.03.2020
1273 Clouds 4 1005 100 9000 2.1 150 21:39 09.03.2020
1274 Clouds 4 1005 100 9000 2.1 150 21:20 09.03.2020
1275 Clouds 4 1005 100 9000 2.6 150 20:56 09.03.2020
1276 Clouds 4 1005 100 9000 2.6 150 20:37 09.03.2020
1277 Clouds 4 1006 93 9000 1.5 160 20:19 09.03.2020
1278 Clouds 5 1006 93 10000 3.1 150 19:44 09.03.2020
1279 Clouds 5 1006 87 10000 2.6 170 19:25 09.03.2020
1280 Clouds 6 1006 87 10000 2.1 160 18:58 09.03.2020
1281 Clouds 6 1006 81 10000 3.1 180 18:38 09.03.2020
1282 Clouds 7 1006 81 10000 3.1 180 18:19 09.03.2020
1283 Clouds 7 1006 75 10000 3.6 190 17:57 09.03.2020
1284 Clouds 8 1006 75 10000 3.6 180 17:38 09.03.2020
1285 Clouds 8 1006 75 10000 3.6 180 17:20 09.03.2020
1286 Clouds 9 1006 70 10000 2.6 200 16:58 09.03.2020
1287 Clouds 9 1006 70 10000 2.6 200 16:39 09.03.2020
1288 Clouds 9 1006 70 10000 3.1 190 16:20 09.03.2020
1289 Clouds 9 1006 70 10000 3.1 190 15:57 09.03.2020
1290 Clouds 9 1006 66 10000 3.6 180 15:38 09.03.2020
1291 Clouds 9 1006 66 10000 3.6 180 15:19 09.03.2020
1292 Clouds 10 1006 61 10000 3.6 210 14:54 09.03.2020
1293 Clouds 9 1006 57 10000 3.1 210 14:36 09.03.2020
1294 Clouds 10 1006 57 10000 3.1 210 14:36 09.03.2020
1295 Clouds 10 1006 57 10000 3.1 210 14:18 09.03.2020
1296 Clouds 9 1006 61 10000 4.6 240 13:40 09.03.2020
1297 Clouds 9 1006 61 10000 4.6 240 13:22 09.03.2020
1298 Clouds 9 1006 61 10000 5.1 240 12:59 09.03.2020
1299 Clouds 9 1006 61 10000 5.1 240 12:41 09.03.2020
1300 Clouds 9 1006 61 10000 5.1 220 12:20 09.03.2020
1301 Clouds 9 1006 70 10000 4.1 220 11:41 09.03.2020
1302 Clouds 9 1006 70 10000 4.1 220 11:21 09.03.2020
1303 Clouds 8 1006 70 10000 4.6 200 10:58 09.03.2020
1304 Clouds 8 1006 75 10000 4.6 200 10:40 09.03.2020
1305 Clouds 8 1006 75 10000 4.6 200 10:20 09.03.2020
1306 Clouds 7 1006 81 10000 4.6 210 09:44 09.03.2020
1307 Clouds 7 1006 81 10000 4.1 190 09:24 09.03.2020
1308 Clouds 7 1006 81 10000 3.6 210 08:59 09.03.2020
1309 Clouds 6 1006 87 10000 4.1 190 08:39 09.03.2020
1310 Clouds 6 1006 87 10000 4.1 190 08:21 09.03.2020
1311 Clouds 5 1005 93 10000 2.6 180 07:40 09.03.2020
1312 Clouds 6 1005 93 10000 2.6 180 07:21 09.03.2020
1313 Clouds 5 1005 93 10000 2.6 190 06:43 09.03.2020
1314 Clouds 5 1005 93 10000 3.1 180 06:23 09.03.2020
1315 Clouds 6 1005 87 10000 3.1 190 05:47 09.03.2020
1316 Clouds 6 1005 87 10000 4.6 190 05:18 09.03.2020
1317 Clouds 6 1004 87 10000 4.6 190 04:40 09.03.2020
1318 Clouds 6 1004 87 10000 4.6 190 04:21 09.03.2020
1319 Clouds 5 1004 86 10000 5.1 180 02:58 09.03.2020
1320 Clouds 6 1004 81 10000 5.1 180 01:18 09.03.2020
1321 Clouds 6 1004 81 10000 5.7 180 00:37 09.03.2020
1322 Clouds 6 1004 81 10000 5.7 180 00:19 09.03.2020
1323 Clouds 6 1004 81 10000 5.7 180 23:42 08.03.2020
1324 Clouds 6 1004 81 10000 5.7 180 23:21 08.03.2020
1325 Clouds 6 1004 81 10000 6.2 170 22:55 08.03.2020
1326 Clouds 6 1004 81 10000 5.7 170 22:37 08.03.2020
1327 Clouds 6 1004 81 10000 5.7 170 22:18 08.03.2020
1328 Clouds 6 1004 81 10000 7.2 180 21:42 08.03.2020
1329 Clouds 6 1004 81 10000 7.2 180 21:23 08.03.2020
1330 Clouds 6 1004 81 10000 6.2 180 20:59 08.03.2020
1331 Clouds 6 1004 81 10000 5.7 170 20:39 08.03.2020
1332 Clouds 6 1004 81 10000 5.7 170 20:20 08.03.2020
1333 Clouds 6 1004 81 10000 5.7 170 19:41 08.03.2020
1334 Clouds 6 1005 81 10000 7.7 170 19:21 08.03.2020
1335 Clouds 6 1005 81 10000 7.7 170 18:59 08.03.2020
1336 Clouds 6 1005 75 10000 4.1 170 18:40 08.03.2020
1337 Clouds 6 1005 75 10000 4.6 170 18:21 08.03.2020
1338 Clouds 6 1005 75 10000 7.2 170 17:55 08.03.2020
1339 Clouds 6 1005 75 10000 7.2 170 17:37 08.03.2020
1340 Clouds 6 1005 75 10000 7.2 170 17:37 08.03.2020
1341 Clouds 6 1005 75 10000 7.2 170 17:18 08.03.2020
1342 Clouds 6 1005 75 10000 7.2 170 16:42 08.03.2020
1343 Clouds 6 1005 75 10000 6.2 170 16:23 08.03.2020
1344 Clouds 6 1006 75 10000 6.2 170 15:55 08.03.2020
1345 Clouds 6 1006 75 10000 6.2 170 15:37 08.03.2020
1346 Clouds 6 1005 70 10000 10.3 180 15:18 08.03.2020
1347 Clouds 6 1006 70 10000 7.2 170 14:40 08.03.2020
1348 Clouds 7 1007 70 10000 8.2 180 14:21 08.03.2020
1349 Clouds 7 1007 70 10000 7.7 180 13:55 08.03.2020
1350 Clouds 7 1007 70 10000 7.7 180 13:36 08.03.2020
1351 Clouds 7 1007 70 10000 6.2 180 13:18 08.03.2020
1352 Clouds 7 1008 70 10000 7.2 180 12:38 08.03.2020
1353 Clouds 6 1008 70 10000 7.7 180 12:18 08.03.2020
1354 Clouds 6 1008 65 10000 7.2 180 11:42 08.03.2020
1355 Clouds 6 1009 70 10000 6.2 170 11:24 08.03.2020
1356 Clouds 6 1009 70 10000 6.2 170 10:58 08.03.2020
1357 Clouds 6 1009 70 10000 6.2 170 10:40 08.03.2020
1358 Clouds 5 1009 75 10000 5.1 170 10:21 08.03.2020
1359 Clouds 5 1009 80 10000 5.1 170 09:40 08.03.2020
1360 Clouds 4 1010 86 10000 4.6 170 09:22 08.03.2020
1361 Clouds 4 1010 86 10000 4.1 160 08:49 08.03.2020
1362 Clouds 4 1010 86 10000 4.1 160 08:49 08.03.2020
1363 Clouds 3 1010 93 10000 4.6 160 08:24 08.03.2020
1364 Clouds 3 1010 93 10000 3.6 170 07:50 08.03.2020
1365 Clouds 2 1010 93 10000 3.6 170 07:28 08.03.2020
1366 Clouds 2 1010 100 10000 4.1 160 06:51 08.03.2020
1367 Clouds 1 1010 100 9000 3.6 160 06:33 08.03.2020
1368 Clouds 1 1011 100 10000 3.6 160 05:58 08.03.2020
1369 Mist 0 1011 92 8000 2.1 150 04:50 08.03.2020
1370 Mist 0 1011 100 3400 1.5 130 03:27 08.03.2020
1371 Fog -1 1012 100 2000 1 0 02:27 08.03.2020
1372 Fog -1 1012 100 100 2.21 205 01:21 08.03.2020
1373 Fog -1 1012 100 150 1.5 130 00:42 08.03.2020
1374 Fog -1 1013 100 150 0.5 0 00:22 08.03.2020
1375 Fog -1 1013 100 150 0.5 0 23:43 07.03.2020
1376 Fog -1 1013 100 150 1 190 23:21 07.03.2020
1377 Fog -1 1013 100 100 1 0 22:38 07.03.2020
1378 Fog -1 1013 100 100 1 0 22:38 07.03.2020
1379 Fog -1 1013 100 100 1 0 22:20 07.03.2020
1380 Fog -1 1013 100 100 1 0 21:47 07.03.2020
1381 Fog -1 1013 95 100 1 0 21:24 07.03.2020
1382 Fog -1 1012 95 100 0.5 0 20:42 07.03.2020
1383 Fog 0 1012 94 100 0.5 0 20:23 07.03.2020
1384 Fog 0 1012 94 100 0.5 0 20:23 07.03.2020
1385 Fog 0 1012 93 100 1.5 310 19:58 07.03.2020
1386 Fog 0 1012 100 100 2.1 290 19:40 07.03.2020
1387 Fog 1 1012 100 100 2.1 290 19:20 07.03.2020
1388 Fog 0 1012 100 150 2.1 260 18:41 07.03.2020
1389 Fog 1 1012 100 400 2.6 250 18:22 07.03.2020
1390 Clouds 2 1012 93 10000 2.6 250 17:54 07.03.2020
1391 Clouds 3 1011 86 10000 2.6 240 17:36 07.03.2020
1392 Clouds 4 1011 86 10000 2.6 240 17:18 07.03.2020
1393 Clouds 5 1011 75 10000 1 0 16:42 07.03.2020
1394 Clouds 5 1011 75 10000 1 0 16:23 07.03.2020
1395 Clouds 5 1011 80 10000 2.1 270 15:57 07.03.2020
1396 Clouds 5 1011 86 10000 3.1 290 15:39 07.03.2020
1397 Clouds 5 1011 86 10000 3.1 290 15:20 07.03.2020
1398 Clouds 5 1011 80 10000 1 0 14:54 07.03.2020
1399 Clouds 5 1011 80 10000 1 0 14:36 07.03.2020
1400 Clouds 5 1011 80 10000 1 0 14:18 07.03.2020
1401 Clouds 5 1011 86 10000 1.5 90 13:39 07.03.2020
1402 Clouds 5 1011 86 10000 1.5 90 13:19 07.03.2020
1403 Clouds 4 1011 86 10000 1 0 12:42 07.03.2020
1404 Clouds 4 1011 86 10000 1 0 12:20 07.03.2020
1405 Clouds 4 1011 100 10000 1 0 11:58 07.03.2020
1406 Clouds 4 1011 100 10000 1 0 11:58 07.03.2020
1407 Clouds 4 1011 100 10000 1 0 11:39 07.03.2020
1408 Clouds 4 1011 100 10000 1 0 11:21 07.03.2020
1409 Clouds 3 1011 100 8000 1.5 0 10:41 07.03.2020
1410 Clouds 3 1011 100 8000 1.5 0 10:21 07.03.2020
1411 Mist 3 1011 100 4500 2.1 30 09:57 07.03.2020
1412 Mist 2 1010 100 3300 1.5 50 09:38 07.03.2020
1413 Mist 2 1010 100 3300 1.5 50 09:18 07.03.2020
1414 Mist 2 1010 100 3300 1.5 50 09:18 07.03.2020
1415 Clouds 1 1010 100 1100 1.5 40 08:44 07.03.2020
1416 Clouds 1 1010 100 600 1.5 40 08:21 07.03.2020
1417 Fog 1 1010 100 350 2.1 40 07:51 07.03.2020
1418 Fog 1 1010 92 350 1.62 58 07:23 07.03.2020
1419 Clouds 1 1003 95 0 1.62 58 06:57 07.03.2020
1420 Clouds 1 1012 90 0 1.62 58 06:33 07.03.2020
1421 Clouds 1 1003 95 0 1.62 58 05:53 07.03.2020
1422 Fog 0 1009 90 150 2.1 40 04:47 07.03.2020
1423 Clouds 0 1010 85 0 1.39 62 02:57 07.03.2020
1424 Clouds -1 1009 100 10000 0.5 360 02:33 07.03.2020
1425 Clouds -2 1009 100 10000 0.93 83 01:26 07.03.2020
1426 Clouds -1 1009 92 10000 0.5 290 00:40 07.03.2020
1427 Clouds -1 1009 92 10000 0.5 290 00:21 07.03.2020
1428 Clouds -2 1009 100 10000 0.93 83 23:49 06.03.2020
1429 Clouds -2 1009 100 10000 0.93 83 23:26 06.03.2020
1430 Clouds -2 1009 92 10000 1.26 157 22:48 06.03.2020
1431 Clouds -2 1009 92 10000 1.26 157 22:23 06.03.2020
1432 Clouds -1 1009 92 10000 1.26 157 21:59 06.03.2020
1433 Clouds -1 1008 92 10000 1.26 157 21:41 06.03.2020
1434 Clouds -1 1008 92 10000 1.26 157 21:18 06.03.2020
1435 Clouds 0 1008 86 10000 1.26 157 20:39 06.03.2020
1436 Clouds 0 1008 86 10000 1.43 167 20:20 06.03.2020
1437 Clouds 0 1008 86 10000 1.5 150 19:51 06.03.2020
1438 Clouds 0 1008 80 10000 1.5 160 19:33 06.03.2020
1439 Clouds 1 1008 80 10000 1.5 160 18:59 06.03.2020
1440 Clouds 1 1007 74 10000 2.6 170 18:40 06.03.2020
1441 Clouds 2 1007 69 10000 2.1 130 18:19 06.03.2020
1442 Clouds 3 1006 69 10000 1 0 17:43 06.03.2020
1443 Clouds 3 1006 69 10000 1 0 17:25 06.03.2020
1444 Clear 4 1006 56 10000 0.86 167 16:59 06.03.2020
1445 Clear 5 1006 56 10000 0.86 167 16:41 06.03.2020
1446 Clear 5 1006 56 10000 0.86 167 16:20 06.03.2020
1447 Clear 5 1006 52 10000 0.5 0 15:45 06.03.2020
1448 Clear 6 1006 56 10000 1.5 0 15:25 06.03.2020
1449 Clear 6 1006 56 10000 1 0 14:55 06.03.2020
1450 Clear 5 1006 60 10000 1.5 280 14:37 06.03.2020
1451 Clear 5 1006 60 10000 1.5 280 14:19 06.03.2020
1452 Clear 5 1006 56 10000 2.1 210 13:43 06.03.2020
1453 Clear 5 1006 56 10000 2.1 210 13:22 06.03.2020
1454 Clear 4 1006 60 10000 1.5 0 12:57 06.03.2020
1455 Clear 4 1006 62 10000 1.5 260 12:38 06.03.2020
1456 Clear 4 1006 62 10000 1.5 260 12:19 06.03.2020
1457 Clear 3 1006 62 10000 1.5 0 11:57 06.03.2020
1458 Clear 3 1005 80 10000 1.5 0 11:38 06.03.2020
1459 Clear 3 1005 80 10000 1.5 0 11:38 06.03.2020
1460 Clear 2 1005 80 10000 1.5 0 11:19 06.03.2020
1461 Clear 2 1005 72 10000 1.62 235 10:38 06.03.2020
1462 Clear 1 1005 72 10000 1.62 235 10:20 06.03.2020
1463 Clear 1 1005 72 10000 1.62 235 09:54 06.03.2020
1464 Clear 0 1005 72 10000 1.62 235 09:36 06.03.2020
1465 Clear 0 1005 72 10000 1.62 235 09:18 06.03.2020
1466 Clear -1 1004 72 10000 1.62 235 08:42 06.03.2020
1467 Clear -1 1004 72 10000 1.62 235 08:42 06.03.2020
1468 Clear -1 1004 100 10000 1.62 235 08:24 06.03.2020
1469 Clear -2 1004 100 10000 1.89 233 07:47 06.03.2020
1470 Clear -2 1004 100 10000 0.5 190 07:26 06.03.2020
1471 Clear -2 1003 100 10000 1.89 233 06:53 06.03.2020
1472 Clear -2 1003 100 10000 1.89 233 06:53 06.03.2020
1473 Mist -2 1003 100 10000 1.89 233 06:34 06.03.2020
1474 Clear -2 1003 100 10000 0.5 0 05:42 06.03.2020
1475 Clear -3 1003 100 10000 1 230 05:22 06.03.2020
1476 Clear -2 1003 100 10000 1 230 04:55 06.03.2020
1477 Clouds -1 1002 92 10000 1.5 240 01:58 06.03.2020
1478 Clouds -1 1002 92 10000 1 240 01:39 06.03.2020
1479 Clouds -1 1002 92 10000 1 240 01:19 06.03.2020
1480 Clouds -1 1002 100 10000 1.5 240 00:32 06.03.2020
1481 Clouds -1 1002 90 10000 2.6 230 23:50 05.03.2020
1482 Clouds 0 1001 90 10000 2.6 240 23:30 05.03.2020
1483 Clouds 0 1001 90 10000 2.6 240 22:58 05.03.2020
1484 Clouds 0 1001 90 10000 3.6 250 22:39 05.03.2020
1485 Clouds 0 1001 90 10000 3.6 250 22:21 05.03.2020
1486 Clouds 0 1001 90 10000 3.6 250 21:56 05.03.2020
1487 Clouds 1 1001 90 10000 3.6 250 21:38 05.03.2020
1488 Clouds 1 1001 90 10000 3.6 250 21:20 05.03.2020
1489 Clouds 1 1000 90 10000 3.1 250 20:55 05.03.2020
1490 Clouds 1 1000 90 10000 3.1 240 20:37 05.03.2020
1491 Clouds 1 1000 86 10000 3.1 240 20:18 05.03.2020
1492 Clouds 1 1000 100 10000 2.6 210 19:56 05.03.2020
1493 Clouds 1 1000 100 10000 2.1 210 19:37 05.03.2020
1494 Clouds 1 1000 100 10000 2.1 210 19:18 05.03.2020
1495 Clouds 1 999 93 10000 1.5 220 18:39 05.03.2020
1496 Clouds 1 999 93 10000 1.5 220 18:20 05.03.2020
1497 Clouds 2 999 93 10000 1.5 230 17:59 05.03.2020
1498 Clouds 2 999 93 10000 1.5 230 17:40 05.03.2020
1499 Clouds 2 999 93 10000 1.5 230 17:22 05.03.2020
1500 Clouds 2 999 93 10000 2.6 250 16:54 05.03.2020
1501 Rain 2 999 93 2100 3.1 270 16:36 05.03.2020
1502 Rain 2 999 93 2100 3.1 270 16:18 05.03.2020
1503 Rain 2 999 86 10000 2.6 250 15:44 05.03.2020
1504 Clouds 2 999 86 10000 4.1 250 15:22 05.03.2020
1505 Clouds 3 999 86 10000 3.6 240 14:57 05.03.2020
1506 Clouds 2 999 93 10000 4.1 240 14:39 05.03.2020
1507 Clouds 2 999 93 10000 4.1 240 14:20 05.03.2020
1508 Clouds 2 999 86 10000 3.6 230 13:55 05.03.2020
1509 Clouds 2 999 93 10000 3.6 240 13:36 05.03.2020
1510 Clouds 2 999 93 10000 3.6 240 13:18 05.03.2020
1511 Clouds 2 999 93 10000 3.1 230 12:40 05.03.2020
1512 Clouds 2 999 93 10000 3.1 230 12:40 05.03.2020
1513 Clouds 2 999 93 10000 3.1 230 12:20 05.03.2020
1514 Clouds 2 1000 93 10000 4.1 250 11:57 05.03.2020
1515 Clouds 2 999 93 10000 3.6 230 11:37 05.03.2020
1516 Clouds 2 999 93 10000 3.6 230 11:19 05.03.2020
1517 Clouds 2 1000 93 10000 3.1 220 10:57 05.03.2020
1518 Clouds 2 1000 93 10000 2.6 220 10:39 05.03.2020
1519 Clouds 2 1000 93 10000 2.6 220 10:20 05.03.2020
1520 Clouds 2 1000 93 10000 3.1 220 09:45 05.03.2020
1521 Clouds 2 1000 93 10000 3.1 220 09:26 05.03.2020
1522 Clouds 2 1000 100 10000 2.6 220 08:47 05.03.2020
1523 Clouds 1 1000 100 7000 2.1 230 08:29 05.03.2020
1524 Clouds 1 1000 100 7000 2.1 230 07:49 05.03.2020
1525 Clouds 1 1000 100 7000 1.5 220 07:23 05.03.2020
1526 Clouds 1 1000 100 10000 1 0 06:50 05.03.2020
1527 Clouds 1 1000 94 10000 1.5 220 06:23 05.03.2020
1528 Snow 1 1000 94 10000 1.5 190 05:57 05.03.2020
1529 Clouds 1 1000 94 10000 2.1 210 05:32 05.03.2020
1530 Clouds 1 1000 91 10000 1.5 0 04:23 05.03.2020
1531 Clouds 1 1000 91 10000 2.6 230 03:58 05.03.2020
1532 Clouds 1 1000 85 10000 3.6 230 02:21 05.03.2020
1533 Clouds 1 1000 85 10000 3.1 230 01:24 05.03.2020
1534 Clouds 1 1000 83 10000 2.6 230 00:43 05.03.2020
1535 Clouds 1 999 83 10000 4.6 250 23:56 04.03.2020
1536 Clouds 1 1000 83 10000 4.6 240 23:38 04.03.2020
1537 Clouds 1 1000 90 10000 4.6 240 23:19 04.03.2020
1538 Snow 1 999 90 8000 3.1 230 22:40 04.03.2020
1539 Snow 1 999 90 8000 3.1 230 22:19 04.03.2020
1540 Rain 1 999 100 8000 4.1 230 21:59 04.03.2020
1541 Clouds 1 999 100 10000 4.6 230 21:41 04.03.2020
1542 Clouds 1 999 100 10000 4.6 230 21:21 04.03.2020
1543 Clouds 1 999 100 10000 4.6 230 20:57 04.03.2020
1544 Clouds 1 998 100 10000 5.1 240 20:39 04.03.2020
1545 Clouds 1 998 100 10000 5.1 240 20:21 04.03.2020
1546 Clouds 1 998 100 10000 4.6 250 19:42 04.03.2020
1547 Clouds 1 998 100 10000 4.6 250 19:24 04.03.2020
1548 Clouds 1 997 100 10000 4.6 250 18:58 04.03.2020
1549 Clouds 1 997 100 10000 4.6 260 18:40 04.03.2020
1550 Clouds 1 997 100 10000 4.6 260 18:22 04.03.2020
1551 Clouds 1 997 100 10000 4.1 260 17:57 04.03.2020
1552 Drizzle 2 996 100 10000 5.1 260 17:38 04.03.2020
1553 Drizzle 2 996 100 10000 5.1 260 17:20 04.03.2020
1554 Drizzle 2 996 100 5000 3.1 270 16:44 04.03.2020
1555 Drizzle 2 996 100 5000 3.1 270 16:26 04.03.2020
1556 Mist 2 995 100 5000 3.1 300 15:59 04.03.2020
1557 Mist 2 995 100 5000 3.1 300 15:59 04.03.2020
1558 Mist 2 995 100 5000 3.1 300 15:41 04.03.2020
1559 Mist 3 995 100 5000 3.1 320 15:23 04.03.2020
1560 Rain 3 995 100 6000 3.1 320 14:56 04.03.2020
1561 Rain 3 995 100 4000 3.1 350 14:37 04.03.2020
1562 Rain 3 995 100 4000 3.1 350 14:19 04.03.2020
1563 Drizzle 3 996 100 4500 4.1 20 13:57 04.03.2020
1564 Drizzle 3 996 100 5000 5.1 30 13:38 04.03.2020
1565 Drizzle 3 996 100 5000 5.1 30 13:20 04.03.2020
1566 Clouds 2 996 100 10000 4.6 40 12:45 04.03.2020
1567 Drizzle 3 997 93 10000 5.1 50 12:27 04.03.2020
1568 Rain 2 998 100 8000 4.1 40 11:59 04.03.2020
1569 Rain 2 998 93 5000 5.1 40 11:41 04.03.2020
1570 Rain 2 998 93 5000 5.1 40 11:22 04.03.2020
1571 Rain 2 998 93 5000 4.6 40 10:57 04.03.2020
1572 Rain 2 999 100 6000 4.6 50 10:38 04.03.2020
1573 Rain 2 999 100 6000 4.6 50 10:18 04.03.2020
1574 Snow 1 1000 100 4000 4.1 50 09:42 04.03.2020
1575 Snow 1 1000 100 4000 4.1 50 09:21 04.03.2020
1576 Snow 1 1001 100 6000 4.1 50 08:46 04.03.2020
1577 Snow 1 1001 100 6000 3.6 50 08:26 04.03.2020
1578 Rain 2 1001 93 7000 4.1 50 07:56 04.03.2020
1579 Rain 2 1002 100 6000 5.1 60 07:37 04.03.2020
1580 Rain 2 1002 100 6000 5.1 60 07:18 04.03.2020
1581 Rain 2 1002 93 9000 5.1 60 06:41 04.03.2020
1582 Rain 3 1002 93 7000 5.1 60 06:23 04.03.2020
1583 Rain 3 1003 93 10000 5.1 60 05:47 04.03.2020
1584 Rain 3 1003 93 10000 5.1 80 04:23 04.03.2020
1585 Rain 3 1004 93 10000 4.6 70 03:40 04.03.2020
1586 Rain 4 1004 93 10000 4.6 70 03:21 04.03.2020
1587 Drizzle 4 1004 93 8000 5.7 70 02:53 04.03.2020
1588 Drizzle 4 1005 93 10000 4.6 70 02:19 04.03.2020
1589 Mist 4 1005 93 7000 4.6 70 01:52 04.03.2020
1590 Drizzle 4 1006 100 2900 3.6 60 00:49 04.03.2020
1591 Drizzle 4 1006 100 3100 3.1 50 00:25 04.03.2020
1592 Drizzle 3 1006 100 900 3.1 50 23:46 03.03.2020
1593 Drizzle 3 1006 100 1800 4.1 50 23:27 03.03.2020
1594 Drizzle 3 1006 100 4800 3.6 60 22:57 03.03.2020
1595 Drizzle 3 1006 100 2800 3.6 50 22:39 03.03.2020
1596 Drizzle 3 1006 100 2800 3.6 50 22:19 03.03.2020
1597 Drizzle 3 1006 100 4000 4.6 60 21:57 03.03.2020
1598 Drizzle 3 1006 100 4000 4.6 60 21:38 03.03.2020
1599 Drizzle 3 1006 100 4000 4.6 60 21:18 03.03.2020
1600 Mist 3 1006 93 6000 5.1 60 20:41 03.03.2020
1601 Mist 3 1006 93 6000 5.1 60 20:21 03.03.2020
1602 Drizzle 3 1006 93 9000 6.2 70 19:59 03.03.2020
1603 Clouds 3 1006 93 10000 5.7 60 19:37 03.03.2020
1604 Clouds 3 1006 93 10000 5.7 60 19:19 03.03.2020
1605 Mist 3 1006 93 6000 5.7 60 18:59 03.03.2020
1606 Mist 3 1006 93 7000 4.6 60 18:41 03.03.2020
1607 Mist 3 1006 93 7000 4.6 60 18:21 03.03.2020
1608 Clouds 3 1006 86 10000 5.1 60 17:59 03.03.2020
1609 Clouds 4 1006 86 10000 5.7 70 17:39 03.03.2020
1610 Clouds 4 1006 86 10000 5.7 70 17:39 03.03.2020
1611 Clouds 4 1006 86 10000 5.7 70 17:21 03.03.2020
1612 Clouds 4 1005 93 10000 5.7 60 16:57 03.03.2020
1613 Clouds 4 1005 93 10000 5.1 60 16:37 03.03.2020
1614 Clouds 4 1005 93 10000 5.1 60 16:19 03.03.2020
1615 Clouds 4 1005 93 10000 5.1 60 16:19 03.03.2020
1616 Clouds 4 1005 93 10000 4.6 70 15:45 03.03.2020
1617 Clouds 4 1005 93 10000 4.6 70 15:23 03.03.2020
1618 Clouds 4 1005 86 10000 4.1 70 14:58 03.03.2020
1619 Clouds 5 1005 86 10000 4.1 80 14:40 03.03.2020
1620 Clouds 4 1005 86 10000 4.1 80 14:19 03.03.2020
1621 Clouds 4 1005 86 10000 4.1 80 14:19 03.03.2020
1622 Clouds 5 1005 86 10000 4.1 70 13:57 03.03.2020
1623 Clouds 5 1005 86 10000 4.1 70 13:39 03.03.2020
1624 Clouds 4 1005 86 10000 4.1 70 13:19 03.03.2020
1625 Clouds 4 1005 93 10000 4.6 70 12:46 03.03.2020
1626 Clouds 4 1005 93 10000 4.6 70 12:25 03.03.2020
1627 Clouds 4 1004 93 10000 4.6 60 11:57 03.03.2020
1628 Clouds 4 1004 100 10000 4.6 60 11:37 03.03.2020
1629 Clouds 4 1004 100 10000 4.6 60 11:18 03.03.2020
1630 Clouds 4 1004 93 10000 4.1 70 10:55 03.03.2020
1631 Drizzle 4 1004 93 10000 3.6 70 10:37 03.03.2020
1632 Drizzle 4 1004 93 10000 3.6 70 10:18 03.03.2020
1633 Clouds 4 1003 93 10000 3.6 70 09:43 03.03.2020
1634 Clouds 4 1003 93 10000 3.6 70 09:43 03.03.2020
1635 Clouds 3 1003 93 9000 3.6 70 09:22 03.03.2020
1636 Clouds 3 1003 93 8000 3.6 60 08:56 03.03.2020
1637 Mist 3 1002 93 7000 3.1 70 08:37 03.03.2020
1638 Mist 3 1002 93 7000 3.1 70 08:19 03.03.2020
1639 Clouds 3 1001 93 10000 3.6 80 07:42 03.03.2020
1640 Clouds 3 1001 93 10000 3.6 80 07:19 03.03.2020
1641 Clouds 4 1001 93 10000 4.6 80 06:41 03.03.2020
1642 Clouds 3 1001 93 10000 4.6 80 06:22 03.03.2020
1643 Clouds 3 1001 93 10000 4.1 70 05:46 03.03.2020
1644 Clouds 3 1000 93 10000 3.6 70 04:57 03.03.2020
1645 Clouds 3 1000 93 10000 3.6 70 03:32 03.03.2020
1646 Drizzle 3 1000 93 10000 3.6 100 01:39 03.03.2020
1647 Rain 3 1000 93 10000 4.1 110 00:48 03.03.2020
1648 Rain 3 1000 93 10000 3.1 110 00:26 03.03.2020
1649 Rain 3 1000 93 10000 2.6 100 23:51 02.03.2020
1650 Rain 3 999 93 10000 2.1 100 23:23 02.03.2020
1651 Rain 3 999 93 10000 3.1 130 22:58 02.03.2020
1652 Rain 3 999 93 10000 3.1 130 22:58 02.03.2020
1653 Rain 3 999 93 9000 3.1 120 22:39 02.03.2020
1654 Rain 3 999 93 9000 3.1 120 22:20 02.03.2020
1655 Rain 3 999 93 10000 2.6 130 21:58 02.03.2020
1656 Rain 4 998 93 10000 2.1 130 21:39 02.03.2020
1657 Rain 4 998 93 10000 2.1 130 21:21 02.03.2020
1658 Drizzle 4 998 93 10000 1.5 0 20:57 02.03.2020
1659 Drizzle 4 998 93 10000 1.5 0 20:57 02.03.2020
1660 Clouds 4 998 93 10000 2.1 140 20:38 02.03.2020
1661 Clouds 4 998 93 10000 2.1 140 20:19 02.03.2020
1662 Clouds 4 998 93 10000 1.5 150 19:55 02.03.2020
1663 Clouds 4 997 93 10000 2.1 140 19:36 02.03.2020
1664 Clouds 3 997 93 10000 2.1 140 19:18 02.03.2020
1665 Clouds 3 997 86 10000 3.1 140 18:44 02.03.2020
1666 Clouds 4 997 86 10000 3.1 140 18:19 02.03.2020
1667 Clouds 4 997 86 10000 3.1 140 18:19 02.03.2020
1668 Clouds 4 996 80 10000 3.1 170 17:58 02.03.2020
1669 Clouds 4 996 80 10000 3.1 170 17:40 02.03.2020
1670 Clouds 5 996 75 10000 3.6 180 17:21 02.03.2020
1671 Clouds 6 996 75 10000 3.6 170 16:55 02.03.2020
1672 Clouds 6 996 70 10000 2.6 200 16:36 02.03.2020
1673 Clouds 6 996 70 10000 2.6 200 16:18 02.03.2020
1674 Clouds 6 996 65 10000 3.6 180 15:42 02.03.2020
1675 Clouds 7 996 65 10000 3.6 180 15:20 02.03.2020
1676 Clouds 7 995 76 10000 4.1 200 14:42 02.03.2020
1677 Clouds 7 995 72 10000 4.1 200 14:20 02.03.2020
1678 Clouds 7 995 65 10000 3.6 180 13:59 02.03.2020
1679 Clouds 6 995 65 10000 3.1 200 13:38 02.03.2020
1680 Clouds 6 995 65 10000 3.1 200 13:18 02.03.2020
1681 Clouds 6 995 70 10000 4.1 190 12:43 02.03.2020
1682 Clouds 6 995 70 10000 4.1 190 12:20 02.03.2020
1683 Clouds 5 994 75 10000 3.1 200 11:55 02.03.2020
1684 Clouds 5 994 75 10000 2.6 210 11:36 02.03.2020
1685 Clouds 5 994 75 10000 2.6 210 11:18 02.03.2020
1686 Clouds 5 993 80 10000 3.6 210 10:42 02.03.2020
1687 Clouds 4 993 80 10000 3.6 210 10:21 02.03.2020
1688 Clouds 4 993 80 10000 4.6 210 09:59 02.03.2020
1689 Clouds 4 993 80 10000 4.6 200 09:40 02.03.2020
1690 Clouds 4 993 80 10000 4.6 200 09:22 02.03.2020
1691 Clouds 3 992 86 10000 3.6 200 08:43 02.03.2020
1692 Clouds 2 992 86 10000 3.6 210 08:22 02.03.2020
1693 Clouds 2 991 86 10000 3.6 190 07:42 02.03.2020
1694 Clouds 2 991 86 10000 3.6 190 07:19 02.03.2020
1695 Clouds 2 990 86 10000 3.6 210 06:38 02.03.2020
1696 Clouds 2 990 86 10000 3.1 190 05:53 02.03.2020
1697 Clouds 3 989 86 10000 3.6 190 04:23 02.03.2020
1698 Clouds 3 989 86 10000 3.6 180 03:20 02.03.2020
1699 Clouds 3 988 86 10000 3.1 200 02:46 02.03.2020
1700 Clouds 3 988 86 10000 3.1 190 01:47 02.03.2020
1701 Clouds 3 988 86 10000 3.1 190 01:28 02.03.2020
1702 Clouds 3 988 86 10000 3.6 200 00:23 02.03.2020
1703 Clouds 4 988 86 10000 3.1 200 23:56 01.03.2020
1704 Clouds 4 987 80 10000 3.6 190 23:38 01.03.2020
1705 Clouds 4 987 80 10000 3.6 190 23:19 01.03.2020
1706 Clouds 4 987 80 10000 4.1 190 22:43 01.03.2020
1707 Clouds 4 987 80 10000 3.1 210 22:43 01.03.2020
1708 Clouds 4 987 80 10000 4.1 190 22:20 01.03.2020
1709 Clouds 4 987 80 10000 4.1 190 21:55 01.03.2020
1710 Clouds 4 987 80 10000 4.6 190 21:37 01.03.2020
1711 Clouds 5 987 80 10000 4.6 190 21:18 01.03.2020
1712 Clouds 5 987 86 10000 5.1 200 20:43 01.03.2020
1713 Clouds 5 986 80 10000 4.1 190 20:25 01.03.2020
1714 Rain 5 986 80 10000 4.6 190 19:54 01.03.2020
1715 Clouds 5 986 80 10000 4.1 200 19:36 01.03.2020
1716 Clouds 5 986 80 10000 4.1 200 19:18 01.03.2020
1717 Clouds 4 985 86 10000 3.6 190 18:40 01.03.2020
1718 Clouds 4 985 86 10000 3.6 190 18:20 01.03.2020
1719 Clouds 4 985 86 10000 3.6 190 17:57 01.03.2020
1720 Drizzle 4 984 86 10000 3.6 190 17:39 01.03.2020
1721 Drizzle 4 984 86 10000 3.6 190 17:20 01.03.2020
1722 Rain 4 984 93 10000 3.6 190 16:57 01.03.2020
1723 Drizzle 4 984 93 10000 4.1 180 16:38 01.03.2020
1724 Drizzle 4 984 93 10000 4.1 180 16:18 01.03.2020
1725 Rain 4 984 93 10000 4.1 170 15:56 01.03.2020
1726 Rain 4 984 86 10000 4.1 180 15:38 01.03.2020
1727 Rain 4 984 86 10000 4.1 180 15:19 01.03.2020
1728 Rain 4 984 86 10000 4.1 180 14:56 01.03.2020
1729 Drizzle 4 984 80 10000 4.1 170 14:38 01.03.2020
1730 Clouds 5 984 75 10000 4.1 200 14:20 01.03.2020
1731 Clouds 5 984 75 10000 4.1 200 13:54 01.03.2020
1732 Clouds 5 984 75 10000 4.1 200 13:54 01.03.2020
1733 Clouds 5 984 75 10000 4.6 210 13:36 01.03.2020
1734 Clouds 5 984 75 10000 4.6 210 13:36 01.03.2020
1735 Clouds 5 984 75 10000 4.6 210 13:18 01.03.2020
1736 Clouds 5 984 75 10000 6.2 220 12:41 01.03.2020
1737 Clouds 5 984 75 10000 6.2 220 12:21 01.03.2020
1738 Clouds 5 984 80 10000 5.1 230 11:43 01.03.2020
1739 Clouds 4 984 80 10000 6.2 230 11:25 01.03.2020
1740 Rain 4 983 80 10000 5.7 230 10:57 01.03.2020
1741 Rain 4 983 80 10000 5.7 230 10:57 01.03.2020
1742 Rain 4 983 86 10000 5.1 230 10:38 01.03.2020
1743 Rain 4 983 86 10000 5.1 230 10:20 01.03.2020
1744 Rain 3 983 93 10000 5.1 240 09:57 01.03.2020
1745 Rain 3 983 100 10000 5.1 240 09:39 01.03.2020
1746 Rain 3 983 100 10000 5.1 240 09:21 01.03.2020
1747 Rain 2 982 93 9000 5.1 240 08:41 01.03.2020
1748 Rain 3 982 93 8000 6.2 230 08:21 01.03.2020
1749 Rain 3 981 93 9000 5.1 230 07:43 01.03.2020
1750 Rain 3 981 100 10000 3.6 200 07:24 01.03.2020
1751 Rain 3 981 100 10000 3.1 140 06:57 01.03.2020
1752 Rain 3 982 100 7000 4.1 130 06:37 01.03.2020
1753 Drizzle 2 984 100 3300 4.6 120 04:27 01.03.2020
1754 Rain 2 986 100 6000 5.1 110 02:55 01.03.2020
1755 Drizzle 2 987 100 9000 4.1 100 01:54 01.03.2020
1756 Drizzle 2 988 93 10000 3.6 110 01:31 01.03.2020
1757 Rain 2 988 93 4500 5.7 110 00:45 01.03.2020
1758 Drizzle 2 989 93 10000 4.1 100 00:22 01.03.2020
1759 Drizzle 2 990 86 10000 3.6 100 23:54 29.02.2020
1760 Clouds 2 991 93 10000 3.1 110 23:33 29.02.2020
1761 Clouds 2 991 93 10000 3.6 120 22:45 29.02.2020
1762 Clouds 2 992 93 10000 4.6 110 22:25 29.02.2020
1763 Clouds 2 992 93 10000 3.6 100 21:44 29.02.2020
1764 Clouds 2 992 93 10000 3.6 110 21:26 29.02.2020
1765 Clouds 1 993 100 10000 3.6 100 20:45 29.02.2020
1766 Clouds 1 993 93 10000 3.6 110 20:22 29.02.2020
1767 Clouds 1 994 100 10000 2.6 100 19:59 29.02.2020
1768 Clouds 1 994 94 10000 1.5 100 19:41 29.02.2020
1769 Clouds 1 994 94 10000 1.5 100 19:22 29.02.2020
1770 Clouds 1 995 94 10000 2.6 110 18:56 29.02.2020
1771 Clouds 1 995 94 10000 2.6 110 18:38 29.02.2020
1772 Clouds 1 995 94 10000 2.6 110 18:19 29.02.2020
1773 Clouds 1 995 93 10000 3.6 130 17:54 29.02.2020
1774 Clouds 1 995 93 10000 3.6 130 17:54 29.02.2020
1775 Clouds 2 995 94 10000 1 100 17:36 29.02.2020
1776 Clouds 2 995 94 10000 1 100 17:36 29.02.2020
1777 Clouds 2 995 84 10000 1 100 17:18 29.02.2020
1778 Clouds 2 996 84 10000 1.05 124 16:42 29.02.2020
1779 Clouds 2 996 84 10000 1.05 124 16:18 29.02.2020
1780 Clouds 3 996 86 10000 1.5 260 15:42 29.02.2020
1781 Clouds 3 997 80 10000 2.1 250 15:24 29.02.2020
1782 Clouds 3 997 80 10000 2.6 240 14:56 29.02.2020
1783 Rain 3 997 84 10000 2.6 240 14:38 29.02.2020
1784 Rain 3 997 83 10000 2.6 240 14:20 29.02.2020
1785 Rain 3 997 80 10000 2.6 210 13:42 29.02.2020
1786 Rain 3 997 80 10000 2.6 210 13:23 29.02.2020
1787 Rain 3 998 86 10000 3.1 220 12:43 29.02.2020
1788 Rain 3 998 86 10000 3.1 250 12:23 29.02.2020
1789 Rain 2 998 93 10000 3.1 260 11:59 29.02.2020
1790 Rain 2 998 100 10000 2.1 240 11:40 29.02.2020
1791 Rain 2 998 100 10000 2.1 240 11:22 29.02.2020
1792 Clouds 2 998 100 10000 1.5 230 10:49 29.02.2020
1793 Snow 1 998 91 5000 2.1 210 10:29 29.02.2020
1794 Snow 1 998 91 5000 2.1 210 10:29 29.02.2020
1795 Snow 1 998 91 3700 1.5 0 09:51 29.02.2020
1796 Snow 0 998 91 4000 1.5 220 09:27 29.02.2020
1797 Clouds 0 999 91 6000 2.1 230 08:58 29.02.2020
1798 Clouds 0 999 91 10000 2.1 220 08:38 29.02.2020
1799 Clouds 0 999 92 10000 2.1 220 08:19 29.02.2020
1800 Clouds 0 999 92 10000 2.6 200 07:45 29.02.2020
1801 Clouds 0 999 92 10000 2.6 200 07:19 29.02.2020
1802 Clouds -1 999 100 10000 1.5 0 06:51 29.02.2020
1803 Clouds -1 999 92 10000 1.5 0 06:26 29.02.2020
1804 Clouds -1 1000 100 10000 1.5 0 05:48 29.02.2020
1805 Clouds -1 1000 100 10000 1.5 0 05:18 29.02.2020
1806 Clouds -2 1000 100 10000 2.6 210 03:43 29.02.2020
1807 Clouds -2 1000 92 10000 2.6 210 03:22 29.02.2020
1808 Clouds -1 1001 92 10000 1.5 230 02:39 29.02.2020
1809 Clouds -1 1001 91 10000 2.6 220 01:31 29.02.2020
1810 Clouds -1 1001 91 10000 2.6 210 00:38 29.02.2020
1811 Clouds -1 1001 91 10000 2.6 190 23:58 28.02.2020
1812 Clouds -1 1002 80 10000 2.1 180 23:37 28.02.2020
1813 Clouds -1 1002 80 10000 2.1 180 23:19 28.02.2020
1814 Snow -1 1002 80 10000 2.6 210 22:41 28.02.2020
1815 Snow -1 1002 80 10000 2.6 210 22:19 28.02.2020
1816 Clouds -1 1002 80 10000 2.1 210 21:42 28.02.2020
1817 Clouds -2 1003 80 10000 1.5 0 21:21 28.02.2020
1818 Clouds -2 1003 80 10000 1.5 0 21:21 28.02.2020
1819 Clouds -2 1003 86 10000 1.5 0 20:56 28.02.2020
1820 Clouds -2 1003 79 10000 1 0 20:37 28.02.2020
1821 Clouds -3 1003 79 10000 1 0 20:19 28.02.2020
1822 Clouds -3 1003 79 10000 1 0 20:19 28.02.2020
1823 Clear -3 1003 86 10000 1 0 19:56 28.02.2020
1824 Clear -3 1003 86 10000 1 0 19:37 28.02.2020
1825 Clear -3 1003 86 10000 1 0 19:18 28.02.2020
1826 Clear -3 1003 79 10000 1.5 210 18:44 28.02.2020
1827 Clear -2 1003 74 10000 1.5 210 18:23 28.02.2020
1828 Clear -1 1003 69 10000 2.6 250 17:41 28.02.2020
1829 Clear -1 1003 60 10000 2.6 250 17:23 28.02.2020
1830 Clear 0 1003 60 10000 3.1 240 16:56 28.02.2020
1831 Clear 0 1003 60 10000 4.6 250 16:37 28.02.2020
1832 Clear 0 1003 60 10000 4.6 250 16:19 28.02.2020
1833 Clear 0 1003 59 10000 3.6 250 15:55 28.02.2020
1834 Clear 0 1003 59 10000 3.6 250 15:55 28.02.2020
1835 Clouds 1 1003 59 10000 3.6 250 15:36 28.02.2020
1836 Clear 1 1003 64 10000 3.6 250 15:18 28.02.2020
1837 Clear 1 1003 64 10000 3.6 250 14:42 28.02.2020
1838 Clouds 0 1002 67 10000 3.6 250 14:19 28.02.2020
1839 Clouds 0 1002 67 10000 4.1 280 13:58 28.02.2020
1840 Clouds 0 1003 67 10000 4.1 260 13:40 28.02.2020
1841 Clouds 0 1003 64 10000 4.1 260 13:19 28.02.2020
1842 Clouds 0 1002 64 10000 4.1 260 12:43 28.02.2020
1843 Clouds 0 1002 64 10000 4.1 260 12:25 28.02.2020
1844 Clouds -1 1002 68 10000 3.1 280 11:55 28.02.2020
1845 Clouds -1 1002 68 10000 3.1 270 11:37 28.02.2020
1846 Clouds -1 1002 68 10000 3.1 270 11:18 28.02.2020
1847 Clouds -1 1002 75 10000 2.1 260 10:43 28.02.2020
1848 Clouds -1 1002 74 10000 2.1 250 10:23 28.02.2020
1849 Clouds -1 1002 74 10000 1.5 240 09:47 28.02.2020
1850 Clouds -2 1002 79 10000 1.5 250 09:22 28.02.2020
1851 Clouds -2 1001 79 10000 1 0 08:57 28.02.2020
1852 Clouds -2 1001 79 10000 1 270 08:39 28.02.2020
1853 Clouds -2 1001 79 10000 1 270 08:20 28.02.2020
1854 Clouds -2 1001 79 10000 1 270 08:20 28.02.2020
1855 Snow -2 1001 79 6000 2.1 330 07:41 28.02.2020
1856 Snow -2 1001 79 6000 2.1 330 07:22 28.02.2020
1857 Clouds -2 1001 74 10000 1.5 0 06:45 28.02.2020
1858 Clouds -2 1001 74 10000 1.5 0 06:24 28.02.2020
1859 Clouds -2 1000 74 10000 1 320 04:45 28.02.2020
1860 Clouds -2 1000 74 10000 1.5 340 04:18 28.02.2020
1861 Clouds -2 999 74 10000 1.5 10 02:46 28.02.2020
1862 Clouds -2 999 74 10000 2.1 350 02:27 28.02.2020
1863 Clouds -2 999 80 10000 1.5 330 00:59 28.02.2020
1864 Clouds -2 998 80 10000 1 0 00:28 28.02.2020
1865 Clouds -1 998 81 10000 3.6 70 23:42 27.02.2020
1866 Clouds -1 998 86 10000 2.6 30 23:20 27.02.2020
1867 Clouds -1 998 86 10000 2.6 30 22:46 27.02.2020
1868 Snow -1 998 82 10000 4.1 70 22:26 27.02.2020
1869 Clouds -1 998 82 10000 3.1 40 21:58 27.02.2020
1870 Snow -1 997 86 10000 1.5 360 21:39 27.02.2020
1871 Snow -1 997 86 10000 1.5 360 21:19 27.02.2020
1872 Snow -1 997 92 10000 2.1 10 20:56 27.02.2020
1873 Snow -1 997 92 7000 2.6 10 20:38 27.02.2020
1874 Snow -1 997 92 7000 2.6 10 20:20 27.02.2020
1875 Snow -1 997 92 10000 2.6 350 19:54 27.02.2020
1876 Clouds -1 997 92 10000 2.1 360 19:36 27.02.2020
1877 Clouds -1 997 92 10000 2.1 360 19:18 27.02.2020
1878 Snow -1 997 92 10000 3.1 20 18:40 27.02.2020
1879 Snow -1 997 92 10000 3.1 20 18:22 27.02.2020
1880 Snow -1 996 92 10000 3.6 40 17:57 27.02.2020
1881 Snow -1 996 92 10000 3.6 40 17:57 27.02.2020
1882 Snow -1 996 100 8000 3.6 30 17:39 27.02.2020
1883 Snow -1 996 100 8000 3.6 30 17:19 27.02.2020
1884 Snow -1 996 100 8000 3.6 20 16:55 27.02.2020
1885 Snow 0 996 100 5000 4.1 20 16:37 27.02.2020
1886 Snow 0 996 100 5000 4.1 20 16:18 27.02.2020
1887 Snow -1 996 100 5000 3.6 10 15:54 27.02.2020
1888 Snow 0 996 82 5000 3.6 10 15:36 27.02.2020
1889 Snow 0 996 82 5000 3.6 10 15:18 27.02.2020
1890 Snow 0 996 82 8000 3.1 10 14:40 27.02.2020
1891 Snow 0 996 82 8000 3.1 10 14:22 27.02.2020
1892 Clouds 0 996 78 10000 3.1 10 13:56 27.02.2020
1893 Clouds 0 996 78 8000 4.1 20 13:38 27.02.2020
1894 Clouds 0 996 81 8000 4.1 20 13:20 27.02.2020
1895 Clouds 0 996 81 10000 3.6 20 12:45 27.02.2020
1896 Clouds -1 996 86 10000 3.6 20 12:22 27.02.2020
1897 Clouds 0 996 86 10000 3.6 10 11:56 27.02.2020
1898 Snow 0 996 86 8000 3.6 10 11:37 27.02.2020
1899 Snow -1 996 86 8000 3.6 10 11:18 27.02.2020
1900 Snow -1 995 86 8000 4.1 10 10:41 27.02.2020
1901 Snow -1 995 86 8000 3.6 10 10:20 27.02.2020
1902 Clouds -2 995 86 8000 4.6 20 09:45 27.02.2020
1903 Clouds -2 995 86 8000 4.6 20 09:26 27.02.2020
1904 Clouds -2 995 86 7000 3.6 360 08:55 27.02.2020
1905 Snow -2 995 86 7000 4.1 10 08:37 27.02.2020
1906 Snow -2 995 86 7000 4.1 10 08:18 27.02.2020
1907 Clouds -2 995 92 7000 3.6 10 07:42 27.02.2020
1908 Snow -2 995 100 5000 4.1 360 07:24 27.02.2020
1909 Snow -2 995 86 8000 4.1 10 06:23 27.02.2020
1910 Snow -2 995 86 6000 3.6 10 05:19 27.02.2020
1911 Snow -2 994 79 10000 4.1 360 03:19 27.02.2020
1912 Clouds -1 994 63 10000 4.1 360 01:34 27.02.2020
1913 Clouds -1 994 63 10000 3.6 350 00:41 27.02.2020
1914 Clouds -1 994 58 10000 4.1 350 23:56 26.02.2020
1915 Clouds -1 994 58 10000 3.6 350 23:37 26.02.2020
1916 Clouds -1 994 58 10000 3.6 350 23:18 26.02.2020
1917 Clouds -1 994 63 10000 4.1 350 22:55 26.02.2020
1918 Clouds -1 994 63 10000 3.6 350 22:37 26.02.2020
1919 Clouds -1 994 63 10000 4.1 350 22:18 26.02.2020
1920 Clouds -1 994 68 10000 4.6 350 21:39 26.02.2020
1921 Clouds -1 994 68 10000 4.6 350 21:20 26.02.2020
1922 Clouds -1 994 68 10000 4.6 350 20:56 26.02.2020
1923 Clouds -1 994 68 10000 4.6 350 20:56 26.02.2020
1924 Clouds -1 994 68 10000 4.6 350 20:38 26.02.2020
1925 Clouds -1 994 68 10000 4.6 350 20:19 26.02.2020
1926 Clouds -1 994 74 10000 5.1 350 19:56 26.02.2020
1927 Clouds -1 993 68 10000 4.6 350 19:37 26.02.2020
1928 Clouds -1 993 68 10000 4.6 350 19:18 26.02.2020
1929 Clouds 0 993 51 10000 5.1 350 18:56 26.02.2020
1930 Clouds 0 993 51 10000 4.6 10 18:37 26.02.2020
1931 Clouds 0 993 51 10000 4.6 10 18:18 26.02.2020
1932 Clouds 0 992 55 10000 6.7 10 17:40 26.02.2020
1933 Clouds 0 992 55 10000 6.7 10 17:19 26.02.2020
1934 Clouds 0 991 55 10000 6.2 20 16:56 26.02.2020
1935 Clouds 1 991 55 10000 5.7 20 16:38 26.02.2020
1936 Clouds 1 991 55 10000 5.7 20 16:19 26.02.2020
1937 Clouds 1 991 55 10000 6.7 20 15:44 26.02.2020
1938 Clouds 1 990 55 10000 7.2 20 15:25 26.02.2020
1939 Clouds 1 990 51 10000 7.2 20 14:43 26.02.2020
1940 Clouds 1 990 51 10000 6.7 20 14:24 26.02.2020
1941 Clouds 1 989 51 10000 6.2 30 13:56 26.02.2020
1942 Clouds 1 989 55 10000 6.2 30 13:38 26.02.2020
1943 Clouds 2 989 55 10000 7.2 20 13:18 26.02.2020
1944 Clouds 1 989 55 10000 6.2 30 13:18 26.02.2020
1945 Clouds 1 989 55 10000 6.2 20 12:38 26.02.2020
1946 Clouds 1 989 55 10000 6.2 20 12:19 26.02.2020
1947 Clouds 1 988 59 10000 7.2 20 11:55 26.02.2020
1948 Clouds 1 988 59 10000 7.2 20 11:55 26.02.2020
1949 Clouds 1 988 59 10000 8.2 20 11:36 26.02.2020
1950 Clouds 1 988 59 10000 8.2 20 11:36 26.02.2020
1951 Clouds 1 988 59 10000 8.2 20 11:18 26.02.2020
1952 Clouds 1 988 55 10000 6.7 30 10:41 26.02.2020
1953 Clouds 1 988 59 10000 6.7 20 10:22 26.02.2020
1954 Clouds 1 988 59 10000 6.7 20 09:45 26.02.2020
1955 Clouds 0 987 59 10000 6.7 20 09:25 26.02.2020
1956 Clouds 0 987 58 10000 5.1 20 08:59 26.02.2020
1957 Clouds 0 987 58 10000 5.7 20 08:38 26.02.2020
1958 Clouds 0 987 62 10000 5.7 20 08:19 26.02.2020
1959 Clouds 0 987 62 10000 5.7 20 07:45 26.02.2020
1960 Clouds 0 987 62 10000 5.1 20 07:26 26.02.2020
1961 Clouds 0 986 62 10000 6.2 30 06:53 26.02.2020
1962 Clouds 0 986 62 10000 7.2 30 06:34 26.02.2020
1963 Clouds 0 986 62 10000 7.2 20 05:53 26.02.2020
1964 Clouds 0 986 62 10000 5.7 30 05:25 26.02.2020
1965 Clouds 0 986 64 10000 6.7 20 04:36 26.02.2020
1966 Clouds 0 987 64 10000 6.2 20 02:33 26.02.2020
1967 Clouds 0 987 67 10000 6.2 30 01:48 26.02.2020
1968 Clouds 0 987 66 10000 6.2 30 00:50 26.02.2020
1969 Clouds 0 987 66 10000 5.7 30 00:25 26.02.2020
1970 Clouds 0 987 66 10000 5.7 30 00:25 26.02.2020
1971 Clouds 0 988 74 10000 5.7 40 23:56 25.02.2020
1972 Clouds 0 988 74 10000 5.7 30 23:37 25.02.2020
1973 Snow 0 988 74 10000 5.7 30 23:19 25.02.2020
1974 Clouds 1 988 86 10000 6.7 40 22:42 25.02.2020
1975 Clouds 1 988 86 10000 6.7 40 22:19 25.02.2020
1976 Clouds 1 989 74 10000 7.2 60 21:56 25.02.2020
1977 Clouds 1 989 74 10000 6.2 60 21:36 25.02.2020
1978 Clouds 1 989 74 10000 6.2 60 21:18 25.02.2020
1979 Clouds 1 989 80 10000 6.7 70 20:55 25.02.2020
1980 Clouds 1 989 75 10000 5.7 70 20:36 25.02.2020
1981 Clouds 1 989 80 10000 5.1 60 20:18 25.02.2020
1982 Clouds 2 990 76 10000 4.6 50 19:42 25.02.2020
1983 Clouds 2 990 76 10000 4.6 50 19:19 25.02.2020
1984 Clouds 2 990 80 10000 5.7 60 18:43 25.02.2020
1985 Clouds 2 990 80 10000 5.7 60 18:22 25.02.2020
1986 Clouds 2 991 74 10000 6.2 70 18:00 25.02.2020
1987 Clouds 2 991 64 10000 6.2 80 17:38 25.02.2020
1988 Clouds 2 991 64 10000 6.2 80 17:20 25.02.2020
1989 Clouds 2 991 69 10000 6.2 80 16:59 25.02.2020
1990 Clouds 2 991 69 10000 6.2 80 16:41 25.02.2020
1991 Clouds 2 991 74 10000 6.7 70 16:22 25.02.2020
1992 Clouds 3 991 74 10000 5.1 70 15:59 25.02.2020
1993 Rain 3 992 74 10000 6.7 60 15:41 25.02.2020
1994 Rain 3 992 74 10000 6.7 60 15:19 25.02.2020
1995 Clouds 3 992 74 10000 5.7 90 14:57 25.02.2020
1996 Clouds 3 992 74 10000 4.6 70 14:38 25.02.2020
1997 Clouds 3 992 64 10000 4.6 70 14:18 25.02.2020
1998 Clouds 3 992 64 10000 4.6 70 14:18 25.02.2020
1999 Clouds 4 993 64 10000 5.1 80 13:55 25.02.2020
2000 Rain 4 993 69 10000 5.7 90 13:37 25.02.2020
2001 Rain 4 993 69 10000 5.7 90 13:19 25.02.2020
2002 Clouds 4 993 64 10000 5.7 90 12:42 25.02.2020
2003 Clouds 3 994 64 10000 5.7 90 12:22 25.02.2020
2004 Clouds 3 994 74 10000 4.6 80 11:57 25.02.2020
2005 Clouds 3 994 64 10000 3.6 80 11:39 25.02.2020
2006 Clouds 3 994 68 10000 3.6 80 11:19 25.02.2020
2007 Clouds 3 995 68 10000 3.6 80 10:59 25.02.2020
2008 Clouds 2 995 68 10000 3.1 70 10:40 25.02.2020
2009 Clouds 2 995 68 10000 3.1 70 10:21 25.02.2020
2010 Clouds 2 996 86 10000 3.1 70 09:41 25.02.2020
2011 Clouds 0 996 92 10000 1.5 80 09:22 25.02.2020
2012 Clouds 0 996 92 10000 1.5 80 08:47 25.02.2020
2013 Clouds -1 996 92 10000 1.5 0 08:28 25.02.2020
2014 Clouds -2 997 92 10000 1.5 0 07:58 25.02.2020
2015 Clouds -2 997 86 10000 2.1 70 07:39 25.02.2020
2016 Clouds -2 997 86 10000 2.1 70 07:18 25.02.2020
2017 Clouds -3 997 100 10000 2.36 99 06:32 25.02.2020
2018 Clouds -4 998 92 10000 1.97 100 05:27 25.02.2020
2019 Clouds -4 999 92 10000 1.97 100 03:30 25.02.2020
2020 Clouds -4 1000 92 10000 0.84 183 01:31 25.02.2020
2021 Clouds -3 1001 92 10000 0.83 168 00:43 25.02.2020
2022 Clouds -3 1001 86 10000 0.83 168 00:25 25.02.2020
2023 Clouds -4 1001 85 10000 0.83 168 23:42 24.02.2020
2024 Clouds -3 1002 92 10000 1.44 247 23:20 24.02.2020
2025 Clouds -3 1002 86 10000 1.44 247 22:41 24.02.2020
2026 Clouds -3 1002 86 10000 1.44 247 22:20 24.02.2020
2027 Clouds -2 1002 74 10000 0.5 0 21:57 24.02.2020
2028 Clouds -2 1002 79 10000 1.44 247 21:39 24.02.2020
2029 Clouds -2 1002 79 10000 1.44 247 21:20 24.02.2020
2030 Clouds -1 1002 74 10000 2.1 230 20:58 24.02.2020
2031 Clouds -1 1002 74 10000 1.44 247 20:39 24.02.2020
2032 Clear -1 1002 74 10000 2.07 257 20:19 24.02.2020
2033 Clear -1 1002 74 10000 1.5 220 19:56 24.02.2020
2034 Clear -1 1003 68 10000 1 0 19:38 24.02.2020
2035 Clear -1 1003 68 10000 1 0 19:20 24.02.2020
2036 Clear 1 1003 59 10000 2.1 240 18:43 24.02.2020
2037 Clear 1 1003 59 10000 2.1 240 18:24 24.02.2020
2038 Clear 2 1003 55 10000 1 0 17:58 24.02.2020
2039 Clear 2 1003 51 10000 1.5 280 17:39 24.02.2020
2040 Clear 3 1003 51 10000 1.5 280 17:20 24.02.2020
2041 Clear 3 1003 48 10000 3.1 260 16:58 24.02.2020
2042 Clear 4 1003 44 10000 5.1 280 16:39 24.02.2020
2043 Clear 4 1003 44 10000 5.1 280 16:20 24.02.2020
2044 Clear 5 1003 44 10000 4.6 290 15:57 24.02.2020
2045 Clear 5 1003 44 10000 5.1 280 15:39 24.02.2020
2046 Clear 5 1003 44 10000 5.1 280 15:20 24.02.2020
2047 Clear 5 1004 44 10000 5.7 270 14:56 24.02.2020
2048 Clear 5 1004 44 10000 5.1 280 14:38 24.02.2020
2049 Clouds 5 1004 48 10000 6.2 280 14:18 24.02.2020
2050 Clouds 5 1004 48 10000 6.2 280 13:56 24.02.2020
2051 Clouds 5 1004 51 10000 6.2 270 13:36 24.02.2020
2052 Clouds 5 1004 51 10000 6.2 270 13:18 24.02.2020
2053 Clouds 5 1004 51 10000 6.7 270 12:42 24.02.2020
2054 Clouds 4 1004 51 10000 6.7 270 12:24 24.02.2020
2055 Clouds 4 1004 55 10000 5.1 260 11:51 24.02.2020
2056 Clouds 4 1004 59 10000 6.2 270 11:32 24.02.2020
2057 Clouds 3 1003 55 10000 5.7 270 10:59 24.02.2020
2058 Clouds 3 1004 59 10000 4.1 260 10:40 24.02.2020
2059 Clouds 3 1004 59 10000 4.1 260 10:22 24.02.2020
2060 Clouds 2 1003 59 10000 5.1 260 09:40 24.02.2020
2061 Clouds 2 1003 59 10000 5.1 260 09:19 24.02.2020
2062 Clouds 1 1003 69 10000 5.1 260 08:53 24.02.2020
2063 Clouds 1 1003 64 10000 4.1 270 08:29 24.02.2020
2064 Clouds 1 1002 64 10000 4.1 270 07:56 24.02.2020
2065 Clouds 1 1002 64 10000 3.1 270 07:33 24.02.2020
2066 Clouds 0 1001 64 10000 3.1 270 06:53 24.02.2020
2067 Clouds 0 1001 64 10000 4.1 270 06:26 24.02.2020
2068 Clouds 0 1000 64 10000 4.1 270 05:46 24.02.2020
2069 Clouds 0 1000 59 10000 4.6 280 05:25 24.02.2020
2070 Clear 0 997 64 10000 4.6 300 02:58 24.02.2020
2071 Clear 1 996 64 10000 4.1 290 02:31 24.02.2020
2072 Clear 1 995 64 10000 4.6 290 01:31 24.02.2020
2073 Clear 1 994 64 10000 5.1 290 00:47 24.02.2020
2074 Clear 1 993 64 10000 4.1 290 00:21 24.02.2020
2075 Clear 1 992 64 10000 3.6 290 23:55 23.02.2020
2076 Clear 2 991 69 10000 4.6 280 23:36 23.02.2020
2077 Clear 2 991 69 10000 4.6 280 23:18 23.02.2020
2078 Clear 2 991 64 10000 4.6 270 22:43 23.02.2020
2079 Clear 2 990 64 10000 4.1 270 22:22 23.02.2020
2080 Clear 2 990 69 10000 4.1 270 21:55 23.02.2020
2081 Clear 2 989 69 10000 4.1 280 21:37 23.02.2020
2082 Clear 2 989 69 10000 4.1 280 21:18 23.02.2020
2083 Clear 2 989 69 10000 4.1 280 20:55 23.02.2020
2084 Clear 3 988 64 10000 4.1 270 20:37 23.02.2020
2085 Clear 3 988 64 10000 4.1 270 20:18 23.02.2020
2086 Clear 3 988 64 10000 4.1 270 19:42 23.02.2020
2087 Clear 3 988 64 10000 4.6 270 19:20 23.02.2020
2088 Clear 4 987 56 10000 4.6 270 18:59 23.02.2020
2089 Clear 4 987 56 10000 4.6 270 18:41 23.02.2020
2090 Clear 4 987 56 10000 4.6 270 18:21 23.02.2020
2091 Clear 5 987 60 10000 4.1 270 17:58 23.02.2020
2092 Clear 5 987 60 10000 4.1 270 17:40 23.02.2020
2093 Clear 6 986 56 10000 5.7 260 17:21 23.02.2020
2094 Clear 6 986 56 10000 5.7 260 16:56 23.02.2020
2095 Clear 6 986 48 10000 8.7 270 16:37 23.02.2020
2096 Clear 7 986 48 10000 8.7 270 16:18 23.02.2020
2097 Clear 7 986 45 10000 8.2 270 15:54 23.02.2020
2098 Clear 7 986 49 10000 8.7 270 15:36 23.02.2020
2099 Clear 7 986 49 10000 8.7 270 15:18 23.02.2020
2100 Clear 8 986 49 10000 9.3 280 14:55 23.02.2020
2101 Clear 8 986 49 10000 8.2 260 14:37 23.02.2020
2102 Clouds 8 986 49 10000 8.2 260 14:18 23.02.2020
2103 Clouds 8 986 52 10000 9.3 270 13:42 23.02.2020
2104 Clear 7 986 52 10000 9.3 270 13:22 23.02.2020
2105 Clear 7 985 56 10000 9.3 260 12:59 23.02.2020
2106 Clear 7 985 56 10000 8.2 260 12:39 23.02.2020
2107 Clear 7 985 56 10000 8.2 260 12:20 23.02.2020
2108 Clear 7 985 47 10000 8.7 260 11:38 23.02.2020
2109 Clear 7 985 63 10000 9.3 260 11:20 23.02.2020
2110 Clear 7 985 63 10000 9.3 260 10:57 23.02.2020
2111 Clear 6 985 63 10000 8.7 250 10:39 23.02.2020
2112 Clear 6 985 63 10000 8.7 250 10:21 23.02.2020
2113 Clear 6 984 70 10000 9.3 250 09:56 23.02.2020
2114 Clear 6 984 70 10000 8.2 260 09:37 23.02.2020
2115 Clear 6 984 70 10000 8.2 260 09:18 23.02.2020
2116 Clear 5 984 70 10000 8.7 260 08:44 23.02.2020
2117 Rain 5 983 70 10000 8.7 250 08:25 23.02.2020
2118 Rain 5 983 70 10000 7.2 260 07:44 23.02.2020
2119 Rain 5 983 75 10000 7.2 250 07:26 23.02.2020
2120 Drizzle 5 982 75 10000 8.7 240 06:20 23.02.2020
2121 Clouds 5 982 87 10000 8.2 240 04:59 23.02.2020
2122 Clouds 5 982 87 10000 7.2 240 04:23 23.02.2020
2123 Clouds 4 983 69 10000 7.2 240 02:44 23.02.2020
2124 Clouds 4 983 64 10000 8.2 250 01:39 23.02.2020
2125 Clouds 4 983 64 10000 8.2 250 01:20 23.02.2020
2126 Clouds 4 983 69 10000 9.3 250 00:43 23.02.2020
2127 Clouds 4 983 69 10000 9.3 250 00:20 23.02.2020
2128 Clouds 4 983 60 10000 8.7 250 23:43 22.02.2020
2129 Clouds 4 983 60 10000 8.7 250 23:22 22.02.2020
2130 Clouds 4 982 64 10000 8.2 260 22:45 22.02.2020
2131 Clouds 4 982 64 10000 8.2 250 22:20 22.02.2020
2132 Clouds 5 982 60 10000 10.3 250 21:46 22.02.2020
2133 Clouds 5 981 60 10000 11.3 250 21:28 22.02.2020
2134 Clouds 5 981 60 10000 9.3 250 20:58 22.02.2020
2135 Clouds 5 981 60 10000 9.3 260 20:40 22.02.2020
2136 Clouds 5 981 60 10000 9.3 260 20:21 22.02.2020
2137 Clouds 5 980 60 10000 10.3 260 19:43 22.02.2020
2138 Clouds 6 979 60 10000 10.3 250 19:24 22.02.2020
2139 Clouds 6 979 60 10000 12.3 250 18:57 22.02.2020
2140 Clouds 6 978 56 10000 10.3 250 18:37 22.02.2020
2141 Drizzle 6 977 65 10000 10.3 240 18:19 22.02.2020
2142 Drizzle 6 977 65 10000 10.3 240 17:44 22.02.2020
2143 Clouds 6 977 70 10000 8.7 240 17:26 22.02.2020
2144 Clouds 6 977 81 10000 9.8 250 16:59 22.02.2020
2145 Rain 7 977 61 10000 10.3 230 16:40 22.02.2020
2146 Rain 7 977 61 10000 10.3 230 16:20 22.02.2020
2147 Rain 7 977 61 10000 10.3 230 16:20 22.02.2020
2148 Clouds 8 977 61 10000 9.3 230 15:56 22.02.2020
2149 Clouds 8 977 66 10000 10.3 220 15:38 22.02.2020
2150 Clouds 8 977 66 10000 10.3 220 15:20 22.02.2020
2151 Clouds 8 978 70 10000 10.3 220 14:42 22.02.2020
2152 Clouds 8 978 70 10000 10.3 210 14:21 22.02.2020
2153 Clouds 8 980 87 10000 5.7 180 13:43 22.02.2020
2154 Clouds 7 980 87 10000 5.7 180 13:20 22.02.2020
2155 Rain 7 982 87 10000 6.2 190 12:59 22.02.2020
2156 Rain 7 983 87 10000 6.7 190 12:39 22.02.2020
2157 Rain 7 983 87 10000 6.7 190 12:20 22.02.2020
2158 Rain 6 984 93 10000 7.7 200 11:44 22.02.2020
2159 Rain 6 984 93 10000 6.2 180 11:26 22.02.2020
2160 Clouds 7 985 81 10000 6.2 190 10:55 22.02.2020
2161 Clouds 6 986 93 10000 6.7 180 10:37 22.02.2020
2162 Clouds 6 986 93 10000 6.7 180 10:18 22.02.2020
2163 Clouds 6 987 93 10000 6.7 180 09:55 22.02.2020
2164 Clouds 6 988 87 10000 6.7 190 09:37 22.02.2020
2165 Clouds 6 988 87 10000 6.7 190 09:18 22.02.2020
2166 Rain 6 990 93 10000 6.2 190 08:44 22.02.2020
2167 Rain 6 990 93 10000 6.2 190 08:25 22.02.2020
2168 Rain 6 992 87 10000 5.7 200 07:39 22.02.2020
2169 Rain 6 992 87 10000 5.7 200 07:18 22.02.2020
2170 Rain 6 992 87 10000 6.7 200 06:45 22.02.2020
2171 Rain 6 995 87 10000 6.2 190 04:54 22.02.2020
2172 Rain 6 996 93 9000 6.2 190 04:28 22.02.2020
2173 Rain 6 997 87 10000 6.7 190 02:42 22.02.2020
2174 Rain 6 998 81 10000 7.2 200 01:51 22.02.2020
2175 Rain 6 998 81 10000 7.2 200 01:30 22.02.2020
2176 Rain 6 999 81 10000 6.7 210 00:58 22.02.2020
2177 Rain 6 999 81 10000 6.7 210 00:36 22.02.2020
2178 Rain 6 999 81 10000 6.7 210 00:18 22.02.2020
2179 Rain 6 1000 75 10000 7.2 200 23:38 21.02.2020
2180 Clouds 6 1000 75 10000 7.2 200 23:20 21.02.2020
2181 Clouds 6 1000 70 10000 7.7 200 22:42 21.02.2020
2182 Clouds 6 1000 70 10000 7.7 200 22:24 21.02.2020
2183 Clouds 6 1000 70 10000 7.2 200 21:56 21.02.2020
2184 Clouds 6 1000 70 10000 6.7 200 21:37 21.02.2020
2185 Clouds 6 1000 70 10000 6.7 200 21:19 21.02.2020
2186 Clouds 6 1000 77 10000 6.2 200 20:46 21.02.2020
2187 Clouds 6 1001 69 10000 5.7 200 20:27 21.02.2020
2188 Clouds 6 1002 68 10000 6.2 220 19:40 21.02.2020
2189 Clouds 6 1002 68 10000 6.2 220 19:22 21.02.2020
2190 Clouds 6 1002 68 10000 5.1 220 18:44 21.02.2020
2191 Clouds 6 1002 68 10000 5.1 220 18:24 21.02.2020
2192 Clouds 6 1002 68 10000 6.2 230 17:59 21.02.2020
2193 Clouds 6 1002 68 10000 6.7 230 17:39 21.02.2020
2194 Clear 6 1002 63 10000 6.7 230 17:20 21.02.2020
2195 Clear 7 1001 63 10000 5.1 230 16:56 21.02.2020
2196 Clear 7 1001 63 10000 5.1 230 16:56 21.02.2020
2197 Clear 7 1001 63 10000 6.7 230 16:38 21.02.2020
2198 Clear 7 1001 63 10000 6.7 230 16:20 21.02.2020
2199 Clear 7 1001 63 10000 5.1 230 15:44 21.02.2020
2200 Clear 8 1001 63 10000 5.7 230 15:19 21.02.2020
2201 Clear 7 1000 63 10000 5.7 240 14:55 21.02.2020
2202 Clear 7 1000 63 10000 6.7 240 14:37 21.02.2020
2203 Clouds 7 1000 59 10000 6.7 240 14:18 21.02.2020
2204 Clouds 7 999 56 10000 7.2 240 13:42 21.02.2020
2205 Clouds 7 999 58 10000 7.2 240 13:21 21.02.2020
2206 Clouds 7 999 58 10000 7.2 250 12:47 21.02.2020
2207 Clouds 6 998 58 10000 6.7 240 12:27 21.02.2020
2208 Clouds 6 998 58 10000 7.2 250 11:58 21.02.2020
2209 Clouds 6 997 58 10000 7.2 250 11:38 21.02.2020
2210 Clouds 6 997 56 10000 7.2 250 11:20 21.02.2020
2211 Clouds 5 997 56 10000 8.7 250 10:55 21.02.2020
2212 Clouds 5 996 75 10000 6.7 240 10:36 21.02.2020
2213 Clouds 5 996 75 10000 6.7 240 10:18 21.02.2020
2214 Clouds 5 995 80 10000 6.7 230 09:42 21.02.2020
2215 Clouds 5 995 80 10000 6.7 230 09:23 21.02.2020
2216 Clouds 5 994 80 10000 5.7 230 08:56 21.02.2020
2217 Clouds 5 994 86 10000 5.1 230 08:37 21.02.2020
2218 Clouds 5 994 86 10000 5.1 230 08:19 21.02.2020
2219 Clouds 5 993 86 10000 6.2 240 07:55 21.02.2020
2220 Clouds 5 993 93 10000 5.7 190 07:36 21.02.2020
2221 Clouds 5 993 93 10000 5.7 190 07:18 21.02.2020
2222 Drizzle 5 992 93 10000 6.2 190 06:39 21.02.2020
2223 Drizzle 5 992 93 10000 6.2 190 06:21 21.02.2020
2224 Rain 5 993 93 10000 6.7 170 05:35 21.02.2020
2225 Drizzle 5 993 93 10000 6.7 170 04:26 21.02.2020
2226 Rain 5 994 93 10000 6.7 170 03:52 21.02.2020
2227 Clouds 5 995 93 10000 7.2 180 02:59 21.02.2020
2228 Rain 5 996 93 10000 7.7 180 01:45 21.02.2020
2229 Rain 5 997 93 10000 7.7 180 01:23 21.02.2020
2230 Rain 4 997 93 10000 7.7 170 00:39 21.02.2020
2231 Rain 4 997 93 10000 7.7 170 00:20 21.02.2020
2232 Rain 4 999 93 10000 8.2 180 23:42 20.02.2020
2233 Rain 4 999 93 10000 8.2 180 23:22 20.02.2020
2234 Rain 4 1000 93 8000 7.2 170 22:42 20.02.2020
2235 Rain 3 1000 93 8000 7.2 170 22:24 20.02.2020
2236 Rain 3 1000 93 10000 6.7 170 21:58 20.02.2020
2237 Rain 4 1001 86 10000 7.2 170 21:40 20.02.2020
2238 Rain 3 1001 86 10000 7.2 170 21:20 20.02.2020
2239 Rain 3 1001 86 10000 7.2 170 21:20 20.02.2020
2240 Rain 4 1002 86 10000 6.7 170 20:57 20.02.2020
2241 Rain 4 1002 86 10000 7.7 160 20:39 20.02.2020
2242 Rain 4 1002 86 10000 7.7 160 20:20 20.02.2020
2243 Rain 4 1003 86 10000 7.2 160 19:59 20.02.2020
2244 Rain 4 1003 80 10000 6.7 170 19:41 20.02.2020
2245 Clouds 4 1003 80 10000 6.7 170 19:23 20.02.2020
2246 Clouds 5 1004 80 10000 6.7 160 18:58 20.02.2020
2247 Clouds 4 1005 75 10000 6.7 160 18:37 20.02.2020
2248 Clouds 4 1005 75 10000 6.7 160 18:19 20.02.2020
2249 Clouds 4 1006 80 10000 6.2 170 17:39 20.02.2020
2250 Clouds 4 1006 80 10000 6.2 170 17:20 20.02.2020
2251 Clouds 4 1006 80 10000 7.2 180 16:58 20.02.2020
2252 Clouds 4 1007 80 10000 5.7 170 16:39 20.02.2020
2253 Clouds 4 1007 80 10000 5.7 170 16:19 20.02.2020
2254 Clouds 4 1007 80 10000 6.7 170 15:56 20.02.2020
2255 Clouds 4 1008 79 10000 6.2 170 15:37 20.02.2020
2256 Clouds 4 1008 79 10000 6.2 170 15:19 20.02.2020
2257 Clouds 4 1008 79 10000 5.7 180 14:44 20.02.2020
2258 Clouds 4 1009 79 10000 5.1 180 14:25 20.02.2020
2259 Clouds 5 1009 67 10000 4.1 180 13:59 20.02.2020
2260 Clouds 5 1009 75 10000 4.1 180 13:41 20.02.2020
2261 Clouds 5 1010 75 10000 4.1 180 13:19 20.02.2020
2262 Clouds 5 1011 80 10000 4.1 180 12:43 20.02.2020
2263 Clouds 4 1011 80 10000 4.1 180 12:21 20.02.2020
2264 Clouds 4 1011 80 10000 5.1 180 11:59 20.02.2020
2265 Clouds 4 1011 86 10000 3.6 160 11:41 20.02.2020
2266 Clouds 3 1011 86 10000 3.6 160 11:22 20.02.2020
2267 Clouds 3 1011 93 10000 3.6 150 10:57 20.02.2020
2268 Clouds 2 1012 84 10000 2.6 140 10:38 20.02.2020
2269 Clouds 2 1012 84 10000 2.6 140 10:20 20.02.2020
2270 Clouds 1 1012 84 10000 2.1 130 09:42 20.02.2020
2271 Clouds 0 1011 84 10000 2.1 130 09:23 20.02.2020
2272 Clouds -2 1012 100 10000 1.5 130 08:57 20.02.2020
2273 Clouds -3 1012 100 10000 3.66 176 08:37 20.02.2020
2274 Clouds -3 1012 100 10000 1.72 156 08:19 20.02.2020
2275 Clouds -4 1012 100 10000 1.74 151 07:44 20.02.2020
2276 Clear -4 1011 92 10000 1.74 151 07:20 20.02.2020
2277 Clear -4 1011 92 10000 1.74 151 06:44 20.02.2020
2278 Clear -4 1011 100 10000 1.74 151 06:20 20.02.2020
2279 Clear -4 1011 100 10000 1.74 151 05:43 20.02.2020
2280 Clear -3 1010 100 10000 1.12 82 04:50 20.02.2020
2281 Clear -3 1010 92 10000 1.12 82 03:47 20.02.2020
2282 Clear -3 1010 100 10000 1.12 82 02:59 20.02.2020
2283 Clear -2 1008 100 10000 1.5 360 01:34 20.02.2020
2284 Clear -1 1008 92 10000 0.5 0 00:54 20.02.2020
2285 Clear -1 1008 92 10000 1.42 16 00:25 20.02.2020
2286 Clear 0 1007 92 10000 1 0 23:49 19.02.2020
2287 Clear 0 1007 93 10000 1 0 23:22 19.02.2020
2288 Clear 0 1006 86 10000 1.5 360 22:44 19.02.2020
2289 Clear 0 1006 86 10000 1.5 360 22:25 19.02.2020
2290 Clear 1 1005 80 10000 2.1 20 21:59 19.02.2020
2291 Clear 1 1005 80 10000 2.1 350 21:40 19.02.2020
2292 Clear 1 1005 80 10000 2.1 350 21:19 19.02.2020
2293 Clear 0 1004 93 10000 1.5 300 20:58 19.02.2020
2294 Clear 1 1004 86 10000 1.5 0 20:39 19.02.2020
2295 Clear 1 1004 86 10000 1.5 0 20:20 19.02.2020
2296 Clear 1 1004 86 10000 1.5 0 20:20 19.02.2020
2297 Clear 1 1004 86 10000 1.5 0 20:20 19.02.2020
2298 Clear 2 1003 88 10000 1.5 290 19:58 19.02.2020
2299 Clear 2 1003 88 10000 1.5 280 19:38 19.02.2020
2300 Clear 2 1003 88 10000 1.5 280 19:19 19.02.2020
2301 Clear 2 1002 88 10000 1.5 270 18:58 19.02.2020
2302 Clouds 3 1002 88 10000 2.6 240 18:40 19.02.2020
2303 Clouds 3 1001 88 10000 2.1 240 18:21 19.02.2020
2304 Clouds 3 1001 88 10000 2.1 240 17:55 19.02.2020
2305 Clouds 4 1001 88 10000 1.5 250 17:37 19.02.2020
2306 Clouds 4 1001 76 10000 1.5 250 17:18 19.02.2020
2307 Clouds 5 1001 76 10000 2.6 260 16:41 19.02.2020
2308 Clear 6 1000 76 10000 3.6 250 16:18 19.02.2020
2309 Clear 6 1000 76 10000 3.1 260 16:18 19.02.2020
2310 Clear 6 1000 76 10000 3.6 250 15:54 19.02.2020
2311 Clouds 6 1000 76 10000 4.6 270 15:36 19.02.2020
2312 Clouds 6 1000 76 10000 4.6 270 15:36 19.02.2020
2313 Clouds 6 1000 76 10000 4.6 270 15:18 19.02.2020
2314 Clouds 6 999 76 10000 5.7 250 14:40 19.02.2020
2315 Clouds 6 999 76 10000 5.7 250 14:22 19.02.2020
2316 Clouds 6 999 69 10000 5.1 250 13:43 19.02.2020
2317 Clouds 6 999 69 10000 5.1 250 13:23 19.02.2020
2318 Clouds 6 998 69 10000 5.7 250 12:58 19.02.2020
2319 Clouds 6 999 69 10000 6.2 250 12:37 19.02.2020
2320 Clouds 6 999 69 10000 6.2 250 12:18 19.02.2020
2321 Clouds 5 998 75 10000 4.6 240 11:39 19.02.2020
2322 Clouds 5 998 75 10000 4.6 240 11:20 19.02.2020
2323 Clouds 5 998 80 10000 4.6 230 10:59 19.02.2020
2324 Clouds 5 998 75 10000 5.7 230 10:38 19.02.2020
2325 Clouds 5 998 75 10000 5.7 230 10:20 19.02.2020
2326 Clouds 4 998 75 10000 4.1 230 09:59 19.02.2020
2327 Clouds 5 998 75 10000 5.1 240 09:39 19.02.2020
2328 Clouds 4 998 75 10000 5.1 240 09:19 19.02.2020
2329 Clouds 4 998 73 10000 3.1 230 08:48 19.02.2020
2330 Clouds 4 997 76 10000 4.6 240 08:24 19.02.2020
2331 Clouds 4 997 83 10000 6.2 240 07:54 19.02.2020
2332 Clouds 4 997 83 10000 5.1 240 07:36 19.02.2020
2333 Clouds 4 997 83 10000 5.1 240 07:18 19.02.2020
2334 Clouds 4 997 83 10000 5.7 240 06:36 19.02.2020
2335 Clouds 4 996 79 10000 5.7 240 04:59 19.02.2020
2336 Clouds 4 996 79 10000 6.2 230 03:50 19.02.2020
2337 Clouds 4 996 79 10000 5.1 230 02:35 19.02.2020
2338 Clouds 4 996 72 10000 4.6 230 01:38 19.02.2020
2339 Clouds 4 996 77 10000 4.6 230 01:20 19.02.2020
2340 Clouds 4 995 77 10000 4.1 230 00:39 19.02.2020
2341 Clouds 4 996 77 10000 4.6 230 23:59 18.02.2020
2342 Clouds 4 996 77 10000 5.1 240 23:39 18.02.2020
2343 Clouds 4 996 73 10000 5.1 240 23:19 18.02.2020
2344 Clouds 4 996 73 10000 5.1 240 23:19 18.02.2020
2345 Clouds 4 996 73 10000 5.1 240 23:19 18.02.2020
2346 Clouds 4 996 73 10000 5.1 240 23:19 18.02.2020
2347 Clouds 5 996 73 10000 5.7 240 22:55 18.02.2020
2348 Clouds 5 996 73 10000 6.2 240 22:36 18.02.2020
2349 Clouds 5 996 73 10000 6.2 240 22:18 18.02.2020
2350 Clouds 5 995 73 10000 6.2 240 21:38 18.02.2020
2351 Clouds 5 995 73 10000 6.2 240 21:38 18.02.2020
2352 Clouds 5 995 73 10000 6.2 240 21:20 18.02.2020
2353 Clouds 5 995 73 10000 6.2 250 21:00 18.02.2020
2354 Clouds 5 995 73 10000 7.7 250 20:40 18.02.2020
2355 Clouds 5 995 66 10000 7.7 250 20:21 18.02.2020
2356 Clouds 5 994 70 10000 7.2 240 19:57 18.02.2020
2357 Clouds 5 994 70 10000 7.2 240 19:57 18.02.2020
2358 Clouds 6 994 70 10000 6.2 230 19:39 18.02.2020
2359 Clouds 6 994 70 10000 6.2 230 19:19 18.02.2020
2360 Clouds 6 994 65 10000 5.7 240 18:42 18.02.2020
2361 Clouds 6 994 70 10000 5.7 230 18:21 18.02.2020
2362 Clouds 6 994 70 10000 5.7 230 17:58 18.02.2020
2363 Clouds 6 993 75 10000 5.7 230 17:40 18.02.2020
2364 Clouds 6 993 75 10000 5.7 230 17:19 18.02.2020
2365 Clouds 6 993 70 10000 7.2 240 16:40 18.02.2020
2366 Clouds 6 993 70 10000 7.2 240 16:40 18.02.2020
2367 Clouds 6 993 70 10000 7.7 230 16:21 18.02.2020
2368 Clouds 7 993 70 10000 7.7 230 15:55 18.02.2020
2369 Clouds 7 994 70 10000 7.7 240 15:36 18.02.2020
2370 Clouds 7 994 70 10000 7.7 240 15:18 18.02.2020
2371 Clouds 7 994 75 10000 6.7 230 14:54 18.02.2020
2372 Clouds 7 994 70 10000 8.7 240 14:36 18.02.2020
2373 Clouds 7 994 70 10000 8.7 240 14:18 18.02.2020
2374 Clouds 7 993 61 10000 7.7 230 13:41 18.02.2020
2375 Rain 7 994 70 10000 9.3 240 13:41 18.02.2020
2376 Clouds 7 993 61 10000 7.7 230 13:21 18.02.2020
2377 Clouds 8 994 65 10000 8.2 230 12:47 18.02.2020
2378 Clouds 8 994 65 10000 8.2 230 12:29 18.02.2020
2379 Clouds 8 994 65 10000 10.3 240 11:59 18.02.2020
2380 Clouds 8 993 65 10000 8.7 230 11:41 18.02.2020
2381 Clouds 7 993 65 10000 8.7 230 11:22 18.02.2020
2382 Clouds 7 993 65 10000 8.2 230 10:44 18.02.2020
2383 Clouds 8 993 65 10000 9.8 240 10:24 18.02.2020
2384 Clouds 7 993 65 10000 7.7 230 09:57 18.02.2020
2385 Clouds 7 993 70 10000 8.2 230 09:39 18.02.2020
2386 Clouds 7 993 70 10000 8.2 230 09:20 18.02.2020
2387 Clouds 7 993 70 10000 8.2 230 09:20 18.02.2020
2388 Clouds 7 993 70 10000 5.1 230 08:58 18.02.2020
2389 Clouds 7 992 70 10000 5.1 220 08:39 18.02.2020
2390 Clouds 7 992 70 10000 5.1 220 08:19 18.02.2020
2391 Clouds 6 992 70 10000 4.6 230 07:51 18.02.2020
2392 Clouds 6 992 70 10000 5.1 230 07:26 18.02.2020
2393 Clouds 6 992 70 10000 5.1 240 06:55 18.02.2020
2394 Clouds 6 992 70 10000 5.7 240 06:29 18.02.2020
2395 Clouds 7 991 70 10000 6.2 240 05:49 18.02.2020
2396 Clouds 7 991 70 10000 6.7 240 05:22 18.02.2020
2397 Clouds 7 990 70 10000 7.7 230 03:54 18.02.2020
2398 Clouds 7 990 65 10000 8.2 250 02:58 18.02.2020
2399 Clouds 7 989 70 10000 10.3 240 01:27 18.02.2020
2400 Clouds 7 988 70 10000 9.3 230 00:43 18.02.2020
2401 Clouds 7 988 70 10000 9.3 230 00:18 18.02.2020
2402 Clouds 7 988 70 10000 9.3 230 23:40 17.02.2020
2403 Clouds 7 988 70 10000 9.3 230 23:21 17.02.2020
2404 Clouds 7 988 70 10000 8.2 230 22:58 17.02.2020
2405 Clouds 7 988 70 10000 8.2 230 22:58 17.02.2020
2406 Clouds 7 988 70 10000 9.8 220 22:40 17.02.2020
2407 Clouds 7 988 70 10000 9.8 220 22:19 17.02.2020
2408 Clouds 7 988 70 10000 8.2 220 21:39 17.02.2020
2409 Clouds 7 988 70 10000 8.2 220 21:19 17.02.2020
2410 Clouds 7 987 70 10000 7.7 220 20:57 17.02.2020
2411 Clouds 7 987 70 10000 8.7 220 20:38 17.02.2020
2412 Clouds 7 987 70 10000 8.7 220 20:19 17.02.2020
2413 Rain 6 987 81 10000 8.2 210 19:43 17.02.2020
2414 Clouds 6 987 70 10000 8.7 220 19:22 17.02.2020
2415 Clouds 6 987 70 10000 6.7 210 18:58 17.02.2020
2416 Drizzle 6 987 75 10000 7.7 210 18:37 17.02.2020
2417 Rain 6 984 81 10000 8.2 220 18:18 17.02.2020
2418 Clouds 6 987 70 10000 7.7 210 17:54 17.02.2020
2419 Clouds 6 988 70 10000 7.2 210 17:36 17.02.2020
2420 Clouds 7 988 70 10000 7.2 210 17:18 17.02.2020
2421 Clouds 7 988 70 10000 9.3 220 16:42 17.02.2020
2422 Clouds 7 988 70 10000 9.3 220 16:22 17.02.2020
2423 Clouds 7 988 65 10000 8.2 210 15:56 17.02.2020
2424 Clouds 7 988 65 10000 8.2 210 15:56 17.02.2020
2425 Clouds 7 988 61 10000 8.2 210 15:37 17.02.2020
2426 Clouds 7 988 61 10000 8.2 210 15:37 17.02.2020
2427 Clouds 7 988 61 10000 8.2 210 15:19 17.02.2020
2428 Clouds 8 987 68 10000 8.2 220 14:42 17.02.2020
2429 Clouds 8 987 68 10000 8.2 220 14:42 17.02.2020
2430 Clouds 8 987 68 10000 8.2 220 14:24 17.02.2020
2431 Clouds 8 987 62 10000 8.2 220 13:58 17.02.2020
2432 Clouds 8 987 62 10000 6.7 230 13:39 17.02.2020
2433 Clouds 8 987 58 10000 6.7 230 13:19 17.02.2020
2434 Clouds 8 987 58 10000 7.7 230 12:44 17.02.2020
2435 Clouds 7 987 58 10000 8.2 230 12:25 17.02.2020
2436 Clouds 7 987 65 10000 5.7 230 11:59 17.02.2020
2437 Clouds 7 987 65 10000 10.3 230 11:40 17.02.2020
2438 Clouds 7 987 65 10000 10.3 230 11:21 17.02.2020
2439 Clouds 7 986 65 10000 7.2 230 10:55 17.02.2020
2440 Clouds 6 986 70 10000 7.7 220 10:37 17.02.2020
2441 Clouds 6 986 70 10000 7.7 220 10:19 17.02.2020
2442 Clouds 6 985 80 10000 5.1 220 09:42 17.02.2020
2443 Clouds 5 985 80 10000 5.1 220 09:23 17.02.2020
2444 Clouds 5 985 80 10000 5.7 220 08:59 17.02.2020
2445 Clouds 5 985 80 10000 5.1 220 08:40 17.02.2020
2446 Clouds 5 985 80 10000 5.1 220 08:21 17.02.2020
2447 Clouds 5 985 80 10000 5.1 220 07:47 17.02.2020
2448 Clouds 5 984 80 10000 6.2 220 07:25 17.02.2020
2449 Clouds 5 984 75 10000 5.7 220 06:53 17.02.2020
2450 Clouds 5 984 75 10000 6.2 230 06:33 17.02.2020
2451 Clouds 4 984 80 10000 5.7 230 05:59 17.02.2020
2452 Clouds 4 983 86 10000 5.7 230 05:38 17.02.2020
2453 Rain 5 982 86 10000 4.6 220 03:22 17.02.2020
2454 Rain 5 982 93 10000 3.1 200 01:59 17.02.2020
2455 Rain 5 983 80 10000 5.7 240 00:51 17.02.2020
2456 Drizzle 6 983 78 10000 5.1 210 00:22 17.02.2020
2457 Rain 7 983 78 10000 5.1 210 23:54 16.02.2020
2458 Rain 7 983 78 10000 5.1 210 23:33 16.02.2020
2459 Clouds 8 983 70 10000 7.2 240 22:58 16.02.2020
2460 Clouds 8 983 70 10000 7.2 240 22:58 16.02.2020
2461 Clouds 8 982 61 10000 8.2 220 22:39 16.02.2020
2462 Clouds 8 982 61 10000 8.2 220 22:39 16.02.2020
2463 Clouds 8 982 61 10000 8.2 220 22:21 16.02.2020
2464 Clouds 8 982 61 10000 8.2 220 22:21 16.02.2020
2465 Clouds 8 983 66 10000 6.2 230 21:59 16.02.2020
2466 Clouds 8 981 65 10000 7.7 240 21:40 16.02.2020
2467 Clouds 8 981 61 10000 10.3 230 21:22 16.02.2020
2468 Clouds 9 981 66 10000 11.8 220 20:58 16.02.2020
2469 Clouds 9 983 66 10000 7.7 230 20:58 16.02.2020
2470 Clouds 9 982 81 10000 5.1 210 20:40 16.02.2020
2471 Clouds 9 982 81 10000 5.1 210 20:21 16.02.2020
2472 Clouds 9 982 93 10000 5.7 200 19:58 16.02.2020
2473 Clouds 8 982 93 10000 6.2 190 19:38 16.02.2020
2474 Clouds 8 982 93 10000 6.2 190 19:19 16.02.2020
2475 Drizzle 8 982 87 10000 6.7 200 18:45 16.02.2020
2476 Clouds 8 981 93 10000 6.7 180 18:26 16.02.2020
2477 Clouds 8 981 93 10000 7.2 170 17:59 16.02.2020
2478 Clouds 8 982 93 10000 7.7 180 17:40 16.02.2020
2479 Clouds 8 982 93 10000 7.7 180 17:20 16.02.2020
2480 Clouds 8 982 93 10000 8.2 180 16:56 16.02.2020
2481 Clouds 8 982 93 10000 8.2 180 16:38 16.02.2020
2482 Clouds 8 982 93 10000 8.2 180 16:19 16.02.2020
2483 Clouds 8 983 93 10000 8.2 180 15:41 16.02.2020
2484 Clouds 8 983 93 10000 8.2 180 15:41 16.02.2020
2485 Clouds 8 983 93 10000 8.2 170 15:22 16.02.2020
2486 Clouds 8 985 87 10000 8.7 180 14:57 16.02.2020
2487 Drizzle 8 985 87 10000 8.2 180 14:38 16.02.2020
2488 Drizzle 8 985 87 10000 8.7 180 14:19 16.02.2020
2489 Drizzle 7 985 87 10000 8.7 180 13:45 16.02.2020
2490 Rain 7 986 87 10000 7.7 170 13:23 16.02.2020
2491 Drizzle 7 987 93 10000 7.2 170 12:42 16.02.2020
2492 Clouds 7 988 87 10000 8.2 170 12:20 16.02.2020
2493 Clouds 7 988 93 10000 6.7 170 11:59 16.02.2020
2494 Rain 7 989 93 10000 7.2 170 11:37 16.02.2020
2495 Clouds 7 989 93 10000 7.2 170 11:18 16.02.2020
2496 Clouds 7 990 87 10000 6.2 180 10:56 16.02.2020
2497 Clouds 7 990 87 10000 6.2 180 10:37 16.02.2020
2498 Clouds 7 990 87 10000 6.2 180 10:37 16.02.2020
2499 Clouds 7 990 87 10000 6.2 180 10:37 16.02.2020
2500 Clouds 7 990 87 10000 6.2 180 10:18 16.02.2020
2501 Clouds 6 992 93 10000 7.2 190 09:39 16.02.2020
2502 Clouds 6 992 93 10000 7.2 190 09:21 16.02.2020
2503 Clouds 6 991 93 10000 7.2 180 08:59 16.02.2020
2504 Clouds 6 991 93 10000 7.2 180 08:40 16.02.2020
2505 Rain 6 992 93 10000 7.2 180 08:20 16.02.2020
2506 Rain 6 993 93 10000 7.7 180 07:44 16.02.2020
2507 Rain 6 993 93 10000 7.7 180 07:25 16.02.2020
2508 Rain 5 994 100 10000 7.7 170 06:32 16.02.2020
2509 Rain 5 997 100 10000 7.2 170 04:38 16.02.2020
2510 Rain 5 999 93 10000 6.2 160 03:24 16.02.2020
2511 Rain 5 1001 93 10000 4.6 160 02:27 16.02.2020
2512 Rain 5 1003 93 10000 5.1 150 01:42 16.02.2020
2513 Rain 5 1003 93 10000 5.1 150 01:21 16.02.2020
2514 Rain 4 1004 93 10000 4.6 150 00:51 16.02.2020
2515 Rain 4 1004 93 10000 5.1 160 00:28 16.02.2020
2516 Drizzle 4 1005 93 10000 4.6 160 23:45 15.02.2020
2517 Rain 4 1006 93 10000 4.1 170 23:26 15.02.2020
2518 Rain 4 1006 93 10000 4.1 170 23:26 15.02.2020
2519 Clouds 4 1006 93 10000 3.1 170 22:59 15.02.2020
2520 Clouds 4 1007 93 10000 3.1 180 22:41 15.02.2020
2521 Clouds 4 1007 93 10000 3.1 180 22:21 15.02.2020
2522 Clouds 3 1008 93 10000 3.6 180 21:58 15.02.2020
2523 Clouds 3 1008 93 10000 3.1 180 21:39 15.02.2020
2524 Clouds 3 1008 93 10000 3.1 180 21:20 15.02.2020
2525 Clouds 3 1008 86 10000 2.1 190 20:39 15.02.2020
2526 Clouds 3 1008 86 10000 2.1 190 20:21 15.02.2020
2527 Clouds 3 1008 93 10000 3.1 210 19:44 15.02.2020
2528 Clouds 3 1008 93 10000 3.1 210 19:22 15.02.2020
2529 Clouds 4 1009 86 10000 3.6 210 18:45 15.02.2020
2530 Clouds 4 1009 86 10000 3.6 210 18:24 15.02.2020
2531 Clouds 4 1009 86 10000 4.1 210 17:58 15.02.2020
2532 Clouds 4 1009 86 10000 4.1 210 17:58 15.02.2020
2533 Clouds 4 1009 86 10000 4.1 210 17:58 15.02.2020
2534 Clouds 4 1009 86 10000 4.1 210 17:39 15.02.2020
2535 Clouds 4 1009 86 10000 4.1 210 17:21 15.02.2020
2536 Clouds 5 1009 86 10000 4.6 210 16:43 15.02.2020
2537 Clouds 5 1009 86 10000 4.6 210 16:25 15.02.2020
2538 Clouds 4 1009 86 10000 4.1 210 15:59 15.02.2020
2539 Clouds 5 1009 80 10000 4.1 210 15:41 15.02.2020
2540 Clouds 5 1009 80 10000 4.1 210 15:22 15.02.2020
2541 Clouds 5 1009 80 10000 4.6 210 14:45 15.02.2020
2542 Clouds 5 1008 80 10000 4.6 230 14:19 15.02.2020
2543 Clouds 5 1008 80 10000 4.6 230 13:56 15.02.2020
2544 Clouds 5 1008 80 10000 4.6 230 13:56 15.02.2020
2545 Clouds 4 1008 86 10000 5.1 220 13:38 15.02.2020
2546 Clouds 4 1008 86 10000 5.1 220 13:20 15.02.2020
2547 Rain 4 1009 86 10000 5.1 220 12:42 15.02.2020
2548 Rain 4 1009 86 10000 5.1 220 12:24 15.02.2020
2549 Clouds 4 1009 80 10000 5.7 220 11:52 15.02.2020
2550 Clouds 3 1009 86 10000 5.7 220 11:33 15.02.2020
2551 Clouds 3 1009 86 10000 5.7 210 10:58 15.02.2020
2552 Clouds 3 1009 86 10000 5.7 210 10:58 15.02.2020
2553 Clouds 3 1009 86 10000 5.7 210 10:39 15.02.2020
2554 Clouds 3 1009 86 10000 5.7 210 10:39 15.02.2020
2555 Clouds 3 1009 86 10000 5.7 210 10:20 15.02.2020
2556 Clouds 2 1010 93 10000 5.1 200 09:44 15.02.2020
2557 Rain 2 1010 93 10000 5.1 190 09:25 15.02.2020
2558 Clouds 2 1010 90 10000 4.6 190 08:45 15.02.2020
2559 Clouds 2 1010 91 10000 4.1 180 08:26 15.02.2020
2560 Drizzle 2 1011 78 10000 5.1 190 07:59 15.02.2020
2561 Drizzle 2 1011 78 10000 5.1 190 07:59 15.02.2020
2562 Clouds 2 1011 78 10000 4.1 190 07:39 15.02.2020
2563 Clouds 3 1011 78 10000 4.1 190 07:20 15.02.2020
2564 Clouds 3 1012 78 10000 5.7 190 06:37 15.02.2020
2565 Clouds 3 1012 78 10000 5.1 180 05:55 15.02.2020
2566 Clouds 3 1013 74 10000 4.6 180 04:49 15.02.2020
2567 Clouds 3 1014 74 10000 4.1 180 04:21 15.02.2020
2568 Clouds 2 1015 74 10000 3.6 190 02:58 15.02.2020
2569 Clouds 2 1016 80 10000 3.6 190 02:24 15.02.2020
2570 Clouds 1 1016 77 10000 3.1 180 01:45 15.02.2020
2571 Clouds 1 1017 77 10000 3.1 200 00:58 15.02.2020
2572 Clouds 1 1017 77 10000 2.6 190 00:28 15.02.2020
2573 Clouds 0 1017 77 10000 2.6 190 23:45 14.02.2020
2574 Clouds 0 1017 86 10000 3.1 180 23:21 14.02.2020
2575 Clouds 0 1017 86 10000 3.1 200 22:55 14.02.2020
2576 Clouds 0 1017 92 10000 1.5 190 22:36 14.02.2020
2577 Clouds -1 1017 92 10000 1.5 190 22:18 14.02.2020
2578 Clouds -1 1017 86 10000 2.1 200 21:41 14.02.2020
2579 Clouds -1 1017 86 10000 2.1 200 21:23 14.02.2020
2580 Clouds -1 1017 86 10000 1 0 20:44 14.02.2020
2581 Clouds -1 1017 86 10000 1 0 20:20 14.02.2020
2582 Clouds -2 1017 92 10000 1 190 19:58 14.02.2020
2583 Clouds -1 1018 86 10000 1.5 0 19:40 14.02.2020
2584 Clouds -1 1017 92 10000 1 190 19:40 14.02.2020
2585 Clouds -1 1018 86 10000 1.5 0 19:20 14.02.2020
2586 Clouds -1 1017 80 10000 1 190 18:56 14.02.2020
2587 Clouds -1 1017 80 10000 1 0 18:38 14.02.2020
2588 Clouds -1 1017 80 10000 1 0 18:19 14.02.2020
2589 Clouds 0 1017 74 10000 1.5 210 17:42 14.02.2020
2590 Clouds 1 1017 74 10000 1.5 210 17:21 14.02.2020
2591 Clouds 1 1017 69 10000 1 210 16:58 14.02.2020
2592 Clouds 2 1016 64 10000 1 220 16:39 14.02.2020
2593 Clouds 3 1016 64 10000 1 220 16:21 14.02.2020
2594 Clouds 3 1016 64 10000 2.1 210 15:56 14.02.2020
2595 Clouds 4 1016 64 10000 2.1 230 15:37 14.02.2020
2596 Clouds 4 1016 64 10000 2.1 230 15:37 14.02.2020
2597 Clouds 4 1016 64 10000 2.1 230 15:37 14.02.2020
2598 Clouds 4 1016 64 10000 2.1 230 15:37 14.02.2020
2599 Clouds 4 1016 64 10000 2.1 230 15:37 14.02.2020
2600 Clouds 4 1016 64 10000 2.1 230 15:19 14.02.2020
2601 Clouds 4 1016 64 10000 1.5 230 14:56 14.02.2020
2602 Clouds 4 1016 64 10000 1.5 220 14:38 14.02.2020
2603 Clouds 3 1016 64 10000 1.5 220 14:19 14.02.2020
2604 Clouds 3 1015 64 10000 2.1 210 13:40 14.02.2020
2605 Clouds 3 1015 64 10000 2.1 210 13:40 14.02.2020
2606 Clouds 3 1015 69 10000 1.5 0 13:21 14.02.2020
2607 Clouds 3 1015 69 10000 1.5 0 12:58 14.02.2020
2608 Clouds 2 1015 69 10000 1.5 230 12:39 14.02.2020
2609 Clouds 2 1015 69 10000 1.5 230 12:21 14.02.2020
2610 Clouds 1 1014 74 10000 1.59 221 11:58 14.02.2020
2611 Clouds 0 1014 63 10000 1.59 221 11:40 14.02.2020
2612 Clouds 0 1014 66 10000 0.49 242 11:20 14.02.2020
2613 Clouds -1 1014 86 10000 0.49 242 10:55 14.02.2020
2614 Clouds -2 1013 92 10000 0.5 220 10:37 14.02.2020
2615 Clouds -1 1013 92 10000 0.5 220 10:19 14.02.2020
2616 Clouds -3 1013 92 10000 0.5 0 09:40 14.02.2020
2617 Clouds -3 1013 92 10000 0.5 0 09:20 14.02.2020
2618 Clouds -4 1012 100 10000 0.5 290 08:43 14.02.2020
2619 Clouds -4 1012 100 10000 0.5 290 08:25 14.02.2020
2620 Clouds -5 1011 100 10000 1.17 335 07:56 14.02.2020
2621 Clouds -5 1011 92 10000 1.17 335 07:38 14.02.2020
2622 Clouds -5 1011 92 10000 1.17 335 07:18 14.02.2020
2623 Clouds -5 1011 92 10000 1.17 335 06:23 14.02.2020
2624 Clouds -4 1010 92 10000 1.17 335 05:47 14.02.2020
2625 Clouds -4 1009 92 10000 1 0 04:28 14.02.2020
2626 Clouds -4 1008 92 10000 1.37 317 03:29 14.02.2020
2627 Clouds -3 1007 92 10000 1.37 317 02:29 14.02.2020
2628 Clear -3 1006 86 10000 0.5 270 01:25 14.02.2020
2629 Clear -3 1006 79 10000 1.5 250 00:42 14.02.2020
2630 Clear -2 1006 79 10000 1.5 250 00:21 14.02.2020
2631 Clear -2 1005 86 10000 1.5 250 23:43 13.02.2020
2632 Clear -2 1005 86 10000 1.5 250 23:43 13.02.2020
2633 Clear -2 1005 79 10000 1 0 23:20 13.02.2020
2634 Clear -1 1004 67 10000 2.6 260 22:43 13.02.2020
2635 Clear -1 1004 67 10000 2.6 260 22:20 13.02.2020
2636 Clear 0 1003 64 10000 3.1 260 21:59 13.02.2020
2637 Clear 0 1003 69 10000 3.6 260 21:40 13.02.2020
2638 Clear 0 1003 69 10000 3.6 260 21:22 13.02.2020
2639 Clear 0 1003 69 10000 3.1 250 20:56 13.02.2020
2640 Clear 0 1002 69 10000 3.1 240 20:38 13.02.2020
2641 Clear 0 1002 69 10000 3.1 240 20:19 13.02.2020
2642 Clear 0 1002 66 10000 3.1 230 19:55 13.02.2020
2643 Clear 0 1002 74 10000 2.1 230 19:36 13.02.2020
2644 Clear 0 1001 66 10000 1.5 220 19:18 13.02.2020
2645 Clear 0 1002 74 10000 2.1 230 19:18 13.02.2020
2646 Clear 0 1001 64 10000 2.6 240 18:42 13.02.2020
2647 Clear 0 1001 64 10000 2.6 240 18:23 13.02.2020
2648 Clear 1 1001 59 10000 3.1 250 17:58 13.02.2020
2649 Clear 1 1000 59 10000 3.6 250 17:39 13.02.2020
2650 Clear 1 1000 59 10000 3.6 250 17:20 13.02.2020
2651 Clear 1 1000 59 10000 3.6 250 17:20 13.02.2020
2652 Clear 2 1000 55 10000 4.1 260 16:57 13.02.2020
2653 Clear 2 999 55 10000 4.1 260 16:36 13.02.2020
2654 Clear 3 999 51 10000 4.1 250 16:18 13.02.2020
2655 Clear 3 999 51 10000 4.1 250 15:56 13.02.2020
2656 Clear 3 999 51 10000 5.1 240 15:37 13.02.2020
2657 Clear 3 999 51 10000 5.1 240 15:37 13.02.2020
2658 Clear 3 999 51 10000 4.6 240 15:18 13.02.2020
2659 Clear 3 999 51 10000 4.6 240 14:55 13.02.2020
2660 Clear 3 998 55 10000 5.1 250 14:37 13.02.2020
2661 Clear 3 998 55 10000 5.1 250 14:37 13.02.2020
2662 Clear 3 998 55 10000 5.1 250 14:37 13.02.2020
2663 Clouds 3 998 55 10000 5.1 250 14:19 13.02.2020
2664 Clouds 3 998 64 10000 5.1 240 13:42 13.02.2020
2665 Clouds 3 998 59 10000 6.2 260 13:18 13.02.2020
2666 Clouds 3 998 64 10000 5.1 250 12:54 13.02.2020
2667 Clouds 3 998 69 10000 5.7 260 12:36 13.02.2020
2668 Clouds 2 998 69 10000 5.7 260 12:18 13.02.2020
2669 Clouds 2 997 69 10000 4.1 260 11:43 13.02.2020
2670 Clouds 2 997 69 10000 4.1 260 11:19 13.02.2020
2671 Clouds 1 997 74 10000 5.1 260 10:46 13.02.2020
2672 Clouds 1 996 74 10000 4.6 260 10:27 13.02.2020
2673 Clouds 0 996 74 10000 5.1 240 09:51 13.02.2020
2674 Clouds 0 996 66 10000 3.6 250 09:26 13.02.2020
2675 Clouds -1 995 86 10000 3.1 250 08:54 13.02.2020
2676 Clear -1 995 86 10000 2.1 230 08:36 13.02.2020
2677 Clear -1 995 86 10000 2.1 230 08:18 13.02.2020
2678 Clear -1 994 92 10000 3.6 260 07:39 13.02.2020
2679 Clear -1 994 92 10000 3.6 260 07:20 13.02.2020
2680 Clear -1 993 92 10000 2.1 250 06:44 13.02.2020
2681 Clear -1 993 92 10000 2.1 250 06:44 13.02.2020
2682 Clear -1 993 92 10000 2.1 250 06:19 13.02.2020
2683 Clear -1 992 79 10000 3.1 230 05:33 13.02.2020
2684 Clear -1 991 82 10000 3.1 250 04:26 13.02.2020
2685 Clear -1 991 82 10000 3.6 250 03:51 13.02.2020
2686 Clear 0 991 82 10000 4.6 240 03:20 13.02.2020
2687 Clear 0 990 82 10000 3.1 240 02:50 13.02.2020
2688 Clouds 0 990 86 10000 3.1 250 02:19 13.02.2020
2689 Clouds 0 989 86 10000 2.6 260 01:32 13.02.2020
2690 Clouds 1 989 83 10000 3.6 260 00:39 13.02.2020
2691 Clouds 1 989 83 10000 3.6 260 00:21 13.02.2020
2692 Clouds 1 988 83 10000 4.1 260 23:40 12.02.2020
2693 Clouds 1 988 83 10000 4.1 260 23:40 12.02.2020
2694 Clouds 1 988 80 10000 4.1 260 23:21 12.02.2020
2695 Clouds 2 987 80 10000 3.1 260 22:45 12.02.2020
2696 Clouds 2 987 80 10000 3.6 250 22:26 12.02.2020
2697 Clouds 2 986 80 10000 4.6 260 21:58 12.02.2020
2698 Clouds 2 986 86 10000 5.1 260 21:40 12.02.2020
2699 Clouds 2 986 86 10000 5.1 260 21:19 12.02.2020
2700 Drizzle 3 985 86 10000 6.2 270 20:56 12.02.2020
2701 Clouds 3 985 86 10000 6.2 260 20:37 12.02.2020
2702 Clouds 3 985 86 10000 6.2 260 20:19 12.02.2020
2703 Drizzle 3 984 93 10000 4.6 250 19:54 12.02.2020
2704 Clouds 3 984 93 10000 5.7 250 19:36 12.02.2020
2705 Clouds 3 984 93 10000 5.7 250 19:18 12.02.2020
2706 Clouds 3 983 86 10000 5.7 250 18:45 12.02.2020
2707 Clouds 3 983 93 10000 5.7 250 18:18 12.02.2020
2708 Clouds 3 983 93 10000 5.7 250 18:18 12.02.2020
2709 Clouds 3 982 93 10000 5.1 240 17:43 12.02.2020
2710 Clouds 3 982 93 10000 5.1 240 17:21 12.02.2020
2711 Rain 3 981 93 10000 3.1 230 16:59 12.02.2020
2712 Rain 4 981 86 8000 5.7 240 16:39 12.02.2020
2713 Rain 3 981 86 8000 5.7 240 16:19 12.02.2020
2714 Clouds 4 981 80 10000 4.1 200 15:43 12.02.2020
2715 Clouds 4 981 75 10000 3.6 200 15:24 12.02.2020
2716 Clouds 5 980 75 10000 4.1 190 14:57 12.02.2020
2717 Clouds 5 980 75 10000 3.6 200 14:39 12.02.2020
2718 Clouds 5 980 75 10000 3.6 200 14:20 12.02.2020
2719 Clouds 5 980 75 10000 4.1 210 13:57 12.02.2020
2720 Clouds 5 980 75 10000 5.1 210 13:39 12.02.2020
2721 Clouds 5 980 75 10000 5.1 210 13:20 12.02.2020
2722 Clouds 4 980 80 10000 4.6 210 12:57 12.02.2020
2723 Clouds 5 980 80 10000 3.6 220 12:38 12.02.2020
2724 Clouds 4 980 80 10000 3.6 220 12:18 12.02.2020
2725 Clouds 4 980 81 10000 5.1 210 11:57 12.02.2020
2726 Clouds 4 980 81 10000 6.2 220 11:38 12.02.2020
2727 Clouds 4 980 74 10000 6.2 220 11:20 12.02.2020
2728 Clouds 4 980 74 10000 6.2 210 10:55 12.02.2020
2729 Clouds 4 980 74 10000 5.1 190 10:36 12.02.2020
2730 Clouds 4 980 74 10000 5.1 190 10:18 12.02.2020
2731 Clouds 4 980 74 10000 5.7 190 09:41 12.02.2020
2732 Clouds 4 980 74 10000 5.7 190 09:22 12.02.2020
2733 Clouds 3 980 74 10000 4.1 200 08:57 12.02.2020
2734 Clouds 3 980 76 10000 4.6 210 08:37 12.02.2020
2735 Clouds 3 980 80 10000 4.6 210 08:19 12.02.2020
2736 Clouds 3 980 80 10000 3.6 210 07:44 12.02.2020
2737 Clouds 3 980 80 10000 3.1 210 07:23 12.02.2020
2738 Clouds 3 979 80 10000 3.6 210 06:56 12.02.2020
2739 Clouds 2 979 80 10000 3.6 220 06:23 12.02.2020
2740 Clouds 2 979 80 10000 4.6 220 05:38 12.02.2020
2741 Clouds 2 978 81 10000 4.1 210 04:58 12.02.2020
2742 Clouds 2 978 81 10000 4.6 210 04:39 12.02.2020
2743 Clouds 2 978 81 10000 3.1 210 03:33 12.02.2020
2744 Clouds 2 978 81 10000 2.6 190 02:58 12.02.2020
2745 Clouds 1 978 81 10000 3.1 200 02:30 12.02.2020
2746 Clouds 1 978 87 10000 3.6 210 01:51 12.02.2020
2747 Clouds 2 978 88 10000 2.6 200 00:45 12.02.2020
2748 Clouds 2 978 88 10000 4.1 230 00:26 12.02.2020
2749 Clouds 2 978 88 10000 3.1 220 23:57 11.02.2020
2750 Clouds 2 977 80 10000 3.1 220 23:39 11.02.2020
2751 Clouds 2 977 80 10000 3.1 220 23:20 11.02.2020
2752 Clouds 2 977 80 10000 3.6 210 22:55 11.02.2020
2753 Clouds 2 977 82 10000 3.1 200 22:37 11.02.2020
2754 Clouds 2 977 82 10000 3.1 200 22:18 11.02.2020
2755 Clouds 2 976 82 10000 3.1 210 21:55 11.02.2020
2756 Clouds 2 976 80 10000 2.6 210 21:37 11.02.2020
2757 Clouds 2 976 80 10000 2.6 210 21:18 11.02.2020
2758 Clouds 3 976 82 10000 2.6 210 20:54 11.02.2020
2759 Clouds 3 976 82 10000 3.1 220 20:36 11.02.2020
2760 Clouds 3 976 77 10000 3.1 220 20:18 11.02.2020
2761 Clouds 3 975 77 10000 2.6 200 19:42 11.02.2020
2762 Clouds 3 975 77 10000 2.6 200 19:24 11.02.2020
2763 Clouds 3 975 77 10000 2.6 210 18:56 11.02.2020
2764 Clouds 3 975 77 10000 2.6 220 18:37 11.02.2020
2765 Clouds 3 975 77 10000 2.6 220 18:19 11.02.2020
2766 Clouds 3 975 77 10000 1.5 230 17:55 11.02.2020
2767 Clouds 4 975 77 10000 2.1 240 17:36 11.02.2020
2768 Clouds 4 975 69 10000 2.1 240 17:18 11.02.2020
2769 Clouds 4 974 69 10000 3.6 220 16:56 11.02.2020
2770 Clouds 4 974 69 10000 3.6 220 16:37 11.02.2020
2771 Clouds 4 974 69 10000 3.6 220 16:19 11.02.2020
2772 Clouds 4 974 69 10000 3.6 220 15:44 11.02.2020
2773 Clouds 5 974 75 10000 4.6 230 15:26 11.02.2020
2774 Clouds 4 974 69 10000 4.1 210 14:55 11.02.2020
2775 Clouds 5 973 69 10000 4.6 210 14:36 11.02.2020
2776 Clouds 5 973 69 10000 4.6 210 14:36 11.02.2020
2777 Clouds 4 973 68 10000 4.6 210 14:18 11.02.2020
2778 Rain 5 973 68 10000 5.1 230 13:41 11.02.2020
2779 Rain 4 973 70 10000 5.1 230 13:21 11.02.2020
2780 -273 0 0 0 0 0 13:21 11.02.2020
2781 Clouds 5 973 70 10000 4.6 210 12:58 11.02.2020
2782 Clouds 5 973 70 10000 4.6 230 12:40 11.02.2020
2783 Clouds 4 973 70 10000 4.6 230 12:20 11.02.2020
2784 Rain 4 973 70 10000 5.7 230 11:55 11.02.2020
2785 Clouds 4 973 70 10000 6.2 220 11:36 11.02.2020
2786 Clouds 4 973 77 10000 6.2 220 11:18 11.02.2020
2787 Clouds 4 972 69 10000 5.7 230 10:39 11.02.2020
2788 Clouds 4 972 69 10000 5.7 230 10:20 11.02.2020
2789 Clouds 4 972 69 10000 6.2 230 09:56 11.02.2020
2790 Clouds 4 972 69 10000 5.1 220 09:38 11.02.2020
2791 Clouds 4 972 69 10000 5.1 220 09:20 11.02.2020
2792 Clouds 3 972 74 10000 5.1 230 08:46 11.02.2020
2793 Clouds 3 972 74 10000 4.6 230 08:24 11.02.2020
2794 Clouds 3 972 80 10000 4.1 220 07:48 11.02.2020
2795 Clouds 3 971 80 10000 4.1 230 07:27 11.02.2020
2796 Clouds 3 971 80 10000 4.6 230 06:55 11.02.2020
2797 Clouds 3 971 80 10000 5.1 220 06:37 11.02.2020
2798 Clouds 3 971 80 10000 5.1 220 06:19 11.02.2020
2799 Clouds 3 971 80 10000 5.1 230 05:26 11.02.2020
2800 Clouds 3 971 72 10000 5.1 230 04:53 11.02.2020
2801 Clouds 4 970 72 10000 5.1 240 03:26 11.02.2020
2802 Clouds 4 970 72 10000 6.2 240 02:33 11.02.2020
2803 Clouds 4 969 70 10000 7.2 240 01:39 11.02.2020
2804 Clouds 4 969 80 10000 6.7 240 00:50 11.02.2020
2805 Clouds 4 969 80 10000 5.7 240 00:22 11.02.2020
2806 Clouds 4 968 80 10000 6.7 240 23:40 10.02.2020
2807 Clouds 4 968 80 10000 6.7 240 23:21 10.02.2020
2808 Clouds 4 968 75 10000 6.2 240 22:43 10.02.2020
2809 Clouds 4 968 75 10000 6.2 240 22:21 10.02.2020
2810 Clouds 4 968 75 10000 6.2 240 22:21 10.02.2020
2811 Clouds 4 968 75 10000 6.7 240 21:58 10.02.2020
2812 Clouds 5 967 75 10000 7.7 250 21:40 10.02.2020
2813 Clouds 5 967 75 10000 7.7 250 21:22 10.02.2020
2814 Clouds 5 967 75 10000 10.3 240 20:55 10.02.2020
2815 Clouds 5 966 75 10000 8.2 240 20:37 10.02.2020
2816 Rain 5 966 75 10000 8.2 240 20:19 10.02.2020
2817 Rain 5 966 80 10000 7.7 250 19:57 10.02.2020
2818 Clouds 5 965 86 10000 7.7 240 19:36 10.02.2020
2819 Clouds 4 965 86 10000 7.7 240 19:18 10.02.2020
2820 Clouds 5 965 86 10000 8.7 250 18:55 10.02.2020
2821 Clouds 5 965 93 10000 7.7 250 18:37 10.02.2020
2822 Clouds 5 965 93 10000 7.7 250 18:37 10.02.2020
2823 Clouds 5 965 93 10000 7.7 250 18:18 10.02.2020
2824 Rain 5 963 86 10000 9.3 260 17:40 10.02.2020
2825 Rain 5 963 86 10000 9.3 260 17:22 10.02.2020
2826 Rain 6 962 65 10000 8.2 250 16:59 10.02.2020
2827 Clouds 6 961 65 10000 7.7 240 16:40 10.02.2020
2828 Clouds 7 961 65 10000 7.7 240 16:20 10.02.2020
2829 Clouds 7 961 70 10000 6.2 230 15:59 10.02.2020
2830 Clouds 7 961 70 10000 6.2 230 15:59 10.02.2020
2831 Clouds 7 961 70 10000 6.2 230 15:40 10.02.2020
2832 Clouds 7 960 70 10000 6.2 230 15:21 10.02.2020
2833 Clouds 7 960 70 10000 5.7 230 14:58 10.02.2020
2834 Clouds 7 960 70 10000 5.1 220 14:39 10.02.2020
2835 Clouds 7 960 70 10000 5.1 220 14:19 10.02.2020
2836 Clouds 7 960 70 10000 5.7 230 13:44 10.02.2020
2837 Clouds 7 959 70 10000 6.2 230 13:25 10.02.2020
2838 Clouds 7 959 75 10000 6.7 230 12:57 10.02.2020
2839 Clouds 7 959 75 10000 7.2 220 12:39 10.02.2020
2840 Clouds 7 959 75 10000 7.2 220 12:20 10.02.2020
2841 Clouds 7 959 87 10000 6.7 210 11:45 10.02.2020
2842 Drizzle 6 959 87 8000 6.2 210 11:21 10.02.2020
2843 Drizzle 6 959 87 10000 5.1 200 10:57 10.02.2020
2844 Clouds 6 959 75 10000 5.1 190 10:38 10.02.2020
2845 Clouds 6 959 75 10000 5.1 190 10:20 10.02.2020
2846 Clouds 6 959 81 10000 7.2 180 09:42 10.02.2020
2847 Clouds 6 959 87 10000 6.7 180 09:23 10.02.2020
2848 Clouds 6 959 87 10000 5.7 180 08:41 10.02.2020
2849 Clouds 6 960 87 10000 6.7 180 08:22 10.02.2020
2850 Clouds 6 961 87 10000 6.7 170 07:55 10.02.2020
2851 Clouds 6 961 81 10000 4.6 170 07:35 10.02.2020
2852 Rain 6 962 87 10000 4.6 180 06:50 10.02.2020
2853 Rain 6 963 87 10000 4.6 180 05:38 10.02.2020
2854 Rain 6 964 87 10000 5.7 190 03:59 10.02.2020
2855 Rain 7 964 87 10000 7.7 180 03:23 10.02.2020
2856 Rain 6 964 87 10000 8.2 190 02:51 10.02.2020
2857 Rain 6 967 87 10000 8.7 180 01:25 10.02.2020
2858 Rain 6 968 87 10000 8.2 180 00:45 10.02.2020
2859 Rain 6 969 93 10000 10.3 180 00:27 10.02.2020
2860 Rain 6 971 93 10000 9.8 180 23:42 09.02.2020
2861 Rain 6 971 93 10000 9.8 180 23:24 09.02.2020
2862 Rain 6 972 93 10000 9.8 180 22:54 09.02.2020
2863 Rain 6 973 93 10000 10.3 180 22:36 09.02.2020
2864 Rain 6 973 93 10000 10.3 180 22:18 09.02.2020
2865 Rain 6 976 93 10000 10.3 180 21:40 09.02.2020
2866 Rain 6 976 93 10000 10.3 180 21:21 09.02.2020
2867 Clouds 6 977 87 10000 10.8 180 20:46 09.02.2020
2868 Clouds 6 978 87 10000 10.8 170 20:22 09.02.2020
2869 Rain 5 980 93 10000 10.3 180 19:57 09.02.2020
2870 Rain 5 981 87 10000 10.3 170 19:38 09.02.2020
2871 Rain 5 981 87 10000 10.3 170 19:38 09.02.2020
2872 Rain 5 981 87 10000 10.3 170 19:18 09.02.2020
2873 Rain 5 982 87 8000 10.3 170 18:42 09.02.2020
2874 Rain 5 984 87 10000 8.7 160 18:23 09.02.2020
2875 Drizzle 5 985 87 10000 9.3 160 17:59 09.02.2020
2876 Drizzle 6 986 87 10000 9.3 160 17:39 09.02.2020
2877 Drizzle 6 986 87 10000 9.3 160 17:39 09.02.2020
2878 Drizzle 6 986 87 10000 9.3 160 17:21 09.02.2020
2879 Rain 6 989 87 10000 8.7 160 16:41 09.02.2020
2880 Rain 6 989 87 10000 8.7 160 16:22 09.02.2020
2881 Clouds 6 991 87 10000 8.2 170 15:58 09.02.2020
2882 Clouds 6 991 87 10000 8.2 170 15:40 09.02.2020
2883 Clouds 6 992 81 10000 7.2 170 15:21 09.02.2020
2884 Clouds 6 993 81 10000 7.2 170 14:56 09.02.2020
2885 Clouds 5 995 81 10000 6.7 170 14:37 09.02.2020
2886 Clouds 5 995 81 10000 6.7 170 14:19 09.02.2020
2887 Clouds 5 996 80 10000 7.2 180 13:43 09.02.2020
2888 Clouds 5 997 80 10000 8.2 170 13:25 09.02.2020
2889 Clouds 5 998 80 10000 8.2 180 12:55 09.02.2020
2890 Clouds 5 999 86 10000 7.7 180 12:37 09.02.2020
2891 Clouds 5 999 86 10000 7.7 180 12:18 09.02.2020
2892 Clouds 5 1000 86 10000 5.1 170 11:40 09.02.2020
2893 Clouds 5 1000 86 10000 5.1 170 11:20 09.02.2020
2894 Clouds 5 1002 86 10000 5.1 170 10:57 09.02.2020
2895 Clouds 4 1002 93 10000 4.1 180 10:38 09.02.2020
2896 Clouds 4 1002 93 10000 4.1 180 10:19 09.02.2020
2897 Clouds 4 1004 93 10000 3.1 190 09:40 09.02.2020
2898 Clouds 4 1004 93 10000 3.1 190 09:21 09.02.2020
2899 Clouds 3 1004 100 10000 4.6 200 08:44 09.02.2020
2900 Clouds 3 1004 100 10000 3.6 200 08:26 09.02.2020
2901 Rain 3 1004 93 10000 3.1 180 07:57 09.02.2020
2902 Rain 3 1005 93 10000 3.1 210 07:34 09.02.2020
2903 Rain 3 1006 93 9000 4.6 220 06:44 09.02.2020
2904 Rain 3 1006 93 6000 3.6 190 05:57 09.02.2020
2905 Rain 3 1007 93 7000 3.1 180 05:35 09.02.2020
2906 Rain 3 1007 93 6000 3.1 200 04:54 09.02.2020
2907 Clouds 3 1008 86 10000 3.1 180 03:51 09.02.2020
2908 Clouds 3 1009 86 10000 4.1 190 02:44 09.02.2020
2909 Clouds 2 1009 86 10000 4.1 180 01:55 09.02.2020
2910 Clouds 2 1010 93 10000 3.6 190 01:34 09.02.2020
2911 Clouds 2 1011 90 10000 2.6 190 00:41 09.02.2020
2912 Clouds 2 1011 90 10000 2.6 190 00:18 09.02.2020
2913 Clouds 3 1012 86 10000 3.1 210 23:42 08.02.2020
2914 Clouds 3 1012 86 10000 3.1 210 23:19 08.02.2020
2915 Clouds 3 1013 86 10000 2.6 210 22:41 08.02.2020
2916 Clouds 3 1013 86 10000 2.6 210 22:21 08.02.2020
2917 Clouds 3 1013 86 10000 3.1 220 21:58 08.02.2020
2918 Clouds 3 1013 86 10000 3.6 220 21:39 08.02.2020
2919 Clouds 3 1013 86 10000 3.6 220 21:19 08.02.2020
2920 Clouds 3 1013 86 10000 3.6 210 20:55 08.02.2020
2921 Clouds 3 1014 86 10000 2.1 220 20:37 08.02.2020
2922 Clouds 3 1014 86 10000 2.1 220 20:18 08.02.2020
2923 Clouds 3 1014 86 10000 2.1 220 20:18 08.02.2020
2924 Clouds 3 1014 86 10000 3.1 220 19:40 08.02.2020
2925 Clouds 3 1014 86 10000 3.1 220 19:20 08.02.2020
2926 Clouds 3 1015 86 10000 2.6 210 18:59 08.02.2020
2927 Clouds 3 1015 86 10000 2.6 230 18:40 08.02.2020
2928 Clouds 3 1015 86 10000 2.6 230 18:22 08.02.2020
2929 Clouds 3 1015 86 10000 2.1 220 17:43 08.02.2020
2930 Clouds 3 1015 86 10000 3.6 230 17:21 08.02.2020
2931 Clouds 3 1015 86 10000 3.6 230 16:57 08.02.2020
2932 Clouds 3 1016 93 10000 3.6 230 16:38 08.02.2020
2933 Clouds 3 1016 93 10000 3.6 230 16:19 08.02.2020
2934 Clouds 3 1016 93 10000 4.1 230 15:41 08.02.2020
2935 Clouds 3 1016 93 10000 4.1 230 15:19 08.02.2020
2936 Clouds 3 1016 93 10000 3.6 230 14:57 08.02.2020
2937 Clouds 3 1016 93 10000 5.1 240 14:39 08.02.2020
2938 Clouds 3 1016 93 10000 5.1 240 14:18 08.02.2020
2939 Clouds 3 1017 93 10000 4.1 250 13:43 08.02.2020
2940 Clouds 3 1017 93 10000 4.1 250 13:23 08.02.2020
2941 Clouds 3 1017 93 10000 5.1 230 12:50 08.02.2020
2942 Clouds 3 1018 86 10000 5.1 240 12:25 08.02.2020
2943 Clouds 3 1018 86 10000 4.1 250 11:59 08.02.2020
2944 Clouds 3 1018 86 10000 4.1 250 11:40 08.02.2020
2945 Clouds 3 1018 86 10000 3.6 230 11:21 08.02.2020
2946 Clouds 3 1018 86 10000 4.1 240 10:43 08.02.2020
2947 Clouds 3 1018 93 10000 4.6 250 10:24 08.02.2020
2948 Clouds 3 1018 93 10000 5.7 250 09:53 08.02.2020
2949 Clouds 3 1018 93 10000 4.1 250 09:30 08.02.2020
2950 Clouds 2 1019 100 8000 4.1 250 08:59 08.02.2020
2951 Clouds 2 1018 100 8000 5.1 250 08:39 08.02.2020
2952 Clouds 2 1018 100 8000 5.1 250 08:21 08.02.2020
2953 Clouds 2 1019 100 10000 5.1 250 07:50 08.02.2020
2954 Clouds 2 1019 100 10000 5.1 250 07:31 08.02.2020
2955 Clouds 2 1019 93 10000 4.6 250 06:33 08.02.2020
2956 Clouds 2 1019 93 10000 3.6 260 05:50 08.02.2020
2957 Clouds 2 1019 93 10000 4.1 260 05:31 08.02.2020
2958 Clouds 2 1019 93 10000 4.6 270 04:51 08.02.2020
2959 Clouds 3 1019 86 10000 5.1 260 03:57 08.02.2020
2960 Clouds 3 1020 93 10000 5.7 270 02:58 08.02.2020
2961 Clouds 3 1020 93 10000 5.7 270 02:24 08.02.2020
2962 Clouds 3 1020 93 10000 6.7 260 01:28 08.02.2020
2963 Clouds 3 1020 100 10000 6.2 260 00:46 08.02.2020
2964 Clouds 2 1020 100 10000 6.7 260 00:24 08.02.2020
2965 Clouds 2 1020 93 10000 6.7 260 23:56 07.02.2020
2966 Clouds 2 1020 86 10000 7.2 260 23:37 07.02.2020
2967 Clouds 2 1020 86 10000 7.2 260 23:19 07.02.2020
2968 Clouds 3 1021 93 10000 5.7 260 22:41 07.02.2020
2969 Clouds 3 1021 93 10000 5.7 260 22:19 07.02.2020
2970 Clouds 2 1021 93 10000 5.1 260 21:45 07.02.2020
2971 Clouds 2 1021 93 10000 4.6 260 21:23 07.02.2020
2972 Clouds 2 1021 93 10000 2.1 230 20:59 07.02.2020
2973 Clouds 2 1021 93 10000 2.6 240 20:39 07.02.2020
2974 Clouds 2 1021 93 10000 2.6 240 20:18 07.02.2020
2975 Clouds 2 1022 100 10000 3.6 240 19:43 07.02.2020
2976 Clouds 2 1022 100 10000 3.6 240 19:22 07.02.2020
2977 Clouds 1 1022 90 10000 4.6 240 18:59 07.02.2020
2978 Clouds 1 1022 90 10000 4.6 240 18:59 07.02.2020
2979 Clouds 1 1022 90 10000 3.6 240 18:41 07.02.2020
2980 Clouds 1 1022 90 10000 3.6 240 18:22 07.02.2020
2981 Clouds 1 1023 90 10000 4.1 240 17:43 07.02.2020
2982 Clouds 1 1023 86 10000 4.1 240 17:22 07.02.2020
2983 Clouds 1 1023 86 10000 4.6 240 16:57 07.02.2020
2984 Clouds 2 1023 86 10000 5.1 240 16:39 07.02.2020
2985 Clouds 2 1023 86 10000 5.1 240 16:20 07.02.2020
2986 Clouds 2 1023 86 10000 5.1 250 15:49 07.02.2020
2987 Clouds 2 1024 86 10000 5.1 240 15:27 07.02.2020
2988 Clouds 3 1024 86 10000 3.6 230 14:54 07.02.2020
2989 Clouds 3 1024 74 10000 4.1 240 14:36 07.02.2020
2990 Clouds 3 1024 74 10000 4.1 240 14:18 07.02.2020
2991 Clouds 2 1024 74 10000 5.7 220 13:40 07.02.2020
2992 Clouds 2 1024 74 10000 5.7 220 13:22 07.02.2020
2993 Clouds 2 1026 74 10000 4.1 210 12:57 07.02.2020
2994 Clouds 1 1026 74 10000 3.1 210 12:39 07.02.2020
2995 Clouds 1 1026 74 10000 3.1 210 12:21 07.02.2020
2996 Clouds 0 1027 77 10000 2.6 210 11:42 07.02.2020
2997 Clouds 0 1027 67 10000 2.6 210 11:22 07.02.2020
2998 Clouds 0 1027 67 10000 2.6 210 11:22 07.02.2020
2999 Clouds 0 1027 86 10000 3.1 230 10:43 07.02.2020
3000 Clouds 0 1027 86 10000 3.1 230 10:24 07.02.2020
3001 Clouds -1 1027 86 10000 2.6 220 09:59 07.02.2020
3002 Clouds -2 1027 92 10000 3.1 200 09:40 07.02.2020
3003 Clouds -2 1027 100 10000 1 0 09:21 07.02.2020
3004 Clouds -3 1027 100 10000 1 0 08:44 07.02.2020
3005 Clouds -3 1027 100 10000 1 0 08:44 07.02.2020
3006 Clouds -3 1027 100 10000 1 0 08:21 07.02.2020
3007 Clouds -3 1027 100 10000 0.5 0 07:52 07.02.2020
3008 Clouds -4 1027 100 10000 1 200 07:30 07.02.2020
3009 Clouds -5 1028 92 10000 1.86 218 06:57 07.02.2020
3010 Clouds -5 1027 92 10000 1.86 218 06:38 07.02.2020
3011 Clouds -5 1027 92 10000 1.86 218 06:18 07.02.2020
3012 Clouds -6 1028 100 10000 1.86 218 05:37 07.02.2020
3013 Clouds -6 1028 100 10000 0.77 284 03:43 07.02.2020
3014 Clouds -7 1027 100 10000 0.5 270 01:53 07.02.2020
3015 Clouds -6 1027 100 10000 1.15 349 00:59 07.02.2020
3016 Clouds -6 1027 100 10000 1.15 349 00:27 07.02.2020
3017 Clouds -5 1026 100 10000 1.15 349 23:38 06.02.2020
3018 Clouds -5 1026 92 10000 1 290 23:19 06.02.2020
3019 Clouds -5 1026 92 10000 1 290 22:47 06.02.2020
3020 Clouds -5 1025 92 10000 1.5 300 22:27 06.02.2020
3021 Clouds -4 1025 86 10000 1.5 300 21:58 06.02.2020
3022 Clouds -4 1024 86 10000 1.5 290 21:36 06.02.2020
3023 Clouds -4 1024 86 10000 0.5 320 21:18 06.02.2020
3024 Clouds -4 1024 86 10000 0.5 320 20:55 06.02.2020
3025 Clouds -3 1023 86 10000 1.5 300 20:36 06.02.2020
3026 Clouds -3 1023 86 10000 1.5 300 20:18 06.02.2020
3027 Clouds -3 1023 86 10000 2.1 300 19:56 06.02.2020
3028 Clouds -3 1023 79 10000 1.5 320 19:37 06.02.2020
3029 Clouds -3 1023 79 10000 1.5 320 19:19 06.02.2020
3030 Clouds -2 1022 80 10000 1.5 320 18:42 06.02.2020
3031 Clouds -2 1022 79 10000 1.5 310 18:24 06.02.2020
3032 Clouds -2 1022 74 10000 1 300 17:58 06.02.2020
3033 Clouds -2 1021 74 10000 1 350 17:40 06.02.2020
3034 Clouds -1 1021 74 10000 1 350 17:20 06.02.2020
3035 Clouds -1 1021 70 10000 2.1 320 16:43 06.02.2020
3036 Clouds 0 1021 70 10000 2.1 320 16:25 06.02.2020
3037 Clouds 0 1020 64 10000 2.1 350 15:44 06.02.2020
3038 Clouds 1 1020 64 10000 2.1 350 15:24 06.02.2020
3039 Clouds 1 1020 69 10000 2.6 330 14:58 06.02.2020
3040 Clouds 1 1019 69 10000 2.6 290 14:40 06.02.2020
3041 Clouds 1 1019 69 10000 2.6 290 14:22 06.02.2020
3042 Clouds 2 1019 64 10000 1.5 0 13:43 06.02.2020
3043 Clouds 2 1019 64 10000 1.5 0 13:25 06.02.2020
3044 Clouds 1 1019 69 10000 1.5 0 12:45 06.02.2020
3045 Clouds 1 1019 69 10000 1.5 0 12:45 06.02.2020
3046 Clouds 1 1018 69 10000 0.99 56 12:20 06.02.2020
3047 Clouds 1 1018 69 10000 1 0 11:59 06.02.2020
3048 Snow 1 1018 69 0 2.1 50 11:40 06.02.2020
3049 Snow 1 1018 69 0 2.1 50 11:21 06.02.2020
3050 Clouds 1 1017 74 10000 2.6 60 10:58 06.02.2020
3051 Clouds 1 1017 68 10000 2.1 30 10:40 06.02.2020
3052 Clouds 0 1017 68 10000 2.1 30 10:21 06.02.2020
3053 Clouds 0 1016 68 10000 1 0 09:57 06.02.2020
3054 Clouds 0 1016 68 10000 1 0 09:38 06.02.2020
3055 Clouds 0 1016 68 10000 1 0 09:19 06.02.2020
3056 Clouds -1 1015 92 10000 2.1 340 08:43 06.02.2020
3057 Clouds -1 1015 92 10000 2.1 340 08:23 06.02.2020
3058 Clouds 0 1015 84 10000 1.5 0 07:54 06.02.2020
3059 Clouds 0 1014 84 10000 2.1 290 07:29 06.02.2020
3060 Clouds 0 1013 84 10000 1.5 0 06:47 06.02.2020
3061 Clouds 0 1013 84 10000 1.5 360 06:19 06.02.2020
3062 Clouds 1 1012 80 10000 3.6 350 05:24 06.02.2020
3063 Clouds 3 1011 74 10000 4.6 310 03:47 06.02.2020
3064 Clouds 3 1010 85 10000 3.6 300 02:58 06.02.2020
3065 Clouds 3 1009 73 10000 3.6 290 01:55 06.02.2020
3066 Clouds 4 1009 73 10000 4.6 290 01:24 06.02.2020
3067 Clouds 4 1008 73 10000 6.7 290 00:28 06.02.2020
3068 Clouds 4 1008 73 10000 7.2 280 23:56 05.02.2020
3069 Clouds 4 1008 73 10000 8.7 280 23:38 05.02.2020
3070 Clouds 4 1007 68 10000 8.7 280 23:19 05.02.2020
3071 Clouds 4 1007 68 10000 7.2 270 22:41 05.02.2020
3072 Clouds 4 1007 68 10000 7.2 270 22:41 05.02.2020
3073 Clouds 4 1007 68 10000 7.2 270 22:23 05.02.2020
3074 Clouds 4 1007 68 10000 7.2 270 21:57 05.02.2020
3075 Clouds 4 1007 68 10000 7.2 260 21:39 05.02.2020
3076 Clouds 4 1007 68 10000 7.2 260 21:20 05.02.2020
3077 Clouds 3 1007 68 10000 6.2 240 20:39 05.02.2020
3078 Clouds 3 1007 68 10000 6.2 240 20:39 05.02.2020
3079 Clouds 3 1008 72 10000 5.7 240 20:21 05.02.2020
3080 Clouds 3 1008 72 10000 5.7 240 19:59 05.02.2020
3081 Clouds 3 1009 74 10000 6.2 260 19:40 05.02.2020
3082 Clouds 3 1009 74 10000 6.2 260 19:19 05.02.2020
3083 Clouds 3 1009 74 10000 6.2 250 18:57 05.02.2020
3084 Clouds 3 1009 74 10000 6.2 250 18:57 05.02.2020
3085 Clouds 3 1009 74 10000 7.7 250 18:39 05.02.2020
3086 Clouds 3 1009 74 10000 7.7 250 18:19 05.02.2020
3087 Clouds 3 1010 69 10000 7.2 250 17:39 05.02.2020
3088 Clouds 2 1011 69 10000 6.7 240 17:20 05.02.2020
3089 Clouds 2 1011 69 10000 6.7 240 16:57 05.02.2020
3090 Clouds 2 1012 64 10000 7.2 240 16:39 05.02.2020
3091 Clouds 2 1012 64 10000 7.2 240 16:20 05.02.2020
3092 Clouds 2 1012 64 10000 5.7 240 15:46 05.02.2020
3093 Clouds 2 1013 64 10000 6.7 240 15:20 05.02.2020
3094 Clouds 2 1013 59 10000 5.7 240 14:59 05.02.2020
3095 Clouds 2 1014 64 10000 5.7 240 14:41 05.02.2020
3096 Clouds 2 1014 64 10000 5.7 240 14:41 05.02.2020
3097 Clouds 2 1014 64 10000 5.7 240 14:21 05.02.2020
3098 Clouds 2 1015 69 10000 5.7 240 13:43 05.02.2020
3099 Clouds 2 1015 69 10000 5.7 240 13:23 05.02.2020
3100 Clouds 1 1016 69 10000 5.1 240 12:59 05.02.2020
3101 Clouds 1 1016 46 10000 4.6 240 12:37 05.02.2020
3102 Clouds 1 1016 46 10000 4.6 240 12:19 05.02.2020
3103 Clouds 0 1017 74 10000 4.6 260 11:41 05.02.2020
3104 Clouds -1 1017 74 10000 4.6 260 11:23 05.02.2020
3105 Clouds -1 1017 74 10000 4.6 250 10:58 05.02.2020
3106 Clouds -2 1017 79 10000 4.1 240 10:39 05.02.2020
3107 Clouds -2 1017 79 10000 4.1 240 10:18 05.02.2020
3108 Clouds -2 1017 79 10000 3.6 250 09:43 05.02.2020
3109 Clouds -2 1018 79 10000 4.6 260 09:22 05.02.2020
3110 Clouds -2 1017 86 10000 4.6 250 08:57 05.02.2020
3111 Clouds -3 1017 86 10000 4.1 240 08:39 05.02.2020
3112 Clear -3 1017 86 10000 4.1 240 08:21 05.02.2020
3113 Clear -3 1017 79 10000 3.6 240 07:43 05.02.2020
3114 Clear -3 1017 79 10000 4.1 260 07:19 05.02.2020
3115 Clear -3 1017 79 10000 2.6 240 06:40 05.02.2020
3116 Clear -3 1016 79 10000 3.6 270 06:21 05.02.2020
3117 Clear -3 1017 79 10000 4.6 270 05:47 05.02.2020
3118 Clear -3 1017 79 10000 5.7 280 05:18 05.02.2020
3119 Clear -3 1016 79 10000 4.1 270 04:27 05.02.2020
3120 Clear -3 1016 86 10000 3.6 270 02:53 05.02.2020
3121 Clouds -3 1015 86 10000 3.1 270 02:22 05.02.2020
3122 Clouds -2 1015 86 10000 5.1 280 01:34 05.02.2020
3123 Clouds -2 1015 92 10000 2.6 260 00:25 05.02.2020
3124 Clouds -2 1014 92 10000 2.6 260 23:42 04.02.2020
3125 Clouds -2 1014 92 10000 2.6 260 23:22 04.02.2020
3126 Clouds -2 1014 92 10000 2.1 260 22:57 04.02.2020
3127 Clouds -2 1014 92 10000 2.6 290 22:39 04.02.2020
3128 Clouds -2 1014 92 10000 2.6 290 22:20 04.02.2020
3129 Snow -2 1013 92 10000 2.6 290 21:56 04.02.2020
3130 Snow -2 1013 86 8000 3.1 310 21:38 04.02.2020
3131 Snow -1 1013 86 8000 3.1 310 21:18 04.02.2020
3132 Snow -1 1013 86 8000 3.1 310 21:18 04.02.2020
3133 Clouds -2 1012 86 10000 2.6 310 20:55 04.02.2020
3134 Clouds -2 1012 86 10000 2.1 290 20:37 04.02.2020
3135 Clouds -2 1012 86 10000 2.1 290 20:18 04.02.2020
3136 Clouds -2 1011 86 10000 1.5 310 19:43 04.02.2020
3137 Clouds -2 1011 86 10000 1.5 310 19:24 04.02.2020
3138 Clouds -2 1010 86 10000 1.5 340 18:59 04.02.2020
3139 Clouds -1 1010 79 10000 1.5 0 18:39 04.02.2020
3140 Clouds -1 1010 79 10000 1.5 0 18:21 04.02.2020
3141 Clouds -1 1009 74 10000 1.5 340 17:56 04.02.2020
3142 Clouds -1 1009 74 10000 1.5 340 17:38 04.02.2020
3143 Clouds -1 1008 74 10000 1.5 20 17:19 04.02.2020
3144 Clouds -1 1007 63 10000 2.1 360 16:39 04.02.2020
3145 Clouds -1 1007 63 10000 2.1 360 16:20 04.02.2020
3146 Clouds 0 1007 63 10000 2.1 350 15:57 04.02.2020
3147 Clouds 0 1006 63 10000 2.6 340 15:39 04.02.2020
3148 Clouds 0 1006 63 10000 2.6 340 15:20 04.02.2020
3149 Clouds 0 1006 63 10000 2.6 340 14:45 04.02.2020
3150 Clouds 0 1006 69 10000 2.1 20 14:26 04.02.2020
3151 Clouds 1 1005 69 10000 2.6 20 13:59 04.02.2020
3152 Clouds 0 1005 55 10000 2.1 30 13:40 04.02.2020
3153 Clouds 0 1005 56 10000 2.1 30 13:22 04.02.2020
3154 Clouds 0 1004 56 10000 2.1 20 12:55 04.02.2020
3155 Clouds 0 1004 56 10000 2.6 30 12:37 04.02.2020
3156 Clouds 0 1004 56 10000 2.6 30 12:18 04.02.2020
3157 Clouds 0 1003 86 10000 2.1 30 11:54 04.02.2020
3158 Clouds -1 1003 86 10000 2.6 40 11:36 04.02.2020
3159 Clouds -1 1002 92 10000 2.1 40 11:18 04.02.2020
3160 Clouds -2 1002 86 10000 1.5 30 10:42 04.02.2020
3161 Clouds -2 1002 86 10000 1.5 30 10:22 04.02.2020
3162 Clouds -2 1001 92 10000 1.5 0 09:42 04.02.2020
3163 Clouds -2 1001 92 10000 1.5 0 09:24 04.02.2020
3164 Clouds -3 1000 92 10000 2.1 20 08:59 04.02.2020
3165 Clouds -3 1000 92 10000 2.26 61 08:41 04.02.2020
3166 Clouds -3 1000 92 10000 1.95 66 08:22 04.02.2020
3167 Clouds -3 999 92 10000 0.5 0 07:46 04.02.2020
3168 Clouds -3 999 92 10000 0.5 0 07:23 04.02.2020
3169 Clouds -4 999 92 10000 1.95 66 06:44 04.02.2020
3170 Clouds -3 999 92 10000 1.95 66 06:21 04.02.2020
3171 Clouds -4 999 100 10000 1.95 66 05:29 04.02.2020
3172 Clouds -6 998 100 10000 0.5 0 03:54 04.02.2020
3173 Clouds -6 999 92 10000 2.21 83 03:34 04.02.2020
3174 Clouds -6 999 92 10000 2.21 83 02:59 04.02.2020
3175 Clouds -6 999 100 10000 2.21 83 02:32 04.02.2020
3176 Clouds -6 999 100 10000 1.63 84 01:55 04.02.2020
3177 Clouds -6 999 92 10000 1.7 89 01:35 04.02.2020
3178 Clouds -6 999 100 10000 1.7 89 00:45 04.02.2020
3179 Clouds -6 999 100 10000 1.7 89 00:22 04.02.2020
3180 Clouds -5 1000 92 10000 1.7 89 23:40 03.02.2020
3181 Clouds -5 1000 92 10000 0.15 93 23:22 03.02.2020
3182 Clouds -5 1000 100 10000 0.15 93 22:40 03.02.2020
3183 Clouds -5 1000 100 10000 0.15 93 22:21 03.02.2020
3184 Clouds -5 1000 92 10000 0.15 93 21:56 03.02.2020
3185 Clouds -5 1000 92 10000 0.15 93 21:37 03.02.2020
3186 Clouds -5 1000 92 10000 0.15 93 21:18 03.02.2020
3187 Clouds -4 1000 92 10000 0.15 93 20:42 03.02.2020
3188 Clouds -4 1001 92 10000 0.77 321 20:19 03.02.2020
3189 Clouds -4 1000 92 10000 0.77 321 20:19 03.02.2020
3190 Clouds -4 1001 92 10000 0.77 321 19:58 03.02.2020
3191 Clouds -4 1001 86 10000 1 0 19:39 03.02.2020
3192 Clouds -3 1001 86 10000 1 0 19:20 03.02.2020
3193 Clouds -3 1000 92 10000 0.77 321 18:56 03.02.2020
3194 Clouds -2 1000 79 10000 0.5 0 18:36 03.02.2020
3195 Clouds -2 1000 79 10000 0.5 0 18:18 03.02.2020
3196 Clouds -2 1000 79 10000 1.5 310 17:40 03.02.2020
3197 Clear -2 1000 79 10000 1.5 310 17:20 03.02.2020
3198 Clear -1 1001 69 10000 1.5 310 16:59 03.02.2020
3199 Clear 0 1000 64 10000 2.6 270 16:39 03.02.2020
3200 Clear 1 1000 59 10000 2.6 300 16:20 03.02.2020
3201 Clear 1 1000 59 10000 2.6 300 15:56 03.02.2020
3202 Clear 1 1000 64 10000 3.1 290 15:37 03.02.2020
3203 Clear 2 1000 59 10000 3.6 290 15:18 03.02.2020
3204 Clear 2 1000 59 10000 3.6 310 14:42 03.02.2020
3205 Clear 2 1000 59 10000 3.6 310 14:23 03.02.2020
3206 Clear 2 1000 64 10000 3.6 300 13:56 03.02.2020
3207 Clear 2 1000 69 10000 3.6 310 13:37 03.02.2020
3208 Clear 2 1000 69 10000 3.6 310 13:37 03.02.2020
3209 Clear 2 1000 69 10000 3.6 310 13:19 03.02.2020
3210 Clear 2 999 69 10000 4.6 340 12:42 03.02.2020
3211 Clear 2 999 69 10000 4.6 340 12:23 03.02.2020
3212 Clear 2 999 74 10000 4.1 320 11:59 03.02.2020
3213 Clear 2 999 74 10000 4.1 320 11:38 03.02.2020
3214 Clear 1 999 74 10000 4.1 320 11:19 03.02.2020
3215 Clear 1 999 74 10000 4.1 320 11:19 03.02.2020
3216 Clear 1 999 74 10000 3.1 300 10:55 03.02.2020
3217 Clear 1 999 74 10000 3.1 300 10:55 03.02.2020
3218 Clear 1 998 69 10000 3.1 310 10:37 03.02.2020
3219 Clear 0 998 69 10000 3.1 310 10:18 03.02.2020
3220 Clear 0 997 69 10000 2.6 310 09:39 03.02.2020
3221 Clear 0 997 69 10000 2.6 310 09:19 03.02.2020
3222 Clear 0 997 69 10000 2.6 310 09:19 03.02.2020
3223 Clear -1 997 86 10000 3.1 300 08:41 03.02.2020
3224 Clear -1 997 86 10000 3.1 300 08:23 03.02.2020
3225 Clouds -1 996 86 10000 3.1 310 07:43 03.02.2020
3226 Clouds -1 996 86 10000 2.6 300 07:23 03.02.2020
3227 Clouds -1 996 86 10000 2.6 290 06:57 03.02.2020
3228 Clouds 0 996 78 10000 2.6 280 06:31 03.02.2020
3229 Clouds -1 995 92 10000 2.6 290 05:58 03.02.2020
3230 Clouds -1 995 92 10000 2.6 290 05:34 03.02.2020
3231 Clouds -1 995 92 10000 2.6 290 04:47 03.02.2020
3232 Clouds 0 993 83 10000 3.1 290 02:53 03.02.2020
3233 Clouds 0 993 83 10000 3.6 290 02:32 03.02.2020
3234 Clear 1 992 74 10000 4.1 290 00:50 03.02.2020
3235 Clear 2 991 69 10000 4.6 290 00:30 03.02.2020
3236 Clear 2 991 69 10000 5.1 290 23:59 02.02.2020
3237 Clear 2 990 64 10000 5.1 290 23:37 02.02.2020
3238 Clear 2 990 64 10000 5.1 290 23:18 02.02.2020
3239 Clouds 2 989 69 10000 5.1 270 22:40 02.02.2020
3240 Clouds 2 989 69 10000 5.1 270 22:22 02.02.2020
3241 Clouds 2 989 69 10000 5.1 270 21:58 02.02.2020
3242 Clear 2 989 64 10000 5.7 280 21:39 02.02.2020
3243 Clear 2 989 64 10000 5.7 280 21:20 02.02.2020
3244 Clear 2 989 64 10000 5.1 260 20:57 02.02.2020
3245 Clear 2 988 64 10000 5.7 270 20:39 02.02.2020
3246 Clear 3 988 64 10000 5.7 270 20:20 02.02.2020
3247 Clear 2 988 64 10000 6.7 270 19:57 02.02.2020
3248 Clear 3 988 64 10000 6.7 270 19:39 02.02.2020
3249 Clear 3 988 64 10000 6.7 270 19:21 02.02.2020
3250 Clear 3 988 69 10000 6.2 260 18:56 02.02.2020
3251 Clear 3 987 69 10000 6.2 260 18:37 02.02.2020
3252 Clear 3 987 69 10000 6.2 260 18:19 02.02.2020
3253 Clear 3 987 69 10000 5.1 260 17:57 02.02.2020
3254 Clear 3 987 64 10000 5.1 260 17:37 02.02.2020
3255 Clear 3 987 64 10000 5.1 260 17:37 02.02.2020
3256 Clear 3 987 64 10000 5.1 260 17:18 02.02.2020
3257 Clear 3 987 64 10000 5.1 260 17:18 02.02.2020
3258 Clear 3 986 64 10000 5.7 260 16:57 02.02.2020
3259 Clear 4 986 64 10000 6.7 260 16:37 02.02.2020
3260 Clear 4 986 64 10000 6.7 260 16:18 02.02.2020
3261 Clear 4 986 60 10000 7.7 260 15:55 02.02.2020
3262 Clear 4 986 60 10000 6.7 270 15:36 02.02.2020
3263 Clear 5 985 60 10000 7.7 270 15:18 02.02.2020
3264 Clear 5 985 60 10000 7.7 270 14:43 02.02.2020
3265 Clouds 5 985 60 10000 8.2 270 14:19 02.02.2020
3266 Clouds 5 985 60 10000 8.2 270 14:19 02.02.2020
3267 Clouds 5 985 60 10000 7.7 270 13:58 02.02.2020
3268 Clouds 5 985 64 10000 7.7 270 13:39 02.02.2020
3269 Clouds 4 985 64 10000 7.7 270 13:20 02.02.2020
3270 Clouds 4 985 64 10000 7.2 260 12:56 02.02.2020
3271 Clouds 4 985 69 10000 7.2 270 12:37 02.02.2020
3272 Clouds 4 985 69 10000 7.2 270 12:18 02.02.2020
3273 Clouds 3 985 74 10000 7.2 280 11:42 02.02.2020
3274 Clouds 3 985 74 10000 7.2 280 11:19 02.02.2020
3275 Clouds 3 984 68 10000 6.7 280 10:57 02.02.2020
3276 Clouds 3 984 68 10000 5.7 280 10:38 02.02.2020
3277 Clouds 3 984 66 10000 5.7 280 10:20 02.02.2020
3278 Clouds 3 984 93 10000 5.7 280 09:57 02.02.2020
3279 Clouds 2 983 93 10000 5.1 290 09:38 02.02.2020
3280 Clouds 2 983 93 10000 5.1 290 09:38 02.02.2020
3281 Clouds 2 983 93 10000 5.1 290 09:20 02.02.2020
3282 Clouds 3 982 93 10000 4.6 310 08:44 02.02.2020
3283 Clouds 3 982 93 10000 4.6 310 08:24 02.02.2020
3284 Drizzle 3 981 93 10000 6.2 320 07:47 02.02.2020
3285 Rain 3 980 86 10000 8.7 340 07:28 02.02.2020
3286 Rain 6 979 93 10000 4.1 260 06:45 02.02.2020
3287 Rain 6 979 93 10000 4.1 260 06:27 02.02.2020
3288 Rain 6 979 93 4500 4.1 250 05:48 02.02.2020
3289 Mist 6 979 93 9000 4.1 240 04:48 02.02.2020
3290 Rain 6 979 93 10000 4.6 230 03:26 02.02.2020
3291 Rain 6 979 93 10000 4.1 230 02:35 02.02.2020
3292 Rain 6 979 87 10000 4.6 230 01:55 02.02.2020
3293 Rain 6 979 93 10000 4.6 230 01:23 02.02.2020
3294 Rain 6 979 87 10000 4.6 220 00:44 02.02.2020
3295 Rain 6 979 93 10000 4.1 220 00:22 02.02.2020
3296 Drizzle 6 979 87 9000 5.1 220 23:47 01.02.2020
3297 Rain 7 980 87 10000 5.1 220 23:23 01.02.2020
3298 Clouds 7 980 87 10000 5.1 210 22:54 01.02.2020
3299 Clouds 6 980 87 10000 4.6 210 22:36 01.02.2020
3300 Clouds 6 980 87 10000 4.6 210 22:18 01.02.2020
3301 Clouds 7 980 87 10000 4.1 200 21:39 01.02.2020
3302 Clouds 7 980 87 10000 4.1 200 21:18 01.02.2020
3303 Clouds 7 981 87 10000 4.1 200 20:41 01.02.2020
3304 Clouds 7 981 87 10000 4.1 200 20:20 01.02.2020
3305 Clouds 7 981 87 10000 3.6 210 19:57 01.02.2020
3306 Clouds 7 981 87 10000 5.1 220 19:39 01.02.2020
3307 Clouds 7 981 87 10000 5.1 220 19:20 01.02.2020
3308 Clouds 7 980 81 10000 5.7 210 18:58 01.02.2020
3309 Clouds 7 979 87 10000 5.1 230 18:40 01.02.2020
3310 Clouds 7 980 81 10000 6.7 220 18:21 01.02.2020
3311 Clouds 7 981 81 10000 4.6 220 17:57 01.02.2020
3312 Clouds 7 981 87 10000 4.6 220 17:39 01.02.2020
3313 Clouds 7 981 87 10000 4.6 220 17:19 01.02.2020
3314 Clouds 7 982 87 10000 5.1 220 16:43 01.02.2020
3315 Clouds 8 982 87 10000 5.1 220 16:24 01.02.2020
3316 Clouds 8 982 87 10000 5.1 220 15:58 01.02.2020
3317 Clouds 8 982 87 10000 4.6 220 15:40 01.02.2020
3318 Clouds 8 982 87 10000 4.6 220 15:20 01.02.2020
3319 Clouds 8 982 87 10000 5.1 230 14:41 01.02.2020
3320 Clouds 8 982 87 10000 5.1 230 14:22 01.02.2020
3321 Clouds 8 982 87 10000 5.1 230 13:59 01.02.2020
3322 Clouds 8 983 93 10000 5.1 230 13:41 01.02.2020
3323 Clouds 8 983 100 10000 3.6 210 13:18 01.02.2020
3324 Rain 7 983 93 10000 3.1 210 12:42 01.02.2020
3325 Rain 7 983 93 10000 3.1 210 12:24 01.02.2020
3326 Clouds 6 984 93 10000 3.1 180 11:45 01.02.2020
3327 Clouds 6 984 93 10000 3.1 180 11:24 01.02.2020
3328 Clouds 6 984 93 10000 3.6 190 10:59 01.02.2020
3329 Clouds 5 984 100 10000 3.6 180 10:41 01.02.2020
3330 Clouds 5 984 100 10000 3.6 180 10:23 01.02.2020
3331 Drizzle 5 985 100 4500 4.1 180 09:59 01.02.2020
3332 Mist 5 985 100 7000 4.1 170 09:41 01.02.2020
3333 Mist 5 985 100 7000 4.1 170 09:21 01.02.2020
3334 Rain 5 986 93 4000 3.6 170 08:58 01.02.2020
3335 Drizzle 4 986 100 6000 4.1 150 08:18 01.02.2020
3336 Rain 4 987 100 9000 3.6 160 07:41 01.02.2020
3337 Rain 4 987 93 10000 4.1 150 07:22 01.02.2020
3338 Rain 4 988 93 10000 3.6 160 06:44 01.02.2020
3339 Rain 3 989 100 10000 4.1 150 05:54 01.02.2020
3340 Clouds 3 992 100 10000 3.6 170 04:22 01.02.2020
3341 Clouds 3 992 93 10000 3.1 170 03:25 01.02.2020
3342 Clouds 3 993 93 10000 3.1 180 02:55 01.02.2020
3343 Clouds 3 993 93 10000 3.1 190 02:37 01.02.2020
3344 Clouds 3 993 93 10000 3.1 190 02:18 01.02.2020
3345 Clouds 3 993 93 10000 2.1 180 01:39 01.02.2020
3346 Clouds 3 993 93 10000 2.1 180 01:19 01.02.2020
3347 Clouds 3 993 93 10000 2.1 180 00:23 01.02.2020
3348 Clouds 3 994 93 10000 2.6 200 23:41 31.01.2020
3349 Clouds 3 994 100 10000 3.6 210 23:18 31.01.2020
3350 Clouds 3 994 100 10000 3.6 210 22:56 31.01.2020
3351 Clouds 3 994 100 10000 2.6 180 22:38 31.01.2020
3352 Clouds 3 994 100 10000 2.6 180 22:20 31.01.2020
3353 Clouds 3 995 93 10000 2.6 170 21:40 31.01.2020
3354 Clouds 3 995 93 10000 2.6 170 21:21 31.01.2020
3355 Drizzle 3 995 93 10000 2.1 170 20:58 31.01.2020
3356 Drizzle 3 995 93 10000 2.1 170 20:40 31.01.2020
3357 Clouds 3 995 93 10000 1.5 160 20:22 31.01.2020
3358 Clouds 3 995 93 10000 1.5 160 20:00 31.01.2020
3359 Clouds 3 995 93 10000 1.5 160 19:40 31.01.2020
3360 Clouds 3 995 93 10000 2.1 150 19:22 31.01.2020
3361 Clouds 3 995 93 10000 3.6 140 18:58 31.01.2020
3362 Clouds 3 995 93 10000 1.5 160 18:36 31.01.2020
3363 Clouds 3 995 93 10000 1.5 160 18:18 31.01.2020
3364 Clouds 3 995 86 10000 1.5 150 17:43 31.01.2020
3365 Clouds 3 995 93 10000 2.6 130 17:25 31.01.2020
3366 Clouds 3 995 93 10000 2.6 0 16:57 31.01.2020
3367 Clouds 3 995 93 10000 3.1 120 16:38 31.01.2020
3368 Clouds 3 995 93 10000 3.1 120 16:19 31.01.2020
3369 Clouds 3 995 86 10000 4.1 130 15:57 31.01.2020
3370 Clouds 3 995 93 10000 3.1 120 15:39 31.01.2020
3371 Clouds 3 995 93 10000 3.1 120 15:19 31.01.2020
3372 Drizzle 3 995 86 10000 4.1 120 14:42 31.01.2020
3373 Drizzle 3 995 86 10000 4.1 120 14:23 31.01.2020
3374 Clouds 4 995 86 10000 3.1 90 13:54 31.01.2020
3375 Drizzle 3 995 93 10000 1.5 100 13:34 31.01.2020
3376 Rain 4 994 93 10000 2.6 30 12:59 31.01.2020
3377 Rain 4 994 86 10000 2.6 60 12:41 31.01.2020
3378 Clouds 4 994 86 10000 2.6 60 12:22 31.01.2020
3379 Clouds 3 994 93 10000 1 0 11:45 31.01.2020
3380 Clouds 3 994 93 10000 2.6 60 11:26 31.01.2020
3381 Clouds 3 993 93 10000 2.6 60 10:59 31.01.2020
3382 Clouds 2 993 93 10000 2.6 60 10:41 31.01.2020
3383 Clouds 2 993 93 10000 2.6 60 10:21 31.01.2020
3384 Clouds 2 993 93 10000 3.6 70 09:57 31.01.2020
3385 Clouds 2 993 92 10000 2.6 50 09:38 31.01.2020
3386 Clouds 2 993 92 10000 2.6 50 09:19 31.01.2020
3387 Clouds 2 993 93 10000 2.6 60 08:52 31.01.2020
3388 Clouds 2 993 93 10000 2.6 60 08:27 31.01.2020
3389 Clouds 2 992 92 10000 2.1 50 07:53 31.01.2020
3390 Clouds 1 992 92 10000 3.1 80 07:25 31.01.2020
3391 Clouds 1 992 92 10000 3.1 80 06:48 31.01.2020
3392 Clouds 1 991 92 10000 3.1 80 06:18 31.01.2020
3393 Clouds 2 991 93 10000 2.6 100 05:46 31.01.2020
3394 Clouds 1 991 93 10000 2.6 100 04:55 31.01.2020
3395 Clouds 1 992 100 10000 2.1 120 02:58 31.01.2020
3396 Clouds 1 993 93 10000 2.1 110 01:38 31.01.2020
3397 Clouds 2 993 93 10000 2.1 130 00:46 31.01.2020
3398 Clouds 2 993 93 10000 2.1 130 00:26 31.01.2020
3399 Clouds 2 994 93 10000 1.5 140 23:57 30.01.2020
3400 Clouds 2 994 100 10000 1.5 140 23:25 30.01.2020
3401 Clouds 2 994 100 10000 1 0 22:57 30.01.2020
3402 Clouds 2 994 100 10000 1 0 22:57 30.01.2020
3403 Clouds 2 994 100 10000 1 0 22:57 30.01.2020
3404 Clouds 1 994 100 10000 1 0 22:36 30.01.2020
3405 Clouds 1 994 100 10000 1 0 22:36 30.01.2020
3406 Clouds 1 994 100 10000 1 0 22:18 30.01.2020
3407 Clouds 1 995 100 10000 1 0 21:55 30.01.2020
3408 Clouds 1 995 100 10000 1 150 21:37 30.01.2020
3409 Clouds 2 995 100 10000 1 160 21:18 30.01.2020
3410 Clouds 1 995 100 10000 1.5 0 20:40 30.01.2020
3411 Clouds 1 995 100 10000 1.5 0 20:22 30.01.2020
3412 Clouds 1 995 100 10000 1.5 0 20:22 30.01.2020
3413 Clouds 1 995 100 10000 1 180 19:56 30.01.2020
3414 Clouds 1 995 88 10000 1.5 0 19:38 30.01.2020
3415 Clouds 1 995 88 10000 1.5 0 19:18 30.01.2020
3416 Clouds 1 995 100 10000 0.83 215 18:41 30.01.2020
3417 Clouds 1 995 100 10000 0.83 215 18:21 30.01.2020
3418 Clouds 2 995 93 10000 1 0 17:57 30.01.2020
3419 Clouds 2 996 100 10000 0.5 170 17:37 30.01.2020
3420 Clouds 2 996 100 10000 0.5 170 17:19 30.01.2020
3421 Clouds 2 996 93 10000 0.5 190 16:56 30.01.2020
3422 Clouds 2 995 93 10000 1.5 230 16:38 30.01.2020
3423 Clouds 2 995 93 10000 1.5 230 16:19 30.01.2020
3424 Clouds 3 996 93 10000 0.5 0 15:43 30.01.2020
3425 Clouds 3 995 93 10000 1 0 15:19 30.01.2020
3426 Clouds 3 995 93 10000 1 0 14:50 30.01.2020
3427 Clouds 3 995 93 10000 1 0 14:50 30.01.2020
3428 Clouds 3 995 93 10000 1 0 14:27 30.01.2020
3429 Clouds 3 995 93 10000 1 0 14:27 30.01.2020
3430 Clouds 3 995 93 10000 1.5 190 13:56 30.01.2020
3431 Clouds 3 995 100 10000 2.1 210 13:36 30.01.2020
3432 Clouds 3 995 100 10000 2.1 210 13:18 30.01.2020
3433 Clouds 3 995 100 10000 1.5 0 12:42 30.01.2020
3434 Clouds 3 995 100 10000 1.5 0 12:24 30.01.2020
3435 Clouds 3 995 100 10000 1.5 0 11:57 30.01.2020
3436 Clouds 3 995 100 10000 1.5 0 11:39 30.01.2020
3437 Clouds 2 995 100 10000 1.5 0 11:21 30.01.2020
3438 Mist 2 995 100 10000 1 160 10:42 30.01.2020
3439 Mist 1 995 100 10000 1 160 10:24 30.01.2020
3440 Mist 1 995 95 10000 0.5 0 09:49 30.01.2020
3441 Clouds 1 995 95 10000 1.52 186 09:30 30.01.2020
3442 Clouds 1 995 95 10000 1 150 08:59 30.01.2020
3443 Clouds 0 995 95 10000 1.52 186 08:41 30.01.2020
3444 Clouds 1 995 97 10000 1.9 135 08:20 30.01.2020
3445 Clouds 0 994 97 10000 1.9 135 07:49 30.01.2020
3446 Clouds 0 994 100 10000 1.5 110 07:29 30.01.2020
3447 Clouds 0 994 100 10000 1 120 06:47 30.01.2020
3448 Clouds 0 994 97 7000 2.1 120 06:29 30.01.2020
3449 Clouds 0 994 97 8000 2.6 120 05:44 30.01.2020
3450 Clouds 0 994 100 7000 1.5 160 05:22 30.01.2020
3451 Clouds 0 994 96 10000 2.1 110 03:55 30.01.2020
3452 Clouds 0 994 96 9000 2.6 140 03:37 30.01.2020
3453 Mist 1 994 96 5000 1 190 02:47 30.01.2020
3454 Clouds 1 994 100 6000 2.6 90 00:43 30.01.2020
3455 Fog 1 994 95 250 2.6 70 00:21 30.01.2020
3456 Mist 1 993 100 3000 1 80 23:47 29.01.2020
3457 Fog 1 994 95 400 2.6 80 23:47 29.01.2020
3458 Mist 1 993 100 3000 1 80 23:22 29.01.2020
3459 Mist 2 993 100 6000 1.5 100 22:58 29.01.2020
3460 Clouds 2 993 100 10000 0.5 0 22:39 29.01.2020
3461 Clouds 2 993 100 10000 0.5 0 22:19 29.01.2020
3462 Clouds 2 993 100 10000 1.5 0 21:58 29.01.2020
3463 Clouds 2 993 100 10000 2.1 120 21:38 29.01.2020
3464 Clouds 3 993 100 10000 2.1 120 21:19 29.01.2020
3465 Clouds 3 993 100 10000 2.1 130 20:58 29.01.2020
3466 Clouds 3 993 100 10000 2.1 110 20:38 29.01.2020
3467 Clouds 3 993 100 10000 2.1 110 20:20 29.01.2020
3468 Clouds 3 993 100 10000 3.1 110 19:56 29.01.2020
3469 Clouds 3 992 93 10000 2.1 110 19:37 29.01.2020
3470 Clouds 3 992 93 10000 2.1 110 19:37 29.01.2020
3471 Clouds 3 992 93 10000 2.1 110 19:18 29.01.2020
3472 Clouds 3 992 93 10000 2.6 120 18:46 29.01.2020
3473 Clouds 3 992 93 10000 2.6 120 18:19 29.01.2020
3474 Clouds 4 992 93 10000 2.6 120 17:58 29.01.2020
3475 Clouds 4 992 93 10000 2.6 120 17:58 29.01.2020
3476 Clouds 4 992 93 10000 3.1 110 17:39 29.01.2020
3477 Clouds 4 992 93 10000 3.1 110 17:21 29.01.2020
3478 Mist 4 991 93 6000 2.6 110 16:41 29.01.2020
3479 Mist 4 991 93 6000 2.6 110 16:23 29.01.2020
3480 Clouds 4 991 93 10000 2.1 110 15:56 29.01.2020
3481 Clouds 4 991 93 10000 2.1 140 15:37 29.01.2020
3482 Clouds 4 991 93 10000 2.1 140 15:19 29.01.2020
3483 Rain 4 991 93 10000 4.6 120 14:43 29.01.2020
3484 Rain 4 991 93 10000 4.6 120 14:20 29.01.2020
3485 Rain 4 990 100 10000 3.6 130 13:55 29.01.2020
3486 Rain 4 990 86 10000 2.6 140 13:36 29.01.2020
3487 Clouds 4 990 93 10000 2.1 130 13:18 29.01.2020
3488 Clouds 4 990 93 10000 2.1 130 12:55 29.01.2020
3489 Clouds 5 990 93 10000 2.1 140 12:37 29.01.2020
3490 Clouds 4 990 93 10000 2.1 140 12:18 29.01.2020
3491 Clouds 4 990 93 10000 2.6 120 11:44 29.01.2020
3492 Clouds 4 990 93 10000 2.6 140 11:21 29.01.2020
3493 Clouds 4 990 93 10000 2.6 140 10:47 29.01.2020
3494 Clouds 4 990 100 10000 2.1 150 10:26 29.01.2020
3495 Rain 4 989 93 10000 2.1 140 09:58 29.01.2020
3496 Rain 4 989 93 10000 2.1 140 09:40 29.01.2020
3497 Rain 4 989 93 10000 2.1 140 09:20 29.01.2020
3498 Clouds 3 989 100 10000 3.1 130 08:56 29.01.2020
3499 Clouds 3 988 100 10000 2.6 0 08:37 29.01.2020
3500 Clouds 3 988 100 10000 2.6 0 08:18 29.01.2020
3501 Drizzle 3 988 93 10000 2.6 120 07:43 29.01.2020
3502 Drizzle 3 988 93 10000 2.6 120 07:21 29.01.2020
3503 Drizzle 3 988 93 10000 4.1 120 06:38 29.01.2020
3504 Drizzle 3 988 93 10000 4.1 120 06:19 29.01.2020
3505 Drizzle 3 988 93 10000 3.6 110 05:52 29.01.2020
3506 Drizzle 3 988 93 8000 4.1 110 05:33 29.01.2020
3507 Rain 3 988 93 10000 5.1 120 04:39 29.01.2020
3508 Rain 3 988 93 10000 5.1 120 04:39 29.01.2020
3509 Rain 3 988 93 10000 6.2 120 03:59 29.01.2020
3510 Drizzle 4 988 93 10000 5.1 110 02:38 29.01.2020
3511 Drizzle 4 988 93 6000 5.7 100 01:18 29.01.2020
3512 Drizzle 3 989 100 7000 5.7 100 00:39 29.01.2020
3513 Drizzle 3 989 100 7000 5.7 100 00:21 29.01.2020
3514 Drizzle 3 989 100 10000 5.1 110 23:40 28.01.2020
3515 Drizzle 3 989 100 7000 4.6 110 23:20 28.01.2020
3516 Drizzle 3 989 100 10000 5.1 110 23:20 28.01.2020
3517 Drizzle 3 989 100 7000 4.6 110 22:56 28.01.2020
3518 Rain 4 990 93 10000 5.7 110 22:36 28.01.2020
3519 Rain 4 990 93 10000 5.7 110 22:18 28.01.2020
3520 Rain 4 990 93 7000 6.2 110 21:39 28.01.2020
3521 Rain 4 990 93 7000 6.2 110 21:20 28.01.2020
3522 Rain 4 990 93 7000 5.7 120 20:46 28.01.2020
3523 Rain 4 991 93 8000 5.7 110 20:27 28.01.2020
3524 Rain 4 991 93 7000 6.2 120 19:58 28.01.2020
3525 Rain 4 991 93 5000 8.2 120 19:38 28.01.2020
3526 Rain 4 991 93 5000 8.2 120 19:19 28.01.2020
3527 Drizzle 4 991 93 8000 6.7 110 18:54 28.01.2020
3528 Rain 4 991 93 6000 5.1 110 18:36 28.01.2020
3529 Rain 4 991 93 6000 5.1 110 18:36 28.01.2020
3530 Rain 4 991 93 6000 5.1 110 18:18 28.01.2020
3531 Rain 4 991 93 5000 5.7 110 17:55 28.01.2020
3532 Rain 4 992 93 9000 5.7 120 17:36 28.01.2020
3533 Rain 4 992 93 9000 5.7 120 17:18 28.01.2020
3534 Rain 4 992 93 10000 7.2 120 16:44 28.01.2020
3535 Rain 4 992 93 10000 7.2 120 16:26 28.01.2020
3536 Rain 4 992 93 10000 6.2 120 15:59 28.01.2020
3537 Rain 4 993 93 8000 5.7 120 15:40 28.01.2020
3538 Rain 4 993 93 8000 5.7 120 15:18 28.01.2020
3539 Rain 4 993 93 5000 6.2 120 14:44 28.01.2020
3540 Rain 4 993 93 4500 5.1 110 14:20 28.01.2020
3541 Mist 4 993 93 4500 3.6 100 13:43 28.01.2020
3542 Mist 4 994 93 3500 4.1 90 13:25 28.01.2020
3543 Clouds 5 994 93 9000 4.1 90 12:56 28.01.2020
3544 Mist 5 995 93 3600 3.6 100 12:38 28.01.2020
3545 Mist 5 995 93 3600 3.6 100 12:20 28.01.2020
3546 Clouds 4 995 93 10000 3.1 110 11:41 28.01.2020
3547 Clouds 4 995 93 10000 3.1 110 11:22 28.01.2020
3548 Clouds 4 996 100 10000 2.6 110 10:55 28.01.2020
3549 Clouds 4 996 93 8000 2.1 110 10:36 28.01.2020
3550 Clouds 4 996 93 8000 2.1 110 10:18 28.01.2020
3551 Clouds 3 997 100 9000 3.1 150 09:42 28.01.2020
3552 Clouds 3 997 100 9000 3.1 150 09:20 28.01.2020
3553 Clouds 3 997 100 7000 2.1 160 08:46 28.01.2020
3554 Clouds 3 997 100 5000 1.5 140 08:26 28.01.2020
3555 Mist 3 997 100 3000 2.1 140 07:57 28.01.2020
3556 Mist 3 997 100 3000 2.1 140 07:35 28.01.2020
3557 Mist 2 997 100 3000 2.1 140 06:48 28.01.2020
3558 Mist 2 997 100 3000 2.1 140 06:48 28.01.2020
3559 Mist 2 997 100 1900 2.6 150 06:25 28.01.2020
3560 Mist 2 997 100 5000 2.1 150 05:42 28.01.2020
3561 Mist 2 997 100 7000 3.1 180 05:24 28.01.2020
3562 Clouds 3 998 100 10000 1.5 0 03:51 28.01.2020
3563 Clouds 4 998 93 10000 2.1 200 02:55 28.01.2020
3564 Rain 4 998 100 10000 2.1 190 02:25 28.01.2020
3565 Rain 4 998 100 10000 2.6 200 01:56 28.01.2020
3566 Rain 4 998 100 10000 2.1 190 01:22 28.01.2020
3567 Rain 4 998 100 10000 2.6 190 00:45 28.01.2020
3568 Drizzle 4 999 100 10000 2.1 190 00:24 28.01.2020
3569 Rain 4 999 100 10000 2.6 190 23:46 27.01.2020
3570 Rain 4 999 100 10000 3.1 190 23:28 27.01.2020
3571 Rain 4 999 100 10000 3.6 180 22:45 27.01.2020
3572 Clouds 4 1000 100 6000 4.1 170 22:22 27.01.2020
3573 Drizzle 4 1000 100 10000 3.6 160 21:59 27.01.2020
3574 Drizzle 4 1000 93 8000 3.6 170 21:39 27.01.2020
3575 Drizzle 4 1000 93 8000 3.6 170 21:19 27.01.2020
3576 Drizzle 4 1000 93 8000 3.6 170 21:19 27.01.2020
3577 Drizzle 4 1000 93 7000 3.1 170 20:59 27.01.2020
3578 Drizzle 4 1001 93 7000 3.6 170 20:38 27.01.2020
3579 Drizzle 4 1001 93 7000 3.6 170 20:20 27.01.2020
3580 Clouds 4 1001 93 9000 3.1 160 19:57 27.01.2020
3581 Clouds 4 1001 93 10000 4.1 160 19:39 27.01.2020
3582 Clouds 4 1001 93 10000 4.1 160 19:21 27.01.2020
3583 Clouds 4 1001 93 10000 4.1 170 18:54 27.01.2020
3584 Clouds 4 1002 93 10000 4.1 160 18:36 27.01.2020
3585 Clouds 4 1002 93 10000 4.1 160 18:18 27.01.2020
3586 Clouds 4 1002 93 10000 4.1 180 17:39 27.01.2020
3587 Clouds 4 1002 93 10000 4.1 180 17:19 27.01.2020
3588 Clouds 4 1002 93 10000 4.1 180 16:56 27.01.2020
3589 Clouds 4 1003 93 10000 3.6 200 16:37 27.01.2020
3590 Clouds 4 1003 93 10000 3.6 200 16:19 27.01.2020
3591 Clouds 5 1003 86 10000 4.1 180 15:54 27.01.2020
3592 Clouds 5 1003 86 10000 3.6 170 15:36 27.01.2020
3593 Clouds 5 1003 86 10000 3.6 170 15:18 27.01.2020
3594 Clouds 5 1003 86 10000 3.1 160 14:40 27.01.2020
3595 Clouds 5 1003 86 10000 3.1 160 14:21 27.01.2020
3596 Clouds 5 1004 93 10000 3.1 160 13:54 27.01.2020
3597 Clouds 5 1004 93 10000 3.1 170 13:36 27.01.2020
3598 Clouds 5 1004 93 10000 3.6 170 13:18 27.01.2020
3599 Clouds 5 1005 87 10000 3.6 180 12:41 27.01.2020
3600 Clouds 6 1005 87 10000 3.6 180 12:22 27.01.2020
3601 Clouds 5 1005 93 10000 2.6 170 11:43 27.01.2020
3602 Clouds 5 1005 93 10000 2.6 170 11:23 27.01.2020
3603 Clouds 5 1005 93 10000 2.6 170 10:57 27.01.2020
3604 Clouds 5 1005 93 10000 2.6 170 10:57 27.01.2020
3605 Clouds 5 1005 93 10000 2.6 170 10:57 27.01.2020
3606 Clouds 5 1006 93 10000 2.1 170 10:39 27.01.2020
3607 Clouds 5 1006 93 10000 2.1 170 10:20 27.01.2020
3608 Clouds 5 1006 86 10000 2.1 170 09:40 27.01.2020
3609 Clouds 5 1006 86 10000 2.1 170 09:19 27.01.2020
3610 Clouds 5 1006 86 10000 2.1 160 08:57 27.01.2020
3611 Clouds 5 1006 93 10000 2.1 170 08:39 27.01.2020
3612 Clouds 5 1006 93 10000 2.1 170 08:19 27.01.2020
3613 Clouds 5 1006 93 10000 1.5 0 07:47 27.01.2020
3614 Clouds 5 1006 93 10000 1.5 0 07:47 27.01.2020
3615 Clouds 5 1006 93 10000 1.5 170 07:29 27.01.2020
3616 Clouds 5 1007 93 10000 2.1 200 06:38 27.01.2020
3617 Clouds 5 1007 93 10000 2.1 200 05:51 27.01.2020
3618 Clouds 5 1007 93 10000 2.6 220 05:18 27.01.2020
3619 Clouds 5 1007 87 10000 3.1 230 03:35 27.01.2020
3620 Clouds 6 1008 87 10000 2.6 230 01:56 27.01.2020
3621 Clouds 6 1007 81 10000 2.6 220 01:27 27.01.2020
3622 Clouds 5 1007 81 10000 2.6 230 00:42 27.01.2020
3623 Clouds 5 1007 81 10000 2.6 230 00:22 27.01.2020
3624 Clouds 5 1007 81 10000 2.6 220 23:44 26.01.2020
3625 Clouds 5 1007 75 10000 2.1 230 23:26 26.01.2020
3626 Clouds 5 1007 75 10000 3.6 250 22:59 26.01.2020
3627 Clouds 5 1007 75 10000 2.6 240 22:39 26.01.2020
3628 Clouds 5 1007 75 10000 2.6 240 22:20 26.01.2020
3629 Clouds 6 1007 75 10000 2.6 230 21:58 26.01.2020
3630 Clouds 6 1007 81 10000 4.1 250 21:39 26.01.2020
3631 Clouds 6 1007 81 10000 4.1 250 21:21 26.01.2020
3632 Clouds 6 1007 81 10000 3.6 240 20:58 26.01.2020
3633 Clouds 6 1007 81 10000 3.6 250 20:38 26.01.2020
3634 Clouds 6 1007 81 10000 3.6 250 20:19 26.01.2020
3635 Clouds 6 1007 81 10000 4.1 240 19:59 26.01.2020
3636 Clouds 6 1007 81 10000 4.1 240 19:59 26.01.2020
3637 Clouds 6 1007 81 10000 3.1 250 19:39 26.01.2020
3638 Clouds 6 1007 81 10000 3.1 250 19:21 26.01.2020
3639 Clouds 6 1007 81 10000 2.6 250 18:56 26.01.2020
3640 Clouds 6 1007 81 10000 3.1 250 18:38 26.01.2020
3641 Clouds 6 1007 81 10000 3.1 250 18:20 26.01.2020
3642 Clouds 6 1007 81 10000 4.1 250 17:55 26.01.2020
3643 Clouds 6 1007 81 10000 4.1 250 17:37 26.01.2020
3644 Clouds 6 1007 81 10000 3.1 260 17:18 26.01.2020
3645 Clouds 6 1007 81 10000 3.1 260 16:56 26.01.2020
3646 Clouds 6 1007 81 10000 3.6 250 16:38 26.01.2020
3647 Clouds 6 1001 83 0 3.13 270 16:19 26.01.2020
3648 Clouds 7 1001 84 0 2.24 270 15:43 26.01.2020
3649 Clouds 6 1009 81 0 2.24 247 15:21 26.01.2020
3650 Clouds 6 1005 72 0 3.58 244 14:58 26.01.2020
3651 Clouds 7 1000 84 0 4.02 270 14:38 26.01.2020
3652 Clouds 7 1009 81 0 2.68 247 14:19 26.01.2020
3653 Clouds 7 1000 83 0 3.13 270 13:40 26.01.2020
3654 Clouds 7 1000 83 0 4.02 270 13:19 26.01.2020
3655 Clouds 7 1000 83 0 1.79 270 12:56 26.01.2020
3656 Clouds 7 1007 77 0 5.01 267 12:37 26.01.2020
3657 Clouds 7 1006 77 0 5.01 267 12:19 26.01.2020
3658 Clouds 7 1006 77 0 5.01 267 11:57 26.01.2020
3659 Clouds 7 1004 73 0 3.58 237 11:36 26.01.2020
3660 Clouds 7 1005 81 10000 5.7 250 11:18 26.01.2020
3661 Clouds 7 1005 81 10000 5.7 250 10:55 26.01.2020
3662 Clouds 7 1005 81 10000 5.7 250 10:37 26.01.2020
3663 Clouds 7 1005 81 10000 5.7 250 10:18 26.01.2020
3664 Clouds 6 1005 81 10000 5.7 260 09:41 26.01.2020
3665 Clouds 6 1005 87 10000 5.1 260 09:23 26.01.2020
3666 Clouds 6 1005 87 10000 5.1 250 08:57 26.01.2020
3667 Clouds 6 1005 87 10000 6.2 260 08:39 26.01.2020
3668 Clouds 6 1005 87 10000 6.2 260 08:21 26.01.2020
3669 Clouds 6 1005 87 10000 7.7 260 07:50 26.01.2020
3670 Clouds 6 1005 87 10000 8.7 260 07:26 26.01.2020
3671 Clouds 6 1005 81 10000 8.2 260 06:40 26.01.2020
3672 Clouds 7 1005 81 10000 7.7 260 06:22 26.01.2020
3673 Clouds 7 1004 81 10000 5.1 260 05:27 26.01.2020
3674 Clouds 5 1004 87 10000 6.7 240 03:23 26.01.2020
3675 Clouds 5 1005 86 10000 4.6 230 02:38 26.01.2020
3676 Clouds 4 1005 86 10000 5.1 230 01:43 26.01.2020
3677 Clouds 4 1005 86 10000 4.1 220 01:22 26.01.2020
3678 Clouds 4 1006 86 10000 5.1 230 00:41 26.01.2020
3679 Clouds 4 1006 86 10000 5.1 230 00:20 26.01.2020
3680 Clouds 4 1009 86 0 3.58 270 23:38 25.01.2020
3681 Clouds 4 1008 86 0 2.68 225 23:20 25.01.2020
3682 Clouds 3 1001 90 0 1.34 247 22:45 25.01.2020
3683 Clouds 3 1001 91 0 1.34 270 22:21 25.01.2020
3684 Clouds 3 1001 91 0 1.79 247 21:59 25.01.2020
3685 Clouds 3 1001 90 0 1.34 270 21:41 25.01.2020
3686 Clouds 2 1007 91 0 5.02 226 21:22 25.01.2020
3687 Clouds 2 1002 90 0 1.34 247 20:55 25.01.2020
3688 Clouds 2 1010 86 0 1.34 225 20:36 25.01.2020
3689 Clouds 1 1009 91 0 3.25 216 20:18 25.01.2020
3690 Clouds 1 1010 80 0 3.25 216 19:42 25.01.2020
3691 Clouds 1 1010 80 0 3.25 216 19:20 25.01.2020
3692 Clouds 1 1010 80 0 3.25 216 18:56 25.01.2020
3693 Clouds 1 1011 84 0 0.45 225 18:38 25.01.2020
3694 Clouds 1 1010 80 0 3.25 216 18:20 25.01.2020
3695 Clouds 1 1003 89 0 0.89 247 17:40 25.01.2020
3696 Clouds 1 1012 83 0 2.16 221 17:19 25.01.2020
3697 Clouds 1 1012 81 0 2.16 221 16:57 25.01.2020
3698 Clouds 1 1009 70 0 0.45 135 16:38 25.01.2020
3699 Clouds 2 1012 79 0 2.16 221 16:19 25.01.2020
3700 Clouds 2 1009 64 0 2.16 221 15:46 25.01.2020
3701 Clouds 3 1012 78 0 2.16 221 15:25 25.01.2020
3702 Clouds 3 1004 78 0 0.45 247 14:57 25.01.2020
3703 Clouds 4 1008 61 0 3.13 196 14:39 25.01.2020
3704 Clouds 4 1010 71 0 2.92 265 14:18 25.01.2020
3705 Clouds 4 1010 69 0 2.92 265 13:42 25.01.2020
3706 Clouds 4 1004 68 0 1.34 270 13:22 25.01.2020
3707 Clouds 4 1009 69 10000 2.6 270 12:45 25.01.2020
3708 Clouds 4 1009 69 10000 2.6 270 12:25 25.01.2020
3709 Clouds 3 1009 69 10000 2.6 270 11:45 25.01.2020
3710 Clouds 3 1009 74 10000 2.1 270 11:22 25.01.2020
3711 Clouds 3 1009 74 10000 2.1 270 11:22 25.01.2020
3712 Clouds 2 1009 80 10000 2.6 260 10:59 25.01.2020
3713 Clouds 2 1008 80 10000 2.1 250 10:40 25.01.2020
3714 Clouds 2 1008 80 10000 2.1 250 10:20 25.01.2020
3715 Clouds 1 1008 76 10000 1.5 250 09:41 25.01.2020
3716 Clouds 1 1008 76 10000 1.5 250 09:22 25.01.2020
3717 Clouds 1 1007 80 10000 2.1 260 08:47 25.01.2020
3718 Clouds 1 1007 80 10000 2.1 260 08:28 25.01.2020
3719 Clouds 1 1007 86 10000 2.6 260 07:50 25.01.2020
3720 Clouds 1 1006 80 10000 1.5 250 06:53 25.01.2020
3721 Clouds 1 1006 80 10000 2.1 260 06:28 25.01.2020
3722 Clouds 1 1006 74 10000 3.1 270 05:48 25.01.2020
3723 Clouds 1 1005 74 10000 3.6 270 05:18 25.01.2020
3724 Clouds 2 1005 80 10000 3.6 280 03:51 25.01.2020
3725 Clouds 2 1005 80 10000 4.1 290 03:19 25.01.2020
3726 Clear 2 1004 74 10000 5.7 280 02:20 25.01.2020
3727 Clear 3 1004 74 10000 5.7 280 01:48 25.01.2020
3728 Clear 3 1004 67 10000 6.2 280 00:44 25.01.2020
3729 Clear 3 1003 67 10000 6.2 270 00:26 25.01.2020
3730 Clear 3 1003 67 10000 5.1 260 23:58 24.01.2020
3731 Clear 3 1003 80 10000 5.1 260 23:40 24.01.2020
3732 Clear 3 1003 80 10000 5.1 260 23:40 24.01.2020
3733 Clear 3 1003 80 10000 5.1 260 23:22 24.01.2020
3734 Clear 4 1003 80 10000 5.7 260 22:44 24.01.2020
3735 Clear 4 1003 75 10000 5.7 260 22:25 24.01.2020
3736 Clear 4 1002 86 10000 5.1 260 21:43 24.01.2020
3737 Clear 4 1003 86 10000 5.7 260 21:21 24.01.2020
3738 Clear 4 1003 80 10000 5.1 260 20:59 24.01.2020
3739 Clear 4 1003 86 10000 5.1 250 20:40 24.01.2020
3740 Clear 4 1003 86 10000 5.1 250 20:20 24.01.2020
3741 Clear 4 1003 86 10000 5.1 240 19:57 24.01.2020
3742 Clear 4 1003 86 10000 3.6 250 19:38 24.01.2020
3743 Clear 4 1003 86 10000 3.6 250 19:20 24.01.2020
3744 Clear 4 1003 86 10000 3.6 240 18:43 24.01.2020
3745 Clear 4 1003 80 10000 3.6 250 18:24 24.01.2020
3746 Clear 4 1003 86 10000 3.6 240 17:56 24.01.2020
3747 Clear 5 1003 80 10000 3.6 240 17:38 24.01.2020
3748 Clear 5 1003 80 10000 3.6 240 17:18 24.01.2020
3749 Clear 5 1003 75 10000 3.6 260 16:39 24.01.2020
3750 Clear 5 1003 75 10000 3.6 260 16:20 24.01.2020
3751 Clear 6 1003 75 10000 3.6 250 15:43 24.01.2020
3752 Clear 6 1003 75 10000 3.6 250 15:23 24.01.2020
3753 Clear 6 1003 75 10000 4.1 260 14:58 24.01.2020
3754 Clear 7 1003 75 10000 4.6 260 14:40 24.01.2020
3755 Clouds 7 1003 75 10000 4.6 260 14:21 24.01.2020
3756 Clouds 7 1004 75 10000 4.6 250 13:43 24.01.2020
3757 Clouds 7 1004 75 10000 4.6 250 13:23 24.01.2020
3758 Clouds 7 1004 81 10000 4.6 250 12:44 24.01.2020
3759 Clouds 7 1004 81 10000 4.6 250 12:23 24.01.2020
3760 Clouds 7 1004 81 10000 5.7 270 11:57 24.01.2020
3761 Clouds 7 1004 81 10000 5.1 260 11:39 24.01.2020
3762 Clouds 6 1004 81 10000 5.1 260 11:18 24.01.2020
3763 Clouds 6 1004 87 10000 4.1 250 10:42 24.01.2020
3764 Clouds 6 1004 87 10000 4.1 250 10:20 24.01.2020
3765 Clouds 6 1004 87 10000 4.1 250 09:54 24.01.2020
3766 Clouds 5 1004 87 10000 4.1 250 09:36 24.01.2020
3767 Clouds 5 1004 87 10000 4.1 250 09:18 24.01.2020
3768 Clouds 5 1004 86 10000 5.7 240 08:39 24.01.2020
3769 Clouds 5 1004 86 10000 5.7 240 08:18 24.01.2020
3770 Clouds 5 1004 86 10000 5.7 230 07:47 24.01.2020
3771 Clouds 5 1004 81 10000 4.6 240 07:22 24.01.2020
3772 Clouds 5 1004 81 10000 4.6 240 07:22 24.01.2020
3773 Clouds 5 1004 81 10000 5.1 250 06:43 24.01.2020
3774 Clouds 5 1004 86 10000 5.1 250 06:23 24.01.2020
3775 Clouds 5 1005 86 10000 2.6 240 05:33 24.01.2020
3776 Clouds 5 1006 86 10000 2.1 190 03:36 24.01.2020
3777 Clouds 6 1006 87 10000 6.7 250 02:40 24.01.2020
3778 Clouds 6 1006 87 10000 5.1 250 02:21 24.01.2020
3779 Clouds 6 1006 81 10000 5.7 250 01:39 24.01.2020
3780 Clouds 6 1006 87 10000 5.1 250 00:49 24.01.2020
3781 Clouds 6 1006 87 10000 5.1 250 00:19 24.01.2020
3782 Clouds 6 1006 86 10000 6.7 240 23:42 23.01.2020
3783 Clouds 6 1006 86 10000 6.7 240 23:22 23.01.2020
3784 Clouds 6 1008 87 10000 4.1 260 22:58 23.01.2020
3785 Clouds 5 1008 93 10000 3.6 240 22:37 23.01.2020
3786 Clouds 5 1008 93 10000 3.6 240 22:37 23.01.2020
3787 Clouds 5 1008 93 10000 3.6 240 22:18 23.01.2020
3788 Clouds 5 1008 93 10000 3.6 240 21:55 23.01.2020
3789 Clouds 5 1008 93 10000 3.1 230 21:37 23.01.2020
3790 Clouds 5 1008 93 10000 3.1 230 21:19 23.01.2020
3791 Clouds 5 1009 93 10000 4.1 240 20:55 23.01.2020
3792 Clouds 5 1009 93 10000 2.6 220 20:37 23.01.2020
3793 Clouds 5 1009 93 10000 2.6 220 20:18 23.01.2020
3794 Clouds 4 1009 93 10000 3.6 260 19:42 23.01.2020
3795 Clouds 4 1009 93 10000 3.6 260 19:23 23.01.2020
3796 Clouds 4 1010 86 10000 3.6 240 18:58 23.01.2020
3797 Clouds 4 1010 86 10000 4.6 240 18:38 23.01.2020
3798 Clouds 4 1010 86 10000 4.6 240 18:19 23.01.2020
3799 Clouds 3 1010 86 10000 4.6 240 17:55 23.01.2020
3800 Clouds 3 1011 86 10000 4.1 230 17:37 23.01.2020
3801 Clouds 3 1011 86 10000 4.1 230 17:18 23.01.2020
3802 Clouds 3 1011 87 10000 4.1 240 16:39 23.01.2020
3803 Clouds 3 1011 87 10000 4.1 240 16:20 23.01.2020
3804 Clouds 3 1011 87 10000 4.1 240 16:20 23.01.2020
3805 Clouds 3 1012 87 10000 5.1 230 15:58 23.01.2020
3806 Clouds 3 1012 87 10000 4.6 240 15:39 23.01.2020
3807 Clouds 4 1012 87 10000 4.6 240 15:19 23.01.2020
3808 Clouds 3 1013 69 10000 4.1 240 14:58 23.01.2020
3809 Clouds 3 1013 69 10000 4.1 230 14:40 23.01.2020
3810 Clouds 3 1013 69 10000 4.1 230 14:22 23.01.2020
3811 Clouds 3 1013 69 10000 4.1 240 13:55 23.01.2020
3812 Clouds 3 1015 64 10000 4.1 240 13:37 23.01.2020
3813 Clouds 3 1015 64 10000 4.1 230 13:18 23.01.2020
3814 Clouds 2 1016 69 10000 4.1 220 12:42 23.01.2020
3815 Clouds 2 1016 69 10000 4.1 220 12:24 23.01.2020
3816 Clouds 2 1017 74 10000 3.6 210 11:56 23.01.2020
3817 Clouds 2 1017 69 10000 4.1 220 11:37 23.01.2020
3818 Clouds 1 1017 69 10000 4.1 220 11:18 23.01.2020
3819 Clouds 0 1018 56 10000 4.6 220 10:42 23.01.2020
3820 Clouds 0 1018 56 10000 4.6 220 10:19 23.01.2020
3821 Clouds -1 1019 74 10000 2.6 210 09:42 23.01.2020
3822 Clouds -1 1019 74 10000 2.6 210 09:24 23.01.2020
3823 Clouds -1 1020 79 10000 2.6 220 08:58 23.01.2020
3824 Clouds -1 1021 79 10000 1.5 210 08:40 23.01.2020
3825 Clear -2 1021 79 10000 1.5 210 08:21 23.01.2020
3826 Clear -2 1021 86 10000 2.1 200 07:44 23.01.2020
3827 Clear -2 1022 79 10000 2.6 220 07:24 23.01.2020
3828 Clear -2 1022 79 10000 2.6 220 06:51 23.01.2020
3829 Clear -2 1023 86 10000 1.5 220 06:20 23.01.2020
3830 Clear -1 1024 80 10000 2.6 250 04:58 23.01.2020
3831 Clear -1 1024 80 10000 2.6 250 04:22 23.01.2020
3832 Clear -1 1025 72 10000 2.6 240 02:31 23.01.2020
3833 Clear 0 1025 70 10000 3.6 260 00:56 23.01.2020
3834 Clear 0 1025 69 10000 3.1 270 00:26 23.01.2020
3835 Clear 0 1025 69 10000 3.6 280 23:47 22.01.2020
3836 Clear 1 1025 69 10000 3.1 290 23:29 22.01.2020
3837 Clear 1 1025 69 10000 3.1 270 22:58 22.01.2020
3838 Clear 1 1025 69 10000 3.6 290 22:39 22.01.2020
3839 Clear 1 1025 69 10000 3.6 290 22:21 22.01.2020
3840 Clear 1 1024 64 10000 4.6 280 21:39 22.01.2020
3841 Clear 1 1024 64 10000 4.6 280 21:21 22.01.2020
3842 Clear 2 1024 69 10000 4.6 290 20:56 22.01.2020
3843 Clear 2 1024 69 10000 5.1 280 20:37 22.01.2020
3844 Clear 2 1024 69 10000 5.1 280 20:18 22.01.2020
3845 Clear 2 1024 69 10000 5.1 290 19:55 22.01.2020
3846 Clear 2 1024 69 10000 4.6 280 19:37 22.01.2020
3847 Clear 2 1024 69 10000 4.6 280 19:18 22.01.2020
3848 Clear 2 1023 64 10000 4.1 280 18:56 22.01.2020
3849 Clear 2 1023 64 10000 3.6 280 18:37 22.01.2020
3850 Clear 2 1023 64 10000 3.6 280 18:18 22.01.2020
3851 Clouds 3 1022 64 10000 3.6 290 17:40 22.01.2020
3852 Clouds 3 1022 64 10000 5.1 300 17:21 22.01.2020
3853 Clouds 3 1022 64 10000 5.1 300 16:58 22.01.2020
3854 Clear 3 1022 64 10000 5.1 300 16:39 22.01.2020
3855 Clear 3 1022 64 10000 5.1 300 16:21 22.01.2020
3856 Clear 4 1021 60 10000 5.1 310 15:56 22.01.2020
3857 Clear 4 1020 60 10000 6.2 310 15:38 22.01.2020
3858 Clouds 4 1020 56 10000 6.2 310 15:18 22.01.2020
3859 Clouds 4 1019 56 10000 5.7 320 14:39 22.01.2020
3860 Clouds 4 1019 56 10000 5.7 320 14:20 22.01.2020
3861 Clouds 4 1019 60 10000 5.7 310 13:58 22.01.2020
3862 Clouds 4 1018 52 10000 6.7 310 13:38 22.01.2020
3863 Clouds 4 1018 52 10000 6.7 310 13:19 22.01.2020
3864 Clear 4 1018 55 10000 5.7 300 12:57 22.01.2020
3865 Clear 4 1017 55 10000 6.7 300 12:39 22.01.2020
3866 Clear 4 1017 55 10000 6.7 300 12:19 22.01.2020
3867 Clear 4 1017 55 10000 7.2 280 11:58 22.01.2020
3868 Clear 4 1016 59 10000 8.2 290 11:39 22.01.2020
3869 Clear 4 1016 59 10000 8.2 290 11:19 22.01.2020
3870 Clear 3 1016 59 10000 8.2 280 10:46 22.01.2020
3871 Clear 3 1016 59 10000 7.7 280 10:21 22.01.2020
3872 Clear 3 1015 59 10000 8.2 280 09:59 22.01.2020
3873 Clear 3 1015 59 10000 8.2 280 09:40 22.01.2020
3874 Clear 3 1014 59 10000 8.2 280 09:22 22.01.2020
3875 Clear 3 1014 59 10000 8.2 280 08:56 22.01.2020
3876 Clear 3 1014 59 10000 9.3 280 08:37 22.01.2020
3877 Clouds 3 1014 59 10000 9.3 280 08:19 22.01.2020
3878 Clouds 3 1013 59 10000 8.7 280 07:44 22.01.2020
3879 Clouds 3 1013 59 10000 8.7 280 07:26 22.01.2020
3880 Clouds 4 1013 55 10000 8.2 280 06:36 22.01.2020
3881 Clouds 4 1013 60 10000 8.2 280 05:57 22.01.2020
3882 Clouds 4 1013 56 10000 9.8 280 04:26 22.01.2020
3883 Clouds 5 1013 56 10000 8.7 280 03:27 22.01.2020
3884 Clouds 5 1013 56 10000 7.2 280 02:48 22.01.2020
3885 Clouds 5 1013 52 10000 6.2 270 00:47 22.01.2020
3886 Clouds 5 1013 52 10000 5.1 270 00:28 22.01.2020
3887 Clouds 5 1013 52 10000 5.7 270 23:59 21.01.2020
3888 Clouds 6 1014 52 10000 5.7 270 23:37 21.01.2020
3889 Clouds 6 1014 52 10000 5.7 270 23:19 21.01.2020
3890 Clouds 6 1015 60 10000 5.1 250 22:41 21.01.2020
3891 Clouds 6 1015 60 10000 5.1 250 22:23 21.01.2020
3892 Clouds 6 1015 60 10000 4.6 260 21:58 21.01.2020
3893 Clouds 6 1016 60 10000 4.6 260 21:39 21.01.2020
3894 Clouds 6 1016 60 10000 4.6 260 21:20 21.01.2020
3895 Clouds 6 1016 60 10000 5.1 260 20:57 21.01.2020
3896 Clouds 6 1016 60 10000 4.6 260 20:39 21.01.2020
3897 Clouds 6 1016 69 10000 4.6 260 20:20 21.01.2020
3898 Clouds 6 1017 75 10000 4.1 260 19:58 21.01.2020
3899 Clouds 6 1017 81 10000 3.1 250 19:39 21.01.2020
3900 Clouds 6 1017 81 10000 3.1 250 19:20 21.01.2020
3901 Clouds 5 1018 86 10000 3.1 250 18:56 21.01.2020
3902 Clouds 6 1018 81 10000 3.6 260 18:38 21.01.2020
3903 Clouds 6 1018 81 10000 3.6 260 18:20 21.01.2020
3904 Clouds 6 1019 81 10000 4.1 260 17:45 21.01.2020
3905 Clouds 6 1019 70 10000 4.6 270 17:21 21.01.2020
3906 Clouds 6 1019 75 10000 4.6 280 16:59 21.01.2020
3907 Clouds 6 1019 75 10000 4.6 280 16:59 21.01.2020
3908 Clouds 6 1019 75 10000 4.1 270 16:37 21.01.2020
3909 Clouds 7 1019 75 10000 4.1 270 16:19 21.01.2020
3910 Clouds 6 1018 81 10000 2.1 240 15:56 21.01.2020
3911 Clouds 6 1018 75 10000 3.1 260 15:37 21.01.2020
3912 Clouds 6 1018 75 10000 3.1 260 15:18 21.01.2020
3913 Clouds 7 1018 65 10000 4.6 260 14:39 21.01.2020
3914 Rain 7 1018 65 10000 4.6 260 14:20 21.01.2020
3915 Rain 7 1018 70 10000 4.1 270 13:42 21.01.2020
3916 Rain 8 1018 70 10000 4.1 270 13:20 21.01.2020
3917 Rain 7 1018 70 10000 4.1 280 12:57 21.01.2020
3918 Clouds 7 1018 75 10000 4.1 270 12:39 21.01.2020
3919 Clouds 8 1018 75 10000 4.1 270 12:20 21.01.2020
3920 Clouds 7 1018 87 10000 5.1 290 11:41 21.01.2020
3921 Clouds 7 1018 87 10000 5.1 290 11:22 21.01.2020
3922 Drizzle 8 1018 81 10000 8.2 270 11:00 21.01.2020
3923 Clouds 7 1017 81 10000 6.7 270 10:41 21.01.2020
3924 Clouds 7 1017 81 10000 6.7 270 10:22 21.01.2020
3925 Clouds 7 1016 81 10000 6.7 270 09:43 21.01.2020
3926 Clouds 7 1016 87 10000 5.1 270 09:23 21.01.2020
3927 Clouds 7 1015 87 10000 6.7 260 08:56 21.01.2020
3928 Clouds 7 1015 87 10000 7.7 260 08:38 21.01.2020
3929 Clouds 7 1015 81 10000 6.7 270 08:19 21.01.2020
3930 Clouds 7 1015 87 10000 6.2 260 07:41 21.01.2020
3931 Clouds 7 1015 87 10000 6.2 260 07:22 21.01.2020
3932 Clouds 8 1015 81 10000 8.7 260 06:55 21.01.2020
3933 Clouds 8 1015 81 10000 10.3 260 06:37 21.01.2020
3934 Clouds 8 1015 81 10000 7.7 260 05:44 21.01.2020
3935 Clear 8 1015 81 10000 8.2 250 04:41 21.01.2020
3936 Clear 8 1016 87 10000 7.7 260 03:40 21.01.2020
3937 Clear 8 1017 87 10000 6.2 250 02:26 21.01.2020
3938 Clouds 7 1018 87 10000 7.2 250 01:28 21.01.2020
3939 Clear 7 1018 87 10000 7.2 250 00:40 21.01.2020
3940 Clear 7 1019 87 10000 6.2 250 23:59 20.01.2020
3941 Clear 7 1020 81 10000 6.7 240 23:41 20.01.2020
3942 Clear 7 1020 81 10000 6.2 250 23:19 20.01.2020
3943 Clear 7 1020 81 10000 6.2 250 22:58 20.01.2020
3944 Clear 6 1020 87 10000 8.7 250 22:38 20.01.2020
3945 Clear 6 1020 87 10000 8.7 250 22:20 20.01.2020
3946 Clear 6 1020 87 10000 8.7 250 22:20 20.01.2020
3947 Clear 6 1021 87 10000 6.2 250 21:58 20.01.2020
3948 Clear 6 1021 81 10000 6.7 260 21:37 20.01.2020
3949 Clear 6 1021 81 10000 6.7 260 21:19 20.01.2020
3950 Clear 6 1021 81 10000 5.7 250 20:57 20.01.2020
3951 Clear 6 1022 81 10000 5.7 250 20:38 20.01.2020
3952 Clouds 6 1022 81 10000 5.7 250 20:18 20.01.2020
3953 Clouds 6 1022 81 10000 5.7 240 19:56 20.01.2020
3954 Clouds 6 1022 81 10000 5.1 240 19:38 20.01.2020
3955 Clouds 6 1022 81 10000 5.1 240 19:18 20.01.2020
3956 Clouds 6 1023 81 10000 6.2 240 18:44 20.01.2020
3957 Clouds 5 1023 81 10000 5.1 250 18:23 20.01.2020
3958 Clouds 5 1023 81 10000 6.2 240 17:58 20.01.2020
3959 Clouds 5 1023 75 10000 6.2 240 17:36 20.01.2020
3960 Clouds 5 1023 75 10000 6.2 240 17:18 20.01.2020
3961 Clouds 5 1024 80 10000 4.1 240 16:43 20.01.2020
3962 Clouds 5 1024 80 10000 4.1 240 16:43 20.01.2020
3963 Clouds 5 1024 80 10000 4.1 240 16:25 20.01.2020
3964 Clouds 5 1024 80 10000 5.7 230 15:58 20.01.2020
3965 Clouds 5 1025 80 10000 5.1 240 15:39 20.01.2020
3966 Clouds 5 1025 80 10000 5.1 240 15:21 20.01.2020
3967 Clouds 5 1025 80 10000 6.2 240 14:42 20.01.2020
3968 Clouds 5 1025 80 10000 6.2 240 14:24 20.01.2020
3969 Clouds 5 1026 80 10000 5.7 250 13:59 20.01.2020
3970 Clouds 5 1026 75 10000 7.2 250 13:40 20.01.2020
3971 Clouds 5 1026 75 10000 7.2 250 13:22 20.01.2020
3972 Clouds 5 1026 75 10000 5.1 250 12:47 20.01.2020
3973 Clouds 4 1027 80 10000 6.7 240 12:29 20.01.2020
3974 Clouds 4 1027 80 10000 5.1 240 11:59 20.01.2020
3975 Clouds 4 1027 80 10000 5.1 240 11:40 20.01.2020
3976 Clouds 4 1027 80 10000 5.1 240 11:21 20.01.2020
3977 Clouds 3 1027 74 10000 4.6 230 10:55 20.01.2020
3978 Clouds 3 1028 74 10000 3.1 230 10:37 20.01.2020
3979 Clouds 3 1028 74 10000 3.1 230 10:37 20.01.2020
3980 Clouds 3 1028 74 10000 3.1 230 10:18 20.01.2020
3981 Clouds 2 1028 74 10000 3.1 220 09:40 20.01.2020
3982 Clouds 2 1028 74 10000 3.1 220 09:40 20.01.2020
3983 Clouds 2 1028 74 10000 3.1 220 09:20 20.01.2020
3984 Clouds 2 1029 69 10000 3.6 220 08:46 20.01.2020
3985 Clouds 2 1029 69 10000 3.6 220 08:28 20.01.2020
3986 Clouds 1 1029 74 10000 4.1 210 07:46 20.01.2020
3987 Clouds 1 1029 74 10000 4.1 210 07:26 20.01.2020
3988 Clouds 1 1029 74 10000 3.1 220 06:54 20.01.2020
3989 Clouds 1 1030 69 10000 3.6 220 06:28 20.01.2020
3990 Clouds 1 1030 74 10000 3.6 230 05:43 20.01.2020
3991 Clouds 1 1030 74 10000 3.6 230 05:43 20.01.2020
3992 Clouds 1 1030 74 10000 3.6 230 05:43 20.01.2020
3993 Clouds 1 1030 74 10000 3.6 230 05:22 20.01.2020
3994 Clouds 1 1030 74 10000 3.1 240 04:47 20.01.2020
3995 Clouds 1 1032 74 10000 3.6 240 02:58 20.01.2020
3996 Clouds 1 1032 74 10000 3.6 240 02:58 20.01.2020
3997 Clouds 1 1031 80 10000 2.6 230 01:55 20.01.2020
3998 Clouds 1 1032 80 10000 3.1 240 01:37 20.01.2020
3999 Clouds 1 1032 80 10000 2.6 230 00:45 20.01.2020
4000 Clouds 1 1032 80 10000 2.6 230 00:24 20.01.2020
4001 Clouds 1 1032 80 10000 2.6 250 23:39 19.01.2020
4002 Clouds 1 1032 80 10000 2.6 250 23:20 19.01.2020
4003 Clouds 1 1032 80 10000 2.6 250 23:20 19.01.2020
4004 Clouds 1 1032 80 10000 3.1 260 22:57 19.01.2020
4005 Clouds 1 1031 74 10000 2.6 260 22:39 19.01.2020
4006 Clouds 1 1031 74 10000 2.6 260 22:39 19.01.2020
4007 Clouds 1 1031 74 10000 3.1 270 22:20 19.01.2020
4008 Clouds 1 1031 74 10000 2.6 260 22:20 19.01.2020
4009 Clouds 1 1031 74 10000 3.1 270 21:57 19.01.2020
4010 Clouds 1 1030 80 10000 3.6 270 21:38 19.01.2020
4011 Clouds 1 1030 80 10000 3.6 270 21:20 19.01.2020
4012 Clouds 2 1030 80 10000 3.6 270 20:57 19.01.2020
4013 Clouds 2 1030 80 10000 3.1 260 20:39 19.01.2020
4014 Clear 2 1030 80 10000 3.1 260 20:20 19.01.2020
4015 Clear 2 1030 80 10000 3.1 260 19:57 19.01.2020
4016 Clear 2 1030 80 10000 2.6 250 19:39 19.01.2020
4017 Clear 2 1030 80 10000 2.6 250 19:39 19.01.2020
4018 Clear 2 1030 80 10000 2.6 250 19:20 19.01.2020
4019 Clear 2 1030 80 10000 2.6 250 19:20 19.01.2020
4020 Clear 2 1029 74 10000 3.1 240 18:57 19.01.2020
4021 Clear 2 1029 74 10000 3.6 270 18:38 19.01.2020
4022 Clear 2 1029 74 10000 3.6 270 18:20 19.01.2020
4023 Clear 3 1028 74 10000 4.1 250 17:58 19.01.2020
4024 Clear 3 1028 74 10000 3.1 250 17:40 19.01.2020
4025 Clear 3 1028 74 10000 3.1 250 17:40 19.01.2020
4026 Clear 3 1028 74 10000 3.1 250 17:21 19.01.2020
4027 Clear 3 1027 69 10000 3.1 250 16:59 19.01.2020
4028 Clear 3 1027 69 10000 3.1 250 16:59 19.01.2020
4029 Clear 3 1027 69 10000 4.1 260 16:39 19.01.2020
4030 Clear 3 1027 69 10000 4.1 260 16:21 19.01.2020
4031 Clear 4 1026 69 10000 3.6 270 15:58 19.01.2020
4032 Clear 4 1026 65 10000 3.6 270 15:38 19.01.2020
4033 Clear 4 1026 65 10000 3.6 270 15:20 19.01.2020
4034 Clear 5 1025 65 10000 3.1 260 14:58 19.01.2020
4035 Clear 5 1025 65 10000 4.1 260 14:39 19.01.2020
4036 Clear 5 1025 63 10000 4.1 260 14:18 19.01.2020
4037 Clear 5 1025 63 10000 5.1 260 13:57 19.01.2020
4038 Clear 5 1024 63 10000 4.1 260 13:38 19.01.2020
4039 Clear 5 1024 61 10000 4.1 260 13:19 19.01.2020
4040 Clear 4 1024 61 10000 4.6 260 12:55 19.01.2020
4041 Clear 4 1023 61 10000 4.1 260 12:37 19.01.2020
4042 Clear 4 1023 61 10000 4.1 260 12:19 19.01.2020
4043 Clear 3 1022 86 10000 4.1 250 11:42 19.01.2020
4044 Clear 3 1022 86 10000 4.1 250 11:20 19.01.2020
4045 Clear 3 1022 86 10000 3.6 260 10:56 19.01.2020
4046 Clear 3 1022 86 10000 3.6 260 10:56 19.01.2020
4047 Clear 2 1021 93 10000 3.1 260 10:38 19.01.2020
4048 Clear 2 1021 93 10000 3.1 260 10:19 19.01.2020
4049 Clear 2 1020 93 10000 2.6 240 09:56 19.01.2020
4050 Clear 2 1020 93 10000 2.6 240 09:56 19.01.2020
4051 Clear 2 1020 93 10000 3.6 240 09:37 19.01.2020
4052 Clear 2 1020 93 10000 3.6 240 09:18 19.01.2020
4053 Clear 2 1019 93 10000 3.1 260 08:48 19.01.2020
4054 Clear 2 1018 93 10000 3.1 230 08:28 19.01.2020
4055 Clouds 2 1018 93 10000 2.6 250 07:45 19.01.2020
4056 Clouds 2 1017 93 10000 2.6 260 07:26 19.01.2020
4057 Clouds 2 1016 93 10000 2.6 250 06:54 19.01.2020
4058 Clouds 3 1016 93 10000 2.6 260 06:21 19.01.2020
4059 Clouds 5 1012 86 10000 3.6 250 03:28 19.01.2020
4060 Clouds 5 1010 86 10000 4.6 240 02:26 19.01.2020
4061 Clouds 5 1009 86 10000 3.6 230 01:38 19.01.2020
4062 Clouds 5 1009 86 10000 3.1 230 01:18 19.01.2020
4063 Clouds 5 1009 86 10000 3.1 230 00:41 19.01.2020
4064 Clouds 5 1008 80 10000 4.1 230 00:19 19.01.2020
4065 Clouds 5 1007 80 10000 4.1 220 23:41 18.01.2020
4066 Clouds 5 1007 80 10000 4.1 220 23:23 18.01.2020
4067 Clouds 5 1007 80 10000 4.1 220 23:23 18.01.2020
4068 Clouds 5 1007 80 10000 4.6 220 22:56 18.01.2020
4069 Clouds 5 1007 80 10000 4.1 220 22:38 18.01.2020
4070 Clouds 5 1007 80 10000 4.1 220 22:20 18.01.2020
4071 Clouds 5 1007 80 10000 3.1 210 21:57 18.01.2020
4072 Clouds 5 1007 80 10000 3.1 220 21:38 18.01.2020
4073 Clouds 5 1007 80 10000 3.1 220 21:20 18.01.2020
4074 Clouds 5 1007 80 10000 3.6 200 20:44 18.01.2020
4075 Clouds 5 1007 80 10000 3.6 200 20:21 18.01.2020
4076 Drizzle 5 1006 80 10000 3.6 210 19:59 18.01.2020
4077 Clouds 5 1006 80 10000 3.6 200 19:41 18.01.2020
4078 Clouds 5 1006 80 10000 3.6 200 19:22 18.01.2020
4079 Clouds 5 1006 75 10000 3.6 200 18:43 18.01.2020
4080 Clouds 6 1006 81 10000 4.1 190 18:22 18.01.2020
4081 Clouds 5 1006 81 10000 3.6 190 17:56 18.01.2020
4082 Clouds 5 1006 87 10000 3.6 180 17:38 18.01.2020
4083 Clouds 5 1006 87 10000 3.6 180 17:19 18.01.2020
4084 Clouds 6 1006 87 10000 3.1 190 16:55 18.01.2020
4085 Clouds 6 1006 87 10000 3.1 190 16:55 18.01.2020
4086 Clouds 5 1006 87 10000 3.1 180 16:36 18.01.2020
4087 Clouds 5 1006 87 10000 3.1 180 16:18 18.01.2020
4088 Clouds 6 1006 93 10000 2.6 190 15:42 18.01.2020
4089 Clouds 6 1006 93 10000 2.6 190 15:24 18.01.2020
4090 Clouds 6 1006 93 10000 3.1 200 14:57 18.01.2020
4091 Clouds 6 1006 93 9000 3.6 210 14:39 18.01.2020
4092 Clouds 6 1006 93 9000 3.6 210 14:18 18.01.2020
4093 Clouds 6 1006 93 10000 2.6 220 13:44 18.01.2020
4094 Clouds 6 1006 87 10000 3.1 220 13:26 18.01.2020
4095 Clouds 6 1006 87 10000 4.1 200 12:58 18.01.2020
4096 Clouds 5 1006 93 10000 3.6 210 12:39 18.01.2020
4097 Clouds 5 1006 93 10000 3.6 210 12:20 18.01.2020
4098 Clouds 5 1006 93 10000 4.6 210 11:44 18.01.2020
4099 Clouds 5 1006 93 10000 4.6 210 11:22 18.01.2020
4100 Clouds 5 1006 93 10000 4.1 200 10:57 18.01.2020
4101 Clouds 4 1006 100 10000 3.6 200 10:38 18.01.2020
4102 Clouds 5 1006 100 10000 3.6 200 10:20 18.01.2020
4103 Clouds 4 1006 93 8000 3.6 190 09:46 18.01.2020
4104 Clouds 4 1006 93 9000 3.1 180 09:28 18.01.2020
4105 Clouds 4 1006 93 8000 3.1 180 08:55 18.01.2020
4106 Clouds 4 1006 93 10000 3.1 190 08:37 18.01.2020
4107 Clouds 4 1006 93 10000 3.1 190 08:19 18.01.2020
4108 Clouds 4 1006 93 8000 7.2 220 07:45 18.01.2020
4109 Clouds 4 1006 93 10000 5.1 220 07:26 18.01.2020
4110 Clouds 4 1006 100 10000 4.6 190 06:47 18.01.2020
4111 Clouds 4 1006 93 10000 4.6 200 06:47 18.01.2020
4112 Clouds 4 1006 100 10000 5.7 180 05:59 18.01.2020
4113 Clouds 4 1007 100 10000 3.6 190 05:19 18.01.2020
4114 Mist 4 1008 100 9000 5.1 170 02:53 18.01.2020
4115 Clouds 4 1008 93 8000 4.6 160 01:52 18.01.2020
4116 Clouds 4 1009 93 9000 4.6 150 01:29 18.01.2020
4117 Clouds 4 1010 100 9000 4.1 170 00:36 18.01.2020
4118 Clouds 4 1010 100 8000 4.6 160 00:18 18.01.2020
4119 Clouds 4 1010 100 8000 4.6 160 23:40 17.01.2020
4120 Clouds 4 1010 100 8000 4.6 160 23:19 17.01.2020
4121 Clouds 5 1011 93 9000 5.7 170 22:44 17.01.2020
4122 Clouds 5 1012 93 10000 2.6 170 22:21 17.01.2020
4123 Clouds 5 1012 93 10000 3.6 160 21:58 17.01.2020
4124 Clouds 5 1012 93 10000 4.6 170 21:40 17.01.2020
4125 Clouds 5 1012 93 10000 4.6 170 21:22 17.01.2020
4126 Clouds 5 1012 93 10000 4.6 170 20:57 17.01.2020
4127 Clouds 5 1013 93 10000 5.1 170 20:38 17.01.2020
4128 Clouds 4 1013 93 10000 5.1 170 20:20 17.01.2020
4129 Clouds 4 1013 93 10000 4.1 170 19:55 17.01.2020
4130 Clouds 4 1013 93 10000 4.1 170 19:37 17.01.2020
4131 Clouds 4 1013 93 10000 4.1 170 19:18 17.01.2020
4132 Clouds 4 1013 100 10000 3.6 160 18:45 17.01.2020
4133 Clouds 4 1014 100 10000 3.1 160 18:27 17.01.2020
4134 Clouds 4 1014 93 10000 2.6 160 17:56 17.01.2020
4135 Clouds 4 1014 93 10000 2.1 170 17:38 17.01.2020
4136 Clouds 4 1014 93 10000 2.1 170 17:20 17.01.2020
4137 Clouds 4 1014 93 10000 3.1 160 16:42 17.01.2020
4138 Clouds 4 1014 93 10000 3.1 160 16:42 17.01.2020
4139 Clouds 4 1014 93 10000 3.1 160 16:20 17.01.2020
4140 Clouds 4 1015 86 10000 3.1 170 15:49 17.01.2020
4141 Clouds 4 1015 93 10000 3.6 180 15:28 17.01.2020
4142 Clouds 5 1015 86 10000 4.6 190 14:57 17.01.2020
4143 Clouds 5 1015 86 10000 5.1 190 14:38 17.01.2020
4144 Clouds 5 1015 86 10000 5.1 190 14:20 17.01.2020
4145 Clouds 5 1016 86 10000 5.7 190 13:41 17.01.2020
4146 Clouds 5 1016 86 10000 5.7 190 13:22 17.01.2020
4147 Clouds 5 1016 86 10000 5.7 180 12:46 17.01.2020
4148 Clouds 5 1016 93 10000 6.7 190 12:23 17.01.2020
4149 Clouds 5 1016 93 10000 4.6 180 11:41 17.01.2020
4150 Clouds 5 1017 86 10000 4.6 180 11:20 17.01.2020
4151 Clouds 5 1017 86 10000 5.1 180 10:56 17.01.2020
4152 Clouds 5 1017 80 10000 4.6 170 10:37 17.01.2020
4153 Clouds 4 1017 80 10000 4.6 170 10:19 17.01.2020
4154 Clouds 4 1018 86 10000 3.6 170 09:43 17.01.2020
4155 Clouds 4 1018 86 10000 3.6 170 09:21 17.01.2020
4156 Clouds 4 1018 86 10000 3.1 190 08:56 17.01.2020
4157 Clouds 4 1018 86 10000 3.1 190 08:38 17.01.2020
4158 Clouds 4 1018 86 10000 3.1 190 08:19 17.01.2020
4159 Clouds 4 1018 86 10000 4.1 190 07:43 17.01.2020
4160 Clouds 4 1018 86 10000 4.1 190 07:25 17.01.2020
4161 Clouds 4 1018 86 10000 3.6 190 06:51 17.01.2020
4162 Clouds 4 1018 86 10000 2.6 190 06:30 17.01.2020
4163 Clouds 4 1013 90 0 0.45 225 04:27 17.01.2020
4164 Clouds 5 1022 84 0 4.95 243 02:56 17.01.2020
4165 Clouds 4 1018 80 0 3.13 196 02:32 17.01.2020
4166 Clouds 5 1021 83 0 1.79 247 01:44 17.01.2020
4167 Clouds 5 1021 83 0 5.19 241 01:22 17.01.2020
4168 Clouds 4 1021 82 0 2.68 202 00:37 17.01.2020
4169 Clouds 4 1017 80 10000 4.1 230 00:19 17.01.2020
4170 Clouds 4 1018 80 10000 5.1 240 23:41 16.01.2020
4171 Clouds 5 1018 80 10000 5.1 240 23:22 16.01.2020
4172 Clouds 5 1016 80 10000 4.6 240 22:41 16.01.2020
4173 Clouds 5 1017 75 10000 6.7 240 22:21 16.01.2020
4174 Clouds 5 1017 75 10000 5.7 240 21:57 16.01.2020
4175 Clouds 5 1017 75 10000 5.7 240 21:38 16.01.2020
4176 Clouds 5 1017 75 10000 5.7 240 21:19 16.01.2020
4177 Clouds 5 1017 75 10000 5.7 240 21:19 16.01.2020
4178 Clouds 5 1017 75 10000 5.7 240 20:57 16.01.2020
4179 Clouds 6 1016 75 10000 6.7 250 20:38 16.01.2020
4180 Clear 6 1016 75 10000 6.2 250 20:19 16.01.2020
4181 Clear 6 1016 75 10000 6.2 250 19:56 16.01.2020
4182 Clouds 6 1016 81 10000 7.2 250 19:37 16.01.2020
4183 Clouds 6 1016 81 10000 7.2 250 19:19 16.01.2020
4184 Clouds 6 1016 81 10000 7.2 250 19:19 16.01.2020
4185 Clear 6 1015 75 10000 8.2 240 18:55 16.01.2020
4186 Clear 6 1015 75 10000 5.7 240 18:37 16.01.2020
4187 Clear 6 1015 75 10000 5.7 240 18:18 16.01.2020
4188 Clear 7 1014 75 10000 6.2 250 17:42 16.01.2020
4189 Clear 7 1014 75 10000 6.2 250 17:23 16.01.2020
4190 Clear 7 1013 75 10000 6.2 250 16:57 16.01.2020
4191 Clouds 7 1013 70 10000 8.2 250 16:39 16.01.2020
4192 Clouds 7 1013 70 10000 8.2 250 16:19 16.01.2020
4193 Clouds 8 1011 70 10000 8.7 250 15:44 16.01.2020
4194 Clouds 8 1011 70 10000 8.7 250 15:23 16.01.2020
4195 Clouds 8 1011 70 10000 8.2 260 14:57 16.01.2020
4196 Clouds 8 1010 70 10000 8.2 250 14:39 16.01.2020
4197 Clouds 8 1010 70 10000 8.2 250 14:20 16.01.2020
4198 Clouds 8 1010 70 10000 7.7 260 13:45 16.01.2020
4199 Clouds 8 1010 70 10000 7.7 260 13:26 16.01.2020
4200 Clouds 8 1009 70 10000 6.2 250 12:47 16.01.2020
4201 Clouds 8 1009 75 10000 6.7 250 12:29 16.01.2020
4202 Clouds 8 1009 75 10000 6.7 250 12:29 16.01.2020
4203 Clouds 8 1008 70 10000 7.2 240 11:59 16.01.2020
4204 Clouds 7 1008 75 10000 6.7 230 11:41 16.01.2020
4205 Clouds 7 1008 75 10000 6.7 230 11:22 16.01.2020
4206 Clouds 7 1008 75 10000 6.2 240 10:55 16.01.2020
4207 Clouds 7 1007 75 10000 6.2 230 10:36 16.01.2020
4208 Clouds 7 1007 75 10000 6.2 230 10:18 16.01.2020
4209 Clouds 6 1007 81 10000 5.7 230 09:42 16.01.2020
4210 Clouds 6 1007 81 10000 5.7 230 09:24 16.01.2020
4211 Clouds 6 1006 75 10000 6.2 220 08:56 16.01.2020
4212 Clouds 6 1006 75 10000 5.7 220 08:36 16.01.2020
4213 Clouds 6 1006 75 10000 5.7 220 08:18 16.01.2020
4214 Clouds 5 1005 80 10000 5.7 220 07:42 16.01.2020
4215 Clouds 5 1005 80 10000 5.7 220 07:23 16.01.2020
4216 Clouds 5 1005 80 10000 4.6 230 06:48 16.01.2020
4217 Clouds 5 1005 80 10000 4.6 220 06:28 16.01.2020
4218 Clouds 5 1005 80 10000 4.6 220 05:46 16.01.2020
4219 Clouds 5 1004 75 10000 5.1 230 04:46 16.01.2020
4220 Clouds 5 1003 80 10000 4.1 220 03:29 16.01.2020
4221 Clouds 5 1003 80 10000 4.6 220 02:45 16.01.2020
4222 Clouds 6 1002 75 10000 4.6 220 01:28 16.01.2020
4223 Rain 6 1002 70 10000 4.1 230 00:42 16.01.2020
4224 Rain 6 1002 75 10000 3.6 230 00:22 16.01.2020
4225 Rain 6 1001 75 10000 3.6 220 23:40 15.01.2020
4226 -273 0 0 0 0 0 23:22 15.01.2020
4227 Clouds 7 1001 75 10000 3.6 220 23:21 15.01.2020
4228 Clouds 7 1001 75 10000 3.6 220 22:56 15.01.2020
4229 Clouds 7 1001 75 10000 3.6 210 22:37 15.01.2020
4230 Clouds 7 1001 75 10000 3.6 210 22:18 15.01.2020
4231 Clouds 7 1001 75 10000 3.6 210 22:18 15.01.2020
4232 Clouds 7 1001 75 10000 3.6 210 21:55 15.01.2020
4233 Clouds 7 1001 75 10000 3.6 210 21:36 15.01.2020
4234 Clouds 7 1001 75 10000 3.6 210 21:18 15.01.2020
4235 Clouds 7 1000 75 10000 4.1 220 20:54 15.01.2020
4236 Clouds 7 1000 75 10000 3.6 210 20:36 15.01.2020
4237 Clouds 7 1000 75 10000 3.6 210 20:18 15.01.2020
4238 Clouds 6 1000 75 10000 3.6 210 19:54 15.01.2020
4239 Clouds 6 1000 75 10000 4.1 220 19:36 15.01.2020
4240 Clouds 7 1000 75 10000 4.1 230 19:18 15.01.2020
4241 Clouds 7 1000 75 10000 4.1 230 18:55 15.01.2020
4242 Clouds 7 1000 75 10000 4.1 230 18:55 15.01.2020
4243 Clouds 7 1000 75 10000 4.1 230 18:55 15.01.2020
4244 Clouds 7 1000 75 10000 5.1 230 18:36 15.01.2020
4245 Clouds 7 1000 75 10000 5.1 230 18:18 15.01.2020
4246 Clouds 7 1000 75 10000 5.1 230 18:18 15.01.2020
4247 Clouds 7 999 75 10000 5.7 240 17:40 15.01.2020
4248 Clouds 7 999 75 10000 5.7 240 17:22 15.01.2020
4249 Clouds 7 999 75 10000 5.7 240 17:22 15.01.2020
4250 Clouds 7 998 70 10000 6.2 240 16:57 15.01.2020
4251 Clouds 7 998 75 10000 5.7 240 16:38 15.01.2020
4252 Clouds 7 998 75 10000 5.7 240 16:20 15.01.2020
4253 Clouds 7 998 75 10000 5.7 240 16:20 15.01.2020
4254 Clouds 7 998 75 10000 5.7 240 16:20 15.01.2020
4255 Clouds 8 997 75 10000 5.7 230 15:43 15.01.2020
4256 Rain 8 997 76 10000 6.2 230 15:21 15.01.2020
4257 Clouds 9 996 81 10000 4.1 240 14:56 15.01.2020
4258 Clouds 9 996 81 10000 5.1 220 14:37 15.01.2020
4259 Clouds 9 995 76 10000 5.1 230 14:18 15.01.2020
4260 Clouds 9 995 76 10000 5.1 230 13:44 15.01.2020
4261 Clouds 9 995 76 10000 6.2 230 13:23 15.01.2020
4262 Clouds 9 994 81 10000 6.2 240 12:56 15.01.2020
4263 Drizzle 9 994 81 10000 7.7 230 12:37 15.01.2020
4264 Drizzle 9 994 81 10000 7.7 230 12:19 15.01.2020
4265 Rain 9 994 81 9000 5.1 240 11:54 15.01.2020
4266 Clouds 10 991 71 10000 11.8 230 11:36 15.01.2020
4267 Clouds 10 993 76 10000 7.2 240 11:18 15.01.2020
4268 Clouds 10 992 81 10000 5.7 220 10:41 15.01.2020
4269 Clouds 10 992 81 10000 5.7 220 10:21 15.01.2020
4270 Clouds 9 991 87 10000 5.1 190 09:41 15.01.2020
4271 -273 0 0 0 0 0 09:22 15.01.2020
4272 Clouds 8 990 93 10000 5.7 190 08:45 15.01.2020
4273 Clouds 8 990 93 10000 6.2 190 08:27 15.01.2020
4274 Clouds 8 990 87 10000 7.2 190 07:56 15.01.2020
4275 Clouds 8 990 87 10000 7.7 190 07:35 15.01.2020
4276 Clouds 8 990 87 10000 7.7 180 06:57 15.01.2020
4277 Clouds 8 990 87 10000 7.7 180 06:57 15.01.2020
4278 Rain 8 990 93 10000 6.7 180 06:38 15.01.2020
4279 Rain 7 990 93 10000 8.2 180 05:52 15.01.2020
4280 Rain 5 993 93 6000 5.7 140 03:44 15.01.2020
4281 Rain 5 997 86 10000 3.6 170 01:50 15.01.2020
4282 Clouds 5 997 86 10000 3.6 170 01:22 15.01.2020
4283 Clouds 5 998 86 10000 3.6 190 00:38 15.01.2020
4284 Clouds 5 998 86 10000 3.6 190 00:20 15.01.2020
4285 Clouds 5 998 86 10000 3.1 190 23:47 14.01.2020
4286 Clouds 5 999 86 10000 3.6 210 23:28 14.01.2020
4287 Clouds 5 999 86 10000 4.6 210 22:58 14.01.2020
4288 Clouds 5 998 86 10000 5.1 220 22:40 14.01.2020
4289 Clouds 5 998 86 10000 5.1 220 22:19 14.01.2020
4290 Clouds 5 998 86 10000 4.6 210 21:58 14.01.2020
4291 Clouds 4 998 86 10000 4.6 210 21:39 14.01.2020
4292 Clouds 4 998 86 10000 4.6 210 21:19 14.01.2020
4293 Clouds 4 998 86 10000 4.6 210 20:54 14.01.2020
4294 Clouds 4 998 86 10000 4.6 210 20:54 14.01.2020
4295 Clouds 5 997 93 10000 3.6 210 20:36 14.01.2020
4296 Clouds 5 997 93 10000 3.6 210 20:18 14.01.2020
4297 Clouds 5 997 93 10000 3.6 210 19:55 14.01.2020
4298 Clouds 5 997 93 10000 5.1 220 19:37 14.01.2020
4299 Clouds 5 997 93 10000 5.1 220 19:18 14.01.2020
4300 Clouds 5 997 93 10000 5.1 220 19:18 14.01.2020
4301 Clouds 5 996 93 10000 4.6 210 18:41 14.01.2020
4302 Clouds 5 996 93 10000 4.6 210 18:20 14.01.2020
4303 Clouds 5 996 93 10000 4.6 210 17:58 14.01.2020
4304 Clouds 5 996 93 10000 4.6 190 17:37 14.01.2020
4305 Clouds 5 996 93 10000 4.6 190 17:18 14.01.2020
4306 Clouds 5 996 93 10000 6.2 190 16:43 14.01.2020
4307 Clouds 5 996 93 10000 6.2 190 16:23 14.01.2020
4308 Clouds 5 996 93 10000 6.2 190 16:23 14.01.2020
4309 Rain 5 996 93 10000 7.2 180 15:58 14.01.2020
4310 Rain 5 996 93 10000 6.7 180 15:40 14.01.2020
4311 Rain 5 996 93 10000 6.7 180 15:19 14.01.2020
4312 Rain 5 997 93 9000 7.7 170 14:44 14.01.2020
4313 Rain 5 997 93 10000 8.7 170 14:21 14.01.2020
4314 Rain 5 997 86 10000 8.2 170 13:57 14.01.2020
4315 Rain 5 997 86 10000 8.7 170 13:38 14.01.2020
4316 Rain 5 997 86 10000 8.7 170 13:18 14.01.2020
4317 Clouds 5 999 80 10000 8.7 170 12:41 14.01.2020
4318 Clouds 5 999 80 10000 8.7 170 12:21 14.01.2020
4319 Clouds 5 1000 80 10000 9.8 170 11:55 14.01.2020
4320 Clouds 5 1000 80 10000 8.7 170 11:36 14.01.2020
4321 Clouds 5 1000 80 10000 8.7 170 11:18 14.01.2020
4322 Clouds 5 1001 80 10000 8.7 170 10:40 14.01.2020
4323 Clouds 5 1001 80 10000 8.7 170 10:20 14.01.2020
4324 Clouds 5 1002 80 10000 8.7 170 09:58 14.01.2020
4325 Clouds 5 1002 80 10000 8.2 170 09:40 14.01.2020
4326 Clouds 5 1002 80 10000 8.2 170 09:21 14.01.2020
4327 Clouds 4 1003 80 10000 7.2 160 08:48 14.01.2020
4328 Clouds 4 1004 86 10000 5.7 170 08:25 14.01.2020
4329 Clouds 3 1004 93 10000 5.1 160 07:56 14.01.2020
4330 Clouds 3 1005 93 10000 4.1 160 07:34 14.01.2020
4331 Clouds 3 1005 93 10000 4.1 160 07:34 14.01.2020
4332 Clouds 2 1005 93 10000 3.6 160 06:57 14.01.2020
4333 Clouds 2 1005 93 10000 3.1 150 06:34 14.01.2020
4334 Clouds 2 1007 89 10000 3.6 160 05:28 14.01.2020
4335 Clouds 1 1008 89 10000 4.1 190 03:57 14.01.2020
4336 Clouds 1 1008 89 10000 3.1 190 03:35 14.01.2020
4337 Clouds 2 1009 93 10000 2.6 190 02:26 14.01.2020
4338 Clouds 3 1008 86 10000 3.6 210 01:18 14.01.2020
4339 Clouds 3 1008 80 10000 2.6 220 00:38 14.01.2020
4340 Clouds 3 1009 86 10000 3.1 230 23:59 13.01.2020
4341 Clouds 3 1009 86 10000 4.1 230 23:37 13.01.2020
4342 Clouds 3 1009 80 10000 5.1 240 23:18 13.01.2020
4343 Clouds 3 1009 80 10000 5.1 240 22:45 13.01.2020
4344 Clouds 3 1008 86 10000 4.1 220 22:22 13.01.2020
4345 Clouds 3 1008 86 10000 3.6 220 21:58 13.01.2020
4346 Clouds 3 1008 86 10000 3.6 230 21:39 13.01.2020
4347 Clouds 3 1008 86 10000 3.6 230 21:19 13.01.2020
4348 Clouds 3 1008 86 10000 3.6 220 20:59 13.01.2020
4349 Clouds 3 1008 93 10000 3.6 210 20:41 13.01.2020
4350 Clouds 3 1008 93 10000 3.6 210 20:22 13.01.2020
4351 Clouds 3 1008 93 10000 3.6 210 20:22 13.01.2020
4352 Clouds 3 1008 86 10000 4.1 220 19:59 13.01.2020
4353 Clouds 3 1008 86 10000 3.6 220 19:40 13.01.2020
4354 Clouds 3 1008 86 10000 3.6 220 19:20 13.01.2020
4355 Clouds 3 1008 80 10000 4.6 220 18:57 13.01.2020
4356 Clouds 3 1008 86 10000 4.1 230 18:37 13.01.2020
4357 Clouds 3 1008 86 10000 4.1 230 18:19 13.01.2020
4358 Clouds 2 1008 93 10000 3.6 220 17:55 13.01.2020
4359 Clouds 2 1008 93 10000 2.6 230 17:36 13.01.2020
4360 Clouds 2 1008 93 10000 2.6 230 17:18 13.01.2020
4361 Clouds 2 1010 87 0 3.94 242 16:40 13.01.2020
4362 Clouds 2 1010 87 0 3.94 242 16:40 13.01.2020
4363 Clouds 2 1009 79 0 2.24 177 16:21 13.01.2020
4364 Clouds 2 1009 79 0 2.24 177 16:21 13.01.2020
4365 Clouds 3 1009 78 0 1.34 178 15:55 13.01.2020
4366 Clouds 2 1010 87 0 3.94 242 15:36 13.01.2020
4367 Clouds 3 1009 77 0 2.24 181 15:18 13.01.2020
4368 Clouds 3 1002 88 0 0.89 270 14:42 13.01.2020
4369 Clouds 3 1008 82 0 4.78 251 14:23 13.01.2020
4370 Clouds 3 1010 86 0 1.34 247 13:57 13.01.2020
4371 Clouds 3 1002 87 0 2.24 247 13:38 13.01.2020
4372 Clouds 4 1009 77 0 3.58 237 13:20 13.01.2020
4373 Clouds 4 1008 81 0 4.5 250 13:20 13.01.2020
4374 Clouds 4 1007 93 10000 4.6 240 12:43 13.01.2020
4375 Clouds 4 1007 93 10000 4.6 240 12:23 13.01.2020
4376 Clouds 4 1007 93 10000 4.6 240 12:23 13.01.2020
4377 Clouds 4 1007 93 10000 4.6 240 11:59 13.01.2020
4378 Clouds 4 1007 93 10000 5.1 240 11:39 13.01.2020
4379 Clouds 4 1007 93 10000 5.1 240 11:19 13.01.2020
4380 Clouds 3 1008 93 10000 4.6 240 10:56 13.01.2020
4381 Clouds 3 1007 93 10000 4.6 240 10:38 13.01.2020
4382 Clouds 3 1007 93 10000 4.6 240 10:20 13.01.2020
4383 Clouds 3 1007 93 10000 4.6 250 09:55 13.01.2020
4384 Clouds 3 1007 93 10000 3.6 240 09:37 13.01.2020
4385 Clouds 3 1007 93 10000 3.6 240 09:19 13.01.2020
4386 Clouds 2 1006 93 10000 4.1 230 08:38 13.01.2020
4387 Clouds 1 1006 93 10000 4.1 230 08:19 13.01.2020
4388 Clouds 1 1006 100 10000 5.1 240 07:45 13.01.2020
4389 Clouds 1 1006 86 10000 4.6 230 07:27 13.01.2020
4390 Clouds 1 1006 86 10000 3.6 230 06:39 13.01.2020
4391 Clouds 1 1006 86 10000 3.6 230 06:18 13.01.2020
4392 Clear 1 1006 85 10000 3.1 220 05:19 13.01.2020
4393 Clear 1 1005 85 10000 3.1 230 03:47 13.01.2020
4394 Clear 1 1006 85 10000 2.1 220 02:51 13.01.2020
4395 Clear 1 1005 85 10000 2.1 220 02:31 13.01.2020
4396 Clear 1 1005 82 10000 2.1 220 01:47 13.01.2020
4397 Clear 1 1005 100 10000 3.1 240 00:59 13.01.2020
4398 Clear 1 1005 85 10000 2.1 230 00:37 13.01.2020
4399 Clear 1 1005 85 10000 2.1 230 00:19 13.01.2020
4400 Clear 1 1005 85 10000 1 0 23:41 12.01.2020
4401 Clear 1 1005 79 10000 1 0 23:22 12.01.2020
4402 Clear 2 1004 79 10000 2.1 230 22:57 12.01.2020
4403 Clear 2 1004 86 10000 2.6 260 22:39 12.01.2020
4404 Clear 2 1004 86 10000 2.6 260 22:19 12.01.2020
4405 Clear 3 1004 86 10000 3.6 250 21:54 12.01.2020
4406 Clear 3 1004 86 10000 3.6 250 21:54 12.01.2020
4407 Clear 3 1004 86 10000 3.1 250 21:36 12.01.2020
4408 Clear 3 1004 86 10000 3.1 250 21:36 12.01.2020
4409 Clear 3 1004 86 10000 3.1 250 21:18 12.01.2020
4410 Clear 3 1004 86 10000 3.6 240 20:54 12.01.2020
4411 Clear 3 1004 86 10000 3.6 250 20:36 12.01.2020
4412 Clear 3 1004 86 10000 3.6 250 20:18 12.01.2020
4413 Clear 3 1003 80 10000 4.1 250 19:54 12.01.2020
4414 Clear 4 1003 80 10000 5.1 250 19:36 12.01.2020
4415 Clear 4 1003 80 10000 5.1 250 19:18 12.01.2020
4416 Clear 4 1003 80 10000 4.6 240 18:54 12.01.2020
4417 Clear 4 1003 80 10000 4.1 250 18:36 12.01.2020
4418 Clear 4 1003 80 10000 4.1 250 18:18 12.01.2020
4419 Clear 5 1002 75 10000 5.7 250 17:42 12.01.2020
4420 Clear 5 1002 75 10000 5.7 250 17:21 12.01.2020
4421 Clear 5 1002 75 10000 6.7 260 16:57 12.01.2020
4422 Clear 6 1001 75 10000 6.7 250 16:38 12.01.2020
4423 Clear 6 1001 75 10000 6.7 250 16:19 12.01.2020
4424 Clear 6 1001 75 10000 6.2 250 15:43 12.01.2020
4425 Clouds 6 1000 75 10000 7.2 260 15:25 12.01.2020
4426 Clouds 7 1000 75 10000 6.7 260 14:59 12.01.2020
4427 Clouds 7 1000 70 10000 7.7 260 14:41 12.01.2020
4428 Clouds 7 1000 70 10000 7.7 260 14:21 12.01.2020
4429 Clouds 8 1000 75 10000 6.7 260 13:56 12.01.2020
4430 Clouds 8 1000 75 10000 6.7 260 13:38 12.01.2020
4431 Clouds 8 1000 75 10000 6.7 260 13:20 12.01.2020
4432 Clouds 8 1000 75 10000 6.7 260 13:20 12.01.2020
4433 Clouds 8 1000 75 10000 7.2 250 12:43 12.01.2020
4434 Clouds 8 999 81 10000 7.2 250 12:21 12.01.2020
4435 Clouds 8 999 81 10000 5.7 240 11:59 12.01.2020
4436 Clouds 8 999 81 10000 4.6 240 11:40 12.01.2020
4437 Rain 8 999 81 10000 4.6 240 11:21 12.01.2020
4438 Rain 8 999 87 10000 5.7 230 10:43 12.01.2020
4439 Rain 8 999 87 10000 5.7 230 10:23 12.01.2020
4440 Rain 7 999 87 10000 5.1 230 09:59 12.01.2020
4441 Rain 7 999 87 10000 5.7 240 09:41 12.01.2020
4442 Rain 7 999 87 10000 5.7 240 09:21 12.01.2020
4443 Rain 7 999 87 10000 5.1 240 08:47 12.01.2020
4444 Rain 7 999 87 10000 4.6 230 08:21 12.01.2020
4445 Rain 7 999 87 10000 4.6 230 08:21 12.01.2020
4446 Rain 7 999 87 10000 4.6 220 07:46 12.01.2020
4447 Rain 7 999 87 10000 5.1 230 07:25 12.01.2020
4448 Rain 7 999 87 10000 4.1 210 06:50 12.01.2020
4449 Rain 7 999 81 10000 5.1 210 06:32 12.01.2020
4450 Rain 7 999 87 10000 5.7 220 05:49 12.01.2020
4451 Rain 7 999 87 10000 6.2 210 04:53 12.01.2020
4452 Rain 7 1000 87 10000 6.7 220 03:33 12.01.2020
4453 Rain 7 1000 87 10000 6.7 220 02:43 12.01.2020
4454 Clouds 7 1000 87 10000 6.7 220 02:22 12.01.2020
4455 Clouds 6 1001 81 10000 7.7 220 01:30 12.01.2020
4456 Clouds 6 1001 81 10000 7.2 220 00:45 12.01.2020
4457 Clouds 6 1000 81 10000 9.8 220 00:22 12.01.2020
4458 Clouds 6 1002 81 10000 7.7 210 23:56 11.01.2020
4459 Clouds 6 1002 87 10000 6.2 210 23:37 11.01.2020
4460 Clouds 6 1002 87 10000 6.2 210 23:18 11.01.2020
4461 Clouds 6 1002 81 10000 5.7 210 22:56 11.01.2020
4462 Clouds 6 1003 86 10000 6.7 210 22:37 11.01.2020
4463 Clouds 5 1003 86 10000 6.7 210 22:18 11.01.2020
4464 Clouds 5 1004 86 10000 6.2 210 21:43 11.01.2020
4465 Clouds 5 1004 86 10000 6.7 210 21:19 11.01.2020
4466 Clouds 5 1005 86 10000 5.1 200 20:55 11.01.2020
4467 Clouds 4 1005 86 10000 5.7 200 20:37 11.01.2020
4468 Clouds 4 1005 86 10000 5.7 200 20:18 11.01.2020
4469 Clouds 4 1006 86 10000 6.7 210 19:55 11.01.2020
4470 Clouds 4 1006 80 10000 6.7 200 19:36 11.01.2020
4471 Clouds 4 1006 80 10000 6.7 200 19:18 11.01.2020
4472 Clouds 4 1006 80 10000 7.2 210 18:54 11.01.2020
4473 Clouds 4 1007 80 10000 7.2 210 18:36 11.01.2020
4474 Clouds 4 1007 80 10000 7.2 210 18:18 11.01.2020
4475 Clouds 3 1008 86 10000 7.7 210 17:54 11.01.2020
4476 Clouds 3 1008 86 10000 7.2 200 17:36 11.01.2020
4477 Rain 3 1009 69 9000 6.2 190 17:18 11.01.2020
4478 Snow 3 1010 69 9000 5.7 180 16:41 11.01.2020
4479 Snow 3 1010 69 9000 5.7 180 16:22 11.01.2020
4480 Snow 3 1010 69 9000 5.7 180 16:22 11.01.2020
4481 Clouds 2 1012 80 10000 5.1 200 15:42 11.01.2020
4482 Clouds 2 1012 80 10000 5.1 200 15:24 11.01.2020
4483 Clouds 2 1012 80 10000 5.7 190 14:58 11.01.2020
4484 Clouds 2 1013 80 10000 5.7 190 14:40 11.01.2020
4485 Clouds 2 1013 80 10000 5.7 190 14:22 11.01.2020
4486 Snow 2 1014 80 10000 5.1 200 13:55 11.01.2020
4487 Snow 2 1014 74 10000 5.1 190 13:37 11.01.2020
4488 Clouds 2 1015 74 10000 4.1 200 13:18 11.01.2020
4489 Clouds 2 1016 69 10000 4.6 180 12:42 11.01.2020
4490 Clouds 2 1016 69 10000 4.6 180 12:24 11.01.2020
4491 Clouds 1 1017 74 10000 5.1 190 11:54 11.01.2020
4492 Clouds 1 1017 58 10000 4.6 190 11:36 11.01.2020
4493 Clouds 0 1017 50 10000 4.6 190 11:18 11.01.2020
4494 Clouds 0 1017 50 10000 4.6 190 11:18 11.01.2020
4495 Clouds -1 1018 80 10000 3.1 200 10:42 11.01.2020
4496 Clouds -1 1018 80 10000 3.1 200 10:23 11.01.2020
4497 Clouds -2 1019 86 10000 2.6 190 09:39 11.01.2020
4498 Clouds -2 1019 86 10000 2.6 190 09:21 11.01.2020
4499 Clouds -3 1019 92 10000 1.5 190 08:43 11.01.2020
4500 Clouds -3 1019 92 10000 1.5 190 08:22 11.01.2020
4501 Clouds -4 1019 92 10000 1.5 210 07:44 11.01.2020
4502 Clouds -4 1019 100 10000 1.5 190 07:26 11.01.2020
4503 -273 0 0 0 0 0 06:52 11.01.2020
4504 Clouds -4 1019 100 10000 1.5 200 06:19 11.01.2020
4505 Clear -5 1020 100 10000 2.62 249 04:48 11.01.2020
4506 Clear -4 1020 92 10000 1 240 04:29 11.01.2020
4507 Clear -5 1019 100 10000 2.62 249 03:28 11.01.2020
4508 Clear -5 1019 92 10000 2.62 249 02:40 11.01.2020
4509 Clear -5 1019 100 10000 0.5 0 01:44 11.01.2020
4510 Clear -5 1019 100 10000 1.66 288 01:20 11.01.2020
4511 Clear -4 1019 100 10000 0.5 0 00:44 11.01.2020
4512 Clear -4 1019 100 10000 0.5 0 00:20 11.01.2020
4513 Mist -4 1018 100 9000 1 300 23:41 10.01.2020
4514 Mist -4 1018 100 9000 1 300 23:41 10.01.2020
4515 Mist -5 1018 100 9000 1 300 23:22 10.01.2020
4516 Mist -4 1017 92 7000 1.81 325 22:59 10.01.2020
4517 Clear -4 1017 100 10000 0.5 0 22:40 10.01.2020
4518 Clear -4 1017 100 10000 0.5 0 22:21 10.01.2020
4519 Clear -4 1017 92 10000 1.81 325 21:57 10.01.2020
4520 Clear -4 1017 100 10000 1 280 21:38 10.01.2020
4521 Clear -4 1017 100 10000 1 280 21:19 10.01.2020
4522 Clear -3 1017 92 10000 1.81 325 20:43 10.01.2020
4523 Clouds -3 1017 92 10000 1.6 359 20:25 10.01.2020
4524 Clouds -3 1016 100 10000 1.5 280 19:59 10.01.2020
4525 Clouds -3 1016 100 10000 1 270 19:39 10.01.2020
4526 Clouds -2 1016 100 10000 1 270 19:20 10.01.2020
4527 Clouds -2 1016 100 10000 1.5 300 18:44 10.01.2020
4528 Clouds -2 1016 100 10000 1.5 300 18:20 10.01.2020
4529 Clouds -2 1015 100 10000 1.5 300 17:58 10.01.2020
4530 Clouds -2 1015 92 10000 1 290 17:39 10.01.2020
4531 Clouds -1 1015 92 10000 1 290 17:21 10.01.2020
4532 Clouds -1 1015 86 10000 1.5 0 16:59 10.01.2020
4533 Clouds -1 1014 82 10000 1.5 0 16:40 10.01.2020
4534 Clouds -1 1014 82 10000 1.5 0 16:21 10.01.2020
4535 Clouds -1 1014 82 10000 1.5 0 16:21 10.01.2020
4536 Clouds -1 1014 82 10000 1.5 360 15:56 10.01.2020
4537 Clouds 0 1013 86 10000 2.1 10 15:37 10.01.2020
4538 Clouds 0 1013 86 10000 2.1 10 15:18 10.01.2020
4539 Clouds 0 1013 86 10000 2.1 10 14:56 10.01.2020
4540 Clouds 1 1013 82 10000 2.1 360 14:38 10.01.2020
4541 Clouds 1 1013 76 10000 2.1 360 14:19 10.01.2020
4542 Clouds 1 1013 76 10000 1.5 0 13:44 10.01.2020
4543 Clouds 2 1012 76 10000 1.5 360 13:26 10.01.2020
4544 Clouds 2 1012 76 10000 1.5 360 13:26 10.01.2020
4545 Clouds 2 1012 76 10000 1.5 40 12:59 10.01.2020
4546 Clouds 2 1012 76 10000 2.1 360 12:39 10.01.2020
4547 Clouds 1 1012 76 10000 2.1 360 12:21 10.01.2020
4548 Clouds 1 1012 76 10000 2.1 10 11:56 10.01.2020
4549 Clouds 1 1012 76 10000 2.6 20 11:38 10.01.2020
4550 Clouds 1 1012 80 10000 2.6 20 11:19 10.01.2020
4551 Clouds 1 1011 80 10000 2.1 20 10:58 10.01.2020
4552 Clouds 1 1011 80 10000 2.1 20 10:58 10.01.2020
4553 Clouds 1 1011 80 10000 2.1 20 10:58 10.01.2020
4554 Clouds 1 1011 80 10000 2.6 20 10:37 10.01.2020
4555 Clouds 1 1011 80 10000 2.6 20 10:18 10.01.2020
4556 Clouds 1 1011 80 10000 2.6 20 10:18 10.01.2020
4557 Clouds 1 1011 80 10000 1.5 30 09:45 10.01.2020
4558 Clouds 1 1011 80 10000 2.1 30 09:25 10.01.2020
4559 Clouds 1 1010 93 10000 1.5 40 08:44 10.01.2020
4560 Clouds 1 1010 93 10000 1.5 10 08:24 10.01.2020
4561 Clouds 2 1009 93 10000 3.1 30 07:58 10.01.2020
4562 Clouds 2 1009 93 10000 3.1 30 07:58 10.01.2020
4563 Clouds 1 1009 93 10000 2.6 50 07:39 10.01.2020
4564 Clouds 1 1009 93 10000 2.6 50 07:19 10.01.2020
4565 Clouds 2 1009 93 10000 2.1 50 06:37 10.01.2020
4566 Clouds 1 1009 93 10000 2.1 50 06:19 10.01.2020
4567 Snow 2 1009 93 10000 1.5 40 04:44 10.01.2020
4568 Snow 2 1009 93 10000 2.6 60 03:31 10.01.2020
4569 Snow 2 1009 93 10000 2.6 60 03:31 10.01.2020
4570 Snow 1 1009 93 10000 2.6 70 02:52 10.01.2020
4571 Clouds 2 1009 81 10000 2.6 80 01:53 10.01.2020
4572 Clouds 1 1009 81 10000 2.6 60 01:30 10.01.2020
4573 Clouds 1 1009 86 10000 2.1 60 00:49 10.01.2020
4574 Clouds 1 1008 86 10000 1.5 80 00:31 10.01.2020
4575 Clouds 0 1008 86 10000 1 80 23:55 09.01.2020
4576 Clouds 0 1009 100 10000 1.5 110 23:36 09.01.2020
4577 Clouds 0 1009 100 10000 1.5 110 23:18 09.01.2020
4578 Clouds 0 1009 100 10000 1 0 22:54 09.01.2020
4579 Clouds 0 1009 80 10000 1.52 120 22:36 09.01.2020
4580 Clouds 0 1009 80 10000 1.52 120 22:18 09.01.2020
4581 Clouds 0 1009 80 10000 1.52 120 21:54 09.01.2020
4582 Clouds 0 1009 80 10000 1.52 120 21:36 09.01.2020
4583 Clouds 0 1009 80 10000 1.52 120 21:18 09.01.2020
4584 Clouds 0 1009 80 10000 1.52 120 21:18 09.01.2020
4585 Clouds 0 1009 80 10000 1 360 20:54 09.01.2020
4586 Clouds 0 1009 80 10000 1 360 20:36 09.01.2020
4587 Clouds 0 1009 83 10000 1.36 88 20:18 09.01.2020
4588 Clouds 0 1009 83 10000 1.36 88 19:39 09.01.2020
4589 Clouds 0 1010 83 10000 1.36 88 19:20 09.01.2020
4590 Clouds 0 1010 83 10000 1 0 18:56 09.01.2020
4591 Clouds 0 1010 83 10000 1 0 18:38 09.01.2020
4592 Clouds 0 1010 83 10000 1.36 88 18:20 09.01.2020
4593 Clouds 0 1010 83 10000 1 0 17:41 09.01.2020
4594 Clouds 1 1010 86 10000 1.61 279 17:19 09.01.2020
4595 Clouds 1 1010 86 10000 1.61 279 16:56 09.01.2020
4596 Clouds 1 1010 86 10000 1.61 279 16:38 09.01.2020
4597 Clouds 1 1010 86 10000 1.61 279 16:20 09.01.2020
4598 Clouds 2 1010 86 10000 0.5 0 15:42 09.01.2020
4599 Clouds 3 1010 86 10000 2.6 240 15:22 09.01.2020
4600 Clouds 3 1010 86 10000 1.5 240 14:57 09.01.2020
4601 Clouds 3 1010 86 10000 1.5 240 14:38 09.01.2020
4602 Clouds 3 1010 80 10000 2.6 260 14:18 09.01.2020
4603 Clouds 4 1010 80 10000 2.6 270 13:55 09.01.2020
4604 Clouds 4 1010 80 10000 2.6 270 13:37 09.01.2020
4605 Clouds 4 1010 80 10000 3.6 250 13:18 09.01.2020
4606 Clouds 4 1010 81 10000 5.7 250 12:42 09.01.2020
4607 Clouds 4 1011 80 10000 4.1 250 12:24 09.01.2020
4608 Clouds 4 1010 80 10000 4.6 260 11:59 09.01.2020
4609 Clouds 4 1010 80 10000 4.6 260 11:41 09.01.2020
4610 Clouds 4 1010 80 10000 5.1 250 11:23 09.01.2020
4611 Clouds 3 1010 86 10000 4.6 230 10:56 09.01.2020
4612 Clouds 3 1010 86 10000 4.6 230 10:37 09.01.2020
4613 Clouds 3 1009 86 10000 5.1 240 10:19 09.01.2020
4614 Clouds 3 1009 86 10000 4.6 230 09:41 09.01.2020
4615 Clouds 3 1009 86 10000 4.6 230 09:41 09.01.2020
4616 Clouds 3 1009 80 10000 3.1 250 09:22 09.01.2020
4617 Clouds 3 1009 80 10000 5.1 250 08:56 09.01.2020
4618 Clouds 4 1008 80 10000 5.7 250 08:38 09.01.2020
4619 Clear 4 1008 80 10000 5.7 250 08:19 09.01.2020
4620 Clear 4 1008 80 10000 4.6 250 07:45 09.01.2020
4621 Clear 4 1008 80 10000 6.2 250 07:27 09.01.2020
4622 Clear 4 1008 80 10000 6.2 250 06:39 09.01.2020
4623 Clear 4 1008 80 10000 6.7 240 06:21 09.01.2020
4624 Clear 4 1007 76 10000 6.7 240 05:50 09.01.2020
4625 Clear 4 1007 73 10000 6.2 240 04:46 09.01.2020
4626 Clear 4 1007 73 10000 6.7 230 03:55 09.01.2020
4627 Clear 4 1006 73 10000 5.7 230 03:26 09.01.2020
4628 Clear 4 1006 68 10000 6.2 240 02:31 09.01.2020
4629 Clear 4 1006 68 10000 6.2 230 01:40 09.01.2020
4630 Clear 4 1006 68 10000 6.7 240 00:44 09.01.2020
4631 Clear 4 1005 68 10000 6.2 230 00:23 09.01.2020
4632 Clear 4 1005 68 10000 6.2 240 23:58 08.01.2020
4633 Clear 4 1005 68 10000 6.2 240 23:38 08.01.2020
4634 Clear 4 1005 67 10000 6.7 230 23:19 08.01.2020
4635 Clear 4 1005 67 10000 5.1 230 22:40 08.01.2020
4636 Clear 4 1005 67 10000 5.1 230 22:40 08.01.2020
4637 Clear 4 1005 67 10000 6.2 240 22:21 08.01.2020
4638 Clear 4 1004 67 10000 5.7 240 21:58 08.01.2020
4639 Clear 5 1004 67 10000 5.7 240 21:40 08.01.2020
4640 Clear 5 1004 67 10000 5.7 240 21:20 08.01.2020
4641 Clear 5 1004 67 10000 6.2 240 20:59 08.01.2020
4642 Clear 5 1003 67 10000 6.7 240 20:40 08.01.2020
4643 Clouds 5 1003 63 10000 6.7 240 20:20 08.01.2020
4644 Clouds 5 1003 63 10000 6.2 250 19:57 08.01.2020
4645 Clouds 5 1003 63 10000 6.2 250 19:38 08.01.2020
4646 Clouds 6 1003 63 10000 5.1 240 19:19 08.01.2020
4647 Clouds 6 1003 70 10000 6.2 240 18:56 08.01.2020
4648 Clouds 6 1002 70 10000 6.7 250 18:37 08.01.2020
4649 Clouds 6 1002 70 10000 6.7 250 18:18 08.01.2020
4650 Clouds 6 1002 65 10000 7.7 240 17:56 08.01.2020
4651 Clouds 7 1002 65 10000 7.7 240 17:37 08.01.2020
4652 Clouds 7 1001 70 10000 6.7 250 17:18 08.01.2020
4653 Clouds 7 1001 65 10000 6.7 260 16:54 08.01.2020
4654 Clouds 7 1001 65 10000 6.7 260 16:36 08.01.2020
4655 Clouds 8 1000 65 10000 6.7 250 16:18 08.01.2020
4656 Clouds 8 1000 66 10000 6.7 250 15:41 08.01.2020
4657 Clouds 9 999 66 10000 8.7 260 15:21 08.01.2020
4658 Clouds 9 999 66 10000 8.2 260 14:57 08.01.2020
4659 Clouds 9 998 71 10000 8.7 240 14:39 08.01.2020
4660 Clouds 9 998 71 10000 8.7 240 14:20 08.01.2020
4661 Clouds 10 997 76 10000 7.7 230 13:40 08.01.2020
4662 Clouds 10 997 76 10000 7.2 230 13:19 08.01.2020
4663 Clouds 9 997 76 10000 5.7 220 12:43 08.01.2020
4664 Clouds 9 997 76 10000 6.7 220 12:20 08.01.2020
4665 Clouds 9 997 76 10000 7.2 220 11:55 08.01.2020
4666 Clouds 9 997 76 10000 7.2 220 11:55 08.01.2020
4667 Clouds 9 997 76 10000 7.2 220 11:37 08.01.2020
4668 Clouds 9 997 81 10000 6.7 210 11:19 08.01.2020
4669 Clouds 9 997 81 10000 6.7 210 11:19 08.01.2020
4670 Clouds 9 998 81 10000 7.2 210 10:55 08.01.2020
4671 Clouds 9 998 81 10000 7.2 220 10:37 08.01.2020
4672 Clouds 9 998 81 10000 7.2 210 10:37 08.01.2020
4673 Clouds 9 998 81 10000 7.2 210 10:37 08.01.2020
4674 Clouds 9 998 81 10000 7.2 220 10:18 08.01.2020
4675 Clouds 8 998 76 10000 6.7 220 09:41 08.01.2020
4676 Clouds 8 998 76 10000 6.7 220 09:19 08.01.2020
4677 Clouds 8 998 81 10000 5.7 210 08:57 08.01.2020
4678 Clouds 8 998 81 10000 5.7 210 08:37 08.01.2020
4679 Clouds 7 998 81 10000 5.1 200 08:19 08.01.2020
4680 Clouds 7 998 81 10000 5.7 200 07:48 08.01.2020
4681 Clouds 7 998 87 10000 6.2 200 07:29 08.01.2020
4682 Clouds 6 999 81 10000 5.7 200 06:45 08.01.2020
4683 Clouds 6 999 81 10000 5.1 190 06:22 08.01.2020
4684 Clouds 6 1000 81 10000 6.2 190 05:41 08.01.2020
4685 Clouds 6 1002 81 10000 6.2 190 04:56 08.01.2020
4686 Clouds 6 1002 81 10000 7.2 190 04:24 08.01.2020
4687 Clouds 6 1004 81 10000 7.2 190 02:45 08.01.2020
4688 Clouds 6 1004 81 10000 6.7 180 02:22 08.01.2020
4689 Drizzle 6 1005 81 10000 6.2 180 01:46 08.01.2020
4690 Clouds 6 1006 81 10000 6.2 180 01:19 08.01.2020
4691 Clouds 5 1008 86 10000 5.7 190 00:27 08.01.2020
4692 Clouds 5 1008 86 10000 6.2 200 23:55 07.01.2020
4693 Clouds 5 1008 86 10000 6.2 200 23:37 07.01.2020
4694 Clouds 5 1008 81 10000 6.2 190 23:19 07.01.2020
4695 Clouds 5 1009 86 10000 5.7 190 22:40 07.01.2020
4696 Clouds 5 1010 86 10000 5.1 210 22:20 07.01.2020
4697 Clouds 5 1010 86 10000 5.7 220 21:56 07.01.2020
4698 Clouds 5 1010 86 10000 5.7 220 21:38 07.01.2020
4699 Clouds 5 1011 86 10000 4.1 200 21:20 07.01.2020
4700 Clouds 5 1011 86 10000 5.1 210 20:55 07.01.2020
4701 Clouds 5 1011 86 10000 5.1 210 20:36 07.01.2020
4702 Clouds 5 1011 86 10000 5.1 210 20:36 07.01.2020
4703 Clouds 5 1012 86 10000 4.6 210 20:18 07.01.2020
4704 Clouds 5 1012 86 10000 5.1 210 19:38 07.01.2020
4705 Clouds 5 1012 86 10000 4.6 180 19:19 07.01.2020
4706 Clouds 5 1013 86 10000 4.1 180 18:58 07.01.2020
4707 Clouds 5 1013 86 10000 4.1 180 18:58 07.01.2020
4708 Clouds 5 1013 86 10000 4.1 180 18:40 07.01.2020
4709 Clouds 5 1013 86 10000 4.1 200 18:19 07.01.2020
4710 Clouds 5 1013 86 10000 4.6 220 17:58 07.01.2020
4711 Clouds 5 1013 86 10000 4.6 220 17:39 07.01.2020
4712 Clouds 5 1013 86 10000 4.1 210 17:20 07.01.2020
4713 Clouds 5 1013 86 10000 5.1 220 16:56 07.01.2020
4714 Clouds 5 1013 86 10000 4.6 200 16:37 07.01.2020
4715 Clouds 5 1013 86 10000 4.6 200 16:19 07.01.2020
4716 Clouds 5 1013 86 10000 4.6 210 15:57 07.01.2020
4717 Clouds 5 1013 93 10000 4.1 220 15:38 07.01.2020
4718 Clouds 5 1013 93 10000 4.1 220 15:19 07.01.2020
4719 Clouds 5 1013 93 10000 3.6 210 14:42 07.01.2020
4720 Clouds 5 1013 93 10000 4.1 210 14:24 07.01.2020
4721 Clouds 6 1013 93 10000 4.6 210 13:57 07.01.2020
4722 Clouds 6 1013 93 10000 4.6 210 13:39 07.01.2020
4723 Clouds 5 1013 86 10000 4.1 210 13:18 07.01.2020
4724 Clouds 5 1013 93 10000 4.1 210 12:41 07.01.2020
4725 Clouds 5 1012 93 10000 4.6 210 12:19 07.01.2020
4726 Clouds 5 1013 86 10000 4.6 210 11:45 07.01.2020
4727 Clouds 5 1012 93 10000 6.7 220 11:23 07.01.2020
4728 Clouds 5 1013 86 10000 4.1 210 10:59 07.01.2020
4729 Clouds 5 1013 86 10000 4.1 210 10:41 07.01.2020
4730 Clouds 5 1013 93 10000 4.1 210 10:23 07.01.2020
4731 Clouds 5 1012 93 10000 4.1 210 09:56 07.01.2020
4732 Clouds 5 1012 93 10000 4.1 210 09:38 07.01.2020
4733 Clouds 5 1012 93 10000 4.6 210 09:19 07.01.2020
4734 Clouds 5 1012 93 10000 3.6 210 08:42 07.01.2020
4735 Clouds 5 1011 93 10000 4.1 190 08:22 07.01.2020
4736 Clouds 5 1011 93 10000 3.6 210 07:54 07.01.2020
4737 Clouds 5 1011 93 10000 3.6 200 07:27 07.01.2020
4738 Clouds 5 1011 93 10000 2.6 200 06:53 07.01.2020
4739 Clouds 5 1011 93 10000 3.1 200 06:32 07.01.2020
4740 Clouds 5 1011 93 10000 3.6 210 05:49 07.01.2020
4741 Clouds 6 1011 87 10000 4.1 210 04:31 07.01.2020
4742 Clouds 6 1011 87 10000 3.1 200 03:26 07.01.2020
4743 Clouds 6 1011 93 10000 2.6 200 02:21 07.01.2020
4744 Clouds 6 1011 93 10000 3.6 210 01:51 07.01.2020
4745 Clouds 6 1011 93 10000 3.1 220 01:26 07.01.2020
4746 Mist 6 1012 100 4000 3.6 240 00:23 07.01.2020
4747 Clouds 6 1012 100 10000 4.6 230 23:59 06.01.2020
4748 Clouds 6 1012 100 10000 4.6 230 23:39 06.01.2020
4749 Clouds 6 1012 100 10000 3.1 220 23:21 06.01.2020
4750 Mist 6 1012 100 9000 3.1 230 22:58 06.01.2020
4751 Mist 6 1012 100 9000 3.1 230 22:37 06.01.2020
4752 Mist 6 1012 100 9000 2.6 200 22:19 06.01.2020
4753 Mist 6 1012 93 5000 2.1 220 21:55 06.01.2020
4754 Mist 6 1012 93 5000 2.1 220 21:37 06.01.2020
4755 Clouds 6 1012 93 10000 2.6 220 21:18 06.01.2020
4756 Clouds 6 1012 93 10000 2.6 230 20:55 06.01.2020
4757 Clouds 6 1012 93 10000 2.6 230 20:37 06.01.2020
4758 Clouds 6 1013 93 10000 2.6 220 20:19 06.01.2020
4759 Clouds 6 1013 93 10000 2.6 220 20:19 06.01.2020
4760 Rain 6 1013 93 9000 3.6 220 19:55 06.01.2020
4761 Rain 6 1013 93 9000 3.6 220 19:37 06.01.2020
4762 Mist 6 1013 93 8000 2.6 220 19:18 06.01.2020
4763 Clouds 6 1013 93 10000 2.6 220 18:44 06.01.2020
4764 Clouds 6 1013 93 10000 2.6 220 18:20 06.01.2020
4765 Clouds 5 1013 93 10000 2.6 220 17:40 06.01.2020
4766 Mist 5 1014 93 5000 2.6 220 17:20 06.01.2020
4767 Mist 5 1014 93 5000 2.6 220 17:20 06.01.2020
4768 Mist 5 1014 93 7000 2.6 220 16:57 06.01.2020
4769 Clouds 5 1014 100 7000 2.6 220 16:39 06.01.2020
4770 Clouds 5 1014 100 7000 2.6 220 16:21 06.01.2020
4771 Clouds 5 1014 93 10000 2.6 220 15:59 06.01.2020
4772 Clouds 5 1014 93 10000 2.6 220 15:36 06.01.2020
4773 Clouds 5 1014 100 10000 3.1 230 15:18 06.01.2020
4774 Clouds 5 1014 93 10000 4.1 240 14:41 06.01.2020
4775 Clouds 5 1014 100 10000 3.1 240 14:22 06.01.2020
4776 Clouds 5 1014 100 10000 3.1 240 13:59 06.01.2020
4777 Clouds 5 1014 100 10000 3.1 240 13:39 06.01.2020
4778 Clouds 5 1014 100 10000 3.1 230 13:20 06.01.2020
4779 Clouds 5 1014 93 10000 2.1 230 12:55 06.01.2020
4780 Clouds 5 1014 93 10000 2.1 230 12:37 06.01.2020
4781 Clouds 5 1015 93 10000 4.1 240 12:18 06.01.2020
4782 Clouds 5 1015 93 10000 4.1 240 11:41 06.01.2020
4783 Clouds 5 1015 93 10000 5.1 250 11:23 06.01.2020
4784 Clouds 5 1015 93 10000 3.1 250 10:59 06.01.2020
4785 Clouds 5 1015 93 10000 3.1 250 10:40 06.01.2020
4786 Clouds 4 1015 93 10000 2.1 230 10:20 06.01.2020
4787 Clouds 4 1015 100 10000 1.5 210 09:39 06.01.2020
4788 Clouds 4 1015 100 10000 2.1 250 09:20 06.01.2020
4789 Clouds 4 1015 100 10000 1.5 210 08:52 06.01.2020
4790 Clouds 3 1015 100 10000 1.5 210 08:34 06.01.2020
4791 Clouds 4 1014 100 10000 2.6 250 07:57 06.01.2020
4792 Clouds 4 1014 100 10000 2.6 250 07:37 06.01.2020
4793 Clouds 4 1014 100 10000 2.6 250 06:49 06.01.2020
4794 Clouds 4 1014 100 10000 2.6 260 06:30 06.01.2020
4795 Clouds 4 1014 100 10000 3.1 240 05:48 06.01.2020
4796 Clouds 4 1014 93 10000 3.1 250 04:55 06.01.2020
4797 Clouds 4 1014 93 10000 2.6 250 04:21 06.01.2020
4798 Clouds 4 1014 93 10000 2.6 240 03:25 06.01.2020
4799 Clouds 4 1013 93 10000 4.6 240 02:25 06.01.2020
4800 Clouds 4 1013 100 10000 3.6 240 01:46 06.01.2020
4801 Clouds 4 1013 100 10000 4.1 250 01:28 06.01.2020
4802 Clouds 4 1013 100 10000 4.6 230 00:44 06.01.2020
4803 Clouds 4 1013 100 10000 4.6 230 00:44 06.01.2020
4804 Clouds 3 1013 100 9000 5.1 230 00:24 06.01.2020
4805 Mist 3 1013 93 6000 5.1 230 23:43 05.01.2020
4806 Mist 3 1013 93 6000 5.1 230 23:23 05.01.2020
4807 Mist 3 1013 93 7000 5.1 230 22:58 05.01.2020
4808 Mist 3 1013 93 7000 5.1 230 22:39 05.01.2020
4809 Mist 2 1013 100 3600 4.6 220 22:20 05.01.2020
4810 Clouds 2 1013 93 10000 5.1 220 21:56 05.01.2020
4811 Clouds 2 1013 93 10000 5.1 220 21:37 05.01.2020
4812 Clouds 2 1013 93 10000 5.1 220 21:37 05.01.2020
4813 Clouds 2 1014 93 10000 5.1 220 21:19 05.01.2020
4814 Rain 2 1014 93 10000 6.2 210 20:56 05.01.2020
4815 Rain 2 1014 93 10000 6.2 210 20:37 05.01.2020
4816 Rain 1 1014 100 10000 5.1 200 20:19 05.01.2020
4817 Rain 1 1015 100 8000 7.7 200 19:56 05.01.2020
4818 Rain 1 1015 100 8000 7.7 200 19:37 05.01.2020
4819 Rain 1 1015 100 9000 4.6 200 19:19 05.01.2020
4820 Clouds 1 1016 93 8000 5.1 180 18:54 05.01.2020
4821 Clouds 1 1016 93 8000 5.1 180 18:36 05.01.2020
4822 Clouds 1 1016 93 8000 5.1 180 18:36 05.01.2020
4823 Snow 1 1017 93 2600 4.1 180 18:18 05.01.2020
4824 Snow 1 1018 93 3000 5.1 190 17:55 05.01.2020
4825 Snow 1 1019 64 10000 5.1 200 17:37 05.01.2020
4826 Snow 1 1019 64 10000 5.1 200 17:18 05.01.2020
4827 Clouds 1 1019 64 10000 5.1 190 16:55 05.01.2020
4828 Clouds 1 1019 64 10000 5.1 190 16:36 05.01.2020
4829 Clouds 1 1020 64 10000 4.1 190 16:18 05.01.2020
4830 Clouds 0 1021 64 10000 3.1 170 15:36 05.01.2020
4831 Clouds 1 1021 64 10000 3.1 170 15:36 05.01.2020
4832 Clouds 0 1021 64 10000 3.1 170 15:36 05.01.2020
4833 Clouds 0 1021 56 10000 2.6 190 15:18 05.01.2020
4834 Clouds 0 1021 56 10000 2.6 170 14:54 05.01.2020
4835 Clouds 0 1021 56 10000 2.6 170 14:36 05.01.2020
4836 Clouds 0 1021 64 10000 2.6 180 14:18 05.01.2020
4837 Clouds 0 1022 64 10000 2.1 190 13:40 05.01.2020
4838 Clouds 0 1022 65 10000 2.6 210 13:21 05.01.2020
4839 Clouds 0 1022 65 10000 2.1 210 12:57 05.01.2020
4840 Clouds 0 1022 65 10000 2.1 210 12:39 05.01.2020
4841 Clouds 0 1023 65 10000 2.1 230 12:21 05.01.2020
4842 Clouds -1 1023 74 10000 2.1 220 11:55 05.01.2020
4843 Clouds -1 1023 74 10000 2.1 220 11:37 05.01.2020
4844 Clouds -1 1023 80 10000 4.1 230 11:19 05.01.2020
4845 Clouds -1 1023 80 10000 2.1 220 10:56 05.01.2020
4846 Clouds -1 1023 80 10000 2.1 220 10:36 05.01.2020
4847 Clouds -1 1023 80 10000 2.6 240 10:36 05.01.2020
4848 Clouds -1 1023 80 10000 2.6 240 10:18 05.01.2020
4849 Clouds -2 1023 74 10000 2.1 260 09:41 05.01.2020
4850 Clouds -2 1023 79 10000 1.5 240 09:21 05.01.2020
4851 Clouds -2 1023 79 10000 1.5 250 08:46 05.01.2020
4852 Clouds -2 1023 74 10000 1.5 250 08:27 05.01.2020
4853 Clear -2 1022 74 10000 2.1 280 07:55 05.01.2020
4854 Clear -2 1022 74 10000 2.1 280 07:35 05.01.2020
4855 Clear -2 1021 74 10000 3.6 300 06:58 05.01.2020
4856 Clear -1 1020 68 10000 4.1 300 05:55 05.01.2020
4857 Clear -1 1020 68 10000 4.6 290 05:30 05.01.2020
4858 Clear -1 1020 68 10000 4.6 290 05:30 05.01.2020
4859 Clear -1 1019 68 10000 4.1 290 04:34 05.01.2020
4860 Clear 0 1019 62 10000 5.7 310 03:47 05.01.2020
4861 Clear 0 1018 62 10000 6.2 300 02:45 05.01.2020
4862 Clear 0 1017 58 10000 6.7 300 02:20 05.01.2020
4863 Clear 0 1015 58 10000 6.2 300 01:40 05.01.2020
4864 Clear 0 1015 57 10000 6.2 300 01:18 05.01.2020
4865 Clear 0 1015 57 10000 5.7 290 00:41 05.01.2020
4866 Clear 0 1014 57 10000 5.7 300 00:22 05.01.2020
4867 Clear 0 1013 57 10000 5.1 290 23:59 04.01.2020
4868 Clear 0 1013 57 10000 5.1 290 23:39 04.01.2020
4869 Clear 0 1012 55 10000 6.7 300 23:19 04.01.2020
4870 Clear 1 1012 55 10000 7.2 310 22:39 04.01.2020
4871 Clear 1 1011 55 10000 6.7 310 22:21 04.01.2020
4872 Clear 1 1010 50 10000 6.7 310 21:57 04.01.2020
4873 Clear 1 1010 50 10000 6.7 310 21:38 04.01.2020
4874 Clear 1 1009 50 10000 6.7 310 21:19 04.01.2020
4875 Clear 1 1008 50 10000 7.2 300 20:57 04.01.2020
4876 Clear 1 1008 50 10000 7.7 310 20:38 04.01.2020
4877 Clouds 1 1008 50 10000 7.7 310 20:20 04.01.2020
4878 Clouds 1 1007 47 10000 8.7 310 19:42 04.01.2020
4879 Clouds 1 1007 47 10000 8.7 310 19:42 04.01.2020
4880 Clouds 2 1006 47 10000 8.2 310 19:24 04.01.2020
4881 Clouds 2 1005 51 10000 8.7 300 18:59 04.01.2020
4882 Clouds 2 1005 51 10000 8.7 300 18:39 04.01.2020
4883 Clouds 2 1004 51 10000 7.2 300 18:21 04.01.2020
4884 Clouds 2 1003 55 10000 6.7 300 17:59 04.01.2020
4885 Clouds 2 1002 55 10000 8.2 290 17:40 04.01.2020
4886 Clouds 2 1002 55 10000 8.2 290 17:22 04.01.2020
4887 Clouds 2 1001 51 10000 7.2 290 16:54 04.01.2020
4888 Clouds 3 1000 51 10000 8.2 300 16:36 04.01.2020
4889 Clouds 3 1000 51 10000 8.2 300 16:18 04.01.2020
4890 Clouds 3 999 55 10000 5.7 290 15:42 04.01.2020
4891 Clouds 3 999 55 10000 5.7 290 15:42 04.01.2020
4892 Clouds 3 999 59 10000 6.2 280 15:19 04.01.2020
4893 Clouds 3 998 59 10000 6.7 280 14:58 04.01.2020
4894 Clouds 3 998 59 10000 6.7 280 14:58 04.01.2020
4895 Clouds 3 998 59 10000 6.7 280 14:40 04.01.2020
4896 Clouds 3 997 59 10000 7.2 270 14:19 04.01.2020
4897 Clouds 3 997 59 10000 8.2 270 13:56 04.01.2020
4898 Clouds 3 997 59 10000 8.2 270 13:37 04.01.2020
4899 Clouds 3 997 59 10000 8.2 270 13:37 04.01.2020
4900 Clouds 3 996 55 10000 8.7 270 13:18 04.01.2020
4901 Clouds 3 996 51 10000 8.7 270 12:42 04.01.2020
4902 Clouds 2 995 51 10000 9.8 270 12:20 04.01.2020
4903 Clouds 2 996 55 10000 7.7 280 11:59 04.01.2020
4904 Clouds 2 996 55 10000 7.7 280 11:40 04.01.2020
4905 Clouds 2 996 55 10000 7.7 280 11:40 04.01.2020
4906 Clear 2 995 55 10000 7.7 270 11:20 04.01.2020
4907 Clear 2 995 51 10000 7.2 270 10:58 04.01.2020
4908 Clear 2 995 51 10000 7.2 270 10:38 04.01.2020
4909 Clear 2 995 51 10000 8.7 260 10:19 04.01.2020
4910 Clear 2 994 51 10000 7.7 260 09:42 04.01.2020
4911 Clear 1 993 51 10000 8.2 260 09:24 04.01.2020
4912 Clear 2 993 51 10000 10.3 260 08:44 04.01.2020
4913 Clouds 2 993 55 10000 8.7 260 08:25 04.01.2020
4914 Clouds 2 992 55 10000 9.3 260 07:51 04.01.2020
4915 Clouds 2 992 55 10000 9.3 260 07:32 04.01.2020
4916 Clouds 2 992 55 10000 9.3 260 06:39 04.01.2020
4917 Clouds 2 991 55 10000 7.7 260 05:46 04.01.2020
4918 Clear 2 991 55 10000 8.7 260 04:47 04.01.2020
4919 Clear 3 991 55 10000 9.3 260 04:27 04.01.2020
4920 Clear 3 991 64 10000 8.2 240 03:19 04.01.2020
4921 Clear 3 991 69 10000 5.1 230 02:36 04.01.2020
4922 Snow 3 992 69 10000 4.6 230 01:58 04.01.2020
4923 Snow 3 993 69 10000 6.7 230 01:32 04.01.2020
4924 Snow 3 993 74 10000 5.1 230 00:56 04.01.2020
4925 Snow 3 994 69 10000 6.7 240 00:28 04.01.2020
4926 Snow 3 994 69 10000 7.2 230 23:52 03.01.2020
4927 Snow 3 995 69 10000 5.7 230 23:27 03.01.2020
4928 Clouds 4 995 74 10000 6.7 220 22:55 03.01.2020
4929 Clouds 3 995 74 10000 6.7 220 22:37 03.01.2020
4930 Clouds 3 995 74 10000 6.2 210 22:18 03.01.2020
4931 Clouds 4 996 74 10000 6.2 210 21:56 03.01.2020
4932 Clouds 4 996 74 10000 6.2 210 21:37 03.01.2020
4933 Clouds 3 996 69 10000 4.6 210 21:18 03.01.2020
4934 Clouds 3 996 69 10000 4.6 210 20:43 03.01.2020
4935 Clouds 3 996 69 10000 4.6 210 20:43 03.01.2020
4936 Clouds 3 997 59 10000 2.6 210 20:19 03.01.2020
4937 Clouds 3 997 51 10000 3.1 220 19:59 03.01.2020
4938 Clouds 3 997 51 10000 3.1 220 19:41 03.01.2020
4939 Clouds 4 997 48 10000 4.6 250 19:22 03.01.2020
4940 Clouds 4 997 48 10000 6.2 250 18:46 03.01.2020
4941 Clouds 5 997 56 10000 5.1 250 18:26 03.01.2020
4942 Clouds 5 997 48 10000 7.7 260 17:58 03.01.2020
4943 Clouds 5 997 48 10000 7.7 260 17:58 03.01.2020
4944 Clouds 5 997 48 10000 7.7 260 17:39 03.01.2020
4945 Clouds 5 996 56 10000 7.7 260 17:21 03.01.2020
4946 Clouds 6 996 60 10000 9.3 270 16:44 03.01.2020
4947 Clouds 6 996 56 10000 8.7 270 16:24 03.01.2020
4948 Clouds 6 995 55 10000 10.3 260 15:59 03.01.2020
4949 Clouds 7 995 55 10000 10.3 260 15:41 03.01.2020
4950 Clouds 7 994 81 10000 7.2 250 15:19 03.01.2020
4951 Clouds 7 994 75 10000 7.7 250 14:39 03.01.2020
4952 Clouds 7 993 75 10000 8.7 240 14:20 03.01.2020
4953 Clouds 8 993 75 10000 11.3 240 13:57 03.01.2020
4954 Clouds 8 993 75 10000 11.3 240 13:38 03.01.2020
4955 Clouds 8 993 75 10000 7.7 240 13:20 03.01.2020
4956 Clouds 8 993 75 10000 7.7 230 12:41 03.01.2020
4957 Clouds 7 993 75 10000 7.7 230 12:22 03.01.2020
4958 Clouds 7 993 81 10000 7.7 220 11:53 03.01.2020
4959 Clouds 7 993 81 10000 7.7 220 11:34 03.01.2020
4960 Clouds 7 994 75 10000 6.7 220 10:58 03.01.2020
4961 Clouds 6 994 75 10000 6.7 220 10:39 03.01.2020
4962 Clouds 6 995 75 10000 7.7 220 10:21 03.01.2020
4963 Clouds 6 995 75 10000 7.2 220 09:55 03.01.2020
4964 Clouds 6 996 81 10000 7.2 220 09:37 03.01.2020
4965 Clouds 6 996 81 10000 7.2 220 09:19 03.01.2020
4966 Clouds 6 996 81 10000 7.2 220 08:44 03.01.2020
4967 Clouds 5 996 75 10000 7.2 220 08:22 03.01.2020
4968 Clouds 6 996 75 10000 7.2 210 07:43 03.01.2020
4969 Clouds 5 996 75 10000 8.2 220 07:19 03.01.2020
4970 Clouds 6 997 75 10000 6.7 210 06:59 03.01.2020
4971 Clouds 6 997 75 10000 6.7 210 06:40 03.01.2020
4972 Clouds 6 997 75 10000 7.7 220 06:22 03.01.2020
4973 Clouds 6 997 75 10000 7.7 220 06:22 03.01.2020
4974 Clouds 6 997 75 10000 7.7 220 06:22 03.01.2020
4975 Clouds 6 999 75 10000 8.2 220 04:59 03.01.2020
4976 Clouds 7 1001 70 10000 6.7 230 03:38 03.01.2020
4977 Clouds 7 1002 75 10000 6.7 230 02:53 03.01.2020
4978 Clouds 7 1002 70 10000 6.7 230 01:51 03.01.2020
4979 Clouds 7 1003 70 10000 5.1 230 01:31 03.01.2020
4980 Clouds 7 1003 70 10000 6.7 230 00:40 03.01.2020
4981 Clouds 6 1004 70 10000 7.2 230 00:20 03.01.2020
4982 Clouds 6 1004 75 10000 7.2 240 23:39 02.01.2020
4983 Clear 6 1004 75 10000 8.2 230 23:20 02.01.2020
4984 Clear 6 1004 75 10000 7.2 230 22:59 02.01.2020
4985 Clear 6 1004 75 10000 7.2 230 22:41 02.01.2020
4986 Clouds 6 1004 75 10000 7.2 230 22:20 02.01.2020
4987 Clouds 6 1005 75 10000 7.2 230 21:56 02.01.2020
4988 Clouds 6 1005 75 10000 7.2 230 21:38 02.01.2020
4989 Clouds 6 1005 81 10000 7.2 240 21:19 02.01.2020
4990 Clouds 6 1005 81 10000 6.7 240 20:56 02.01.2020
4991 Clouds 6 1005 81 10000 6.7 240 20:37 02.01.2020
4992 Clouds 6 1005 81 10000 8.2 250 20:18 02.01.2020
4993 Clouds 6 1006 75 10000 7.2 240 19:54 02.01.2020
4994 Clouds 6 1006 75 10000 7.2 240 19:36 02.01.2020
4995 Clouds 6 1006 81 10000 7.2 240 19:18 02.01.2020
4996 Clouds 6 1006 81 10000 7.2 250 18:43 02.01.2020
4997 Clouds 6 1006 81 10000 7.7 250 18:24 02.01.2020
4998 Clouds 6 1006 75 10000 8.2 240 17:58 02.01.2020
4999 Clouds 6 1006 75 10000 8.2 240 17:39 02.01.2020
5000 Clear 6 1006 75 10000 7.7 240 17:20 02.01.2020
5001 Clouds 6 1006 75 10000 7.7 240 16:58 02.01.2020
5002 Clouds 6 1006 75 10000 7.7 240 16:58 02.01.2020
5003 Clouds 6 1006 75 10000 7.7 240 16:40 02.01.2020
5004 Clouds 6 1007 75 10000 7.7 250 16:20 02.01.2020
5005 Clear 6 1007 81 10000 6.7 250 15:58 02.01.2020
5006 Clear 6 1007 81 10000 6.2 240 15:40 02.01.2020
5007 Clear 6 1007 81 10000 6.2 240 15:21 02.01.2020
5008 Clear 6 1007 75 10000 6.7 250 14:57 02.01.2020
5009 Clear 7 1007 75 10000 6.2 250 14:36 02.01.2020
5010 Clear 7 1007 75 10000 6.2 250 14:36 02.01.2020
5011 Clouds 7 1007 75 10000 6.2 250 14:18 02.01.2020
5012 Clouds 7 1007 75 10000 8.2 250 13:49 02.01.2020
5013 Clouds 7 1007 75 10000 7.7 250 13:31 02.01.2020
5014 Clouds 7 1007 75 10000 7.7 250 12:46 02.01.2020
5015 Clouds 7 1008 75 10000 8.2 260 12:26 02.01.2020
5016 Clouds 7 1008 75 10000 8.2 260 11:59 02.01.2020
5017 Clouds 7 1008 75 10000 8.2 260 11:40 02.01.2020
5018 Clouds 7 1008 75 10000 9.3 250 11:20 02.01.2020
5019 Clouds 7 1008 75 10000 9.8 250 10:44 02.01.2020
5020 Clouds 7 1008 75 10000 8.2 260 10:26 02.01.2020
5021 Clouds 6 1008 75 10000 8.7 250 09:51 02.01.2020
5022 Clouds 6 1008 81 10000 6.2 250 09:33 02.01.2020
5023 Clouds 6 1008 81 10000 5.7 250 08:47 02.01.2020
5024 Clouds 6 1008 81 10000 4.6 250 08:27 02.01.2020
5025 Clouds 6 1008 81 10000 4.6 240 07:54 02.01.2020
5026 Clouds 6 1009 81 10000 5.7 250 07:30 02.01.2020
5027 Clouds 6 1009 81 10000 4.6 240 06:55 02.01.2020
5028 Clouds 5 1009 81 10000 4.6 240 06:36 02.01.2020
5029 Clouds 6 1010 81 10000 5.1 250 05:35 02.01.2020
5030 Clouds 6 1010 81 10000 5.7 260 04:33 02.01.2020
5031 Clouds 6 1010 87 10000 6.2 260 02:54 02.01.2020
5032 Clouds 6 1010 87 10000 6.2 270 01:59 02.01.2020
5033 Clouds 6 1010 87 10000 6.2 270 01:39 02.01.2020
5034 Clouds 6 1010 81 10000 8.7 260 00:59 02.01.2020
5035 Clouds 6 1010 81 10000 8.2 260 00:34 02.01.2020
5036 Clouds 6 1010 81 10000 7.7 260 23:56 01.01.2020
5037 Clouds 6 1010 81 10000 7.7 260 23:37 01.01.2020
5038 Clouds 6 1010 75 10000 8.2 260 23:18 01.01.2020
5039 Clouds 5 1011 75 10000 7.7 250 22:38 01.01.2020
5040 Clouds 5 1011 75 10000 7.7 260 22:19 01.01.2020
5041 Clouds 6 1010 75 10000 8.2 250 21:56 01.01.2020
5042 Clouds 6 1010 75 10000 8.2 250 21:38 01.01.2020
5043 Clouds 6 1010 75 10000 8.2 250 21:19 01.01.2020
5044 Clouds 6 1010 75 10000 8.2 250 21:19 01.01.2020
5045 Clouds 5 1010 75 10000 9.3 250 20:55 01.01.2020
5046 Clouds 5 1010 75 10000 9.3 250 20:37 01.01.2020
5047 Clouds 5 1011 75 10000 7.2 250 20:19 01.01.2020
5048 Clouds 5 1011 75 10000 7.2 250 20:19 01.01.2020
5049 Clouds 5 1011 80 10000 5.7 250 19:55 01.01.2020
5050 Clouds 5 1011 80 10000 5.7 250 19:37 01.01.2020
5051 Clouds 5 1011 75 10000 5.1 240 19:19 01.01.2020
5052 Clouds 5 1012 75 10000 5.1 240 18:55 01.01.2020
5053 Clouds 5 1012 75 10000 5.1 240 18:36 01.01.2020
5054 Clouds 5 1012 75 10000 4.6 240 18:18 01.01.2020
5055 Clouds 5 1012 75 10000 4.1 250 17:56 01.01.2020
5056 Clouds 5 1012 75 10000 4.1 250 17:56 01.01.2020
5057 Clouds 5 1012 75 10000 4.1 250 17:37 01.01.2020
5058 Clouds 5 1013 75 10000 4.6 250 17:18 01.01.2020
5059 Clouds 5 1013 75 10000 4.1 260 16:40 01.01.2020
5060 Clouds 5 1013 75 10000 4.1 260 16:40 01.01.2020
5061 Clouds 5 1012 75 10000 5.1 250 16:21 01.01.2020
5062 Clouds 4 1012 75 10000 6.7 250 15:57 01.01.2020
5063 Clouds 4 1012 75 10000 6.7 250 15:39 01.01.2020
5064 Clouds 4 1012 75 10000 6.7 260 15:20 01.01.2020
5065 Clouds 4 1012 75 10000 7.2 260 14:58 01.01.2020
5066 Clouds 4 1012 75 10000 7.2 260 14:58 01.01.2020
5067 Clouds 4 1012 75 10000 7.2 260 14:40 01.01.2020
5068 Clouds 4 1012 75 10000 7.2 260 14:21 01.01.2020
5069 Clouds 4 1012 75 10000 7.2 260 14:21 01.01.2020
5070 Clouds 4 1012 75 10000 6.7 260 13:56 01.01.2020
5071 Clouds 4 1012 75 10000 6.7 260 13:37 01.01.2020
5072 Clouds 4 1012 75 10000 7.2 260 13:37 01.01.2020
5073 Clouds 4 1012 75 10000 6.7 260 13:37 01.01.2020
5074 Clouds 4 1012 75 10000 7.2 260 13:18 01.01.2020
5075 Clouds 5 1012 80 10000 6.7 260 12:55 01.01.2020
5076 Clouds 4 1012 80 10000 6.7 260 12:37 01.01.2020
5077 Clouds 4 1013 80 10000 5.1 260 12:18 01.01.2020
5078 Clouds 4 1013 80 10000 4.6 260 11:43 01.01.2020
5079 Clouds 4 1013 80 10000 4.1 250 11:22 01.01.2020
5080 Clouds 4 1013 80 10000 3.6 250 10:59 01.01.2020
5081 Clouds 4 1013 80 10000 3.6 250 10:40 01.01.2020
5082 Clouds 3 1013 84 10000 5.7 250 10:20 01.01.2020
5083 Clouds 3 1013 84 10000 5.1 240 09:56 01.01.2020
5084 Clouds 3 1013 84 10000 5.1 240 09:37 01.01.2020
5085 Clouds 3 1013 74 10000 5.7 240 09:18 01.01.2020
5086 Clouds 3 1013 69 10000 5.1 230 08:55 01.01.2020
5087 Clouds 2 1014 74 10000 4.6 240 08:36 01.01.2020
5088 Clouds 2 1014 74 10000 4.6 240 08:36 01.01.2020
5089 Clouds 2 1014 74 10000 4.6 240 08:18 01.01.2020
5090 Clouds 2 1014 74 10000 3.6 230 07:48 01.01.2020
5091 Clouds 2 1014 74 10000 3.6 240 07:30 01.01.2020
5092 Clouds 2 1014 74 10000 4.1 250 06:44 01.01.2020
5093 Clouds 2 1015 74 10000 4.6 240 06:20 01.01.2020
5094 Clouds 2 1016 69 10000 3.1 230 05:21 01.01.2020
5095 Clouds 2 1017 64 10000 3.6 250 03:43 01.01.2020
5096 Clouds 2 1017 64 10000 4.1 240 03:22 01.01.2020
5097 Clouds 2 1017 64 10000 3.1 250 02:56 01.01.2020
5098 Clouds 2 1018 64 10000 2.6 260 02:33 01.01.2020
5099 Clouds 2 1018 59 10000 3.1 250 01:45 01.01.2020
5100 Clouds 2 1018 64 10000 3.1 260 01:25 01.01.2020
5101 Clouds 2 1019 64 10000 4.1 270 00:57 01.01.2020
5102 Clouds 2 1019 64 10000 4.1 270 00:38 01.01.2020
5103 Clouds 2 1018 64 10000 3.1 240 00:20 01.01.2020
5104 Clouds 2 1019 64 10000 4.1 260 23:40 31.12.2019
5105 Clear 2 1019 64 10000 3.6 260 23:21 31.12.2019
5106 Clear 2 1019 64 10000 3.1 260 22:57 31.12.2019
5107 Clear 2 1019 64 10000 3.1 260 22:38 31.12.2019
5108 Clear 2 1020 64 10000 4.1 270 22:18 31.12.2019
5109 Clear 2 1020 64 10000 5.1 270 21:54 31.12.2019
5110 Clear 2 1020 64 10000 5.1 270 21:36 31.12.2019
5111 Clear 2 1020 64 10000 4.6 270 21:18 31.12.2019
5112 Clear 2 1020 59 10000 5.7 280 20:40 31.12.2019
5113 Clear 2 1020 59 10000 5.7 280 20:22 31.12.2019
5114 Clear 2 1019 64 10000 6.2 280 19:59 31.12.2019
5115 Clear 2 1019 64 10000 6.2 280 19:40 31.12.2019
5116 Clear 2 1019 59 10000 5.7 280 19:22 31.12.2019
5117 Clear 2 1019 59 10000 5.7 280 19:22 31.12.2019
5118 Clear 2 1019 59 10000 6.7 280 18:58 31.12.2019
5119 Clear 2 1018 64 10000 6.7 280 18:40 31.12.2019
5120 Clear 3 1018 64 10000 6.7 280 18:20 31.12.2019
5121 Clear 3 1018 64 10000 6.7 280 17:56 31.12.2019
5122 Clear 3 1018 64 10000 6.7 280 17:38 31.12.2019
5123 Clouds 3 1018 64 10000 6.7 290 17:19 31.12.2019
5124 Clouds 3 1017 59 10000 5.1 290 16:57 31.12.2019
5125 Clouds 3 1017 59 10000 5.1 290 16:38 31.12.2019
5126 Clouds 3 1016 59 10000 5.1 290 16:19 31.12.2019
5127 Clouds 3 1016 55 10000 4.6 290 15:56 31.12.2019
5128 Clouds 4 1016 55 10000 4.6 290 15:38 31.12.2019
5129 Clouds 4 1015 55 10000 6.7 290 15:20 31.12.2019
5130 Clouds 4 1014 60 10000 5.1 300 14:57 31.12.2019
5131 Clouds 4 1014 60 10000 5.1 300 14:38 31.12.2019
5132 Clear 4 1013 60 10000 6.7 300 14:19 31.12.2019
5133 Clear 4 1013 56 10000 7.2 300 13:57 31.12.2019
5134 Clear 4 1013 56 10000 7.2 300 13:57 31.12.2019
5135 Clear 5 1013 56 10000 7.2 300 13:39 31.12.2019
5136 Clouds 5 1012 60 10000 6.7 300 13:21 31.12.2019
5137 Clouds 5 1011 60 10000 6.7 310 12:58 31.12.2019
5138 Clouds 5 1011 60 10000 6.7 310 12:39 31.12.2019
5139 Clouds 5 1011 60 10000 7.7 310 12:20 31.12.2019
5140 Clouds 5 1010 60 10000 5.7 300 11:56 31.12.2019
5141 Clouds 5 1009 60 10000 7.2 300 11:38 31.12.2019
5142 Clouds 5 1009 60 10000 7.2 300 11:20 31.12.2019
5143 Clouds 5 1009 65 10000 5.7 300 10:57 31.12.2019
5144 Clouds 5 1009 65 10000 5.7 300 10:57 31.12.2019
5145 Clouds 5 1009 65 10000 5.7 300 10:38 31.12.2019
5146 Clouds 5 1009 65 10000 5.7 300 10:38 31.12.2019
5147 Clouds 5 1008 65 10000 6.2 300 10:20 31.12.2019
5148 Clouds 5 1007 60 10000 7.2 310 09:58 31.12.2019
5149 Clouds 5 1006 65 10000 5.1 310 09:39 31.12.2019
5150 Clouds 5 1007 60 10000 7.2 310 09:39 31.12.2019
5151 Clouds 5 1006 65 10000 5.1 310 09:20 31.12.2019
5152 Clouds 5 1005 65 10000 5.7 300 08:57 31.12.2019
5153 Clouds 5 1005 65 10000 5.7 300 08:37 31.12.2019
5154 Clear 5 1004 65 10000 5.1 300 08:19 31.12.2019
5155 Clear 5 1003 69 10000 6.2 290 07:42 31.12.2019
5156 Clear 5 1002 65 10000 7.7 290 07:20 31.12.2019
5157 Clear 5 1002 66 10000 8.2 290 06:49 31.12.2019
5158 Clear 4 1001 66 10000 7.2 280 05:57 31.12.2019
5159 Clear 4 1000 75 10000 7.2 270 04:28 31.12.2019
5160 Clear 5 1000 75 10000 5.7 280 03:27 31.12.2019
5161 Clear 5 1000 75 10000 6.7 260 02:54 31.12.2019
5162 Clouds 5 1000 70 10000 5.7 270 01:55 31.12.2019
5163 Clear 6 1000 70 10000 5.7 270 01:35 31.12.2019
5164 Clear 6 1000 75 10000 5.7 270 00:59 31.12.2019
5165 Clear 6 1000 75 10000 5.7 270 00:41 31.12.2019
5166 Clear 6 1000 70 10000 6.7 260 00:21 31.12.2019
5167 Clear 6 1000 75 10000 6.2 270 23:56 30.12.2019
5168 Clear 6 1000 75 10000 6.7 270 23:38 30.12.2019
5169 Clouds 7 1000 75 10000 6.7 270 23:19 30.12.2019
5170 Clouds 7 1000 81 10000 6.2 270 22:57 30.12.2019
5171 Clouds 7 1000 81 10000 6.2 270 22:57 30.12.2019
5172 Clouds 7 1000 81 10000 6.2 270 22:37 30.12.2019
5173 Clouds 7 999 81 10000 7.2 260 22:19 30.12.2019
5174 Clouds 7 999 81 10000 7.2 260 21:56 30.12.2019
5175 Clouds 7 999 81 10000 7.2 260 21:38 30.12.2019
5176 Clouds 7 999 81 10000 6.2 260 21:18 30.12.2019
5177 Clouds 7 999 81 10000 6.2 260 21:18 30.12.2019
5178 Clouds 8 999 81 10000 7.7 260 20:56 30.12.2019
5179 Clouds 8 999 81 10000 8.2 260 20:38 30.12.2019
5180 Clouds 8 999 81 10000 8.2 260 20:19 30.12.2019
5181 Clouds 8 999 81 10000 8.7 260 19:57 30.12.2019
5182 Clouds 8 999 81 10000 8.7 260 19:37 30.12.2019
5183 Clouds 8 1000 81 10000 7.2 260 19:37 30.12.2019
5184 Clouds 8 1000 81 10000 7.2 260 19:19 30.12.2019
5185 Clouds 8 1000 81 10000 7.2 260 19:19 30.12.2019
5186 Clouds 9 1000 81 10000 7.7 260 18:56 30.12.2019
5187 Clouds 9 1000 81 10000 5.7 250 18:37 30.12.2019
5188 Clouds 9 1000 81 10000 5.7 250 18:19 30.12.2019
5189 Clouds 9 1000 81 10000 6.2 250 17:55 30.12.2019
5190 Clouds 9 1000 81 10000 6.2 250 17:36 30.12.2019
5191 Clouds 9 1000 81 10000 6.7 260 17:18 30.12.2019
5192 Clouds 9 1000 81 10000 7.7 260 16:55 30.12.2019
5193 Clouds 9 1000 81 10000 7.7 260 16:36 30.12.2019
5194 Clouds 9 1000 87 10000 8.2 250 16:18 30.12.2019
5195 Clouds 9 1000 87 10000 6.7 260 15:54 30.12.2019
5196 Clouds 9 1001 87 10000 6.7 260 15:36 30.12.2019
5197 Clouds 9 1001 87 10000 6.7 260 15:18 30.12.2019
5198 Clouds 9 1001 87 10000 8.2 260 14:42 30.12.2019
5199 Clouds 10 1001 81 10000 9.3 260 14:19 30.12.2019
5200 Clouds 10 1001 87 10000 7.2 260 13:55 30.12.2019
5201 Clouds 9 1001 87 10000 7.2 260 13:37 30.12.2019
5202 Clouds 9 1001 87 10000 7.2 260 13:18 30.12.2019
5203 Clouds 9 1001 87 10000 8.7 260 12:42 30.12.2019
5204 Clouds 9 1002 87 10000 7.7 260 12:20 30.12.2019
5205 Clouds 9 1002 87 10000 10.3 250 11:58 30.12.2019
5206 Clouds 9 1002 87 10000 10.3 250 11:40 30.12.2019
5207 Clouds 9 1002 87 10000 7.7 250 11:19 30.12.2019
5208 Clouds 9 1002 87 10000 7.7 250 10:44 30.12.2019
5209 Clouds 9 1003 87 10000 7.7 250 10:21 30.12.2019
5210 Clouds 9 1003 93 10000 8.2 250 09:58 30.12.2019
5211 Clouds 8 1003 93 10000 8.2 250 09:39 30.12.2019
5212 Clouds 8 1003 93 10000 8.2 260 09:19 30.12.2019
5213 Clouds 8 1003 93 10000 8.7 260 08:50 30.12.2019
5214 Clouds 8 1003 93 10000 8.7 260 08:50 30.12.2019
5215 Clouds 8 1004 87 10000 7.7 260 08:23 30.12.2019
5216 Clouds 8 1004 87 10000 9.3 250 07:56 30.12.2019
5217 Clouds 8 1004 87 10000 9.3 250 07:37 30.12.2019
5218 Clouds 8 1005 87 10000 8.2 240 06:52 30.12.2019
5219 Clouds 7 1006 87 10000 7.2 250 04:57 30.12.2019
5220 Clouds 7 1007 87 10000 6.7 240 03:57 30.12.2019
5221 Clouds 7 1008 87 10000 8.2 240 02:58 30.12.2019
5222 Clouds 7 1008 87 10000 8.2 240 02:40 30.12.2019
5223 Clouds 7 1009 87 10000 8.2 240 01:50 30.12.2019
5224 Clouds 7 1010 87 10000 6.7 250 01:21 30.12.2019
5225 Clouds 7 1010 87 10000 6.2 240 00:45 30.12.2019
5226 Clouds 7 1011 81 10000 7.7 240 00:19 30.12.2019
5227 Clouds 7 1011 81 10000 8.2 250 23:39 29.12.2019
5228 Clouds 7 1011 81 10000 7.2 250 23:21 29.12.2019
5229 Clouds 6 1011 87 10000 5.7 240 22:55 29.12.2019
5230 Clouds 6 1011 87 10000 5.7 240 22:37 29.12.2019
5231 Clouds 6 1012 87 10000 6.7 240 22:18 29.12.2019
5232 Clouds 6 1012 87 10000 5.7 230 21:43 29.12.2019
5233 Clouds 6 1013 87 10000 4.6 230 21:21 29.12.2019
5234 Clouds 6 1013 87 10000 6.7 240 20:57 29.12.2019
5235 Clouds 6 1013 87 10000 6.7 240 20:39 29.12.2019
5236 Clouds 6 1013 87 10000 5.1 230 20:21 29.12.2019
5237 Clouds 6 1014 87 10000 7.2 240 19:59 29.12.2019
5238 Clouds 6 1014 87 10000 7.2 240 19:40 29.12.2019
5239 Clouds 5 1014 87 10000 6.7 240 19:21 29.12.2019
5240 Clouds 6 1014 87 10000 5.7 220 18:58 29.12.2019
5241 Clouds 6 1014 87 10000 5.7 220 18:39 29.12.2019
5242 Clouds 6 1015 87 10000 5.7 230 18:20 29.12.2019
5243 Clouds 5 1016 93 10000 4.6 220 17:58 29.12.2019
5244 Clouds 5 1016 93 10000 4.6 220 17:39 29.12.2019
5245 Clouds 5 1017 93 10000 5.7 230 17:20 29.12.2019
5246 Clouds 5 1017 93 10000 5.7 220 16:57 29.12.2019
5247 -273 0 0 0 0 0 16:38 29.12.2019
5248 Clouds 4 1017 93 10000 5.7 220 16:38 29.12.2019
5249 Clouds 4 1018 100 8000 5.1 220 16:20 29.12.2019
5250 Mist 4 1018 93 7000 6.2 220 15:58 29.12.2019
5251 Clouds 3 1018 93 8000 6.2 220 15:39 29.12.2019
5252 Clouds 3 1018 93 8000 6.2 220 15:20 29.12.2019
5253 Clouds 3 1019 93 8000 6.7 220 14:58 29.12.2019
5254 Clouds 3 1019 93 8000 6.7 220 14:38 29.12.2019
5255 Mist 3 1019 100 7000 5.7 220 14:18 29.12.2019
5256 Drizzle 3 1019 100 7000 6.7 220 13:57 29.12.2019
5257 Drizzle 3 1019 100 7000 6.7 220 13:38 29.12.2019
5258 Clouds 2 1020 93 10000 6.2 210 13:20 29.12.2019
5259 Rain 2 1020 93 10000 5.7 210 12:45 29.12.2019
5260 Rain 2 1021 93 10000 5.1 210 12:27 29.12.2019
5261 Clouds 2 1021 93 10000 5.1 210 12:27 29.12.2019
5262 Clouds 2 1022 86 10000 5.1 210 11:59 29.12.2019
5263 Clouds 2 1022 86 10000 5.1 210 11:40 29.12.2019
5264 Clouds 2 1023 82 10000 5.7 210 11:20 29.12.2019
5265 Clouds 2 1023 82 10000 5.7 210 10:55 29.12.2019
5266 Clouds 1 1023 82 10000 5.1 210 10:37 29.12.2019
5267 Clouds 1 1023 82 10000 5.1 210 10:18 29.12.2019
5268 Clouds 1 1023 82 10000 5.1 210 10:18 29.12.2019
5269 Clouds 1 1024 86 10000 5.1 210 09:43 29.12.2019
5270 Clouds 1 1025 86 10000 4.6 200 09:25 29.12.2019
5271 Clouds 1 1025 82 10000 5.1 210 08:50 29.12.2019
5272 Clouds 1 1025 81 10000 6.2 210 08:29 29.12.2019
5273 Clouds 1 1026 76 10000 5.7 210 07:58 29.12.2019
5274 Clouds 1 1026 76 10000 5.7 210 07:31 29.12.2019
5275 Clouds 1 1027 76 10000 5.7 210 06:57 29.12.2019
5276 Clouds 1 1027 76 10000 5.7 210 06:27 29.12.2019
5277 Clouds 1 1028 76 10000 4.6 220 05:54 29.12.2019
5278 Clouds 0 1029 78 10000 5.1 210 04:47 29.12.2019
5279 Clouds 0 1029 78 10000 4.6 220 04:28 29.12.2019
5280 Clouds 0 1030 78 10000 5.1 210 03:28 29.12.2019
5281 Clouds 0 1031 72 10000 4.1 200 02:22 29.12.2019
5282 Clouds 0 1031 72 10000 4.1 200 02:22 29.12.2019
5283 Clouds 0 1032 100 10000 3.1 200 01:42 29.12.2019
5284 Snow 0 1032 100 10000 3.6 200 01:23 29.12.2019
5285 Snow -1 1033 100 10000 3.6 200 00:44 29.12.2019
5286 Snow -1 1033 100 10000 3.6 200 00:24 29.12.2019
5287 Snow -1 1034 92 10000 3.6 190 23:45 28.12.2019
5288 Snow -1 1034 100 10000 3.1 190 23:19 28.12.2019
5289 Snow -2 1034 100 10000 3.1 190 23:19 28.12.2019
5290 Snow -2 1035 100 5000 3.6 190 22:54 28.12.2019
5291 Snow -2 1035 100 2000 3.6 190 22:36 28.12.2019
5292 Snow -2 1035 100 2000 3.6 190 22:18 28.12.2019
5293 Snow -2 1036 92 1300 3.1 200 21:55 28.12.2019
5294 Snow -2 1036 92 1300 3.1 200 21:36 28.12.2019
5295 Snow -2 1036 92 10000 4.6 220 21:18 28.12.2019
5296 Snow -2 1036 86 10000 4.1 220 20:40 28.12.2019
5297 Clouds -2 1036 86 10000 4.1 210 20:22 28.12.2019
5298 Clouds -2 1037 86 10000 3.1 230 19:59 28.12.2019
5299 Clouds -2 1037 86 10000 3.1 230 19:40 28.12.2019
5300 Clouds -2 1037 86 10000 3.6 220 19:22 28.12.2019
5301 Clouds -2 1037 86 10000 2.6 200 18:59 28.12.2019
5302 Clouds -2 1037 86 10000 2.6 200 18:40 28.12.2019
5303 Clouds -2 1037 86 10000 2.6 200 18:19 28.12.2019
5304 Clouds -2 1038 86 10000 2.1 220 17:56 28.12.2019
5305 Clouds -2 1038 86 10000 2.1 220 17:38 28.12.2019
5306 Clouds -2 1038 92 10000 2.1 210 17:19 28.12.2019
5307 Clouds -3 1039 92 10000 2.1 210 16:46 28.12.2019
5308 Clouds -3 1039 92 10000 1.5 210 16:26 28.12.2019
5309 Clouds -3 1039 92 10000 1.5 210 16:26 28.12.2019
5310 Clouds -3 1039 92 10000 1.5 210 16:26 28.12.2019
5311 Clouds -3 1039 92 10000 1.5 220 15:49 28.12.2019
5312 Clouds -2 1039 92 10000 1.5 220 15:25 28.12.2019
5313 Clouds -2 1039 92 10000 1.5 240 15:00 28.12.2019
5314 Clouds -2 1039 92 10000 1.5 240 14:40 28.12.2019
5315 Clouds -2 1039 92 10000 1.5 240 14:40 28.12.2019
5316 Clouds -2 1040 92 10000 2.1 240 14:21 28.12.2019
5317 Clouds -2 1040 100 10000 2.1 240 13:57 28.12.2019
5318 Clouds -2 1040 100 10000 1.81 236 13:38 28.12.2019
5319 Clouds -2 1040 100 10000 1.81 236 13:19 28.12.2019
5320 Clouds -2 1040 92 10000 1.81 236 12:43 28.12.2019
5321 Clouds -2 1040 92 10000 0.5 0 12:24 28.12.2019
5322 Clouds -3 1040 100 10000 1.81 236 11:57 28.12.2019
5323 Clouds -3 1040 100 10000 1.81 236 11:38 28.12.2019
5324 Clouds -3 1041 100 10000 0.92 305 11:20 28.12.2019
5325 Clouds -3 1041 100 10000 0.92 305 10:44 28.12.2019
5326 Clouds -4 1041 100 10000 0.92 305 10:22 28.12.2019
5327 Clouds -4 1041 100 10000 0.92 305 10:22 28.12.2019
5328 Clouds -4 1040 100 10000 0.92 305 09:58 28.12.2019
5329 Clouds -4 1040 100 10000 0.92 305 09:40 28.12.2019
5330 Clouds -4 1041 100 10000 2.6 280 09:20 28.12.2019
5331 Clouds -5 1040 92 10000 1 260 08:44 28.12.2019
5332 Clouds -5 1040 100 10000 0.92 305 08:26 28.12.2019
5333 Clear -4 1040 100 10000 1 260 07:55 28.12.2019
5334 Clear -4 1040 100 10000 1 260 07:32 28.12.2019
5335 Clear -4 1040 100 10000 1.5 300 06:41 28.12.2019
5336 Clear -3 1040 92 10000 2.6 310 04:59 28.12.2019
5337 Clear -3 1040 100 10000 1.5 330 03:47 28.12.2019
5338 Clear -2 1040 92 10000 2.6 310 02:49 28.12.2019
5339 Clouds -2 1039 92 10000 2.6 310 01:59 28.12.2019
5340 Clouds -2 1039 92 10000 2.6 310 01:31 28.12.2019
5341 Clouds -2 1039 86 10000 2.6 310 00:58 28.12.2019
5342 Clouds -2 1038 86 10000 2.6 320 00:40 28.12.2019
5343 Clouds -2 1038 86 10000 2.6 320 00:20 28.12.2019
5344 Clouds -2 1038 86 10000 3.1 320 23:44 27.12.2019
5345 Clouds -2 1038 86 10000 2.6 310 23:20 27.12.2019
5346 Clouds -2 1038 86 10000 2.6 310 22:58 27.12.2019
5347 Clouds -2 1038 86 10000 2.6 310 22:39 27.12.2019
5348 Clouds -2 1038 86 10000 2.6 320 22:20 27.12.2019
5349 Clouds -2 1038 86 10000 3.1 320 21:56 27.12.2019
5350 Clouds -2 1038 86 10000 3.1 320 21:37 27.12.2019
5351 Clouds -2 1037 86 10000 3.6 310 21:19 27.12.2019
5352 Clouds -2 1037 86 10000 3.1 310 20:42 27.12.2019
5353 Clouds -2 1036 86 10000 2.6 330 20:23 27.12.2019
5354 Clouds -2 1036 79 10000 3.1 330 19:43 27.12.2019
5355 Clouds -2 1036 79 10000 3.1 330 19:21 27.12.2019
5356 Clouds -2 1035 79 10000 3.1 330 18:59 27.12.2019
5357 Clouds -2 1035 79 10000 3.1 330 18:40 27.12.2019
5358 Clouds -1 1035 74 10000 4.1 340 18:21 27.12.2019
5359 Clouds -1 1035 74 10000 4.1 340 17:58 27.12.2019
5360 Clouds -1 1035 74 10000 4.1 340 17:40 27.12.2019
5361 Clouds -1 1034 74 10000 4.1 350 17:19 27.12.2019
5362 Clouds -1 1034 74 10000 3.6 360 16:58 27.12.2019
5363 Clouds -1 1034 74 10000 3.6 360 16:38 27.12.2019
5364 Clouds -1 1034 75 10000 5.1 360 16:19 27.12.2019
5365 Clouds 0 1033 75 10000 5.1 360 15:45 27.12.2019
5366 Clouds -1 1033 74 10000 5.7 350 15:23 27.12.2019
5367 Clouds -1 1032 80 10000 5.1 350 14:58 27.12.2019
5368 Clouds -1 1032 80 10000 5.1 350 14:40 27.12.2019
5369 Clouds -1 1032 80 10000 5.1 360 14:21 27.12.2019
5370 Clouds -1 1032 71 10000 5.7 350 13:57 27.12.2019
5371 Clouds -1 1032 71 10000 5.7 350 13:38 27.12.2019
5372 Clouds -1 1032 71 10000 5.7 350 13:38 27.12.2019
5373 Clouds -1 1031 80 10000 4.6 340 13:20 27.12.2019
5374 Clouds -1 1031 86 10000 4.1 320 12:42 27.12.2019
5375 Clouds -1 1031 86 10000 4.1 330 12:23 27.12.2019
5376 Clouds -1 1030 92 10000 4.1 320 11:46 27.12.2019
5377 Clouds -1 1030 92 10000 4.1 320 11:27 27.12.2019
5378 Clouds -1 1030 92 8000 4.1 330 10:59 27.12.2019
5379 Clouds -1 1030 92 8000 4.1 330 10:41 27.12.2019
5380 Snow -2 1030 100 4500 5.7 320 10:23 27.12.2019
5381 Clouds -1 1029 92 3500 5.7 320 09:49 27.12.2019
5382 Clouds -1 1028 86 10000 5.7 320 09:22 27.12.2019
5383 Clouds -1 1028 86 10000 4.6 320 08:59 27.12.2019
5384 Clouds -1 1028 92 10000 5.1 340 08:38 27.12.2019
5385 Clouds -1 1027 100 9000 5.1 330 07:57 27.12.2019
5386 Clouds 0 1027 100 9000 5.1 330 07:38 27.12.2019
5387 Clouds -1 1027 92 10000 5.7 320 06:39 27.12.2019
5388 Snow 0 1026 92 10000 5.1 320 06:18 27.12.2019
5389 Clouds 0 1025 86 10000 5.1 330 04:20 27.12.2019
5390 Clouds 0 1024 86 10000 4.6 320 02:27 27.12.2019
5391 Snow 0 1024 91 10000 5.7 330 01:42 27.12.2019
5392 Snow 0 1024 89 10000 4.1 320 01:20 27.12.2019
5393 Snow 0 1023 89 10000 4.1 320 00:46 27.12.2019
5394 Snow 0 1023 89 10000 4.1 330 00:25 27.12.2019
5395 Snow 0 1023 89 10000 4.1 330 00:25 27.12.2019
5396 Snow 0 1023 89 10000 3.6 320 23:44 26.12.2019
5397 Clouds 0 1023 85 10000 3.6 330 23:24 26.12.2019
5398 Clouds 0 1023 85 10000 4.1 320 22:58 26.12.2019
5399 Clouds 0 1023 85 10000 4.1 320 22:38 26.12.2019
5400 Clouds 0 1022 85 6000 4.6 310 22:18 26.12.2019
5401 Clouds 0 1022 85 10000 4.1 310 21:39 26.12.2019
5402 Clouds 0 1022 85 9000 3.6 310 21:21 26.12.2019
5403 Clouds 0 1022 85 10000 4.1 310 20:57 26.12.2019
5404 Clouds 0 1022 85 10000 4.1 310 20:38 26.12.2019
5405 Clouds 0 1021 87 10000 3.6 310 20:19 26.12.2019
5406 Clouds 0 1021 87 10000 3.6 330 19:54 26.12.2019
5407 Clouds 0 1021 87 10000 3.1 340 19:36 26.12.2019
5408 -273 0 0 0 0 0 19:18 26.12.2019
5409 Clouds 0 1021 87 10000 3.1 330 18:55 26.12.2019
5410 Clouds 0 1021 87 10000 3.1 330 18:36 26.12.2019
5411 Clouds 0 1021 87 10000 3.1 320 18:18 26.12.2019
5412 Clouds 0 1021 87 10000 3.1 320 17:41 26.12.2019
5413 Clouds 0 1020 86 10000 2.6 330 17:21 26.12.2019
5414 Clouds 0 1020 86 10000 2.6 330 17:21 26.12.2019
5415 Clouds 0 1020 86 10000 2.6 330 16:49 26.12.2019
5416 Clouds 0 1020 86 10000 3.1 320 16:26 26.12.2019
5417 Clouds 0 1020 86 10000 2.6 310 15:57 26.12.2019
5418 Clouds 0 1020 86 10000 2.6 310 15:38 26.12.2019
5419 Clouds 0 1020 86 10000 3.1 310 15:19 26.12.2019
5420 Clouds 0 1020 86 10000 3.1 350 14:41 26.12.2019
5421 Clouds 0 1019 85 10000 3.6 330 14:23 26.12.2019
5422 Clouds 0 1019 85 10000 2.6 340 13:55 26.12.2019
5423 Clouds 0 1019 85 10000 2.6 340 13:36 26.12.2019
5424 Clouds 1 1019 85 10000 3.1 350 13:18 26.12.2019
5425 Clouds 1 1019 85 10000 3.1 340 12:44 26.12.2019
5426 Clouds 1 1019 85 10000 3.6 350 12:24 26.12.2019
5427 Clouds 1 1019 85 10000 3.1 350 11:59 26.12.2019
5428 Clouds 1 1019 85 10000 3.1 350 11:40 26.12.2019
5429 Clouds 1 1019 90 10000 3.1 340 11:21 26.12.2019
5430 Clouds 1 1018 90 10000 3.6 350 10:50 26.12.2019
5431 Clouds 1 1018 90 10000 2.1 360 10:26 26.12.2019
5432 Clouds 1 1018 90 10000 2.1 360 09:55 26.12.2019
5433 Clouds 1 1018 90 10000 2.1 360 09:36 26.12.2019
5434 Clouds 1 1018 90 10000 2.6 350 09:18 26.12.2019
5435 Clouds 1 1017 90 10000 2.1 360 08:39 26.12.2019
5436 Clouds 1 1017 100 10000 3.1 340 08:21 26.12.2019
5437 Clouds 1 1017 100 10000 2.6 340 07:44 26.12.2019
5438 Drizzle 1 1017 100 8000 2.6 340 07:24 26.12.2019
5439 Clouds 1 1017 100 6000 2.6 340 06:39 26.12.2019
5440 Clouds 1 1017 100 6000 2.1 330 06:20 26.12.2019
5441 Snow 1 1016 100 10000 2.6 320 05:43 26.12.2019
5442 Clouds 1 1016 96 10000 2.1 330 04:36 26.12.2019
5443 Clouds 1 1016 96 10000 2.6 350 03:32 26.12.2019
5444 Clouds 1 1015 96 10000 2.6 340 02:47 26.12.2019
5445 Clouds 1 1015 96 10000 1.5 20 02:29 26.12.2019
5446 Clouds 1 1015 96 10000 2.6 20 01:44 26.12.2019
5447 Clouds 1 1015 100 10000 2.6 20 01:25 26.12.2019
5448 Clouds 1 1015 93 10000 2.1 360 00:44 26.12.2019
5449 Clouds 1 1015 93 10000 2.1 20 00:23 26.12.2019
5450 Clouds 1 1015 93 10000 2.1 10 23:58 25.12.2019
5451 Clouds 1 1015 93 10000 2.1 10 23:37 25.12.2019
5452 Clouds 2 1014 100 10000 2.6 20 23:19 25.12.2019
5453 Clouds 2 1014 100 10000 2.6 20 23:19 25.12.2019
5454 Clouds 2 1014 100 10000 2.1 30 22:57 25.12.2019
5455 Clouds 2 1014 100 10000 2.1 30 22:37 25.12.2019
5456 Clouds 2 1014 100 10000 2.1 10 22:19 25.12.2019
5457 Clouds 2 1014 100 10000 1.5 20 21:55 25.12.2019
5458 Clouds 2 1014 100 10000 1.5 20 21:37 25.12.2019
5459 Clouds 2 1013 93 10000 1.5 20 21:19 25.12.2019
5460 Mist 2 1013 93 4300 2.1 10 20:40 25.12.2019
5461 Mist 2 1013 100 3600 2.1 20 20:21 25.12.2019
5462 Mist 3 1013 100 6000 2.1 10 19:59 25.12.2019
5463 Mist 3 1013 100 6000 2.1 10 19:41 25.12.2019
5464 Clouds 3 1013 100 10000 1.5 30 19:21 25.12.2019
5465 Mist 3 1012 100 4400 2.1 20 18:40 25.12.2019
5466 Clouds 3 1012 100 8000 1.5 0 18:21 25.12.2019
5467 Clouds 3 1012 100 10000 1.5 350 17:58 25.12.2019
5468 Clouds 3 1012 100 10000 1.5 350 17:39 25.12.2019
5469 Clouds 3 1012 100 8000 1.5 360 17:18 25.12.2019
5470 Clouds 3 1012 100 10000 1.5 340 16:55 25.12.2019
5471 Clouds 3 1012 100 10000 1.5 340 16:36 25.12.2019
5472 Drizzle 3 1011 100 10000 1.5 20 16:18 25.12.2019
5473 Clouds 3 1011 100 8000 1.5 340 15:55 25.12.2019
5474 Clouds 3 1011 100 8000 1.5 340 15:36 25.12.2019
5475 Clouds 3 1011 100 10000 1.5 340 15:18 25.12.2019
5476 Clouds 3 1011 100 10000 1.5 350 14:42 25.12.2019
5477 Mist 3 1010 100 4000 0.5 10 14:23 25.12.2019
5478 Mist 3 1010 100 1800 1 0 13:58 25.12.2019
5479 Mist 4 1010 100 1800 1 0 13:40 25.12.2019
5480 Mist 3 1010 100 1500 0.5 0 13:20 25.12.2019
5481 Mist 3 1010 100 2300 0.5 0 12:43 25.12.2019
5482 Fog 3 1010 100 800 1.5 360 12:22 25.12.2019
5483 Mist 3 1009 100 1800 2.1 340 11:58 25.12.2019
5484 Mist 3 1009 100 1800 2.1 340 11:40 25.12.2019
5485 Mist 3 1009 100 3600 1 330 11:20 25.12.2019
5486 Mist 3 1009 100 5000 1 310 10:39 25.12.2019
5487 Mist 3 1009 100 5000 0.5 290 10:21 25.12.2019
5488 Mist 3 1009 100 4800 1.65 100 09:58 25.12.2019
5489 Mist 3 1009 100 4800 1.65 100 09:40 25.12.2019
5490 Mist 3 1009 100 4800 1.65 100 09:40 25.12.2019
5491 Mist 3 1008 100 4800 1 290 09:21 25.12.2019
5492 Mist 3 1008 100 3500 1 280 08:42 25.12.2019
5493 Mist 3 1008 100 2300 1.22 101 08:23 25.12.2019
5494 Mist 3 1008 100 2300 1.22 101 08:23 25.12.2019
5495 Mist 3 1008 100 2400 1.22 101 07:43 25.12.2019
5496 Mist 3 1007 100 2200 1.22 101 07:22 25.12.2019
5497 Mist 3 1007 100 1000 1.22 101 06:24 25.12.2019
5498 Mist 3 1007 100 1200 1.22 101 05:50 25.12.2019
5499 Mist 3 1007 100 2500 1.44 111 04:44 25.12.2019
5500 Mist 3 1006 100 1200 1 60 04:24 25.12.2019
5501 Mist 3 1006 100 3500 1.44 111 03:44 25.12.2019
5502 Mist 3 1006 100 3500 1.44 111 03:44 25.12.2019
5503 Mist 3 1006 100 4500 1.5 60 02:59 25.12.2019
5504 Mist 3 1006 100 4300 0.5 70 02:29 25.12.2019
5505 Mist 3 1006 100 4200 1.31 97 01:52 25.12.2019
5506 Drizzle 3 1006 100 5000 1.31 97 01:22 25.12.2019
5507 Clouds 3 1006 100 7000 1 70 00:42 25.12.2019
5508 Drizzle 3 1006 100 10000 1.5 60 00:23 25.12.2019
5509 Clouds 3 1006 100 10000 1 60 23:40 24.12.2019
5510 Clouds 3 1006 100 10000 1 70 23:20 24.12.2019
5511 Clouds 3 1005 100 10000 1.5 70 22:55 24.12.2019
5512 Drizzle 3 1005 100 10000 2.1 60 22:37 24.12.2019
5513 Drizzle 3 1005 100 10000 2.1 60 22:19 24.12.2019
5514 Clouds 3 1005 100 7000 1 70 21:41 24.12.2019
5515 Clouds 3 1005 100 10000 1 40 21:20 24.12.2019
5516 Clouds 3 1005 93 10000 1 30 20:43 24.12.2019
5517 Clouds 3 1005 100 10000 1.5 40 20:24 24.12.2019
5518 Clouds 3 1005 93 10000 1 40 19:57 24.12.2019
5519 Clouds 3 1005 93 10000 1 40 19:37 24.12.2019
5520 Rain 3 1005 93 10000 0.5 0 19:18 24.12.2019
5521 Rain 3 1005 100 6000 1.35 67 18:42 24.12.2019
5522 Drizzle 3 1005 93 10000 1.35 67 18:19 24.12.2019
5523 Clouds 3 1005 100 9000 0.5 250 17:45 24.12.2019
5524 Clouds 3 1005 100 6000 0.81 83 17:23 24.12.2019
5525 Clouds 3 1005 100 10000 0.81 83 16:58 24.12.2019
5526 Clouds 3 1005 100 10000 0.81 83 16:58 24.12.2019
5527 Clouds 3 1005 100 10000 0.81 83 16:40 24.12.2019
5528 Clouds 3 1005 100 10000 0.81 83 16:22 24.12.2019
5529 Clouds 3 1005 100 10000 0.81 83 15:58 24.12.2019
5530 Clouds 3 1005 100 10000 0.81 83 15:38 24.12.2019
5531 Clouds 3 1005 100 10000 0.81 83 15:20 24.12.2019
5532 Clouds 3 1005 100 10000 0.81 83 14:59 24.12.2019
5533 Clouds 3 1005 100 10000 0.81 83 14:40 24.12.2019
5534 Clouds 3 1005 93 10000 0.89 75 14:22 24.12.2019
5535 Clouds 3 1005 100 10000 1 100 13:56 24.12.2019
5536 Clouds 3 1005 100 10000 1 100 13:38 24.12.2019
5537 Clouds 3 1005 93 10000 0.89 75 13:20 24.12.2019
5538 Clouds 3 1005 100 10000 1.36 94 12:57 24.12.2019
5539 Clouds 3 1005 100 10000 1.36 94 12:38 24.12.2019
5540 Clouds 3 1006 100 10000 1.36 94 12:19 24.12.2019
5541 Clouds 3 1006 100 10000 1.36 94 11:57 24.12.2019
5542 Clouds 3 1006 100 10000 1.36 94 11:38 24.12.2019
5543 Clouds 3 1006 100 10000 1.11 110 11:20 24.12.2019
5544 Clouds 3 1006 100 10000 1.11 110 10:57 24.12.2019
5545 Clouds 3 1006 100 10000 1.11 110 10:38 24.12.2019
5546 Clouds 2 1006 100 10000 1.11 110 10:20 24.12.2019
5547 Clouds 2 1006 100 8000 1.11 110 09:58 24.12.2019
5548 Clouds 2 1006 100 8000 1.11 110 09:40 24.12.2019
5549 Clouds 2 1006 100 10000 1.11 110 09:21 24.12.2019
5550 Clouds 2 1006 100 10000 1.11 110 08:47 24.12.2019
5551 Mist 2 1006 100 5000 1.21 98 08:25 24.12.2019
5552 Mist 2 1006 100 5000 0.35 51 07:59 24.12.2019
5553 Mist 2 1006 100 5000 0.35 51 07:39 24.12.2019
5554 Mist 2 1006 100 5000 0.35 51 07:21 24.12.2019
5555 Mist 2 1006 100 7000 0.35 51 06:40 24.12.2019
5556 Mist 2 1006 100 7000 0.35 51 06:22 24.12.2019
5557 Mist 2 1006 100 8000 0.35 51 05:53 24.12.2019
5558 Mist 2 1006 100 5000 1.13 261 05:19 24.12.2019
5559 Mist 2 1005 100 6000 1.13 261 04:21 24.12.2019
5560 Mist 2 1005 100 7000 1.13 261 03:48 24.12.2019
5561 Mist 1 1005 100 7000 1.13 261 02:29 24.12.2019
5562 Mist 2 1005 100 8000 0.88 213 01:57 24.12.2019
5563 Mist 2 1005 100 7000 0.5 290 01:26 24.12.2019
5564 Mist 2 1005 100 6000 0.88 162 00:58 24.12.2019
5565 Mist 2 1005 100 6000 0.88 162 00:40 24.12.2019
5566 Mist 2 1005 100 8000 1 280 00:20 24.12.2019
5567 Mist 2 1005 100 6000 1 280 23:43 23.12.2019
5568 Mist 2 1004 100 4900 0.7 181 23:24 23.12.2019
5569 Mist 2 1004 100 6000 1.5 290 22:57 23.12.2019
5570 Mist 2 1004 100 6000 1.5 290 22:38 23.12.2019
5571 Clouds 2 1004 100 10000 1 280 22:20 23.12.2019
5572 Clouds 2 1004 100 10000 1 290 21:57 23.12.2019
5573 Clouds 2 1004 100 10000 1 290 21:57 23.12.2019
5574 Clouds 2 1004 100 10000 1 290 21:37 23.12.2019
5575 Clouds 2 1003 100 10000 1.5 290 21:19 23.12.2019
5576 Clouds 2 1003 100 10000 0.5 0 20:59 23.12.2019
5577 Clouds 2 1003 100 10000 0.5 0 20:40 23.12.2019
5578 Clouds 2 1003 100 10000 0.47 142 20:19 23.12.2019
5579 Clouds 2 1003 100 10000 0.47 142 19:58 23.12.2019
5580 Clouds 2 1003 100 10000 0.47 142 19:40 23.12.2019
5581 Clouds 2 1003 100 10000 0.47 142 19:21 23.12.2019
5582 Clouds 2 1003 100 9000 0.47 142 18:58 23.12.2019
5583 Clouds 2 1003 100 9000 0.47 142 18:58 23.12.2019
5584 Clouds 2 1003 100 9000 0.47 142 18:39 23.12.2019
5585 Clouds 2 1002 100 10000 0.47 142 18:21 23.12.2019
5586 Clouds 2 1002 93 10000 0.47 142 17:59 23.12.2019
5587 Clouds 2 1002 93 10000 0.47 142 17:40 23.12.2019
5588 Clouds 2 1002 100 10000 0.59 64 17:19 23.12.2019
5589 Clouds 3 1002 100 10000 0.59 64 16:57 23.12.2019
5590 Clouds 3 1002 100 10000 0.59 64 16:39 23.12.2019
5591 Clouds 3 1002 100 10000 1 330 16:19 23.12.2019
5592 Clouds 3 1002 100 10000 1 330 16:19 23.12.2019
5593 Clouds 3 1002 100 10000 1 330 16:19 23.12.2019
5594 Clouds 3 1001 93 10000 1 30 15:57 23.12.2019
5595 Clouds 3 1001 93 10000 1 30 15:37 23.12.2019
5596 Clouds 3 1001 100 10000 0.59 64 15:19 23.12.2019
5597 Clouds 3 1001 100 10000 1 280 14:56 23.12.2019
5598 Clouds 3 1001 100 10000 1 280 14:38 23.12.2019
5599 Clouds 3 1001 100 10000 1.5 310 14:18 23.12.2019
5600 Clouds 3 1000 93 10000 1.5 350 13:56 23.12.2019
5601 Clouds 3 1000 93 10000 1.5 350 13:37 23.12.2019
5602 Clouds 4 1000 93 10000 1 0 13:19 23.12.2019
5603 Clouds 4 1000 93 10000 0.5 260 12:54 23.12.2019
5604 Clouds 4 1000 93 10000 0.5 260 12:36 23.12.2019
5605 Clouds 4 1000 93 10000 0.5 260 12:36 23.12.2019
5606 Clouds 4 1000 93 10000 1 270 12:18 23.12.2019
5607 Clouds 3 1000 100 10000 0.5 290 11:42 23.12.2019
5608 Clouds 3 1000 100 10000 0.88 347 11:22 23.12.2019
5609 Clouds 3 1000 100 10000 0.88 347 10:56 23.12.2019
5610 Clouds 3 1000 100 10000 0.88 347 10:37 23.12.2019
5611 Clouds 3 1000 100 10000 0.88 347 10:18 23.12.2019
5612 Clouds 3 999 100 10000 0.88 347 09:57 23.12.2019
5613 Clouds 3 999 100 10000 0.88 347 09:39 23.12.2019
5614 Clouds 2 999 100 10000 0.88 347 09:19 23.12.2019
5615 Clouds 3 999 100 10000 0.88 347 08:42 23.12.2019
5616 Clouds 2 998 100 10000 1.06 290 08:23 23.12.2019
5617 Clouds 2 998 100 10000 1.06 290 07:57 23.12.2019
5618 Clouds 2 998 100 10000 1.06 290 07:38 23.12.2019
5619 Clouds 2 998 100 10000 1 160 07:19 23.12.2019
5620 Clouds 2 998 100 10000 1.06 290 06:43 23.12.2019
5621 Clouds 2 998 100 10000 1.06 290 06:22 23.12.2019
5622 Clouds 2 997 100 10000 1.06 290 05:46 23.12.2019
5623 Clouds 2 997 100 10000 0.35 304 05:18 23.12.2019
5624 Clouds 3 996 100 10000 0.35 304 04:19 23.12.2019
5625 Clouds 3 997 100 10000 0.35 304 02:48 23.12.2019
5626 Clouds 3 996 93 10000 0.94 285 02:20 23.12.2019
5627 Clouds 3 996 93 10000 0.94 285 01:51 23.12.2019
5628 Clouds 4 996 93 10000 0.9 278 01:32 23.12.2019
5629 Clouds 4 996 93 10000 0.94 285 01:32 23.12.2019
5630 Clouds 4 996 93 10000 0.5 0 00:54 23.12.2019
5631 Clouds 4 996 93 10000 1 180 00:35 23.12.2019
5632 Clouds 4 996 100 10000 1 200 23:57 22.12.2019
5633 Clouds 4 996 100 10000 1 200 23:38 22.12.2019
5634 Clouds 4 996 100 10000 1.5 180 23:20 22.12.2019
5635 Clouds 4 996 100 10000 1 200 22:57 22.12.2019
5636 Clouds 4 996 100 10000 1 200 22:38 22.12.2019
5637 Clouds 4 995 100 10000 1.5 0 22:19 22.12.2019
5638 Clouds 4 995 100 10000 1.5 180 21:56 22.12.2019
5639 Clouds 4 995 100 10000 1.5 180 21:56 22.12.2019
5640 Clouds 4 995 100 10000 1.5 180 21:38 22.12.2019
5641 Clouds 4 994 100 10000 1.5 0 21:20 22.12.2019
5642 Clouds 4 994 100 10000 1 0 20:41 22.12.2019
5643 Clouds 4 994 93 10000 1 0 20:19 22.12.2019
5644 Clouds 4 994 93 10000 1.5 190 19:58 22.12.2019
5645 Clouds 4 994 93 10000 1.5 190 19:40 22.12.2019
5646 Clouds 4 994 93 10000 1.5 190 19:20 22.12.2019
5647 Clouds 4 993 93 10000 1.5 210 18:58 22.12.2019
5648 Clouds 4 993 93 10000 1.5 210 18:38 22.12.2019
5649 Clouds 4 993 93 10000 1.58 234 18:19 22.12.2019
5650 Clouds 4 993 93 10000 1.5 210 17:55 22.12.2019
5651 Clouds 5 993 93 10000 1.5 210 17:36 22.12.2019
5652 Clouds 5 993 93 10000 1 220 17:18 22.12.2019
5653 Clouds 5 993 93 10000 1 0 16:42 22.12.2019
5654 Clouds 5 993 93 10000 1.5 220 16:23 22.12.2019
5655 Clouds 5 993 93 10000 1.5 220 16:23 22.12.2019
5656 Clouds 5 993 93 10000 3.6 240 15:58 22.12.2019
5657 Clouds 5 993 93 10000 3.6 240 15:39 22.12.2019
5658 Clouds 5 992 93 10000 2.6 220 15:21 22.12.2019
5659 Clouds 5 992 87 10000 3.1 240 14:59 22.12.2019
5660 Clouds 5 992 87 10000 3.1 240 14:38 22.12.2019
5661 Clouds 5 991 87 10000 3.1 230 14:19 22.12.2019
5662 Clouds 5 991 93 10000 2.6 220 13:56 22.12.2019
5663 Clouds 5 991 93 10000 2.6 220 13:38 22.12.2019
5664 Clouds 5 991 93 10000 2.6 230 13:19 22.12.2019
5665 Clouds 5 991 93 10000 2.6 240 12:57 22.12.2019
5666 Clouds 5 991 93 10000 2.6 240 12:38 22.12.2019
5667 Clouds 5 991 100 10000 3.6 250 12:19 22.12.2019
5668 Clouds 5 991 100 10000 3.6 250 11:58 22.12.2019
5669 Clouds 5 991 100 10000 3.6 250 11:38 22.12.2019
5670 Clouds 5 991 100 10000 3.6 250 11:19 22.12.2019
5671 Clouds 5 990 100 10000 2.6 250 10:57 22.12.2019
5672 Drizzle 5 990 100 7000 3.6 240 10:38 22.12.2019
5673 Drizzle 5 990 100 7000 3.6 240 10:19 22.12.2019
5674 Clouds 5 990 100 8000 3.1 250 09:58 22.12.2019
5675 Clouds 5 990 100 8000 3.1 250 09:39 22.12.2019
5676 Clouds 4 990 100 10000 2.6 240 09:21 22.12.2019
5677 Clouds 4 989 100 10000 2.6 240 08:45 22.12.2019
5678 Rain 4 989 100 10000 3.6 240 08:23 22.12.2019
5679 Rain 4 989 93 10000 2.6 240 07:50 22.12.2019
5680 Drizzle 4 988 93 10000 2.1 230 07:21 22.12.2019
5681 Drizzle 4 988 93 10000 2.1 230 07:21 22.12.2019
5682 Rain 4 988 100 10000 2.1 230 06:56 22.12.2019
5683 Rain 4 988 100 10000 2.6 240 06:27 22.12.2019
5684 Rain 4 988 100 10000 1.5 220 05:41 22.12.2019
5685 Rain 4 988 93 7000 1 240 05:20 22.12.2019
5686 Rain 5 988 100 7000 1 270 04:26 22.12.2019
5687 Rain 5 988 100 10000 2.6 260 02:56 22.12.2019
5688 Rain 5 988 100 10000 2.6 260 02:34 22.12.2019
5689 Rain 5 988 100 9000 1.5 260 01:32 22.12.2019
5690 Rain 5 988 100 4600 1 230 00:57 22.12.2019
5691 Rain 5 988 100 3100 1 210 00:38 22.12.2019
5692 Rain 5 988 100 3100 1 210 00:20 22.12.2019
5693 Rain 5 988 100 2100 1 170 23:41 21.12.2019
5694 Rain 5 988 100 900 1 150 23:22 21.12.2019
5695 Rain 5 988 100 1200 0.5 140 22:57 21.12.2019
5696 Rain 5 988 100 1200 0.5 140 22:39 21.12.2019
5697 Clouds 5 988 100 1000 1.5 120 22:18 21.12.2019
5698 Clouds 5 988 100 1000 1.5 120 22:18 21.12.2019
5699 Clouds 5 988 100 600 1 110 21:55 21.12.2019
5700 Mist 5 988 100 700 1 0 21:36 21.12.2019
5701 Mist 6 988 100 700 1 0 21:18 21.12.2019
5702 Mist 6 988 100 1300 2.1 110 20:57 21.12.2019
5703 Mist 6 988 100 1300 2.1 110 20:37 21.12.2019
5704 Mist 6 988 100 1600 2.1 120 20:19 21.12.2019
5705 Mist 6 988 100 1800 2.1 110 19:55 21.12.2019
5706 Mist 5 988 100 1800 2.1 110 19:36 21.12.2019
5707 Mist 5 988 100 2200 2.1 120 19:18 21.12.2019
5708 Mist 5 988 100 2200 2.1 110 18:42 21.12.2019
5709 Mist 5 988 100 1500 1.5 120 18:23 21.12.2019
5710 Mist 5 988 100 1300 1.5 110 17:56 21.12.2019
5711 Mist 5 988 100 1300 1.5 110 17:38 21.12.2019
5712 Mist 5 988 100 1800 1.5 120 17:20 21.12.2019
5713 Mist 5 989 100 1400 2.6 130 16:57 21.12.2019
5714 Mist 6 989 100 1100 2.6 130 16:38 21.12.2019
5715 Mist 6 989 100 1100 2.6 130 16:18 21.12.2019
5716 Clouds 6 988 100 1200 3.1 140 15:55 21.12.2019
5717 Clouds 6 988 100 1200 3.1 140 15:37 21.12.2019
5718 Mist 6 989 100 1000 4.1 130 15:18 21.12.2019
5719 Mist 6 989 93 1100 3.1 130 14:42 21.12.2019
5720 Mist 6 989 93 1200 3.6 120 14:23 21.12.2019
5721 Mist 6 989 93 1600 4.1 130 13:58 21.12.2019
5722 Mist 6 989 93 1600 4.1 130 13:39 21.12.2019
5723 Mist 6 989 93 1800 4.1 130 13:19 21.12.2019
5724 Mist 6 989 93 2000 4.6 130 12:56 21.12.2019
5725 Mist 6 989 93 2000 4.6 130 12:38 21.12.2019
5726 Mist 6 989 93 2000 4.6 130 12:38 21.12.2019
5727 Mist 6 989 100 1900 4.6 130 12:38 21.12.2019
5728 Mist 6 989 100 1900 4.6 130 12:20 21.12.2019
5729 Mist 6 989 93 1500 4.1 130 11:48 21.12.2019
5730 Mist 6 990 93 1700 5.1 130 11:27 21.12.2019
5731 Mist 6 990 100 2300 4.6 130 10:59 21.12.2019
5732 Mist 6 990 100 2300 4.6 130 10:41 21.12.2019
5733 Mist 6 990 100 2300 4.6 120 10:22 21.12.2019
5734 Mist 6 990 93 2100 5.1 120 09:58 21.12.2019
5735 Mist 6 990 93 2100 5.1 120 09:39 21.12.2019
5736 Mist 6 990 100 2300 4.6 130 09:19 21.12.2019
5737 Mist 6 990 100 2700 5.1 130 08:51 21.12.2019
5738 Mist 6 990 100 2100 5.1 130 08:27 21.12.2019
5739 Mist 6 990 100 2400 4.1 130 07:58 21.12.2019
5740 Mist 6 990 100 2400 4.1 130 07:58 21.12.2019
5741 Mist 6 990 100 2400 4.1 130 07:39 21.12.2019
5742 Mist 6 990 100 2600 5.1 130 07:20 21.12.2019
5743 Mist 6 991 100 3900 5.1 120 06:40 21.12.2019
5744 Mist 6 991 100 3900 5.7 140 06:22 21.12.2019
5745 Mist 6 991 100 2900 6.2 120 05:25 21.12.2019
5746 Mist 6 992 100 2400 4.1 120 04:34 21.12.2019
5747 Mist 6 992 93 2400 5.1 120 03:56 21.12.2019
5748 Mist 5 993 100 2400 4.1 110 02:25 21.12.2019
5749 Mist 5 994 100 2500 4.6 110 01:48 21.12.2019
5750 Mist 5 994 100 2400 4.6 120 01:25 21.12.2019
5751 Mist 5 994 100 2200 3.6 120 00:45 21.12.2019
5752 Mist 5 995 100 2900 4.1 130 00:26 21.12.2019
5753 Mist 5 995 100 3800 6.2 120 23:39 20.12.2019
5754 Mist 5 995 100 3800 6.2 120 23:21 20.12.2019
5755 Mist 5 995 100 4100 6.7 130 22:59 20.12.2019
5756 Mist 5 995 100 4100 6.7 130 22:59 20.12.2019
5757 Mist 5 995 100 4100 6.7 130 22:39 20.12.2019
5758 Mist 5 996 100 3000 5.7 130 22:18 20.12.2019
5759 Mist 5 996 100 1900 5.1 130 21:41 20.12.2019
5760 Mist 5 997 100 2100 5.1 130 21:21 20.12.2019
5761 Mist 5 997 100 2100 5.1 130 20:59 20.12.2019
5762 Mist 5 997 100 2400 5.1 130 20:38 20.12.2019
5763 Mist 5 997 100 2400 5.1 130 20:19 20.12.2019
5764 Mist 5 997 100 2400 6.2 120 19:56 20.12.2019
5765 Mist 5 997 100 2400 6.2 120 19:38 20.12.2019
5766 Mist 5 997 100 3100 5.1 120 19:18 20.12.2019
5767 Mist 5 998 100 3500 4.6 120 18:41 20.12.2019
5768 Mist 5 998 100 3500 4.6 120 18:23 20.12.2019
5769 Mist 5 999 100 2000 4.6 130 17:58 20.12.2019
5770 Mist 5 999 100 2000 4.6 130 17:40 20.12.2019
5771 Mist 5 999 100 2000 4.6 130 17:20 20.12.2019
5772 Mist 5 999 100 2100 3.6 120 16:57 20.12.2019
5773 Mist 5 999 100 2200 5.1 130 16:38 20.12.2019
5774 Mist 5 999 100 2200 5.1 130 16:19 20.12.2019
5775 Mist 5 1000 100 2000 6.2 120 15:55 20.12.2019
5776 Mist 5 1001 100 1500 3.6 130 15:37 20.12.2019
5777 Mist 5 1001 100 1500 3.6 130 15:37 20.12.2019
5778 Mist 5 1001 100 1500 3.6 130 15:18 20.12.2019
5779 Mist 5 1001 100 2000 5.1 120 14:42 20.12.2019
5780 Mist 5 1001 100 2000 5.1 120 14:24 20.12.2019
5781 Mist 5 1002 100 1500 4.6 130 13:57 20.12.2019
5782 Mist 5 1002 100 1500 4.6 130 13:38 20.12.2019
5783 Mist 5 1002 100 1500 4.6 130 13:19 20.12.2019
5784 Mist 5 1002 100 1600 4.1 130 12:57 20.12.2019
5785 Mist 5 1003 100 2000 4.6 140 12:37 20.12.2019
5786 Mist 5 1003 100 2000 4.6 140 12:18 20.12.2019
5787 Mist 5 1003 100 4400 4.1 130 11:57 20.12.2019
5788 Mist 5 1004 100 4000 3.6 130 11:39 20.12.2019
5789 Mist 5 1004 100 4000 3.6 130 11:18 20.12.2019
5790 Clouds 5 1004 100 10000 4.6 140 10:56 20.12.2019
5791 Clouds 5 1004 100 10000 4.1 130 10:38 20.12.2019
5792 Clouds 5 1004 100 10000 4.1 130 10:19 20.12.2019
5793 Clouds 5 1005 100 10000 2.6 130 09:43 20.12.2019
5794 Clouds 5 1005 100 10000 2.6 130 09:21 20.12.2019
5795 Clouds 5 1005 100 10000 3.6 130 08:57 20.12.2019
5796 Clouds 5 1005 100 10000 2.6 150 08:38 20.12.2019
5797 Clouds 5 1005 100 10000 2.6 150 08:20 20.12.2019
5798 Clouds 5 1005 100 10000 2.6 150 08:20 20.12.2019
5799 Clouds 5 1006 93 10000 3.1 150 07:57 20.12.2019
5800 Clouds 5 1006 100 10000 4.1 160 07:37 20.12.2019
5801 Clouds 5 1006 100 10000 4.1 160 07:18 20.12.2019
5802 Clouds 5 1007 100 10000 3.1 160 06:44 20.12.2019
5803 Clouds 5 1007 100 10000 3.1 160 06:26 20.12.2019
5804 Clouds 5 1007 100 10000 2.6 150 05:47 20.12.2019
5805 Rain 5 1007 100 10000 3.6 170 05:18 20.12.2019
5806 Clouds 5 1009 93 10000 4.1 170 03:49 20.12.2019
5807 Clouds 5 1010 93 10000 4.6 180 02:55 20.12.2019
5808 Clouds 5 1010 87 10000 3.6 190 01:59 20.12.2019
5809 Rain 5 1010 93 10000 4.1 180 01:35 20.12.2019
5810 Rain 5 1010 93 10000 5.1 160 00:56 20.12.2019
5811 Rain 5 1010 86 10000 6.2 150 00:35 20.12.2019
5812 Rain 5 1011 93 10000 5.1 150 23:58 19.12.2019
5813 Rain 5 1011 93 10000 5.1 150 23:58 19.12.2019
5814 Rain 4 1012 93 10000 5.7 140 23:40 19.12.2019
5815 Clouds 4 1012 93 10000 5.7 140 23:19 19.12.2019
5816 Clouds 4 1013 100 10000 5.1 130 22:40 19.12.2019
5817 Clouds 4 1013 100 10000 5.1 130 22:22 19.12.2019
5818 Clouds 4 1014 100 10000 4.6 140 21:59 19.12.2019
5819 Clouds 3 1014 100 10000 4.1 140 21:41 19.12.2019
5820 Clouds 3 1014 100 10000 4.1 140 21:19 19.12.2019
5821 Clouds 3 1015 100 10000 3.6 130 20:57 19.12.2019
5822 Clouds 3 1016 100 10000 3.1 130 20:38 19.12.2019
5823 Clouds 3 1016 100 10000 3.1 130 20:20 19.12.2019
5824 Clouds 2 1016 100 10000 2.1 130 19:58 19.12.2019
5825 Clouds 2 1016 100 10000 1.5 130 19:40 19.12.2019
5826 Clouds 2 1016 100 10000 1.5 130 19:19 19.12.2019
5827 Clouds 2 1016 100 8000 1.5 140 19:19 19.12.2019
5828 Clouds 2 1016 100 8000 1.5 140 18:58 19.12.2019
5829 Clouds 1 1017 91 10000 1.5 0 18:40 19.12.2019
5830 Clouds 1 1017 91 10000 1.5 0 18:19 19.12.2019
5831 Clouds 0 1017 91 10000 1.5 130 17:56 19.12.2019
5832 Fog 0 1017 91 600 1.5 130 17:38 19.12.2019
5833 Fog 0 1017 95 600 1.5 130 17:18 19.12.2019
5834 Mist 0 1018 100 2000 1.5 0 16:56 19.12.2019
5835 Clouds 0 1018 100 7000 2.1 170 16:37 19.12.2019
5836 Clouds 0 1018 100 7000 2.1 170 16:19 19.12.2019
5837 Clouds -1 1018 100 10000 2.6 150 15:57 19.12.2019
5838 Clouds -1 1018 92 10000 1.5 140 15:37 19.12.2019
5839 Clouds -1 1018 92 10000 1.5 140 15:19 19.12.2019
5840 Clouds -1 1018 100 10000 1.5 130 15:19 19.12.2019
5841 Clouds -1 1018 100 10000 1.5 130 14:54 19.12.2019
5842 Clouds -1 1018 100 10000 1 170 14:36 19.12.2019
5843 Clouds -1 1018 100 10000 1 170 14:18 19.12.2019
5844 Clouds -1 1019 100 10000 1.5 200 13:38 19.12.2019
5845 Clouds -1 1019 100 10000 1 0 13:20 19.12.2019
5846 Clouds 0 1019 100 10000 1 0 12:58 19.12.2019
5847 Clouds 0 1019 100 10000 1 0 12:58 19.12.2019
5848 Clouds -1 1019 100 10000 1.5 210 12:39 19.12.2019
5849 Clouds -1 1019 100 10000 1.5 210 12:19 19.12.2019
5850 Clouds -1 1019 100 10000 1.5 0 11:58 19.12.2019
5851 Clouds -1 1019 100 10000 1 190 11:40 19.12.2019
5852 Clouds -2 1019 100 10000 1 190 11:18 19.12.2019
5853 Clouds -2 1019 100 10000 1 190 11:18 19.12.2019
5854 Clouds -2 1019 92 10000 1 200 10:58 19.12.2019
5855 Clouds -2 1019 92 10000 1 200 10:58 19.12.2019
5856 Clouds -2 1019 100 10000 1 180 10:38 19.12.2019
5857 Clouds -2 1019 100 10000 1 180 10:20 19.12.2019
5858 Clouds -3 1019 100 10000 1 240 09:56 19.12.2019
5859 Clouds -3 1018 100 10000 1.5 230 09:37 19.12.2019
5860 Clouds -3 1018 100 10000 1.5 230 09:18 19.12.2019
5861 Clouds -3 1018 100 10000 1.5 240 08:55 19.12.2019
5862 Clouds -3 1018 100 10000 2.1 240 08:36 19.12.2019
5863 Clear -3 1018 100 10000 2.1 240 08:18 19.12.2019
5864 Clear -2 1017 100 10000 1.5 220 07:40 19.12.2019
5865 Clear -2 1017 100 10000 1.5 220 07:22 19.12.2019
5866 Clear -2 1017 92 10000 1.5 230 06:55 19.12.2019
5867 Clear -2 1016 100 10000 1.5 240 06:37 19.12.2019
5868 Clear -2 1016 100 10000 1.5 240 06:18 19.12.2019
5869 Clear -2 1016 92 10000 1.5 250 05:42 19.12.2019
5870 Clear -2 1016 92 10000 1.5 250 05:18 19.12.2019
5871 Clear -1 1015 92 10000 3.1 260 03:51 19.12.2019
5872 Clear -1 1013 92 10000 3.1 260 02:28 19.12.2019
5873 Clear -1 1012 76 10000 3.6 260 01:24 19.12.2019
5874 Clear -1 1012 76 10000 3.6 260 00:57 19.12.2019
5875 Clear -1 1011 76 10000 3.6 250 00:38 19.12.2019
5876 Clear 0 1011 76 10000 3.6 250 00:19 19.12.2019
5877 Clear 0 1011 76 10000 3.6 250 00:19 19.12.2019
5878 Clear 0 1010 76 10000 4.1 260 23:44 18.12.2019
5879 Clear 0 1010 78 10000 4.1 260 23:19 18.12.2019
5880 Clear 0 1010 78 10000 3.6 260 22:56 18.12.2019
5881 Clear 0 1009 78 10000 4.1 260 22:38 18.12.2019
5882 Clear 0 1009 78 10000 4.1 260 22:20 18.12.2019
5883 Clear 0 1008 78 10000 4.6 270 21:58 18.12.2019
5884 Clear 0 1008 78 10000 4.6 270 21:39 18.12.2019
5885 Clear 0 1008 78 10000 4.6 270 21:20 18.12.2019
5886 Clear 0 1007 86 10000 5.1 260 20:56 18.12.2019
5887 Clear 0 1007 86 10000 5.7 260 20:38 18.12.2019
5888 Clouds 1 1007 86 10000 5.7 260 20:19 18.12.2019
5889 Clouds 1 1006 86 10000 5.7 260 19:56 18.12.2019
5890 Clouds 0 1005 77 10000 5.7 260 19:37 18.12.2019
5891 Clouds 1 1005 77 10000 5.7 260 19:18 18.12.2019
5892 Clouds 1 1005 77 10000 6.7 270 18:45 18.12.2019
5893 Clouds 1 1005 77 10000 6.7 270 18:45 18.12.2019
5894 Clouds 1 1004 77 10000 6.2 270 18:26 18.12.2019
5895 Clouds 1 1003 77 10000 7.7 260 17:58 18.12.2019
5896 Clouds 1 1003 77 10000 7.2 260 17:40 18.12.2019
5897 Clouds 2 1003 77 10000 7.2 260 17:20 18.12.2019
5898 Clouds 2 1003 77 10000 7.2 260 17:20 18.12.2019
5899 Clouds 2 1002 77 10000 7.2 250 16:58 18.12.2019
5900 Clouds 2 1002 93 10000 6.2 270 16:40 18.12.2019
5901 Clouds 2 1002 93 10000 6.2 270 16:22 18.12.2019
5902 Clouds 2 1001 93 10000 8.2 270 15:57 18.12.2019
5903 Clouds 2 1001 93 10000 8.2 270 15:38 18.12.2019
5904 Clouds 2 1001 93 10000 7.7 260 15:20 18.12.2019
5905 Clouds 2 1000 93 10000 7.7 270 14:43 18.12.2019
5906 Clouds 2 999 93 10000 8.7 270 14:22 18.12.2019
5907 Clouds 2 998 93 10000 7.7 270 13:58 18.12.2019
5908 Clouds 2 998 93 10000 7.7 270 13:39 18.12.2019
5909 Clouds 2 997 93 10000 9.3 280 13:21 18.12.2019
5910 Clouds 2 996 93 10000 8.7 300 12:59 18.12.2019
5911 Clouds 2 996 93 10000 8.7 300 12:40 18.12.2019
5912 Rain 2 995 93 10000 9.3 300 12:21 18.12.2019
5913 Rain 1 993 100 8000 9.3 300 11:57 18.12.2019
5914 Rain 1 993 100 8000 9.3 300 11:39 18.12.2019
5915 Rain 1 992 100 8000 8.7 310 11:20 18.12.2019
5916 Rain 1 991 100 2500 7.2 310 10:57 18.12.2019
5917 Rain 2 991 100 2500 7.2 310 10:39 18.12.2019
5918 Rain 2 990 100 2500 7.2 320 10:20 18.12.2019
5919 Rain 3 989 100 8000 5.1 320 09:57 18.12.2019
5920 Rain 4 988 100 8000 3.6 340 09:19 18.12.2019
5921 Rain 4 989 100 7000 3.1 350 08:42 18.12.2019
5922 Rain 4 989 100 6000 1.5 50 08:24 18.12.2019
5923 Rain 4 990 100 5000 2.1 20 07:56 18.12.2019
5924 Rain 4 990 100 5000 2.1 20 07:56 18.12.2019
5925 Rain 5 990 100 5000 2.1 20 07:38 18.12.2019
5926 Rain 4 990 100 6000 2.1 40 07:19 18.12.2019
5927 Rain 4 991 100 8000 1.5 40 06:50 18.12.2019
5928 Rain 4 992 100 4000 1.5 90 06:22 18.12.2019
5929 Rain 4 994 100 1800 1.5 70 05:34 18.12.2019
5930 Drizzle 4 996 100 2900 2.1 40 03:46 18.12.2019
5931 Mist 4 996 100 7000 3.1 60 02:44 18.12.2019
5932 Rain 4 997 100 10000 3.1 70 02:26 18.12.2019
5933 Rain 4 997 93 9000 3.6 50 01:43 18.12.2019
5934 Rain 4 998 93 10000 3.1 70 01:24 18.12.2019
5935 Rain 4 999 93 10000 3.1 90 00:42 18.12.2019
5936 Rain 4 999 100 10000 2.6 110 00:24 18.12.2019
5937 Rain 4 1000 100 10000 2.6 80 23:58 17.12.2019
5938 Rain 4 1000 100 10000 2.6 80 23:39 17.12.2019
5939 Rain 4 1001 93 5000 1.5 90 23:21 17.12.2019
5940 Rain 4 1001 100 4600 1 100 22:57 17.12.2019
5941 Rain 3 1002 100 8000 1 0 22:38 17.12.2019
5942 Rain 4 1002 100 8000 1 0 22:19 17.12.2019
5943 Rain 4 1002 100 8000 1 0 21:57 17.12.2019
5944 Rain 3 1002 100 8000 1 0 21:38 17.12.2019
5945 Drizzle 3 1002 100 10000 1 140 21:20 17.12.2019
5946 Drizzle 3 1002 100 10000 2.1 130 20:58 17.12.2019
5947 Drizzle 3 1002 100 10000 2.1 130 20:39 17.12.2019
5948 Clouds 3 1003 100 10000 1 140 20:18 17.12.2019
5949 Clouds 3 1003 100 10000 1 140 19:56 17.12.2019
5950 Clouds 3 1003 100 10000 1 140 19:38 17.12.2019
5951 Clouds 3 1003 100 10000 0.5 0 19:19 17.12.2019
5952 Clouds 3 1003 100 10000 2.1 210 18:56 17.12.2019
5953 Clouds 3 1003 100 10000 2.1 210 18:37 17.12.2019
5954 Clouds 3 1003 100 10000 1.5 190 18:19 17.12.2019
5955 Clouds 3 1003 93 10000 1 0 17:42 17.12.2019
5956 Clouds 3 1003 100 10000 1.5 0 17:21 17.12.2019
5957 Clouds 3 1003 100 10000 2.6 190 16:57 17.12.2019
5958 Clouds 3 1003 100 10000 2.6 190 16:38 17.12.2019
5959 Clouds 4 1003 93 10000 2.6 190 16:19 17.12.2019
5960 Clouds 4 1004 93 10000 2.6 210 15:59 17.12.2019
5961 Clouds 4 1004 93 10000 2.6 210 15:38 17.12.2019
5962 Clouds 4 1004 93 10000 2.6 200 15:19 17.12.2019
5963 Clouds 4 1004 93 10000 2.6 200 14:56 17.12.2019
5964 Clouds 4 1004 93 10000 2.6 200 14:38 17.12.2019
5965 Clouds 4 1003 93 10000 2.6 210 14:19 17.12.2019
5966 Clouds 4 1003 93 10000 2.6 200 13:56 17.12.2019
5967 Clouds 5 1003 93 10000 2.6 200 13:38 17.12.2019
5968 Clouds 5 1004 93 10000 2.6 210 13:19 17.12.2019
5969 Clouds 5 1004 93 10000 2.6 210 13:19 17.12.2019
5970 Clouds 4 1003 93 10000 3.1 210 12:58 17.12.2019
5971 Clouds 5 1003 93 10000 3.1 210 12:38 17.12.2019
5972 Clouds 5 1003 93 10000 3.1 210 12:38 17.12.2019
5973 Clouds 5 1003 93 10000 3.1 210 12:18 17.12.2019
5974 Clouds 5 1003 93 10000 2.6 210 11:56 17.12.2019
5975 Clouds 5 1003 93 10000 2.1 210 11:36 17.12.2019
5976 Clouds 4 1003 93 10000 2.1 210 11:18 17.12.2019
5977 Clouds 4 1003 93 10000 2.1 220 10:56 17.12.2019
5978 Clouds 4 1003 93 10000 2.6 220 10:37 17.12.2019
5979 Clouds 4 1003 93 10000 2.6 220 10:19 17.12.2019
5980 Clouds 4 1003 93 10000 2.6 200 09:42 17.12.2019
5981 Clouds 4 1002 93 10000 2.1 230 09:22 17.12.2019
5982 Clouds 4 1002 93 10000 2.6 220 08:58 17.12.2019
5983 Clouds 4 1002 93 10000 2.6 220 08:40 17.12.2019
5984 Clouds 4 1002 93 10000 2.6 210 08:21 17.12.2019
5985 Clouds 4 1002 93 10000 2.6 210 07:58 17.12.2019
5986 Clouds 4 1002 93 10000 2.6 210 07:39 17.12.2019
5987 Clouds 4 1001 93 10000 1.5 220 07:20 17.12.2019
5988 Clouds 4 1001 93 10000 3.1 210 06:42 17.12.2019
5989 Clouds 4 1001 93 10000 3.1 210 06:24 17.12.2019
5990 Clouds 4 1000 93 10000 2.6 200 05:41 17.12.2019
5991 Clouds 4 1000 93 10000 2.6 210 04:51 17.12.2019
5992 Clouds 4 1000 93 10000 3.1 230 03:40 17.12.2019
5993 Rain 4 999 93 10000 3.6 240 02:22 17.12.2019
5994 Rain 5 999 86 10000 5.1 230 01:21 17.12.2019
5995 Rain 4 998 93 10000 4.1 220 00:45 17.12.2019
5996 Rain 5 998 86 10000 4.1 220 00:21 17.12.2019
5997 Rain 5 998 93 10000 4.1 220 23:43 16.12.2019
5998 Clouds 5 998 100 10000 4.6 210 23:20 16.12.2019
5999 Clouds 5 998 86 10000 4.1 210 22:58 16.12.2019
6000 Clouds 5 998 86 10000 4.1 210 22:38 16.12.2019
6001 Clouds 5 998 86 10000 4.1 210 22:38 16.12.2019
6002 Clouds 4 998 93 10000 4.6 220 22:20 16.12.2019
6003 Clouds 4 997 93 10000 4.6 220 21:57 16.12.2019
6004 Clouds 4 997 93 10000 4.6 220 21:39 16.12.2019
6005 Clouds 4 997 100 10000 4.1 210 21:20 16.12.2019
6006 Drizzle 4 997 100 10000 4.1 220 20:58 16.12.2019
6007 Drizzle 5 997 100 10000 4.1 220 20:39 16.12.2019
6008 Drizzle 5 997 100 10000 4.1 220 20:39 16.12.2019
6009 Drizzle 5 997 93 10000 5.1 210 20:19 16.12.2019
6010 Rain 5 997 93 10000 5.1 200 19:56 16.12.2019
6011 Rain 5 997 93 10000 5.1 200 19:37 16.12.2019
6012 Rain 4 997 93 10000 5.1 180 19:19 16.12.2019
6013 Rain 4 997 93 10000 5.1 170 18:59 16.12.2019
6014 Rain 4 997 93 10000 5.1 170 18:40 16.12.2019
6015 Rain 4 998 100 9000 4.1 170 18:20 16.12.2019
6016 Rain 4 998 93 8000 3.1 150 17:58 16.12.2019
6017 Rain 4 999 100 10000 2.1 150 17:39 16.12.2019
6018 Rain 4 999 100 10000 2.1 150 17:21 16.12.2019
6019 Rain 4 999 100 10000 5.1 190 16:57 16.12.2019
6020 Rain 4 999 100 10000 5.1 190 16:39 16.12.2019
6021 Rain 4 999 86 10000 3.6 180 16:20 16.12.2019
6022 Clouds 4 1000 86 10000 3.6 190 15:58 16.12.2019
6023 Clouds 3 1000 86 10000 3.6 190 15:39 16.12.2019
6024 Clouds 4 1000 86 10000 3.6 200 15:20 16.12.2019
6025 Clouds 4 1000 93 10000 3.6 210 14:57 16.12.2019
6026 Clouds 4 1000 93 10000 3.6 210 14:37 16.12.2019
6027 Clouds 4 1000 93 10000 3.6 210 14:37 16.12.2019
6028 Clouds 4 1000 93 10000 3.6 200 14:19 16.12.2019
6029 Clouds 4 1000 93 10000 3.6 200 14:19 16.12.2019
6030 Clouds 4 1000 93 10000 3.6 200 14:19 16.12.2019
6031 Clouds 4 1000 93 10000 3.6 200 14:19 16.12.2019
6032 Clouds 4 1000 93 10000 3.6 200 14:19 16.12.2019
6033 Clouds 3 1000 93 10000 3.1 210 13:56 16.12.2019
6034 Clouds 3 1000 93 10000 3.1 210 13:37 16.12.2019
6035 Clouds 4 1000 93 10000 4.1 210 13:19 16.12.2019
6036 Clouds 4 1000 93 10000 4.6 220 12:57 16.12.2019
6037 Clouds 4 1000 93 10000 4.6 220 12:39 16.12.2019
6038 Clouds 4 999 93 10000 4.1 220 12:19 16.12.2019
6039 Clouds 4 999 93 10000 3.6 220 11:58 16.12.2019
6040 Clouds 4 999 93 10000 3.6 220 11:40 16.12.2019
6041 Clouds 3 999 93 10000 4.1 230 11:20 16.12.2019
6042 Clouds 3 999 100 10000 3.1 230 10:56 16.12.2019
6043 Clouds 3 999 100 10000 3.1 230 10:37 16.12.2019
6044 Clouds 3 999 93 10000 3.1 220 10:19 16.12.2019
6045 Clouds 2 998 100 10000 4.1 230 09:45 16.12.2019
6046 Clouds 3 998 100 10000 4.1 240 09:26 16.12.2019
6047 Clouds 2 998 100 10000 4.1 240 08:41 16.12.2019
6048 Clouds 2 997 93 10000 3.6 240 08:21 16.12.2019
6049 Clouds 2 997 93 10000 3.6 240 08:21 16.12.2019
6050 Clouds 2 996 100 10000 4.6 240 07:59 16.12.2019
6051 Clouds 2 996 100 10000 4.6 240 07:41 16.12.2019
6052 Clouds 2 996 93 10000 3.6 250 07:20 16.12.2019
6053 Drizzle 3 995 93 10000 4.6 270 06:41 16.12.2019
6054 Drizzle 3 995 93 10000 4.6 270 06:22 16.12.2019
6055 Rain 3 995 93 10000 4.6 260 05:47 16.12.2019
6056 Drizzle 3 994 93 10000 4.1 270 05:29 16.12.2019
6057 Rain 3 992 93 10000 4.6 280 03:41 16.12.2019
6058 Rain 2 990 100 6000 4.1 310 01:58 16.12.2019
6059 Rain 2 990 100 6000 4.1 310 01:40 16.12.2019
6060 Rain 2 990 100 6000 4.1 310 01:40 16.12.2019
6061 Drizzle 2 989 100 9000 1.5 330 00:42 16.12.2019
6062 Rain 2 988 100 6000 1.5 350 00:23 16.12.2019
6063 Drizzle 2 988 100 10000 1.5 20 23:58 15.12.2019
6064 Drizzle 2 988 100 10000 1.5 10 23:38 15.12.2019
6065 Drizzle 2 988 100 10000 1.5 10 23:19 15.12.2019
6066 Rain 2 988 100 10000 2.6 50 22:55 15.12.2019
6067 Rain 2 988 100 10000 2.6 50 22:37 15.12.2019
6068 Rain 2 988 100 10000 2.1 40 22:18 15.12.2019
6069 Rain 2 988 100 8000 1.5 50 21:55 15.12.2019
6070 Rain 2 988 100 8000 1.5 50 21:37 15.12.2019
6071 Drizzle 2 988 100 10000 1.5 120 21:18 15.12.2019
6072 Drizzle 2 988 93 10000 2.1 140 20:55 15.12.2019
6073 Drizzle 2 988 93 10000 2.1 140 20:36 15.12.2019
6074 Drizzle 3 988 93 10000 3.6 150 20:18 15.12.2019
6075 Rain 3 988 93 10000 2.6 160 19:55 15.12.2019
6076 Rain 3 988 93 10000 1.5 140 19:37 15.12.2019
6077 Rain 3 988 93 10000 1.5 140 19:18 15.12.2019
6078 Clouds 3 988 93 10000 2.1 170 18:55 15.12.2019
6079 Clouds 4 989 93 10000 2.1 170 18:36 15.12.2019
6080 Clouds 4 989 93 10000 2.1 170 18:18 15.12.2019
6081 Clouds 4 988 93 10000 2.1 170 17:55 15.12.2019
6082 Clouds 4 989 93 10000 2.6 160 17:36 15.12.2019
6083 Clouds 4 989 93 10000 2.6 160 17:18 15.12.2019
6084 Clouds 4 989 93 10000 2.6 160 16:42 15.12.2019
6085 Clouds 4 989 93 10000 2.6 160 16:23 15.12.2019
6086 Clouds 4 989 93 10000 2.1 170 15:57 15.12.2019
6087 Clouds 4 989 93 10000 2.1 170 15:39 15.12.2019
6088 Clouds 4 989 93 10000 2.6 170 15:19 15.12.2019
6089 Clouds 4 989 93 10000 3.1 160 14:56 15.12.2019
6090 Clouds 4 989 93 10000 3.1 160 14:37 15.12.2019
6091 Clouds 4 989 93 10000 3.1 160 14:19 15.12.2019
6092 Clouds 4 989 93 10000 2.1 170 13:58 15.12.2019
6093 Clouds 4 989 93 10000 2.1 170 13:39 15.12.2019
6094 Clouds 4 988 93 10000 2.1 150 13:20 15.12.2019
6095 Clouds 4 988 93 10000 1.5 0 12:57 15.12.2019
6096 Clouds 5 988 93 10000 1.5 0 12:39 15.12.2019
6097 Clouds 5 988 100 10000 1.5 150 12:21 15.12.2019
6098 Rain 5 988 100 7000 1.5 0 11:59 15.12.2019
6099 Rain 4 988 100 7000 2.6 190 11:37 15.12.2019
6100 Rain 4 988 100 7000 2.6 190 11:19 15.12.2019
6101 Rain 5 989 93 10000 2.1 140 10:55 15.12.2019
6102 Rain 4 989 93 10000 2.1 140 10:37 15.12.2019
6103 Rain 4 988 100 10000 2.6 130 10:19 15.12.2019
6104 Rain 4 988 93 10000 2.6 110 09:41 15.12.2019
6105 Rain 4 988 100 10000 3.1 130 09:20 15.12.2019
6106 Rain 4 988 100 10000 2.6 130 08:59 15.12.2019
6107 Rain 4 988 100 10000 2.6 130 08:41 15.12.2019
6108 Rain 4 988 100 10000 2.6 110 08:22 15.12.2019
6109 Rain 4 988 100 10000 2.6 110 08:22 15.12.2019
6110 Rain 4 988 100 10000 2.6 130 07:56 15.12.2019
6111 Rain 4 988 100 10000 3.6 120 07:36 15.12.2019
6112 Rain 4 987 100 10000 3.1 130 06:56 15.12.2019
6113 Mist 4 987 100 10000 2.6 130 06:21 15.12.2019
6114 Rain 4 987 100 10000 2.1 120 05:37 15.12.2019
6115 Rain 4 987 100 10000 2.1 120 05:18 15.12.2019
6116 Rain 4 987 93 10000 2.1 120 03:54 15.12.2019
6117 Rain 4 987 93 10000 2.6 120 02:34 15.12.2019
6118 Rain 4 987 100 10000 2.6 130 01:50 15.12.2019
6119 Rain 4 987 93 10000 2.6 130 01:28 15.12.2019
6120 Rain 4 987 93 10000 3.1 140 00:59 15.12.2019
6121 Rain 4 987 93 10000 3.1 140 00:41 15.12.2019
6122 Drizzle 4 987 93 10000 2.6 130 00:23 15.12.2019
6123 Rain 4 987 93 10000 3.6 140 23:40 14.12.2019
6124 Drizzle 4 987 93 10000 4.6 140 23:40 14.12.2019
6125 Rain 4 987 93 10000 3.6 140 23:40 14.12.2019
6126 Drizzle 4 987 93 10000 4.6 140 23:21 14.12.2019
6127 Rain 4 987 93 10000 3.6 140 22:58 14.12.2019
6128 Rain 4 987 93 10000 3.6 140 22:58 14.12.2019
6129 Rain 4 987 93 10000 3.6 140 22:58 14.12.2019
6130 Rain 4 987 93 10000 3.6 140 22:40 14.12.2019
6131 Rain 4 986 93 9000 4.1 140 22:21 14.12.2019
6132 Rain 4 986 93 10000 3.1 130 21:56 14.12.2019
6133 Rain 4 986 93 10000 3.1 130 21:38 14.12.2019
6134 Rain 4 986 93 10000 3.1 130 21:19 14.12.2019
6135 Rain 4 986 93 10000 3.1 130 21:19 14.12.2019
6136 Rain 4 986 93 10000 3.6 130 20:56 14.12.2019
6137 Rain 4 986 93 10000 3.6 130 20:38 14.12.2019
6138 Rain 4 986 93 10000 4.1 140 20:19 14.12.2019
6139 Rain 4 986 93 10000 4.1 120 19:55 14.12.2019
6140 Rain 4 986 93 10000 4.1 110 19:36 14.12.2019
6141 Rain 4 986 93 10000 4.1 110 19:18 14.12.2019
6142 Rain 4 986 93 10000 4.6 120 18:55 14.12.2019
6143 Rain 4 986 93 10000 5.1 120 18:36 14.12.2019
6144 Rain 4 986 93 10000 5.1 120 18:18 14.12.2019
6145 Drizzle 4 986 93 10000 4.6 130 17:42 14.12.2019
6146 Rain 4 986 93 10000 4.6 130 17:22 14.12.2019
6147 Rain 4 986 93 10000 4.6 130 16:55 14.12.2019
6148 Rain 4 986 93 10000 4.6 130 16:37 14.12.2019
6149 Rain 4 986 93 9000 3.6 110 16:18 14.12.2019
6150 Rain 4 986 93 10000 4.1 110 15:41 14.12.2019
6151 Rain 4 986 93 10000 4.6 120 15:21 14.12.2019
6152 Rain 4 987 93 10000 5.1 120 14:58 14.12.2019
6153 Rain 4 987 93 10000 5.1 120 14:38 14.12.2019
6154 Rain 4 987 93 9000 4.6 120 14:19 14.12.2019
6155 Rain 4 987 93 8000 6.2 120 13:45 14.12.2019
6156 Rain 4 987 93 8000 6.2 120 13:20 14.12.2019
6157 Rain 4 987 86 10000 5.7 120 12:59 14.12.2019
6158 Clouds 4 987 86 10000 5.7 130 12:41 14.12.2019
6159 Clouds 4 987 86 10000 5.7 130 12:21 14.12.2019
6160 Clouds 4 987 86 10000 5.7 130 12:21 14.12.2019
6161 Clouds 4 987 86 10000 5.7 130 12:21 14.12.2019
6162 Clouds 4 987 86 10000 5.7 120 11:59 14.12.2019
6163 Clouds 4 987 86 10000 5.7 120 11:39 14.12.2019
6164 Clouds 4 987 93 8000 4.1 120 11:20 14.12.2019
6165 Clouds 4 988 93 10000 4.1 130 10:59 14.12.2019
6166 Clouds 4 988 93 10000 4.1 130 10:40 14.12.2019
6167 Rain 4 988 86 10000 6.7 140 10:22 14.12.2019
6168 Rain 4 988 93 10000 6.2 120 09:57 14.12.2019
6169 Rain 4 988 93 10000 6.2 120 09:39 14.12.2019
6170 Rain 4 988 100 10000 5.7 120 09:19 14.12.2019
6171 Rain 4 988 93 10000 2.6 110 08:43 14.12.2019
6172 Rain 4 988 93 7000 6.2 140 08:20 14.12.2019
6173 Rain 4 988 93 10000 5.1 120 07:44 14.12.2019
6174 Rain 4 988 93 10000 4.6 110 07:24 14.12.2019
6175 Rain 4 988 93 10000 4.6 130 06:57 14.12.2019
6176 Rain 4 988 100 8000 4.6 120 06:38 14.12.2019
6177 Rain 4 988 100 8000 4.6 120 06:18 14.12.2019
6178 Rain 3 989 100 9000 4.6 110 04:48 14.12.2019
6179 Rain 3 990 93 10000 5.7 120 02:41 14.12.2019
6180 Rain 3 990 93 10000 6.7 120 02:19 14.12.2019
6181 Rain 3 990 93 10000 5.7 120 01:37 14.12.2019
6182 Rain 3 991 100 6000 5.1 110 00:49 14.12.2019
6183 Drizzle 4 991 93 10000 6.2 110 00:28 14.12.2019
6184 Rain 4 991 93 10000 5.7 110 23:57 13.12.2019
6185 Rain 4 992 93 10000 6.7 120 23:37 13.12.2019
6186 Rain 4 992 93 10000 6.7 120 23:18 13.12.2019
6187 Drizzle 4 992 93 10000 5.7 120 22:41 13.12.2019
6188 Rain 4 992 93 7000 6.2 110 22:19 13.12.2019
6189 Rain 4 992 93 8000 5.1 120 21:56 13.12.2019
6190 Rain 4 992 93 8000 5.1 120 21:38 13.12.2019
6191 Rain 4 993 93 10000 5.7 120 21:20 13.12.2019
6192 Rain 4 993 93 10000 5.1 110 20:43 13.12.2019
6193 Rain 4 993 93 9000 6.2 110 20:24 13.12.2019
6194 Rain 4 993 93 9000 6.2 110 19:59 13.12.2019
6195 Rain 4 993 93 10000 5.1 110 19:41 13.12.2019
6196 Rain 4 993 93 10000 5.1 110 19:41 13.12.2019
6197 Rain 4 993 93 10000 5.1 110 19:23 13.12.2019
6198 Drizzle 4 994 93 10000 5.7 100 18:59 13.12.2019
6199 Drizzle 4 994 93 10000 3.6 100 18:41 13.12.2019
6200 Drizzle 4 994 93 10000 3.6 100 18:19 13.12.2019
6201 Drizzle 4 994 93 10000 3.6 100 17:57 13.12.2019
6202 Drizzle 4 994 93 10000 4.1 110 17:38 13.12.2019
6203 Drizzle 4 994 93 10000 4.1 110 17:18 13.12.2019
6204 Clouds 4 995 93 10000 5.1 110 16:54 13.12.2019
6205 Clouds 3 995 93 10000 5.1 120 16:36 13.12.2019
6206 Clouds 3 995 93 10000 5.1 120 16:18 13.12.2019
6207 Drizzle 4 995 93 10000 4.1 120 15:38 13.12.2019
6208 Drizzle 4 995 93 10000 4.1 120 15:20 13.12.2019
6209 Rain 4 995 86 10000 4.1 110 14:42 13.12.2019
6210 Clouds 4 995 86 10000 4.1 110 14:21 13.12.2019
6211 Clouds 4 995 86 10000 3.1 110 13:58 13.12.2019
6212 Clouds 4 995 86 10000 3.1 120 13:40 13.12.2019
6213 Clouds 4 995 86 10000 3.1 120 13:21 13.12.2019
6214 Clouds 4 996 86 10000 3.1 130 12:44 13.12.2019
6215 Clouds 4 996 86 10000 3.1 130 12:23 13.12.2019
6216 Clouds 4 996 93 10000 3.1 130 11:58 13.12.2019
6217 Clouds 4 996 93 10000 2.1 120 11:40 13.12.2019
6218 Clouds 4 996 93 10000 2.1 120 11:22 13.12.2019
6219 Clouds 4 996 86 10000 4.1 150 10:56 13.12.2019
6220 Clouds 4 996 86 10000 3.6 140 10:38 13.12.2019
6221 Clouds 4 996 86 10000 3.6 140 10:19 13.12.2019
6222 Clouds 3 996 93 10000 4.6 140 09:41 13.12.2019
6223 Clouds 3 996 93 10000 4.6 140 09:20 13.12.2019
6224 Clouds 3 996 93 10000 2.6 150 09:20 13.12.2019
6225 Clouds 3 996 93 10000 2.6 150 08:44 13.12.2019
6226 Clouds 3 996 93 10000 3.1 140 08:25 13.12.2019
6227 Clouds 3 996 93 10000 2.6 140 07:47 13.12.2019
6228 Clouds 3 996 100 10000 2.6 140 07:24 13.12.2019
6229 Clouds 2 996 93 10000 2.1 130 06:55 13.12.2019
6230 Clouds 2 996 93 10000 2.1 150 06:29 13.12.2019
6231 Clouds 2 996 93 10000 2.1 160 05:51 13.12.2019
6232 Clouds 2 996 93 10000 3.1 150 05:30 13.12.2019
6233 Clouds 2 995 100 10000 2.1 150 04:46 13.12.2019
6234 Clouds 1 995 90 10000 2.1 160 03:48 13.12.2019
6235 Clouds 3 995 93 10000 2.6 220 02:35 13.12.2019
6236 Clouds 3 995 93 10000 3.6 210 01:49 13.12.2019
6237 Clouds 3 995 93 10000 3.6 200 01:19 13.12.2019
6238 Clouds 3 995 93 10000 2.6 210 00:45 13.12.2019
6239 Clouds 3 995 93 10000 2.6 200 00:22 13.12.2019
6240 Clouds 3 995 93 10000 2.6 150 23:41 12.12.2019
6241 Snow 3 995 93 10000 2.6 150 23:22 12.12.2019
6242 Snow 3 995 93 10000 2.6 140 22:56 12.12.2019
6243 Clouds 3 995 93 10000 2.1 140 22:37 12.12.2019
6244 Clouds 2 995 93 10000 2.1 140 22:19 12.12.2019
6245 Clouds 2 995 93 10000 2.6 140 21:55 12.12.2019
6246 Clouds 2 995 93 10000 2.6 140 21:55 12.12.2019
6247 Clouds 2 995 93 10000 2.6 150 21:37 12.12.2019
6248 Clouds 2 995 93 10000 2.6 150 21:19 12.12.2019
6249 Clouds 3 995 93 10000 3.6 140 20:56 12.12.2019
6250 Clouds 3 995 93 10000 3.1 140 20:38 12.12.2019
6251 Clouds 3 995 93 10000 3.1 140 20:20 12.12.2019
6252 Clouds 3 996 100 9000 4.1 150 19:43 12.12.2019
6253 Clouds 3 996 100 9000 4.1 150 19:43 12.12.2019
6254 Clouds 3 996 100 9000 4.1 150 19:23 12.12.2019
6255 Mist 3 996 100 4500 3.6 160 18:58 12.12.2019
6256 Mist 3 996 100 8000 4.1 150 18:40 12.12.2019
6257 Mist 3 996 100 8000 4.1 150 18:21 12.12.2019
6258 Mist 3 996 100 8000 4.1 150 18:21 12.12.2019
6259 Clouds 3 996 100 10000 3.6 150 17:59 12.12.2019
6260 Drizzle 3 997 93 8000 4.6 150 17:40 12.12.2019
6261 Drizzle 3 997 93 8000 4.6 150 17:21 12.12.2019
6262 Clouds 3 997 93 10000 4.1 140 16:59 12.12.2019
6263 Clouds 3 997 93 10000 3.6 140 16:41 12.12.2019
6264 Clouds 3 997 93 10000 3.6 140 16:21 12.12.2019
6265 Drizzle 3 997 93 6000 4.6 150 15:58 12.12.2019
6266 Mist 3 997 93 6000 4.6 140 15:40 12.12.2019
6267 Mist 3 997 93 6000 4.6 140 15:19 12.12.2019
6268 Mist 3 997 93 6000 4.6 140 15:19 12.12.2019
6269 Drizzle 3 998 100 4000 4.6 150 14:57 12.12.2019
6270 Mist 3 998 100 5000 5.1 160 14:36 12.12.2019
6271 Mist 3 998 100 5000 5.1 160 14:18 12.12.2019
6272 Clouds 3 998 93 7000 4.1 160 13:54 12.12.2019
6273 Mist 4 998 93 3500 4.1 150 13:36 12.12.2019
6274 Mist 4 998 93 3500 4.1 150 13:18 12.12.2019
6275 Drizzle 4 999 93 5000 2.6 160 12:41 12.12.2019
6276 Drizzle 4 999 93 5000 2.6 160 12:22 12.12.2019
6277 Rain 4 999 93 5000 2.1 160 11:59 12.12.2019
6278 Rain 4 1000 100 7000 2.1 160 11:40 12.12.2019
6279 Rain 4 1000 100 7000 2.1 160 11:21 12.12.2019
6280 Drizzle 4 1000 100 8000 2.6 150 10:58 12.12.2019
6281 Drizzle 4 1000 100 10000 2.6 150 10:40 12.12.2019
6282 Drizzle 4 1000 100 10000 2.6 150 10:21 12.12.2019
6283 Drizzle 4 1000 100 10000 2.6 150 09:56 12.12.2019
6284 Rain 4 1000 100 10000 3.1 160 09:38 12.12.2019
6285 Rain 3 1000 100 10000 3.1 160 09:19 12.12.2019
6286 Rain 3 1000 100 10000 3.1 160 08:47 12.12.2019
6287 Rain 3 1000 100 10000 3.6 160 08:28 12.12.2019
6288 Drizzle 4 1000 100 10000 2.6 150 07:54 12.12.2019
6289 Rain 4 1000 93 10000 2.6 150 07:36 12.12.2019
6290 Rain 4 1000 93 10000 2.6 150 07:18 12.12.2019
6291 Rain 4 1001 93 10000 2.1 160 06:41 12.12.2019
6292 Rain 4 1001 93 10000 2.1 160 06:21 12.12.2019
6293 Rain 4 1001 93 10000 3.1 160 05:26 12.12.2019
6294 Drizzle 4 1002 100 10000 2.1 150 04:31 12.12.2019
6295 Rain 4 1002 100 10000 2.1 150 02:41 12.12.2019
6296 Rain 4 1002 100 10000 2.1 150 02:23 12.12.2019
6297 Rain 4 1002 100 10000 1.5 170 01:58 12.12.2019
6298 Drizzle 4 1003 93 10000 2.1 150 01:35 12.12.2019
6299 Rain 4 1003 93 10000 2.1 150 00:49 12.12.2019
6300 Drizzle 4 1003 93 10000 2.1 170 00:22 12.12.2019
6301 Clouds 4 1003 93 10000 2.6 180 23:58 11.12.2019
6302 Clouds 4 1003 93 10000 2.6 180 23:36 11.12.2019
6303 Clouds 4 1003 93 10000 2.6 180 23:18 11.12.2019
6304 Clouds 4 1004 93 10000 2.1 180 22:55 11.12.2019
6305 Clouds 4 1004 93 10000 2.6 180 22:37 11.12.2019
6306 Clouds 4 1004 93 10000 2.6 180 22:18 11.12.2019
6307 Clouds 4 1004 93 10000 2.6 190 21:54 11.12.2019
6308 Clouds 4 1004 86 10000 3.1 190 21:36 11.12.2019
6309 Clouds 4 1004 86 10000 3.1 190 21:18 11.12.2019
6310 Clouds 4 1004 86 10000 3.1 200 20:54 11.12.2019
6311 Clouds 4 1004 86 10000 3.1 210 20:36 11.12.2019
6312 Clouds 4 1004 86 10000 3.1 210 20:18 11.12.2019
6313 Clouds 4 1004 86 10000 3.6 210 19:41 11.12.2019
6314 Clouds 4 1004 86 10000 3.6 210 19:23 11.12.2019
6315 Clouds 4 1004 93 10000 3.6 210 18:59 11.12.2019
6316 Clouds 4 1004 93 10000 4.1 200 18:39 11.12.2019
6317 Clouds 4 1004 93 10000 4.1 200 18:19 11.12.2019
6318 Clouds 4 1004 93 10000 4.1 210 17:56 11.12.2019
6319 Clouds 4 1003 93 10000 3.1 200 17:37 11.12.2019
6320 Clouds 4 1003 93 10000 3.1 200 17:18 11.12.2019
6321 Clouds 4 1003 86 10000 3.1 180 16:55 11.12.2019
6322 Clouds 4 1003 86 10000 3.1 190 16:37 11.12.2019
6323 Clouds 4 1003 86 10000 3.1 190 16:18 11.12.2019
6324 Clouds 4 1003 93 10000 2.6 190 15:55 11.12.2019
6325 Clouds 4 1003 93 10000 3.6 190 15:36 11.12.2019
6326 Clouds 4 1003 93 10000 3.6 190 15:18 11.12.2019
6327 Clouds 4 1003 93 10000 2.6 210 14:54 11.12.2019
6328 Clouds 4 1003 86 10000 4.1 210 14:36 11.12.2019
6329 Clouds 4 1003 86 10000 4.1 210 14:18 11.12.2019
6330 Clouds 4 1002 86 10000 5.1 190 13:42 11.12.2019
6331 Clouds 4 1002 86 10000 5.1 190 13:42 11.12.2019
6332 Clouds 4 1002 86 10000 5.1 190 13:21 11.12.2019
6333 Clouds 4 1002 86 10000 5.7 190 12:57 11.12.2019
6334 Clouds 4 1002 86 10000 5.1 190 12:39 11.12.2019
6335 Clouds 4 1002 86 10000 5.1 190 12:21 11.12.2019
6336 Clouds 4 1002 86 10000 5.1 190 12:21 11.12.2019
6337 Rain 4 1002 86 9000 6.2 180 11:58 11.12.2019
6338 Rain 4 1002 86 10000 6.7 180 11:39 11.12.2019
6339 Rain 4 1002 86 10000 6.7 180 11:19 11.12.2019
6340 Rain 4 1002 86 10000 6.7 180 11:19 11.12.2019
6341 Rain 4 1002 86 10000 6.7 180 10:57 11.12.2019
6342 Drizzle 4 1002 86 10000 7.7 180 10:39 11.12.2019
6343 Drizzle 4 1002 86 10000 7.7 180 10:20 11.12.2019
6344 Rain 4 1002 86 10000 7.2 170 09:44 11.12.2019
6345 Rain 4 1002 86 10000 7.2 170 09:44 11.12.2019
6346 Rain 4 1002 86 10000 7.2 170 09:21 11.12.2019
6347 Clouds 4 1002 86 10000 7.7 170 08:58 11.12.2019
6348 Clouds 4 1002 93 10000 7.2 160 08:40 11.12.2019
6349 Rain 3 1002 93 10000 7.2 160 08:20 11.12.2019
6350 Drizzle 3 1002 93 10000 7.7 170 07:59 11.12.2019
6351 Rain 3 1003 86 10000 8.7 170 07:41 11.12.2019
6352 Rain 3 1003 86 10000 8.7 170 07:22 11.12.2019
6353 Rain 3 1004 86 9000 8.7 170 06:45 11.12.2019
6354 Rain 3 1004 86 9000 8.7 170 06:24 11.12.2019
6355 Rain 3 1004 80 10000 8.2 170 05:52 11.12.2019
6356 Rain 3 1004 80 10000 7.2 160 05:27 11.12.2019
6357 Clouds 3 1005 86 10000 6.2 160 04:47 11.12.2019
6358 Clouds 2 1008 74 10000 5.7 150 03:18 11.12.2019
6359 Clouds 1 1009 80 10000 5.1 150 01:56 11.12.2019
6360 Clouds 1 1010 86 10000 4.6 150 01:21 11.12.2019
6361 Clouds 1 1012 57 10000 4.1 150 00:37 11.12.2019
6362 Clouds 1 1012 57 10000 4.1 150 00:18 11.12.2019
6363 Clouds 0 1013 92 10000 3.6 150 23:43 10.12.2019
6364 Clouds 0 1013 92 10000 3.6 150 23:22 10.12.2019
6365 Clouds -1 1013 92 10000 3.1 150 22:42 10.12.2019
6366 Clouds -2 1013 92 10000 3.1 150 22:24 10.12.2019
6367 Clouds -2 1013 92 10000 3.1 150 22:24 10.12.2019
6368 Clouds -3 1014 92 10000 2.6 170 21:58 10.12.2019
6369 Clouds -3 1014 86 10000 3.1 160 21:39 10.12.2019
6370 Clouds -3 1014 86 10000 3.1 160 21:21 10.12.2019
6371 Clouds -3 1015 100 10000 2.1 150 20:59 10.12.2019
6372 Clouds -3 1015 100 10000 2.1 150 20:59 10.12.2019
6373 Clouds -4 1015 100 10000 2.1 150 20:38 10.12.2019
6374 Clouds -4 1015 100 10000 2.1 150 20:38 10.12.2019
6375 Clouds -4 1015 100 10000 2.1 150 20:38 10.12.2019
6376 Clouds -4 1015 100 10000 2.1 150 20:38 10.12.2019
6377 Clouds -4 1015 100 10000 2.1 150 20:38 10.12.2019
6378 Clouds -5 1015 100 10000 2.1 150 20:19 10.12.2019
6379 Clouds -5 1015 100 10000 2.1 150 20:19 10.12.2019
6380 Clouds -6 1015 100 10000 1.5 140 19:58 10.12.2019
6381 Clouds -6 1016 100 10000 2.1 180 19:40 10.12.2019
6382 Clouds -6 1016 100 10000 2.1 180 19:22 10.12.2019
6383 Clouds -6 1016 92 10000 1.5 0 18:56 10.12.2019
6384 Clouds -6 1016 92 10000 1.5 200 18:38 10.12.2019
6385 Clouds -6 1016 92 10000 1.5 200 18:18 10.12.2019
6386 Clouds -6 1016 100 10000 1.5 0 17:54 10.12.2019
6387 Clouds -6 1016 100 10000 1 0 17:36 10.12.2019
6388 Clouds -5 1016 100 10000 1 0 17:18 10.12.2019
6389 Clouds -5 1016 100 10000 1.46 265 16:41 10.12.2019
6390 Clouds -5 1016 100 10000 1.46 265 16:19 10.12.2019
6391 Clouds -4 1015 92 10000 1 0 15:40 10.12.2019
6392 Clouds -4 1015 92 10000 1 0 15:19 10.12.2019
6393 Clouds -4 1015 92 10000 1 0 14:57 10.12.2019
6394 Clouds -4 1014 92 10000 2.1 290 14:38 10.12.2019
6395 Clear -3 1014 92 10000 2.1 290 14:20 10.12.2019
6396 Clear -3 1014 86 10000 3.1 290 13:58 10.12.2019
6397 Clear -3 1013 86 10000 2.1 300 13:40 10.12.2019
6398 Clear -3 1013 86 10000 2.1 300 13:20 10.12.2019
6399 Clear -3 1013 92 10000 3.6 290 12:49 10.12.2019
6400 Clear -3 1013 92 10000 3.1 280 12:28 10.12.2019
6401 Clear -3 1012 92 10000 3.1 290 11:59 10.12.2019
6402 Clear -3 1012 86 10000 2.6 290 11:40 10.12.2019
6403 Clear -3 1012 86 10000 2.6 290 11:21 10.12.2019
6404 Clear -3 1012 92 10000 3.1 290 10:44 10.12.2019
6405 Clear -3 1012 86 10000 2.6 280 10:25 10.12.2019
6406 Clear -4 1011 92 10000 2.6 280 09:58 10.12.2019
6407 Clear -4 1010 92 10000 3.1 290 09:40 10.12.2019
6408 Clear -4 1010 92 10000 3.1 290 09:22 10.12.2019
6409 Clear -4 1010 92 10000 3.1 290 09:22 10.12.2019
6410 Clear -4 1009 92 10000 3.6 280 08:59 10.12.2019
6411 Clear -4 1009 92 10000 2.6 280 08:40 10.12.2019
6412 Clouds -4 1009 92 10000 2.6 280 08:22 10.12.2019
6413 Clouds -4 1008 92 10000 2.6 290 07:54 10.12.2019
6414 Clouds -4 1007 100 10000 2.6 290 07:36 10.12.2019
6415 Clouds -4 1007 100 10000 2.6 290 07:18 10.12.2019
6416 Clouds -4 1006 92 10000 3.6 290 06:42 10.12.2019
6417 Clouds -4 1006 92 10000 3.6 290 06:19 10.12.2019
6418 Clouds -3 1005 100 10000 3.1 300 05:51 10.12.2019
6419 Clouds -2 1004 92 10000 4.6 310 04:35 10.12.2019
6420 Clouds -2 1002 100 10000 4.6 320 03:31 10.12.2019
6421 Snow -1 1000 100 1800 4.6 330 02:36 10.12.2019
6422 Snow 0 998 100 900 3.6 330 01:42 10.12.2019
6423 Snow 0 998 100 900 3.6 330 01:19 10.12.2019
6424 Snow 0 996 83 1000 5.1 340 00:38 10.12.2019
6425 Snow 0 996 83 1000 5.1 340 00:18 10.12.2019
6426 Snow 0 994 83 3300 4.6 360 23:40 09.12.2019
6427 Snow 0 993 96 1500 5.1 350 23:22 09.12.2019
6428 Snow 0 993 96 1500 5.1 350 22:57 09.12.2019
6429 Snow 1 993 96 2100 5.1 350 22:39 09.12.2019
6430 Snow 1 993 96 2100 5.1 350 22:18 09.12.2019
6431 Snow 1 992 96 4000 3.6 350 21:56 09.12.2019
6432 Snow 0 991 96 4000 4.1 10 21:38 09.12.2019
6433 Snow 1 991 96 4000 4.1 10 21:18 09.12.2019
6434 Snow 1 990 96 6000 4.1 10 20:56 09.12.2019
6435 Clouds 1 989 96 6000 5.1 10 20:37 09.12.2019
6436 Clouds 2 989 93 6000 5.1 10 20:19 09.12.2019
6437 Clouds 3 988 93 10000 5.1 340 19:55 09.12.2019
6438 Clouds 4 987 81 10000 2.6 210 19:37 09.12.2019
6439 Clouds 4 987 81 10000 2.6 210 19:19 09.12.2019
6440 Clouds 4 987 86 10000 2.6 210 18:55 09.12.2019
6441 Clouds 4 987 81 10000 3.6 210 18:36 09.12.2019
6442 Clouds 4 987 81 10000 3.6 210 18:18 09.12.2019
6443 Clouds 4 986 81 10000 3.1 210 17:56 09.12.2019
6444 Clouds 5 986 81 10000 2.6 190 17:37 09.12.2019
6445 Clouds 5 986 81 10000 2.6 190 17:19 09.12.2019
6446 Clouds 5 986 81 10000 3.6 200 16:55 09.12.2019
6447 Clouds 5 985 81 10000 3.6 210 16:36 09.12.2019
6448 Clouds 6 985 81 10000 3.6 210 16:18 09.12.2019
6449 Clouds 6 985 81 10000 4.6 210 15:55 09.12.2019
6450 Clouds 6 984 81 10000 4.6 210 15:36 09.12.2019
6451 Clouds 6 984 81 10000 4.6 210 15:36 09.12.2019
6452 Clouds 6 984 81 10000 4.6 210 15:18 09.12.2019
6453 Clouds 6 984 75 10000 5.1 220 14:42 09.12.2019
6454 Clouds 6 984 75 10000 5.1 220 14:42 09.12.2019
6455 Clouds 6 984 75 10000 5.1 220 14:19 09.12.2019
6456 Clouds 6 984 75 10000 5.1 220 14:19 09.12.2019
6457 Clouds 6 983 75 10000 5.7 210 13:57 09.12.2019
6458 Clouds 7 983 75 10000 5.1 210 13:38 09.12.2019
6459 Clouds 7 983 75 10000 5.1 210 13:38 09.12.2019
6460 Clouds 7 983 75 10000 4.1 210 13:19 09.12.2019
6461 Clouds 7 983 75 10000 5.1 210 13:19 09.12.2019
6462 Clouds 7 983 75 10000 4.1 210 12:56 09.12.2019
6463 Clouds 7 982 75 10000 4.6 210 12:37 09.12.2019
6464 Clouds 7 982 75 10000 4.6 210 12:19 09.12.2019
6465 Clouds 7 982 75 10000 5.1 210 11:55 09.12.2019
6466 Clouds 6 982 75 10000 4.6 220 11:37 09.12.2019
6467 Clouds 7 982 75 10000 4.6 220 11:18 09.12.2019
6468 Clouds 7 982 75 10000 4.6 220 11:18 09.12.2019
6469 Clouds 6 981 81 10000 5.1 210 10:40 09.12.2019
6470 Clouds 6 981 81 10000 4.6 210 10:20 09.12.2019
6471 Clouds 6 981 81 10000 4.6 210 09:58 09.12.2019
6472 Clouds 6 980 81 10000 5.1 220 09:40 09.12.2019
6473 Clouds 6 980 81 10000 5.1 220 09:21 09.12.2019
6474 Clouds 6 979 81 10000 5.1 210 08:43 09.12.2019
6475 Clouds 6 979 81 10000 5.1 210 08:25 09.12.2019
6476 Clouds 6 979 81 10000 5.1 210 07:56 09.12.2019
6477 Clouds 6 978 75 10000 5.1 220 07:37 09.12.2019
6478 Clouds 6 978 75 10000 5.1 220 07:19 09.12.2019
6479 Clouds 6 978 75 10000 6.2 220 06:43 09.12.2019
6480 Clouds 6 978 75 10000 6.2 220 06:24 09.12.2019
6481 Clouds 6 977 81 10000 5.1 230 05:26 09.12.2019
6482 Clouds 6 977 81 10000 5.7 230 04:33 09.12.2019
6483 Clouds 6 976 81 10000 6.7 220 03:19 09.12.2019
6484 Clouds 6 976 81 10000 6.7 220 03:19 09.12.2019
6485 Clear 6 976 81 10000 5.7 220 02:19 09.12.2019
6486 Clear 6 975 81 10000 5.7 220 01:41 09.12.2019
6487 Clouds 6 975 81 10000 5.7 220 00:45 09.12.2019
6488 Clouds 6 975 81 10000 6.7 220 00:25 09.12.2019
6489 Clouds 6 975 87 10000 7.7 220 23:40 08.12.2019
6490 Clouds 6 975 87 10000 7.7 220 23:22 08.12.2019
6491 Clouds 6 975 87 10000 6.7 220 22:57 08.12.2019
6492 Clouds 6 974 87 10000 6.7 230 22:38 08.12.2019
6493 Clouds 6 974 87 10000 6.7 230 22:19 08.12.2019
6494 Clouds 6 974 81 10000 6.7 230 21:58 08.12.2019
6495 Clouds 7 974 81 10000 6.2 230 21:40 08.12.2019
6496 Clouds 7 974 81 10000 6.2 230 21:19 08.12.2019
6497 Clouds 7 974 87 10000 7.2 230 20:57 08.12.2019
6498 Clouds 7 974 87 10000 7.2 220 20:38 08.12.2019
6499 Clouds 7 974 87 10000 7.2 220 20:38 08.12.2019
6500 Clouds 7 974 87 10000 7.2 220 20:20 08.12.2019
6501 Drizzle 7 974 93 10000 6.2 220 19:57 08.12.2019
6502 Rain 7 974 93 10000 6.2 210 19:39 08.12.2019
6503 Rain 7 974 93 10000 6.2 210 19:21 08.12.2019
6504 Drizzle 7 974 93 8000 6.7 200 18:55 08.12.2019
6505 Clouds 7 974 93 10000 6.7 200 18:37 08.12.2019
6506 Clouds 7 974 93 10000 6.7 200 18:37 08.12.2019
6507 Clouds 7 974 93 10000 6.7 200 18:18 08.12.2019
6508 Clouds 7 974 93 10000 5.7 190 17:56 08.12.2019
6509 Clouds 7 974 93 10000 5.7 190 17:56 08.12.2019
6510 Rain 6 974 100 8000 6.2 190 17:38 08.12.2019
6511 Rain 6 974 100 8000 6.2 190 17:19 08.12.2019
6512 Clouds 6 974 93 10000 5.7 190 16:56 08.12.2019
6513 Clouds 6 975 93 10000 5.7 200 16:38 08.12.2019
6514 Clouds 6 975 93 10000 5.7 200 16:20 08.12.2019
6515 Rain 6 976 93 10000 5.1 180 15:54 08.12.2019
6516 Drizzle 5 977 93 10000 5.1 180 15:36 08.12.2019
6517 Drizzle 5 977 93 10000 5.1 180 15:18 08.12.2019
6518 Rain 4 979 100 8000 4.1 150 14:40 08.12.2019
6519 Rain 4 979 100 8000 4.1 150 14:40 08.12.2019
6520 Rain 4 979 100 8000 4.1 150 14:22 08.12.2019
6521 Rain 3 980 100 9000 4.1 140 13:57 08.12.2019
6522 Rain 3 981 93 9000 5.1 140 13:38 08.12.2019
6523 Rain 3 981 93 9000 5.1 140 13:20 08.12.2019
6524 Rain 2 982 100 8000 4.6 140 12:54 08.12.2019
6525 Rain 2 984 93 8000 4.1 140 12:36 08.12.2019
6526 Rain 2 984 93 8000 4.1 140 12:18 08.12.2019
6527 Drizzle 2 986 100 7000 3.1 160 11:39 08.12.2019
6528 Drizzle 2 986 100 7000 3.1 160 11:21 08.12.2019
6529 Drizzle 1 987 81 10000 3.1 170 10:59 08.12.2019
6530 Clouds 1 988 81 10000 3.1 180 10:38 08.12.2019
6531 Clouds 1 988 81 10000 3.1 180 10:20 08.12.2019
6532 Clouds 0 989 81 10000 2.6 190 09:57 08.12.2019
6533 Clouds 0 990 81 10000 2.1 200 09:39 08.12.2019
6534 Clouds 0 990 81 10000 2.1 200 09:20 08.12.2019
6535 Clouds 0 990 81 10000 3.1 210 08:58 08.12.2019
6536 Clouds 0 990 81 10000 3.1 210 08:38 08.12.2019
6537 Clouds 0 990 78 10000 3.1 210 08:19 08.12.2019
6538 Clouds -1 991 100 10000 2.6 210 07:44 08.12.2019
6539 Clouds -1 991 100 10000 2.6 210 07:20 08.12.2019
6540 Clouds -1 992 100 10000 2.1 220 06:51 08.12.2019
6541 Clouds -1 992 100 10000 2.1 210 06:22 08.12.2019
6542 Clouds -1 992 100 10000 2.1 210 05:49 08.12.2019
6543 Clear -1 993 100 10000 2.6 230 05:18 08.12.2019
6544 Clear 0 993 83 10000 3.6 260 03:51 08.12.2019
6545 Clear 0 993 83 10000 4.1 240 03:26 08.12.2019
6546 Clear -1 993 83 10000 4.6 260 02:39 08.12.2019
6547 Clouds 0 993 82 10000 4.6 260 01:56 08.12.2019
6548 Clouds 0 993 84 10000 4.1 260 01:27 08.12.2019
6549 Clouds 0 993 84 10000 4.1 260 01:27 08.12.2019
6550 Clouds 0 993 84 10000 3.6 250 00:40 08.12.2019
6551 Clouds 0 993 84 10000 3.6 250 00:21 08.12.2019
6552 Clouds 1 992 84 10000 4.6 270 23:42 07.12.2019
6553 Clouds 1 992 83 10000 4.6 270 23:21 07.12.2019
6554 Clouds 1 992 83 10000 5.1 270 22:58 07.12.2019
6555 Clouds 1 992 83 10000 4.6 260 22:40 07.12.2019
6556 Clouds 1 992 83 10000 4.6 260 22:22 07.12.2019
6557 Clouds 1 991 83 10000 5.1 270 21:56 07.12.2019
6558 Clouds 1 991 83 10000 5.1 260 21:38 07.12.2019
6559 Clouds 1 991 83 10000 5.1 260 21:38 07.12.2019
6560 Clouds 1 991 100 10000 4.6 260 21:20 07.12.2019
6561 Clouds 1 991 100 10000 4.6 260 20:59 07.12.2019
6562 Clouds 1 990 83 10000 6.2 280 20:37 07.12.2019
6563 Snow 1 990 86 10000 6.2 280 20:19 07.12.2019
6564 Snow 1 989 93 10000 6.7 280 19:56 07.12.2019
6565 Snow 2 989 93 10000 7.2 280 19:38 07.12.2019
6566 Snow 2 989 93 10000 7.2 280 19:20 07.12.2019
6567 Snow 2 988 93 10000 5.7 290 18:44 07.12.2019
6568 Rain 2 988 100 10000 5.7 290 18:21 07.12.2019
6569 Rain 2 988 100 10000 6.7 290 17:59 07.12.2019
6570 Rain 2 987 100 4500 6.2 280 17:41 07.12.2019
6571 Rain 2 987 100 4500 6.2 280 17:23 07.12.2019
6572 Rain 2 987 100 7000 5.1 280 16:58 07.12.2019
6573 Drizzle 2 986 93 8000 5.1 300 16:39 07.12.2019
6574 Drizzle 2 986 93 8000 5.1 300 16:20 07.12.2019
6575 Drizzle 3 986 93 6000 3.6 290 15:57 07.12.2019
6576 Drizzle 3 985 93 4000 5.7 300 15:38 07.12.2019
6577 Clouds 3 985 93 10000 5.1 300 15:20 07.12.2019
6578 Clouds 3 985 93 10000 5.1 300 14:42 07.12.2019
6579 Clouds 3 984 93 10000 6.2 290 14:19 07.12.2019
6580 Clouds 3 984 100 10000 5.7 280 13:56 07.12.2019
6581 Clouds 3 984 100 10000 5.7 280 13:56 07.12.2019
6582 Mist 3 984 100 5000 6.2 280 13:37 07.12.2019
6583 Mist 3 984 100 5000 6.2 280 13:19 07.12.2019
6584 Clouds 4 983 93 10000 7.7 260 12:41 07.12.2019
6585 Clouds 5 983 93 10000 7.7 260 12:23 07.12.2019
6586 Clouds 5 983 87 10000 7.7 260 11:59 07.12.2019
6587 Clouds 6 982 93 10000 5.7 230 11:41 07.12.2019
6588 Clouds 7 982 93 10000 5.7 230 11:22 07.12.2019
6589 Clouds 7 982 93 10000 4.6 210 10:39 07.12.2019
6590 Clouds 7 982 93 10000 4.6 210 10:20 07.12.2019
6591 Drizzle 7 983 93 10000 4.1 200 09:59 07.12.2019
6592 Clouds 7 983 93 10000 4.1 190 09:38 07.12.2019
6593 Clouds 7 983 93 10000 4.1 190 09:38 07.12.2019
6594 Clouds 7 983 93 10000 4.1 190 09:20 07.12.2019
6595 Clouds 7 983 93 10000 2.6 190 08:45 07.12.2019
6596 Rain 7 983 93 10000 2.6 200 08:21 07.12.2019
6597 Rain 6 983 93 10000 3.6 210 07:47 07.12.2019
6598 Rain 6 983 93 10000 3.1 190 07:28 07.12.2019
6599 Rain 7 984 93 10000 3.1 200 06:52 07.12.2019
6600 Rain 7 984 93 10000 3.1 210 06:26 07.12.2019
6601 Rain 7 985 100 10000 4.1 210 05:47 07.12.2019
6602 Rain 7 985 100 10000 4.1 210 04:43 07.12.2019
6603 Rain 7 986 100 10000 2.6 200 03:50 07.12.2019
6604 Rain 7 987 100 7000 2.6 160 02:22 07.12.2019
6605 Rain 7 988 93 10000 2.6 150 01:41 07.12.2019
6606 Rain 7 988 93 10000 2.6 150 01:22 07.12.2019
6607 Drizzle 6 989 100 10000 2.1 150 00:21 07.12.2019
6608 Rain 6 989 100 10000 1.5 160 23:59 06.12.2019
6609 Rain 6 990 100 10000 2.1 170 23:40 06.12.2019
6610 Rain 6 990 100 10000 2.1 170 23:20 06.12.2019
6611 Drizzle 6 990 93 10000 2.6 200 22:39 06.12.2019
6612 Drizzle 6 990 93 10000 2.6 200 22:21 06.12.2019
6613 Rain 6 990 93 10000 3.6 210 21:59 06.12.2019
6614 Clouds 6 990 93 10000 3.1 210 21:41 06.12.2019
6615 Clouds 6 990 93 10000 3.1 210 21:21 06.12.2019
6616 Clouds 6 990 93 10000 2.6 200 20:56 06.12.2019
6617 Clouds 6 990 93 10000 2.6 220 20:38 06.12.2019
6618 Clouds 6 990 93 10000 2.6 220 20:19 06.12.2019
6619 Clouds 6 990 93 10000 2.6 230 19:42 06.12.2019
6620 Clouds 6 990 93 10000 2.6 230 19:42 06.12.2019
6621 Clouds 6 990 93 10000 2.6 230 19:24 06.12.2019
6622 Clouds 6 990 93 10000 2.6 230 19:24 06.12.2019
6623 Clouds 6 990 93 10000 3.1 240 18:59 06.12.2019
6624 Clouds 6 990 93 10000 3.6 230 18:40 06.12.2019
6625 Clouds 6 990 93 10000 3.6 230 18:21 06.12.2019
6626 Clouds 6 990 93 10000 3.6 230 18:21 06.12.2019
6627 Clouds 6 990 87 10000 4.6 240 17:58 06.12.2019
6628 Clouds 6 989 87 10000 5.1 240 17:40 06.12.2019
6629 Clouds 6 989 87 10000 5.1 240 17:21 06.12.2019
6630 Clouds 6 989 87 10000 5.7 240 16:57 06.12.2019
6631 Clouds 7 989 87 10000 6.7 250 16:37 06.12.2019
6632 Clouds 7 989 87 10000 6.7 250 16:19 06.12.2019
6633 Clouds 7 988 87 10000 5.7 250 15:41 06.12.2019
6634 Clouds 7 988 87 10000 5.7 250 15:22 06.12.2019
6635 Clouds 7 987 87 10000 5.7 240 14:58 06.12.2019
6636 Clouds 7 987 93 10000 3.6 250 14:40 06.12.2019
6637 Clouds 7 987 93 10000 3.6 250 14:20 06.12.2019
6638 Clouds 6 987 100 10000 3.6 250 13:46 06.12.2019
6639 Clouds 6 987 100 10000 3.1 240 13:26 06.12.2019
6640 Clouds 6 986 100 10000 4.6 250 12:57 06.12.2019
6641 Clouds 6 986 100 8000 4.1 240 12:39 06.12.2019
6642 Clouds 6 986 100 8000 4.1 240 12:20 06.12.2019
6643 Clouds 6 985 93 10000 5.1 230 11:42 06.12.2019
6644 Clouds 6 985 93 10000 5.1 230 11:23 06.12.2019
6645 Clouds 5 985 100 10000 4.6 220 10:56 06.12.2019
6646 Drizzle 5 985 93 7000 4.1 210 10:38 06.12.2019
6647 Drizzle 5 985 93 7000 4.1 210 10:20 06.12.2019
6648 Clouds 5 985 93 10000 4.6 210 09:55 06.12.2019
6649 Rain 5 985 100 10000 4.6 200 09:36 06.12.2019
6650 Rain 5 985 100 10000 4.6 200 09:18 06.12.2019
6651 Rain 5 985 100 10000 4.6 190 08:42 06.12.2019
6652 Rain 5 985 100 10000 4.6 190 08:24 06.12.2019
6653 Rain 5 986 93 8000 4.6 200 07:42 06.12.2019
6654 Rain 5 986 93 10000 4.6 200 07:22 06.12.2019
6655 Rain 5 986 93 10000 4.6 200 06:48 06.12.2019
6656 Rain 5 987 93 10000 5.1 190 06:25 06.12.2019
6657 Rain 5 987 93 10000 4.6 200 05:48 06.12.2019
6658 Drizzle 6 991 87 10000 5.7 210 02:51 06.12.2019
6659 Drizzle 6 992 87 10000 5.1 220 01:45 06.12.2019
6660 Clouds 7 993 75 10000 5.1 220 00:51 06.12.2019
6661 Clouds 7 993 75 10000 4.6 220 00:23 06.12.2019
6662 Clouds 7 994 75 10000 5.1 230 23:51 05.12.2019
6663 Clouds 7 994 75 10000 5.1 220 23:21 05.12.2019
6664 Clouds 7 995 75 10000 5.1 230 22:58 05.12.2019
6665 Clouds 7 995 75 10000 6.7 230 22:39 05.12.2019
6666 Clouds 7 995 75 10000 6.7 230 22:20 05.12.2019
6667 Clouds 7 995 75 10000 5.7 220 21:58 05.12.2019
6668 Clouds 7 995 75 10000 6.2 220 21:40 05.12.2019
6669 Clouds 7 995 75 10000 6.2 220 21:21 05.12.2019
6670 Clouds 7 995 75 10000 7.7 230 20:57 05.12.2019
6671 Clouds 7 996 75 10000 7.2 230 20:38 05.12.2019
6672 Clouds 7 995 75 10000 7.7 230 20:38 05.12.2019
6673 Clouds 7 996 75 10000 7.2 230 20:19 05.12.2019
6674 Clouds 7 996 75 10000 7.2 220 19:43 05.12.2019
6675 Clouds 7 996 75 10000 7.2 220 19:25 05.12.2019
6676 Clouds 7 996 70 10000 7.7 230 18:59 05.12.2019
6677 Clouds 7 996 70 10000 7.7 230 18:39 05.12.2019
6678 Clouds 6 996 70 10000 7.2 230 18:20 05.12.2019
6679 Clouds 7 997 70 10000 6.7 220 17:56 05.12.2019
6680 Clouds 7 997 70 10000 6.7 220 17:37 05.12.2019
6681 Clouds 7 997 70 10000 6.7 230 17:18 05.12.2019
6682 Clouds 7 997 70 10000 6.2 230 16:40 05.12.2019
6683 Clouds 7 997 70 10000 6.2 220 16:22 05.12.2019
6684 Clouds 7 998 70 10000 7.2 230 15:59 05.12.2019
6685 Clouds 7 998 70 10000 7.2 230 15:40 05.12.2019
6686 Clouds 7 998 65 10000 7.7 230 15:21 05.12.2019
6687 Clouds 7 999 70 10000 7.2 230 14:57 05.12.2019
6688 Clouds 7 999 70 10000 7.2 230 14:38 05.12.2019
6689 Clouds 7 999 70 10000 7.2 230 14:20 05.12.2019
6690 Clouds 7 999 70 10000 7.7 230 13:58 05.12.2019
6691 Clouds 7 999 70 10000 7.7 230 13:40 05.12.2019
6692 Clouds 7 999 70 10000 7.7 230 13:40 05.12.2019
6693 Clouds 7 1000 75 10000 6.7 240 13:21 05.12.2019
6694 Clouds 7 1000 75 10000 6.7 230 12:59 05.12.2019
6695 Clouds 7 1000 75 10000 6.7 230 12:40 05.12.2019
6696 Clouds 7 1001 75 10000 7.2 220 12:22 05.12.2019
6697 Clouds 7 1001 81 10000 6.2 230 11:55 05.12.2019
6698 Clouds 7 1001 81 10000 6.2 230 11:36 05.12.2019
6699 Clouds 7 1001 81 10000 6.7 230 11:18 05.12.2019
6700 Clouds 7 1002 81 10000 5.7 220 10:54 05.12.2019
6701 Clouds 7 1002 81 10000 5.7 220 10:36 05.12.2019
6702 Clouds 7 1002 81 10000 5.1 220 10:18 05.12.2019
6703 Clouds 7 1002 81 10000 4.6 220 09:42 05.12.2019
6704 Clouds 6 1002 87 10000 4.6 210 09:20 05.12.2019
6705 Clouds 6 1002 87 10000 5.1 210 08:57 05.12.2019
6706 Clouds 6 1002 87 10000 5.1 210 08:37 05.12.2019
6707 Clouds 6 1003 87 10000 4.6 220 08:19 05.12.2019
6708 Clouds 6 1003 87 10000 4.6 220 07:49 05.12.2019
6709 Clouds 6 1003 86 10000 4.1 220 07:31 05.12.2019
6710 Clouds 6 1003 86 10000 5.1 220 06:56 05.12.2019
6711 Clouds 5 1003 86 10000 5.1 220 06:37 05.12.2019
6712 Clouds 5 1004 86 10000 5.1 210 06:18 05.1